<?xml version="1.0" encoding="UTF-8" standalone="no" ?>
<gpx xmlns="http://www.topografix.com/GPX/1/1" xmlns:xsi="http://www.w3.org/2001/XMLSchema-instance" xsi:schemaLocation="http://www.topografix.com/GPX/1/1 http://www.topografix.com/GPX/1/1/gpx.xsd" version="1.1" creator="VisuGPX - https://www.visugpx.com">
  <metadata>
    <name>2016-11-30 Bike ride-Chatillon</name>
    <desc><![CDATA[2016-11-30 Bike ride-Chatillon]]></desc>
  </metadata>
  <wpt lat="45.92177" lon="4.73688">
    <ele>171</ele>
    <name><![CDATA[2016-11-30 14:55 (Start)]]></name>
  </wpt>
  <wpt lat="45.93408" lon="4.72407">
    <ele>174</ele>
    <name><![CDATA[2016-11-30 14:55 (End)]]></name>
    <desc><![CDATA[Created by Google My Tracks on Android  Name: 2016-11-30 14:55 Activity type: - Description: - Total distance: 28.79 km (17.9 mi) Total time: 1:33:43 Moving time: 1:31:05 Average speed: 18.43 km/h (11.5 mi/h) Average moving speed: 18.96 km/h (11.8 mi/h) Max speed: 51.23 km/h (31.8 mi/h) Average pace: 3:15 min/km (5:14 min/mi) Average moving pace: 3:10 min/km (5:06 min/mi) Fastest pace: 1:10 min/km (1:53 min/mi) Max elevation: 467 m (1533 ft) Min elevation: 147 m (481 ft) Elevation gain: 902 m (2958 ft) Max grade: 24 % Min grade: -32 % Recorded: 30/11/2016 14:55]]></desc>
  </wpt>
  <trk>
    <name><![CDATA[2016-11-30 14:55]]></name>
    <trkseg>
      <trkpt lat="45.92177" lon="4.73688">
        <ele>171</ele>
        <time>2016-11-30T13:55:48.318Z</time>
      </trkpt>
      <trkpt lat="45.92214" lon="4.73674">
        <ele>171</ele>
        <time>2016-11-30T13:57:57Z</time>
      </trkpt>
      <trkpt lat="45.92211" lon="4.73679">
        <ele>171</ele>
        <time>2016-11-30T13:58:00Z</time>
      </trkpt>
      <trkpt lat="45.92205" lon="4.73683">
        <ele>171</ele>
        <time>2016-11-30T13:58:01Z</time>
      </trkpt>
      <trkpt lat="45.92199" lon="4.73686">
        <ele>171</ele>
        <time>2016-11-30T13:58:02Z</time>
      </trkpt>
      <trkpt lat="45.92193" lon="4.7369">
        <ele>171</ele>
        <time>2016-11-30T13:58:03Z</time>
      </trkpt>
      <trkpt lat="45.92186" lon="4.73693">
        <ele>171</ele>
        <time>2016-11-30T13:58:04Z</time>
      </trkpt>
      <trkpt lat="45.92179" lon="4.73696">
        <ele>171</ele>
        <time>2016-11-30T13:58:05Z</time>
      </trkpt>
      <trkpt lat="45.92174" lon="4.73699">
        <ele>171</ele>
        <time>2016-11-30T13:58:06Z</time>
      </trkpt>
      <trkpt lat="45.92168" lon="4.73702">
        <ele>171</ele>
        <time>2016-11-30T13:58:07Z</time>
      </trkpt>
      <trkpt lat="45.92161" lon="4.73704">
        <ele>171</ele>
        <time>2016-11-30T13:58:08Z</time>
      </trkpt>
      <trkpt lat="45.92155" lon="4.73706">
        <ele>171</ele>
        <time>2016-11-30T13:58:09Z</time>
      </trkpt>
      <trkpt lat="45.92149" lon="4.73708">
        <ele>171</ele>
        <time>2016-11-30T13:58:10Z</time>
      </trkpt>
      <trkpt lat="45.92143" lon="4.73711">
        <ele>171</ele>
        <time>2016-11-30T13:58:11Z</time>
      </trkpt>
      <trkpt lat="45.92137" lon="4.73714">
        <ele>171</ele>
        <time>2016-11-30T13:58:12Z</time>
      </trkpt>
      <trkpt lat="45.92131" lon="4.73716">
        <ele>171</ele>
        <time>2016-11-30T13:58:13Z</time>
      </trkpt>
      <trkpt lat="45.92125" lon="4.73717">
        <ele>171</ele>
        <time>2016-11-30T13:58:14Z</time>
      </trkpt>
      <trkpt lat="45.92119" lon="4.73719">
        <ele>171</ele>
        <time>2016-11-30T13:58:15Z</time>
      </trkpt>
      <trkpt lat="45.92114" lon="4.73721">
        <ele>171</ele>
        <time>2016-11-30T13:58:16Z</time>
      </trkpt>
      <trkpt lat="45.92108" lon="4.73723">
        <ele>171</ele>
        <time>2016-11-30T13:58:17Z</time>
      </trkpt>
      <trkpt lat="45.92101" lon="4.73724">
        <ele>171</ele>
        <time>2016-11-30T13:58:18Z</time>
      </trkpt>
      <trkpt lat="45.92094" lon="4.73724">
        <ele>171</ele>
        <time>2016-11-30T13:58:19Z</time>
      </trkpt>
      <trkpt lat="45.92087" lon="4.73725">
        <ele>171</ele>
        <time>2016-11-30T13:58:20Z</time>
      </trkpt>
      <trkpt lat="45.92081" lon="4.73725">
        <ele>171</ele>
        <time>2016-11-30T13:58:21Z</time>
      </trkpt>
      <trkpt lat="45.92074" lon="4.73726">
        <ele>171</ele>
        <time>2016-11-30T13:58:22Z</time>
      </trkpt>
      <trkpt lat="45.92068" lon="4.73727">
        <ele>171</ele>
        <time>2016-11-30T13:58:23Z</time>
      </trkpt>
      <trkpt lat="45.92062" lon="4.73726">
        <ele>171</ele>
        <time>2016-11-30T13:58:24Z</time>
      </trkpt>
      <trkpt lat="45.92056" lon="4.73727">
        <ele>171</ele>
        <time>2016-11-30T13:58:25Z</time>
      </trkpt>
      <trkpt lat="45.9205" lon="4.73727">
        <ele>171</ele>
        <time>2016-11-30T13:58:26Z</time>
      </trkpt>
      <trkpt lat="45.92044" lon="4.73727">
        <ele>171</ele>
        <time>2016-11-30T13:58:27Z</time>
      </trkpt>
      <trkpt lat="45.92038" lon="4.73727">
        <ele>171</ele>
        <time>2016-11-30T13:58:28Z</time>
      </trkpt>
      <trkpt lat="45.9203" lon="4.73726">
        <ele>171</ele>
        <time>2016-11-30T13:58:29Z</time>
      </trkpt>
      <trkpt lat="45.92024" lon="4.73725">
        <ele>171</ele>
        <time>2016-11-30T13:58:30Z</time>
      </trkpt>
      <trkpt lat="45.92016" lon="4.73725">
        <ele>171</ele>
        <time>2016-11-30T13:58:31Z</time>
      </trkpt>
      <trkpt lat="45.92009" lon="4.73726">
        <ele>171</ele>
        <time>2016-11-30T13:58:32Z</time>
      </trkpt>
      <trkpt lat="45.92003" lon="4.73726">
        <ele>171</ele>
        <time>2016-11-30T13:58:33Z</time>
      </trkpt>
      <trkpt lat="45.91996" lon="4.73724">
        <ele>171</ele>
        <time>2016-11-30T13:58:34Z</time>
      </trkpt>
      <trkpt lat="45.91989" lon="4.73725">
        <ele>171</ele>
        <time>2016-11-30T13:58:35Z</time>
      </trkpt>
      <trkpt lat="45.91986" lon="4.73722">
        <ele>171</ele>
        <time>2016-11-30T13:58:36Z</time>
      </trkpt>
      <trkpt lat="45.91975" lon="4.73724">
        <ele>171</ele>
        <time>2016-11-30T13:58:37Z</time>
      </trkpt>
      <trkpt lat="45.91965" lon="4.73724">
        <ele>171</ele>
        <time>2016-11-30T13:58:38Z</time>
      </trkpt>
      <trkpt lat="45.91959" lon="4.73725">
        <ele>171</ele>
        <time>2016-11-30T13:58:39Z</time>
      </trkpt>
      <trkpt lat="45.91953" lon="4.73725">
        <ele>170</ele>
        <time>2016-11-30T13:58:40Z</time>
      </trkpt>
      <trkpt lat="45.91946" lon="4.73726">
        <ele>170</ele>
        <time>2016-11-30T13:58:41Z</time>
      </trkpt>
      <trkpt lat="45.91939" lon="4.73726">
        <ele>170</ele>
        <time>2016-11-30T13:58:42Z</time>
      </trkpt>
      <trkpt lat="45.91933" lon="4.73727">
        <ele>170</ele>
        <time>2016-11-30T13:58:43Z</time>
      </trkpt>
      <trkpt lat="45.91925" lon="4.73727">
        <ele>170</ele>
        <time>2016-11-30T13:58:44Z</time>
      </trkpt>
      <trkpt lat="45.91919" lon="4.73727">
        <ele>170</ele>
        <time>2016-11-30T13:58:45Z</time>
      </trkpt>
      <trkpt lat="45.91913" lon="4.73728">
        <ele>171</ele>
        <time>2016-11-30T13:58:46Z</time>
      </trkpt>
      <trkpt lat="45.91907" lon="4.73728">
        <ele>171</ele>
        <time>2016-11-30T13:58:47Z</time>
      </trkpt>
      <trkpt lat="45.91901" lon="4.73729">
        <ele>171</ele>
        <time>2016-11-30T13:58:48Z</time>
      </trkpt>
      <trkpt lat="45.91894" lon="4.73729">
        <ele>171</ele>
        <time>2016-11-30T13:58:49Z</time>
      </trkpt>
      <trkpt lat="45.91888" lon="4.73729">
        <ele>171</ele>
        <time>2016-11-30T13:58:50Z</time>
      </trkpt>
      <trkpt lat="45.91881" lon="4.73728">
        <ele>171</ele>
        <time>2016-11-30T13:58:51Z</time>
      </trkpt>
      <trkpt lat="45.91875" lon="4.73728">
        <ele>171</ele>
        <time>2016-11-30T13:58:52Z</time>
      </trkpt>
      <trkpt lat="45.91868" lon="4.73728">
        <ele>171</ele>
        <time>2016-11-30T13:58:53Z</time>
      </trkpt>
      <trkpt lat="45.91862" lon="4.73728">
        <ele>171</ele>
        <time>2016-11-30T13:58:54Z</time>
      </trkpt>
      <trkpt lat="45.91855" lon="4.73728">
        <ele>171</ele>
        <time>2016-11-30T13:58:55Z</time>
      </trkpt>
      <trkpt lat="45.91848" lon="4.73728">
        <ele>172</ele>
        <time>2016-11-30T13:58:56Z</time>
      </trkpt>
      <trkpt lat="45.91842" lon="4.73728">
        <ele>172</ele>
        <time>2016-11-30T13:58:57Z</time>
      </trkpt>
      <trkpt lat="45.91835" lon="4.73729">
        <ele>172</ele>
        <time>2016-11-30T13:58:58Z</time>
      </trkpt>
      <trkpt lat="45.91829" lon="4.73729">
        <ele>172</ele>
        <time>2016-11-30T13:58:59Z</time>
      </trkpt>
      <trkpt lat="45.91823" lon="4.73729">
        <ele>172</ele>
        <time>2016-11-30T13:59:00Z</time>
      </trkpt>
      <trkpt lat="45.91816" lon="4.73729">
        <ele>172</ele>
        <time>2016-11-30T13:59:01Z</time>
      </trkpt>
      <trkpt lat="45.91811" lon="4.73729">
        <ele>172</ele>
        <time>2016-11-30T13:59:02Z</time>
      </trkpt>
      <trkpt lat="45.91805" lon="4.73729">
        <ele>172</ele>
        <time>2016-11-30T13:59:03Z</time>
      </trkpt>
      <trkpt lat="45.91799" lon="4.7373">
        <ele>172</ele>
        <time>2016-11-30T13:59:04Z</time>
      </trkpt>
      <trkpt lat="45.91793" lon="4.73731">
        <ele>172</ele>
        <time>2016-11-30T13:59:05Z</time>
      </trkpt>
      <trkpt lat="45.91785" lon="4.7373">
        <ele>173</ele>
        <time>2016-11-30T13:59:06Z</time>
      </trkpt>
      <trkpt lat="45.91779" lon="4.73731">
        <ele>173</ele>
        <time>2016-11-30T13:59:07Z</time>
      </trkpt>
      <trkpt lat="45.91772" lon="4.73731">
        <ele>173</ele>
        <time>2016-11-30T13:59:08Z</time>
      </trkpt>
      <trkpt lat="45.91766" lon="4.73732">
        <ele>173</ele>
        <time>2016-11-30T13:59:09Z</time>
      </trkpt>
      <trkpt lat="45.91759" lon="4.73732">
        <ele>173</ele>
        <time>2016-11-30T13:59:10Z</time>
      </trkpt>
      <trkpt lat="45.91754" lon="4.73732">
        <ele>173</ele>
        <time>2016-11-30T13:59:11Z</time>
      </trkpt>
      <trkpt lat="45.91749" lon="4.73733">
        <ele>173</ele>
        <time>2016-11-30T13:59:12Z</time>
      </trkpt>
      <trkpt lat="45.91743" lon="4.73734">
        <ele>173</ele>
        <time>2016-11-30T13:59:13Z</time>
      </trkpt>
      <trkpt lat="45.91738" lon="4.73735">
        <ele>173</ele>
        <time>2016-11-30T13:59:14Z</time>
      </trkpt>
      <trkpt lat="45.91732" lon="4.73735">
        <ele>173</ele>
        <time>2016-11-30T13:59:15Z</time>
      </trkpt>
      <trkpt lat="45.91726" lon="4.73736">
        <ele>173</ele>
        <time>2016-11-30T13:59:16Z</time>
      </trkpt>
      <trkpt lat="45.9172" lon="4.73736">
        <ele>173</ele>
        <time>2016-11-30T13:59:17Z</time>
      </trkpt>
      <trkpt lat="45.91715" lon="4.73737">
        <ele>173</ele>
        <time>2016-11-30T13:59:18Z</time>
      </trkpt>
      <trkpt lat="45.91709" lon="4.73737">
        <ele>173</ele>
        <time>2016-11-30T13:59:19Z</time>
      </trkpt>
      <trkpt lat="45.91703" lon="4.73737">
        <ele>172</ele>
        <time>2016-11-30T13:59:20Z</time>
      </trkpt>
      <trkpt lat="45.91697" lon="4.73738">
        <ele>172</ele>
        <time>2016-11-30T13:59:21Z</time>
      </trkpt>
      <trkpt lat="45.91692" lon="4.73738">
        <ele>172</ele>
        <time>2016-11-30T13:59:22Z</time>
      </trkpt>
      <trkpt lat="45.91686" lon="4.73738">
        <ele>172</ele>
        <time>2016-11-30T13:59:23Z</time>
      </trkpt>
      <trkpt lat="45.9168" lon="4.73738">
        <ele>172</ele>
        <time>2016-11-30T13:59:24Z</time>
      </trkpt>
      <trkpt lat="45.91674" lon="4.73738">
        <ele>172</ele>
        <time>2016-11-30T13:59:25Z</time>
      </trkpt>
      <trkpt lat="45.91668" lon="4.73738">
        <ele>172</ele>
        <time>2016-11-30T13:59:26Z</time>
      </trkpt>
      <trkpt lat="45.91662" lon="4.73738">
        <ele>172</ele>
        <time>2016-11-30T13:59:27Z</time>
      </trkpt>
      <trkpt lat="45.91656" lon="4.73738">
        <ele>172</ele>
        <time>2016-11-30T13:59:28Z</time>
      </trkpt>
      <trkpt lat="45.91651" lon="4.73738">
        <ele>172</ele>
        <time>2016-11-30T13:59:29Z</time>
      </trkpt>
      <trkpt lat="45.91645" lon="4.73738">
        <ele>172</ele>
        <time>2016-11-30T13:59:30Z</time>
      </trkpt>
      <trkpt lat="45.9164" lon="4.73738">
        <ele>172</ele>
        <time>2016-11-30T13:59:31Z</time>
      </trkpt>
      <trkpt lat="45.91635" lon="4.73738">
        <ele>172</ele>
        <time>2016-11-30T13:59:32Z</time>
      </trkpt>
      <trkpt lat="45.91629" lon="4.73738">
        <ele>172</ele>
        <time>2016-11-30T13:59:33Z</time>
      </trkpt>
      <trkpt lat="45.91624" lon="4.73737">
        <ele>173</ele>
        <time>2016-11-30T13:59:34Z</time>
      </trkpt>
      <trkpt lat="45.91618" lon="4.73737">
        <ele>173</ele>
        <time>2016-11-30T13:59:35Z</time>
      </trkpt>
      <trkpt lat="45.91612" lon="4.73737">
        <ele>173</ele>
        <time>2016-11-30T13:59:36Z</time>
      </trkpt>
      <trkpt lat="45.91607" lon="4.73737">
        <ele>173</ele>
        <time>2016-11-30T13:59:37Z</time>
      </trkpt>
      <trkpt lat="45.91601" lon="4.73737">
        <ele>173</ele>
        <time>2016-11-30T13:59:38Z</time>
      </trkpt>
      <trkpt lat="45.91594" lon="4.73737">
        <ele>173</ele>
        <time>2016-11-30T13:59:39Z</time>
      </trkpt>
      <trkpt lat="45.91587" lon="4.73736">
        <ele>173</ele>
        <time>2016-11-30T13:59:40Z</time>
      </trkpt>
      <trkpt lat="45.91581" lon="4.73736">
        <ele>173</ele>
        <time>2016-11-30T13:59:41Z</time>
      </trkpt>
      <trkpt lat="45.91575" lon="4.73737">
        <ele>173</ele>
        <time>2016-11-30T13:59:42Z</time>
      </trkpt>
      <trkpt lat="45.91569" lon="4.73738">
        <ele>173</ele>
        <time>2016-11-30T13:59:43Z</time>
      </trkpt>
      <trkpt lat="45.91563" lon="4.73738">
        <ele>173</ele>
        <time>2016-11-30T13:59:44Z</time>
      </trkpt>
      <trkpt lat="45.91556" lon="4.73738">
        <ele>174</ele>
        <time>2016-11-30T13:59:45Z</time>
      </trkpt>
      <trkpt lat="45.9155" lon="4.73738">
        <ele>174</ele>
        <time>2016-11-30T13:59:46Z</time>
      </trkpt>
      <trkpt lat="45.91544" lon="4.73739">
        <ele>174</ele>
        <time>2016-11-30T13:59:47Z</time>
      </trkpt>
      <trkpt lat="45.91539" lon="4.73739">
        <ele>174</ele>
        <time>2016-11-30T13:59:48Z</time>
      </trkpt>
      <trkpt lat="45.91533" lon="4.73739">
        <ele>174</ele>
        <time>2016-11-30T13:59:49Z</time>
      </trkpt>
      <trkpt lat="45.91527" lon="4.73739">
        <ele>174</ele>
        <time>2016-11-30T13:59:50Z</time>
      </trkpt>
      <trkpt lat="45.91521" lon="4.73739">
        <ele>174</ele>
        <time>2016-11-30T13:59:51Z</time>
      </trkpt>
      <trkpt lat="45.91515" lon="4.73739">
        <ele>174</ele>
        <time>2016-11-30T13:59:52Z</time>
      </trkpt>
      <trkpt lat="45.91509" lon="4.73739">
        <ele>174</ele>
        <time>2016-11-30T13:59:53Z</time>
      </trkpt>
      <trkpt lat="45.91503" lon="4.73739">
        <ele>174</ele>
        <time>2016-11-30T13:59:54Z</time>
      </trkpt>
      <trkpt lat="45.91496" lon="4.73739">
        <ele>174</ele>
        <time>2016-11-30T13:59:55Z</time>
      </trkpt>
      <trkpt lat="45.9149" lon="4.73738">
        <ele>174</ele>
        <time>2016-11-30T13:59:56Z</time>
      </trkpt>
      <trkpt lat="45.91484" lon="4.73738">
        <ele>174</ele>
        <time>2016-11-30T13:59:57Z</time>
      </trkpt>
      <trkpt lat="45.91477" lon="4.73739">
        <ele>174</ele>
        <time>2016-11-30T13:59:58Z</time>
      </trkpt>
      <trkpt lat="45.91471" lon="4.73739">
        <ele>174</ele>
        <time>2016-11-30T13:59:59Z</time>
      </trkpt>
      <trkpt lat="45.91465" lon="4.73739">
        <ele>174</ele>
        <time>2016-11-30T14:00:00Z</time>
      </trkpt>
      <trkpt lat="45.91458" lon="4.73739">
        <ele>174</ele>
        <time>2016-11-30T14:00:01Z</time>
      </trkpt>
      <trkpt lat="45.91451" lon="4.73738">
        <ele>173</ele>
        <time>2016-11-30T14:00:02Z</time>
      </trkpt>
      <trkpt lat="45.91444" lon="4.73739">
        <ele>173</ele>
        <time>2016-11-30T14:00:03Z</time>
      </trkpt>
      <trkpt lat="45.91438" lon="4.73739">
        <ele>173</ele>
        <time>2016-11-30T14:00:04Z</time>
      </trkpt>
      <trkpt lat="45.91432" lon="4.73739">
        <ele>173</ele>
        <time>2016-11-30T14:00:05Z</time>
      </trkpt>
      <trkpt lat="45.91425" lon="4.73739">
        <ele>173</ele>
        <time>2016-11-30T14:00:06Z</time>
      </trkpt>
      <trkpt lat="45.91418" lon="4.73739">
        <ele>173</ele>
        <time>2016-11-30T14:00:07Z</time>
      </trkpt>
      <trkpt lat="45.91412" lon="4.73739">
        <ele>173</ele>
        <time>2016-11-30T14:00:08Z</time>
      </trkpt>
      <trkpt lat="45.91406" lon="4.73739">
        <ele>173</ele>
        <time>2016-11-30T14:00:09Z</time>
      </trkpt>
      <trkpt lat="45.91401" lon="4.73739">
        <ele>173</ele>
        <time>2016-11-30T14:00:10Z</time>
      </trkpt>
      <trkpt lat="45.91395" lon="4.7374">
        <ele>173</ele>
        <time>2016-11-30T14:00:11Z</time>
      </trkpt>
      <trkpt lat="45.91389" lon="4.73739">
        <ele>173</ele>
        <time>2016-11-30T14:00:12Z</time>
      </trkpt>
      <trkpt lat="45.91383" lon="4.73739">
        <ele>173</ele>
        <time>2016-11-30T14:00:13Z</time>
      </trkpt>
      <trkpt lat="45.91378" lon="4.73738">
        <ele>173</ele>
        <time>2016-11-30T14:00:14Z</time>
      </trkpt>
      <trkpt lat="45.91372" lon="4.73738">
        <ele>173</ele>
        <time>2016-11-30T14:00:15Z</time>
      </trkpt>
      <trkpt lat="45.91366" lon="4.73738">
        <ele>173</ele>
        <time>2016-11-30T14:00:16Z</time>
      </trkpt>
      <trkpt lat="45.91359" lon="4.73738">
        <ele>173</ele>
        <time>2016-11-30T14:00:17Z</time>
      </trkpt>
      <trkpt lat="45.91352" lon="4.73737">
        <ele>173</ele>
        <time>2016-11-30T14:00:18Z</time>
      </trkpt>
      <trkpt lat="45.91345" lon="4.73737">
        <ele>173</ele>
        <time>2016-11-30T14:00:19Z</time>
      </trkpt>
      <trkpt lat="45.9134" lon="4.73737">
        <ele>173</ele>
        <time>2016-11-30T14:00:20Z</time>
      </trkpt>
      <trkpt lat="45.91334" lon="4.73738">
        <ele>173</ele>
        <time>2016-11-30T14:00:21Z</time>
      </trkpt>
      <trkpt lat="45.91329" lon="4.73739">
        <ele>173</ele>
        <time>2016-11-30T14:00:22Z</time>
      </trkpt>
      <trkpt lat="45.91323" lon="4.73738">
        <ele>174</ele>
        <time>2016-11-30T14:00:23Z</time>
      </trkpt>
      <trkpt lat="45.91316" lon="4.73738">
        <ele>174</ele>
        <time>2016-11-30T14:00:24Z</time>
      </trkpt>
      <trkpt lat="45.9131" lon="4.73739">
        <ele>174</ele>
        <time>2016-11-30T14:00:25Z</time>
      </trkpt>
      <trkpt lat="45.91304" lon="4.73739">
        <ele>174</ele>
        <time>2016-11-30T14:00:26Z</time>
      </trkpt>
      <trkpt lat="45.91298" lon="4.73739">
        <ele>174</ele>
        <time>2016-11-30T14:00:27Z</time>
      </trkpt>
      <trkpt lat="45.91291" lon="4.73739">
        <ele>174</ele>
        <time>2016-11-30T14:00:28Z</time>
      </trkpt>
      <trkpt lat="45.91285" lon="4.7374">
        <ele>174</ele>
        <time>2016-11-30T14:00:29Z</time>
      </trkpt>
      <trkpt lat="45.91279" lon="4.7374">
        <ele>174</ele>
        <time>2016-11-30T14:00:30Z</time>
      </trkpt>
      <trkpt lat="45.91273" lon="4.7374">
        <ele>174</ele>
        <time>2016-11-30T14:00:31Z</time>
      </trkpt>
      <trkpt lat="45.91267" lon="4.7374">
        <ele>174</ele>
        <time>2016-11-30T14:00:32Z</time>
      </trkpt>
      <trkpt lat="45.91262" lon="4.73739">
        <ele>174</ele>
        <time>2016-11-30T14:00:33Z</time>
      </trkpt>
      <trkpt lat="45.91256" lon="4.73738">
        <ele>175</ele>
        <time>2016-11-30T14:00:34Z</time>
      </trkpt>
      <trkpt lat="45.9125" lon="4.73737">
        <ele>175</ele>
        <time>2016-11-30T14:00:35Z</time>
      </trkpt>
      <trkpt lat="45.91243" lon="4.73737">
        <ele>175</ele>
        <time>2016-11-30T14:00:36Z</time>
      </trkpt>
      <trkpt lat="45.91238" lon="4.73737">
        <ele>175</ele>
        <time>2016-11-30T14:00:37Z</time>
      </trkpt>
      <trkpt lat="45.91232" lon="4.73737">
        <ele>175</ele>
        <time>2016-11-30T14:00:38Z</time>
      </trkpt>
      <trkpt lat="45.91227" lon="4.73737">
        <ele>175</ele>
        <time>2016-11-30T14:00:39Z</time>
      </trkpt>
      <trkpt lat="45.91221" lon="4.73738">
        <ele>175</ele>
        <time>2016-11-30T14:00:40Z</time>
      </trkpt>
      <trkpt lat="45.91215" lon="4.73738">
        <ele>175</ele>
        <time>2016-11-30T14:00:41Z</time>
      </trkpt>
      <trkpt lat="45.91209" lon="4.73737">
        <ele>175</ele>
        <time>2016-11-30T14:00:42Z</time>
      </trkpt>
      <trkpt lat="45.91203" lon="4.73735">
        <ele>175</ele>
        <time>2016-11-30T14:00:43Z</time>
      </trkpt>
      <trkpt lat="45.91197" lon="4.73734">
        <ele>175</ele>
        <time>2016-11-30T14:00:44Z</time>
      </trkpt>
      <trkpt lat="45.91192" lon="4.73732">
        <ele>175</ele>
        <time>2016-11-30T14:00:45Z</time>
      </trkpt>
      <trkpt lat="45.91186" lon="4.73732">
        <ele>175</ele>
        <time>2016-11-30T14:00:46Z</time>
      </trkpt>
      <trkpt lat="45.9118" lon="4.73731">
        <ele>175</ele>
        <time>2016-11-30T14:00:47Z</time>
      </trkpt>
      <trkpt lat="45.91173" lon="4.73729">
        <ele>175</ele>
        <time>2016-11-30T14:00:48Z</time>
      </trkpt>
      <trkpt lat="45.91169" lon="4.73726">
        <ele>175</ele>
        <time>2016-11-30T14:00:49Z</time>
      </trkpt>
      <trkpt lat="45.91164" lon="4.73723">
        <ele>175</ele>
        <time>2016-11-30T14:00:50Z</time>
      </trkpt>
      <trkpt lat="45.91161" lon="4.73718">
        <ele>175</ele>
        <time>2016-11-30T14:00:51Z</time>
      </trkpt>
      <trkpt lat="45.91157" lon="4.73714">
        <ele>175</ele>
        <time>2016-11-30T14:00:52Z</time>
      </trkpt>
      <trkpt lat="45.91152" lon="4.73708">
        <ele>174</ele>
        <time>2016-11-30T14:00:53Z</time>
      </trkpt>
      <trkpt lat="45.91148" lon="4.73702">
        <ele>174</ele>
        <time>2016-11-30T14:00:54Z</time>
      </trkpt>
      <trkpt lat="45.91143" lon="4.73694">
        <ele>174</ele>
        <time>2016-11-30T14:00:55Z</time>
      </trkpt>
      <trkpt lat="45.9114" lon="4.73687">
        <ele>174</ele>
        <time>2016-11-30T14:00:56Z</time>
      </trkpt>
      <trkpt lat="45.91137" lon="4.7368">
        <ele>174</ele>
        <time>2016-11-30T14:00:57Z</time>
      </trkpt>
      <trkpt lat="45.91134" lon="4.73673">
        <ele>174</ele>
        <time>2016-11-30T14:00:58Z</time>
      </trkpt>
      <trkpt lat="45.9113" lon="4.73665">
        <ele>174</ele>
        <time>2016-11-30T14:00:59Z</time>
      </trkpt>
      <trkpt lat="45.91126" lon="4.73658">
        <ele>174</ele>
        <time>2016-11-30T14:01:00Z</time>
      </trkpt>
      <trkpt lat="45.91122" lon="4.73651">
        <ele>174</ele>
        <time>2016-11-30T14:01:01Z</time>
      </trkpt>
      <trkpt lat="45.91119" lon="4.73645">
        <ele>174</ele>
        <time>2016-11-30T14:01:02Z</time>
      </trkpt>
      <trkpt lat="45.91116" lon="4.73638">
        <ele>174</ele>
        <time>2016-11-30T14:01:03Z</time>
      </trkpt>
      <trkpt lat="45.91112" lon="4.73631">
        <ele>174</ele>
        <time>2016-11-30T14:01:04Z</time>
      </trkpt>
      <trkpt lat="45.91109" lon="4.73623">
        <ele>174</ele>
        <time>2016-11-30T14:01:05Z</time>
      </trkpt>
      <trkpt lat="45.91106" lon="4.73616">
        <ele>174</ele>
        <time>2016-11-30T14:01:06Z</time>
      </trkpt>
      <trkpt lat="45.91102" lon="4.73609">
        <ele>174</ele>
        <time>2016-11-30T14:01:07Z</time>
      </trkpt>
      <trkpt lat="45.91098" lon="4.73602">
        <ele>174</ele>
        <time>2016-11-30T14:01:08Z</time>
      </trkpt>
      <trkpt lat="45.91095" lon="4.73596">
        <ele>174</ele>
        <time>2016-11-30T14:01:09Z</time>
      </trkpt>
      <trkpt lat="45.91091" lon="4.73589">
        <ele>174</ele>
        <time>2016-11-30T14:01:10Z</time>
      </trkpt>
      <trkpt lat="45.91087" lon="4.73582">
        <ele>174</ele>
        <time>2016-11-30T14:01:11Z</time>
      </trkpt>
      <trkpt lat="45.91084" lon="4.73575">
        <ele>174</ele>
        <time>2016-11-30T14:01:12Z</time>
      </trkpt>
      <trkpt lat="45.91082" lon="4.73568">
        <ele>174</ele>
        <time>2016-11-30T14:01:13Z</time>
      </trkpt>
      <trkpt lat="45.91079" lon="4.73561">
        <ele>174</ele>
        <time>2016-11-30T14:01:14Z</time>
      </trkpt>
      <trkpt lat="45.91076" lon="4.73553">
        <ele>174</ele>
        <time>2016-11-30T14:01:15Z</time>
      </trkpt>
      <trkpt lat="45.91073" lon="4.73547">
        <ele>174</ele>
        <time>2016-11-30T14:01:16Z</time>
      </trkpt>
      <trkpt lat="45.9107" lon="4.7354">
        <ele>175</ele>
        <time>2016-11-30T14:01:17Z</time>
      </trkpt>
      <trkpt lat="45.91067" lon="4.73534">
        <ele>175</ele>
        <time>2016-11-30T14:01:18Z</time>
      </trkpt>
      <trkpt lat="45.91065" lon="4.73527">
        <ele>175</ele>
        <time>2016-11-30T14:01:19Z</time>
      </trkpt>
      <trkpt lat="45.91062" lon="4.7352">
        <ele>175</ele>
        <time>2016-11-30T14:01:20Z</time>
      </trkpt>
      <trkpt lat="45.91059" lon="4.73513">
        <ele>175</ele>
        <time>2016-11-30T14:01:21Z</time>
      </trkpt>
      <trkpt lat="45.91056" lon="4.73506">
        <ele>175</ele>
        <time>2016-11-30T14:01:22Z</time>
      </trkpt>
      <trkpt lat="45.91052" lon="4.73501">
        <ele>175</ele>
        <time>2016-11-30T14:01:23Z</time>
      </trkpt>
      <trkpt lat="45.91048" lon="4.73493">
        <ele>175</ele>
        <time>2016-11-30T14:01:24Z</time>
      </trkpt>
      <trkpt lat="45.91046" lon="4.73486">
        <ele>175</ele>
        <time>2016-11-30T14:01:25Z</time>
      </trkpt>
      <trkpt lat="45.91044" lon="4.73479">
        <ele>175</ele>
        <time>2016-11-30T14:01:26Z</time>
      </trkpt>
      <trkpt lat="45.91041" lon="4.73472">
        <ele>175</ele>
        <time>2016-11-30T14:01:27Z</time>
      </trkpt>
      <trkpt lat="45.91038" lon="4.73465">
        <ele>175</ele>
        <time>2016-11-30T14:01:28Z</time>
      </trkpt>
      <trkpt lat="45.91037" lon="4.73458">
        <ele>175</ele>
        <time>2016-11-30T14:01:29Z</time>
      </trkpt>
      <trkpt lat="45.91035" lon="4.73451">
        <ele>175</ele>
        <time>2016-11-30T14:01:30Z</time>
      </trkpt>
      <trkpt lat="45.91034" lon="4.73444">
        <ele>175</ele>
        <time>2016-11-30T14:01:31Z</time>
      </trkpt>
      <trkpt lat="45.91033" lon="4.73437">
        <ele>175</ele>
        <time>2016-11-30T14:01:32Z</time>
      </trkpt>
      <trkpt lat="45.91031" lon="4.7343">
        <ele>175</ele>
        <time>2016-11-30T14:01:33Z</time>
      </trkpt>
      <trkpt lat="45.91029" lon="4.73423">
        <ele>175</ele>
        <time>2016-11-30T14:01:34Z</time>
      </trkpt>
      <trkpt lat="45.91023" lon="4.73421">
        <ele>175</ele>
        <time>2016-11-30T14:01:35Z</time>
      </trkpt>
      <trkpt lat="45.91017" lon="4.73419">
        <ele>175</ele>
        <time>2016-11-30T14:01:36Z</time>
      </trkpt>
      <trkpt lat="45.9101" lon="4.73421">
        <ele>175</ele>
        <time>2016-11-30T14:01:37Z</time>
      </trkpt>
      <trkpt lat="45.91005" lon="4.73421">
        <ele>175</ele>
        <time>2016-11-30T14:01:38Z</time>
      </trkpt>
      <trkpt lat="45.90997" lon="4.73425">
        <ele>175</ele>
        <time>2016-11-30T14:01:40Z</time>
      </trkpt>
      <trkpt lat="45.90991" lon="4.73426">
        <ele>175</ele>
        <time>2016-11-30T14:01:41Z</time>
      </trkpt>
      <trkpt lat="45.90986" lon="4.73427">
        <ele>175</ele>
        <time>2016-11-30T14:01:42Z</time>
      </trkpt>
      <trkpt lat="45.90981" lon="4.7343">
        <ele>175</ele>
        <time>2016-11-30T14:01:43Z</time>
      </trkpt>
      <trkpt lat="45.90976" lon="4.73433">
        <ele>175</ele>
        <time>2016-11-30T14:01:44Z</time>
      </trkpt>
      <trkpt lat="45.90971" lon="4.73435">
        <ele>175</ele>
        <time>2016-11-30T14:01:45Z</time>
      </trkpt>
      <trkpt lat="45.90966" lon="4.73438">
        <ele>175</ele>
        <time>2016-11-30T14:01:46Z</time>
      </trkpt>
      <trkpt lat="45.90962" lon="4.73442">
        <ele>175</ele>
        <time>2016-11-30T14:01:47Z</time>
      </trkpt>
      <trkpt lat="45.90958" lon="4.73445">
        <ele>175</ele>
        <time>2016-11-30T14:01:48Z</time>
      </trkpt>
      <trkpt lat="45.90954" lon="4.73448">
        <ele>175</ele>
        <time>2016-11-30T14:01:49Z</time>
      </trkpt>
      <trkpt lat="45.9095" lon="4.73451">
        <ele>175</ele>
        <time>2016-11-30T14:01:50Z</time>
      </trkpt>
      <trkpt lat="45.90945" lon="4.73454">
        <ele>175</ele>
        <time>2016-11-30T14:01:51Z</time>
      </trkpt>
      <trkpt lat="45.90941" lon="4.73457">
        <ele>175</ele>
        <time>2016-11-30T14:01:52Z</time>
      </trkpt>
      <trkpt lat="45.90937" lon="4.73459">
        <ele>175</ele>
        <time>2016-11-30T14:01:53Z</time>
      </trkpt>
      <trkpt lat="45.90932" lon="4.73461">
        <ele>175</ele>
        <time>2016-11-30T14:01:54Z</time>
      </trkpt>
      <trkpt lat="45.90927" lon="4.73463">
        <ele>175</ele>
        <time>2016-11-30T14:01:55Z</time>
      </trkpt>
      <trkpt lat="45.90921" lon="4.73465">
        <ele>175</ele>
        <time>2016-11-30T14:01:56Z</time>
      </trkpt>
      <trkpt lat="45.90915" lon="4.73468">
        <ele>175</ele>
        <time>2016-11-30T14:01:57Z</time>
      </trkpt>
      <trkpt lat="45.90909" lon="4.73471">
        <ele>175</ele>
        <time>2016-11-30T14:01:58Z</time>
      </trkpt>
      <trkpt lat="45.90903" lon="4.73474">
        <ele>175</ele>
        <time>2016-11-30T14:01:59Z</time>
      </trkpt>
      <trkpt lat="45.90898" lon="4.73477">
        <ele>175</ele>
        <time>2016-11-30T14:02:00Z</time>
      </trkpt>
      <trkpt lat="45.90892" lon="4.7348">
        <ele>175</ele>
        <time>2016-11-30T14:02:01Z</time>
      </trkpt>
      <trkpt lat="45.90887" lon="4.73483">
        <ele>175</ele>
        <time>2016-11-30T14:02:02Z</time>
      </trkpt>
      <trkpt lat="45.90882" lon="4.73486">
        <ele>175</ele>
        <time>2016-11-30T14:02:03Z</time>
      </trkpt>
      <trkpt lat="45.90877" lon="4.73489">
        <ele>175</ele>
        <time>2016-11-30T14:02:04Z</time>
      </trkpt>
      <trkpt lat="45.90871" lon="4.73492">
        <ele>175</ele>
        <time>2016-11-30T14:02:05Z</time>
      </trkpt>
      <trkpt lat="45.90865" lon="4.73495">
        <ele>175</ele>
        <time>2016-11-30T14:02:06Z</time>
      </trkpt>
      <trkpt lat="45.9086" lon="4.73498">
        <ele>175</ele>
        <time>2016-11-30T14:02:07Z</time>
      </trkpt>
      <trkpt lat="45.90854" lon="4.735">
        <ele>174</ele>
        <time>2016-11-30T14:02:08Z</time>
      </trkpt>
      <trkpt lat="45.90849" lon="4.73503">
        <ele>174</ele>
        <time>2016-11-30T14:02:09Z</time>
      </trkpt>
      <trkpt lat="45.90843" lon="4.73506">
        <ele>174</ele>
        <time>2016-11-30T14:02:10Z</time>
      </trkpt>
      <trkpt lat="45.90837" lon="4.73509">
        <ele>174</ele>
        <time>2016-11-30T14:02:11Z</time>
      </trkpt>
      <trkpt lat="45.90832" lon="4.73512">
        <ele>175</ele>
        <time>2016-11-30T14:02:12Z</time>
      </trkpt>
      <trkpt lat="45.90826" lon="4.73514">
        <ele>175</ele>
        <time>2016-11-30T14:02:13Z</time>
      </trkpt>
      <trkpt lat="45.9082" lon="4.73516">
        <ele>175</ele>
        <time>2016-11-30T14:02:14Z</time>
      </trkpt>
      <trkpt lat="45.90814" lon="4.73519">
        <ele>175</ele>
        <time>2016-11-30T14:02:15Z</time>
      </trkpt>
      <trkpt lat="45.90809" lon="4.73522">
        <ele>175</ele>
        <time>2016-11-30T14:02:16Z</time>
      </trkpt>
      <trkpt lat="45.90803" lon="4.73524">
        <ele>175</ele>
        <time>2016-11-30T14:02:17Z</time>
      </trkpt>
      <trkpt lat="45.90797" lon="4.73527">
        <ele>175</ele>
        <time>2016-11-30T14:02:18Z</time>
      </trkpt>
      <trkpt lat="45.9079" lon="4.73529">
        <ele>176</ele>
        <time>2016-11-30T14:02:19Z</time>
      </trkpt>
      <trkpt lat="45.90784" lon="4.73531">
        <ele>176</ele>
        <time>2016-11-30T14:02:20Z</time>
      </trkpt>
      <trkpt lat="45.90777" lon="4.73533">
        <ele>176</ele>
        <time>2016-11-30T14:02:21Z</time>
      </trkpt>
      <trkpt lat="45.90771" lon="4.73535">
        <ele>176</ele>
        <time>2016-11-30T14:02:22Z</time>
      </trkpt>
      <trkpt lat="45.90765" lon="4.73537">
        <ele>176</ele>
        <time>2016-11-30T14:02:23Z</time>
      </trkpt>
      <trkpt lat="45.90758" lon="4.73539">
        <ele>176</ele>
        <time>2016-11-30T14:02:24Z</time>
      </trkpt>
      <trkpt lat="45.90751" lon="4.73541">
        <ele>176</ele>
        <time>2016-11-30T14:02:25Z</time>
      </trkpt>
      <trkpt lat="45.90745" lon="4.73543">
        <ele>177</ele>
        <time>2016-11-30T14:02:26Z</time>
      </trkpt>
      <trkpt lat="45.90739" lon="4.73544">
        <ele>177</ele>
        <time>2016-11-30T14:02:27Z</time>
      </trkpt>
      <trkpt lat="45.90733" lon="4.73547">
        <ele>178</ele>
        <time>2016-11-30T14:02:28Z</time>
      </trkpt>
      <trkpt lat="45.90727" lon="4.73549">
        <ele>178</ele>
        <time>2016-11-30T14:02:29Z</time>
      </trkpt>
      <trkpt lat="45.90721" lon="4.73551">
        <ele>178</ele>
        <time>2016-11-30T14:02:30Z</time>
      </trkpt>
      <trkpt lat="45.90716" lon="4.73554">
        <ele>178</ele>
        <time>2016-11-30T14:02:31Z</time>
      </trkpt>
      <trkpt lat="45.90711" lon="4.73556">
        <ele>178</ele>
        <time>2016-11-30T14:02:32Z</time>
      </trkpt>
      <trkpt lat="45.90706" lon="4.73559">
        <ele>178</ele>
        <time>2016-11-30T14:02:33Z</time>
      </trkpt>
      <trkpt lat="45.90701" lon="4.73561">
        <ele>178</ele>
        <time>2016-11-30T14:02:34Z</time>
      </trkpt>
      <trkpt lat="45.90697" lon="4.73564">
        <ele>178</ele>
        <time>2016-11-30T14:02:35Z</time>
      </trkpt>
      <trkpt lat="45.90692" lon="4.73566">
        <ele>178</ele>
        <time>2016-11-30T14:02:36Z</time>
      </trkpt>
      <trkpt lat="45.90687" lon="4.73568">
        <ele>178</ele>
        <time>2016-11-30T14:02:37Z</time>
      </trkpt>
      <trkpt lat="45.90683" lon="4.73571">
        <ele>179</ele>
        <time>2016-11-30T14:02:38Z</time>
      </trkpt>
      <trkpt lat="45.90677" lon="4.73573">
        <ele>179</ele>
        <time>2016-11-30T14:02:39Z</time>
      </trkpt>
      <trkpt lat="45.90673" lon="4.73575">
        <ele>179</ele>
        <time>2016-11-30T14:02:40Z</time>
      </trkpt>
      <trkpt lat="45.90669" lon="4.73577">
        <ele>179</ele>
        <time>2016-11-30T14:02:41Z</time>
      </trkpt>
      <trkpt lat="45.9066" lon="4.7358">
        <ele>179</ele>
        <time>2016-11-30T14:02:43Z</time>
      </trkpt>
      <trkpt lat="45.90656" lon="4.73582">
        <ele>179</ele>
        <time>2016-11-30T14:02:44Z</time>
      </trkpt>
      <trkpt lat="45.90651" lon="4.73584">
        <ele>181</ele>
        <time>2016-11-30T14:02:45Z</time>
      </trkpt>
      <trkpt lat="45.90647" lon="4.73586">
        <ele>181</ele>
        <time>2016-11-30T14:02:46Z</time>
      </trkpt>
      <trkpt lat="45.90642" lon="4.73588">
        <ele>181</ele>
        <time>2016-11-30T14:02:47Z</time>
      </trkpt>
      <trkpt lat="45.90637" lon="4.73591">
        <ele>181</ele>
        <time>2016-11-30T14:02:48Z</time>
      </trkpt>
      <trkpt lat="45.90633" lon="4.73593">
        <ele>181</ele>
        <time>2016-11-30T14:02:49Z</time>
      </trkpt>
      <trkpt lat="45.90628" lon="4.73596">
        <ele>181</ele>
        <time>2016-11-30T14:02:50Z</time>
      </trkpt>
      <trkpt lat="45.90623" lon="4.73598">
        <ele>181</ele>
        <time>2016-11-30T14:02:51Z</time>
      </trkpt>
      <trkpt lat="45.90618" lon="4.736">
        <ele>180</ele>
        <time>2016-11-30T14:02:52Z</time>
      </trkpt>
      <trkpt lat="45.9061" lon="4.73604">
        <ele>180</ele>
        <time>2016-11-30T14:02:54Z</time>
      </trkpt>
      <trkpt lat="45.90606" lon="4.73604">
        <ele>180</ele>
        <time>2016-11-30T14:02:55Z</time>
      </trkpt>
      <trkpt lat="45.90601" lon="4.73606">
        <ele>180</ele>
        <time>2016-11-30T14:02:56Z</time>
      </trkpt>
      <trkpt lat="45.90596" lon="4.73607">
        <ele>180</ele>
        <time>2016-11-30T14:02:57Z</time>
      </trkpt>
      <trkpt lat="45.90591" lon="4.73609">
        <ele>180</ele>
        <time>2016-11-30T14:02:58Z</time>
      </trkpt>
      <trkpt lat="45.90587" lon="4.7361">
        <ele>180</ele>
        <time>2016-11-30T14:02:59Z</time>
      </trkpt>
      <trkpt lat="45.90582" lon="4.73612">
        <ele>178</ele>
        <time>2016-11-30T14:03:00Z</time>
      </trkpt>
      <trkpt lat="45.90578" lon="4.73613">
        <ele>178</ele>
        <time>2016-11-30T14:03:01Z</time>
      </trkpt>
      <trkpt lat="45.90569" lon="4.73616">
        <ele>178</ele>
        <time>2016-11-30T14:03:03Z</time>
      </trkpt>
      <trkpt lat="45.90565" lon="4.73617">
        <ele>178</ele>
        <time>2016-11-30T14:03:04Z</time>
      </trkpt>
      <trkpt lat="45.9056" lon="4.73618">
        <ele>178</ele>
        <time>2016-11-30T14:03:05Z</time>
      </trkpt>
      <trkpt lat="45.90555" lon="4.7362">
        <ele>178</ele>
        <time>2016-11-30T14:03:06Z</time>
      </trkpt>
      <trkpt lat="45.90551" lon="4.73622">
        <ele>178</ele>
        <time>2016-11-30T14:03:07Z</time>
      </trkpt>
      <trkpt lat="45.90547" lon="4.73624">
        <ele>178</ele>
        <time>2016-11-30T14:03:08Z</time>
      </trkpt>
      <trkpt lat="45.90542" lon="4.73625">
        <ele>178</ele>
        <time>2016-11-30T14:03:09Z</time>
      </trkpt>
      <trkpt lat="45.90538" lon="4.73626">
        <ele>178</ele>
        <time>2016-11-30T14:03:10Z</time>
      </trkpt>
      <trkpt lat="45.9053" lon="4.73631">
        <ele>178</ele>
        <time>2016-11-30T14:03:12Z</time>
      </trkpt>
      <trkpt lat="45.90526" lon="4.73633">
        <ele>178</ele>
        <time>2016-11-30T14:03:13Z</time>
      </trkpt>
      <trkpt lat="45.90518" lon="4.73637">
        <ele>178</ele>
        <time>2016-11-30T14:03:15Z</time>
      </trkpt>
      <trkpt lat="45.90514" lon="4.73639">
        <ele>178</ele>
        <time>2016-11-30T14:03:16Z</time>
      </trkpt>
      <trkpt lat="45.9051" lon="4.73642">
        <ele>178</ele>
        <time>2016-11-30T14:03:17Z</time>
      </trkpt>
      <trkpt lat="45.90505" lon="4.73644">
        <ele>178</ele>
        <time>2016-11-30T14:03:18Z</time>
      </trkpt>
      <trkpt lat="45.90501" lon="4.73647">
        <ele>178</ele>
        <time>2016-11-30T14:03:19Z</time>
      </trkpt>
      <trkpt lat="45.90496" lon="4.73649">
        <ele>177</ele>
        <time>2016-11-30T14:03:20Z</time>
      </trkpt>
      <trkpt lat="45.9049" lon="4.73651">
        <ele>177</ele>
        <time>2016-11-30T14:03:21Z</time>
      </trkpt>
      <trkpt lat="45.90485" lon="4.73653">
        <ele>177</ele>
        <time>2016-11-30T14:03:22Z</time>
      </trkpt>
      <trkpt lat="45.90479" lon="4.73655">
        <ele>177</ele>
        <time>2016-11-30T14:03:23Z</time>
      </trkpt>
      <trkpt lat="45.90474" lon="4.73658">
        <ele>177</ele>
        <time>2016-11-30T14:03:24Z</time>
      </trkpt>
      <trkpt lat="45.90468" lon="4.7366">
        <ele>177</ele>
        <time>2016-11-30T14:03:25Z</time>
      </trkpt>
      <trkpt lat="45.90462" lon="4.73663">
        <ele>177</ele>
        <time>2016-11-30T14:03:26Z</time>
      </trkpt>
      <trkpt lat="45.90457" lon="4.73666">
        <ele>177</ele>
        <time>2016-11-30T14:03:27Z</time>
      </trkpt>
      <trkpt lat="45.90451" lon="4.73669">
        <ele>176</ele>
        <time>2016-11-30T14:03:28Z</time>
      </trkpt>
      <trkpt lat="45.90447" lon="4.73672">
        <ele>176</ele>
        <time>2016-11-30T14:03:29Z</time>
      </trkpt>
      <trkpt lat="45.90442" lon="4.73675">
        <ele>176</ele>
        <time>2016-11-30T14:03:30Z</time>
      </trkpt>
      <trkpt lat="45.90437" lon="4.73677">
        <ele>176</ele>
        <time>2016-11-30T14:03:31Z</time>
      </trkpt>
      <trkpt lat="45.90432" lon="4.7368">
        <ele>176</ele>
        <time>2016-11-30T14:03:32Z</time>
      </trkpt>
      <trkpt lat="45.90427" lon="4.73682">
        <ele>177</ele>
        <time>2016-11-30T14:03:33Z</time>
      </trkpt>
      <trkpt lat="45.90421" lon="4.73685">
        <ele>177</ele>
        <time>2016-11-30T14:03:34Z</time>
      </trkpt>
      <trkpt lat="45.90414" lon="4.73687">
        <ele>177</ele>
        <time>2016-11-30T14:03:35Z</time>
      </trkpt>
      <trkpt lat="45.90408" lon="4.7369">
        <ele>177</ele>
        <time>2016-11-30T14:03:36Z</time>
      </trkpt>
      <trkpt lat="45.90401" lon="4.73693">
        <ele>177</ele>
        <time>2016-11-30T14:03:37Z</time>
      </trkpt>
      <trkpt lat="45.90395" lon="4.73696">
        <ele>177</ele>
        <time>2016-11-30T14:03:38Z</time>
      </trkpt>
      <trkpt lat="45.90388" lon="4.73698">
        <ele>177</ele>
        <time>2016-11-30T14:03:39Z</time>
      </trkpt>
      <trkpt lat="45.90382" lon="4.73701">
        <ele>177</ele>
        <time>2016-11-30T14:03:40Z</time>
      </trkpt>
      <trkpt lat="45.90377" lon="4.73704">
        <ele>177</ele>
        <time>2016-11-30T14:03:41Z</time>
      </trkpt>
      <trkpt lat="45.90372" lon="4.73708">
        <ele>177</ele>
        <time>2016-11-30T14:03:42Z</time>
      </trkpt>
      <trkpt lat="45.90366" lon="4.73711">
        <ele>177</ele>
        <time>2016-11-30T14:03:43Z</time>
      </trkpt>
      <trkpt lat="45.9036" lon="4.73714">
        <ele>177</ele>
        <time>2016-11-30T14:03:44Z</time>
      </trkpt>
      <trkpt lat="45.90353" lon="4.73716">
        <ele>177</ele>
        <time>2016-11-30T14:03:45Z</time>
      </trkpt>
      <trkpt lat="45.90346" lon="4.73718">
        <ele>177</ele>
        <time>2016-11-30T14:03:46Z</time>
      </trkpt>
      <trkpt lat="45.90339" lon="4.73721">
        <ele>177</ele>
        <time>2016-11-30T14:03:47Z</time>
      </trkpt>
      <trkpt lat="45.90332" lon="4.73723">
        <ele>177</ele>
        <time>2016-11-30T14:03:48Z</time>
      </trkpt>
      <trkpt lat="45.90326" lon="4.73725">
        <ele>177</ele>
        <time>2016-11-30T14:03:49Z</time>
      </trkpt>
      <trkpt lat="45.90319" lon="4.73727">
        <ele>177</ele>
        <time>2016-11-30T14:03:50Z</time>
      </trkpt>
      <trkpt lat="45.90313" lon="4.7373">
        <ele>177</ele>
        <time>2016-11-30T14:03:51Z</time>
      </trkpt>
      <trkpt lat="45.90307" lon="4.73732">
        <ele>177</ele>
        <time>2016-11-30T14:03:52Z</time>
      </trkpt>
      <trkpt lat="45.90301" lon="4.73735">
        <ele>177</ele>
        <time>2016-11-30T14:03:53Z</time>
      </trkpt>
      <trkpt lat="45.90295" lon="4.73737">
        <ele>177</ele>
        <time>2016-11-30T14:03:54Z</time>
      </trkpt>
      <trkpt lat="45.90288" lon="4.73739">
        <ele>177</ele>
        <time>2016-11-30T14:03:55Z</time>
      </trkpt>
      <trkpt lat="45.90282" lon="4.73741">
        <ele>177</ele>
        <time>2016-11-30T14:03:56Z</time>
      </trkpt>
      <trkpt lat="45.90275" lon="4.73742">
        <ele>177</ele>
        <time>2016-11-30T14:03:57Z</time>
      </trkpt>
      <trkpt lat="45.90268" lon="4.73744">
        <ele>178</ele>
        <time>2016-11-30T14:03:58Z</time>
      </trkpt>
      <trkpt lat="45.90262" lon="4.73746">
        <ele>178</ele>
        <time>2016-11-30T14:03:59Z</time>
      </trkpt>
      <trkpt lat="45.90257" lon="4.73748">
        <ele>178</ele>
        <time>2016-11-30T14:04:00Z</time>
      </trkpt>
      <trkpt lat="45.90252" lon="4.7375">
        <ele>178</ele>
        <time>2016-11-30T14:04:01Z</time>
      </trkpt>
      <trkpt lat="45.90246" lon="4.73753">
        <ele>178</ele>
        <time>2016-11-30T14:04:02Z</time>
      </trkpt>
      <trkpt lat="45.9024" lon="4.73756">
        <ele>178</ele>
        <time>2016-11-30T14:04:03Z</time>
      </trkpt>
      <trkpt lat="45.90235" lon="4.73759">
        <ele>177</ele>
        <time>2016-11-30T14:04:04Z</time>
      </trkpt>
      <trkpt lat="45.90229" lon="4.73762">
        <ele>177</ele>
        <time>2016-11-30T14:04:05Z</time>
      </trkpt>
      <trkpt lat="45.90223" lon="4.73765">
        <ele>177</ele>
        <time>2016-11-30T14:04:06Z</time>
      </trkpt>
      <trkpt lat="45.90217" lon="4.73769">
        <ele>177</ele>
        <time>2016-11-30T14:04:07Z</time>
      </trkpt>
      <trkpt lat="45.90212" lon="4.73773">
        <ele>177</ele>
        <time>2016-11-30T14:04:08Z</time>
      </trkpt>
      <trkpt lat="45.90206" lon="4.73776">
        <ele>177</ele>
        <time>2016-11-30T14:04:09Z</time>
      </trkpt>
      <trkpt lat="45.902" lon="4.73779">
        <ele>177</ele>
        <time>2016-11-30T14:04:10Z</time>
      </trkpt>
      <trkpt lat="45.90195" lon="4.73782">
        <ele>177</ele>
        <time>2016-11-30T14:04:11Z</time>
      </trkpt>
      <trkpt lat="45.90189" lon="4.73786">
        <ele>177</ele>
        <time>2016-11-30T14:04:12Z</time>
      </trkpt>
      <trkpt lat="45.90182" lon="4.73788">
        <ele>177</ele>
        <time>2016-11-30T14:04:13Z</time>
      </trkpt>
      <trkpt lat="45.90176" lon="4.73792">
        <ele>177</ele>
        <time>2016-11-30T14:04:14Z</time>
      </trkpt>
      <trkpt lat="45.9017" lon="4.73795">
        <ele>177</ele>
        <time>2016-11-30T14:04:15Z</time>
      </trkpt>
      <trkpt lat="45.90164" lon="4.73798">
        <ele>176</ele>
        <time>2016-11-30T14:04:16Z</time>
      </trkpt>
      <trkpt lat="45.90158" lon="4.73801">
        <ele>176</ele>
        <time>2016-11-30T14:04:17Z</time>
      </trkpt>
      <trkpt lat="45.90152" lon="4.73804">
        <ele>177</ele>
        <time>2016-11-30T14:04:18Z</time>
      </trkpt>
      <trkpt lat="45.90145" lon="4.73806">
        <ele>177</ele>
        <time>2016-11-30T14:04:19Z</time>
      </trkpt>
      <trkpt lat="45.90139" lon="4.73809">
        <ele>177</ele>
        <time>2016-11-30T14:04:20Z</time>
      </trkpt>
      <trkpt lat="45.90132" lon="4.73811">
        <ele>177</ele>
        <time>2016-11-30T14:04:21Z</time>
      </trkpt>
      <trkpt lat="45.90126" lon="4.73814">
        <ele>177</ele>
        <time>2016-11-30T14:04:22Z</time>
      </trkpt>
      <trkpt lat="45.9012" lon="4.73816">
        <ele>177</ele>
        <time>2016-11-30T14:04:23Z</time>
      </trkpt>
      <trkpt lat="45.90113" lon="4.73819">
        <ele>177</ele>
        <time>2016-11-30T14:04:24Z</time>
      </trkpt>
      <trkpt lat="45.90107" lon="4.73822">
        <ele>177</ele>
        <time>2016-11-30T14:04:25Z</time>
      </trkpt>
      <trkpt lat="45.90101" lon="4.73825">
        <ele>177</ele>
        <time>2016-11-30T14:04:26Z</time>
      </trkpt>
      <trkpt lat="45.90094" lon="4.73827">
        <ele>177</ele>
        <time>2016-11-30T14:04:27Z</time>
      </trkpt>
      <trkpt lat="45.90088" lon="4.7383">
        <ele>178</ele>
        <time>2016-11-30T14:04:28Z</time>
      </trkpt>
      <trkpt lat="45.90082" lon="4.73832">
        <ele>178</ele>
        <time>2016-11-30T14:04:29Z</time>
      </trkpt>
      <trkpt lat="45.90076" lon="4.73835">
        <ele>178</ele>
        <time>2016-11-30T14:04:30Z</time>
      </trkpt>
      <trkpt lat="45.90069" lon="4.73838">
        <ele>178</ele>
        <time>2016-11-30T14:04:31Z</time>
      </trkpt>
      <trkpt lat="45.90063" lon="4.73841">
        <ele>178</ele>
        <time>2016-11-30T14:04:32Z</time>
      </trkpt>
      <trkpt lat="45.90057" lon="4.73844">
        <ele>178</ele>
        <time>2016-11-30T14:04:33Z</time>
      </trkpt>
      <trkpt lat="45.9005" lon="4.73846">
        <ele>178</ele>
        <time>2016-11-30T14:04:34Z</time>
      </trkpt>
      <trkpt lat="45.90043" lon="4.73849">
        <ele>178</ele>
        <time>2016-11-30T14:04:35Z</time>
      </trkpt>
      <trkpt lat="45.90036" lon="4.73853">
        <ele>178</ele>
        <time>2016-11-30T14:04:36Z</time>
      </trkpt>
      <trkpt lat="45.9003" lon="4.73856">
        <ele>178</ele>
        <time>2016-11-30T14:04:37Z</time>
      </trkpt>
      <trkpt lat="45.90023" lon="4.73857">
        <ele>178</ele>
        <time>2016-11-30T14:04:38Z</time>
      </trkpt>
      <trkpt lat="45.90017" lon="4.73859">
        <ele>178</ele>
        <time>2016-11-30T14:04:39Z</time>
      </trkpt>
      <trkpt lat="45.9001" lon="4.73862">
        <ele>178</ele>
        <time>2016-11-30T14:04:40Z</time>
      </trkpt>
      <trkpt lat="45.90005" lon="4.73863">
        <ele>178</ele>
        <time>2016-11-30T14:04:41Z</time>
      </trkpt>
      <trkpt lat="45.89992" lon="4.73869">
        <ele>178</ele>
        <time>2016-11-30T14:04:42Z</time>
      </trkpt>
      <trkpt lat="45.89986" lon="4.73872">
        <ele>178</ele>
        <time>2016-11-30T14:04:43Z</time>
      </trkpt>
      <trkpt lat="45.89979" lon="4.73875">
        <ele>178</ele>
        <time>2016-11-30T14:04:44Z</time>
      </trkpt>
      <trkpt lat="45.89975" lon="4.73876">
        <ele>178</ele>
        <time>2016-11-30T14:04:45Z</time>
      </trkpt>
      <trkpt lat="45.89969" lon="4.73879">
        <ele>178</ele>
        <time>2016-11-30T14:04:46Z</time>
      </trkpt>
      <trkpt lat="45.89963" lon="4.73882">
        <ele>178</ele>
        <time>2016-11-30T14:04:47Z</time>
      </trkpt>
      <trkpt lat="45.89958" lon="4.73885">
        <ele>178</ele>
        <time>2016-11-30T14:04:48Z</time>
      </trkpt>
      <trkpt lat="45.89951" lon="4.73887">
        <ele>178</ele>
        <time>2016-11-30T14:04:49Z</time>
      </trkpt>
      <trkpt lat="45.89946" lon="4.73889">
        <ele>178</ele>
        <time>2016-11-30T14:04:50Z</time>
      </trkpt>
      <trkpt lat="45.8994" lon="4.73891">
        <ele>178</ele>
        <time>2016-11-30T14:04:51Z</time>
      </trkpt>
      <trkpt lat="45.89934" lon="4.73894">
        <ele>178</ele>
        <time>2016-11-30T14:04:52Z</time>
      </trkpt>
      <trkpt lat="45.89929" lon="4.73896">
        <ele>178</ele>
        <time>2016-11-30T14:04:53Z</time>
      </trkpt>
      <trkpt lat="45.89923" lon="4.73898">
        <ele>178</ele>
        <time>2016-11-30T14:04:54Z</time>
      </trkpt>
      <trkpt lat="45.89917" lon="4.739">
        <ele>178</ele>
        <time>2016-11-30T14:04:55Z</time>
      </trkpt>
      <trkpt lat="45.89912" lon="4.73902">
        <ele>178</ele>
        <time>2016-11-30T14:04:56Z</time>
      </trkpt>
      <trkpt lat="45.89907" lon="4.73904">
        <ele>178</ele>
        <time>2016-11-30T14:04:57Z</time>
      </trkpt>
      <trkpt lat="45.89901" lon="4.73907">
        <ele>178</ele>
        <time>2016-11-30T14:04:58Z</time>
      </trkpt>
      <trkpt lat="45.89895" lon="4.73909">
        <ele>178</ele>
        <time>2016-11-30T14:04:59Z</time>
      </trkpt>
      <trkpt lat="45.89889" lon="4.73912">
        <ele>179</ele>
        <time>2016-11-30T14:05:00Z</time>
      </trkpt>
      <trkpt lat="45.89883" lon="4.73914">
        <ele>179</ele>
        <time>2016-11-30T14:05:01Z</time>
      </trkpt>
      <trkpt lat="45.89877" lon="4.73916">
        <ele>179</ele>
        <time>2016-11-30T14:05:02Z</time>
      </trkpt>
      <trkpt lat="45.89871" lon="4.73919">
        <ele>179</ele>
        <time>2016-11-30T14:05:03Z</time>
      </trkpt>
      <trkpt lat="45.89865" lon="4.73921">
        <ele>179</ele>
        <time>2016-11-30T14:05:04Z</time>
      </trkpt>
      <trkpt lat="45.8986" lon="4.73924">
        <ele>179</ele>
        <time>2016-11-30T14:05:05Z</time>
      </trkpt>
      <trkpt lat="45.89854" lon="4.73926">
        <ele>179</ele>
        <time>2016-11-30T14:05:06Z</time>
      </trkpt>
      <trkpt lat="45.89849" lon="4.73928">
        <ele>179</ele>
        <time>2016-11-30T14:05:07Z</time>
      </trkpt>
      <trkpt lat="45.89843" lon="4.73931">
        <ele>179</ele>
        <time>2016-11-30T14:05:08Z</time>
      </trkpt>
      <trkpt lat="45.89837" lon="4.73932">
        <ele>179</ele>
        <time>2016-11-30T14:05:09Z</time>
      </trkpt>
      <trkpt lat="45.89832" lon="4.73934">
        <ele>179</ele>
        <time>2016-11-30T14:05:10Z</time>
      </trkpt>
      <trkpt lat="45.89826" lon="4.73936">
        <ele>179</ele>
        <time>2016-11-30T14:05:11Z</time>
      </trkpt>
      <trkpt lat="45.8982" lon="4.73938">
        <ele>179</ele>
        <time>2016-11-30T14:05:12Z</time>
      </trkpt>
      <trkpt lat="45.89814" lon="4.7394">
        <ele>179</ele>
        <time>2016-11-30T14:05:13Z</time>
      </trkpt>
      <trkpt lat="45.89809" lon="4.73942">
        <ele>179</ele>
        <time>2016-11-30T14:05:14Z</time>
      </trkpt>
      <trkpt lat="45.89803" lon="4.73944">
        <ele>179</ele>
        <time>2016-11-30T14:05:15Z</time>
      </trkpt>
      <trkpt lat="45.89797" lon="4.73946">
        <ele>179</ele>
        <time>2016-11-30T14:05:16Z</time>
      </trkpt>
      <trkpt lat="45.89791" lon="4.73948">
        <ele>179</ele>
        <time>2016-11-30T14:05:17Z</time>
      </trkpt>
      <trkpt lat="45.89786" lon="4.73952">
        <ele>179</ele>
        <time>2016-11-30T14:05:18Z</time>
      </trkpt>
      <trkpt lat="45.89781" lon="4.73955">
        <ele>179</ele>
        <time>2016-11-30T14:05:19Z</time>
      </trkpt>
      <trkpt lat="45.89776" lon="4.73958">
        <ele>179</ele>
        <time>2016-11-30T14:05:20Z</time>
      </trkpt>
      <trkpt lat="45.8977" lon="4.7396">
        <ele>179</ele>
        <time>2016-11-30T14:05:21Z</time>
      </trkpt>
      <trkpt lat="45.89764" lon="4.73963">
        <ele>179</ele>
        <time>2016-11-30T14:05:22Z</time>
      </trkpt>
      <trkpt lat="45.89759" lon="4.73965">
        <ele>178</ele>
        <time>2016-11-30T14:05:23Z</time>
      </trkpt>
      <trkpt lat="45.89753" lon="4.73967">
        <ele>178</ele>
        <time>2016-11-30T14:05:24Z</time>
      </trkpt>
      <trkpt lat="45.89747" lon="4.7397">
        <ele>178</ele>
        <time>2016-11-30T14:05:25Z</time>
      </trkpt>
      <trkpt lat="45.89742" lon="4.73972">
        <ele>178</ele>
        <time>2016-11-30T14:05:26Z</time>
      </trkpt>
      <trkpt lat="45.89736" lon="4.73975">
        <ele>178</ele>
        <time>2016-11-30T14:05:27Z</time>
      </trkpt>
      <trkpt lat="45.8973" lon="4.73977">
        <ele>178</ele>
        <time>2016-11-30T14:05:28Z</time>
      </trkpt>
      <trkpt lat="45.89724" lon="4.7398">
        <ele>178</ele>
        <time>2016-11-30T14:05:29Z</time>
      </trkpt>
      <trkpt lat="45.89718" lon="4.73983">
        <ele>178</ele>
        <time>2016-11-30T14:05:30Z</time>
      </trkpt>
      <trkpt lat="45.89712" lon="4.73985">
        <ele>178</ele>
        <time>2016-11-30T14:05:31Z</time>
      </trkpt>
      <trkpt lat="45.89706" lon="4.73988">
        <ele>178</ele>
        <time>2016-11-30T14:05:32Z</time>
      </trkpt>
      <trkpt lat="45.897" lon="4.7399">
        <ele>178</ele>
        <time>2016-11-30T14:05:33Z</time>
      </trkpt>
      <trkpt lat="45.89695" lon="4.73992">
        <ele>178</ele>
        <time>2016-11-30T14:05:34Z</time>
      </trkpt>
      <trkpt lat="45.8969" lon="4.73994">
        <ele>179</ele>
        <time>2016-11-30T14:05:35Z</time>
      </trkpt>
      <trkpt lat="45.89684" lon="4.73996">
        <ele>179</ele>
        <time>2016-11-30T14:05:36Z</time>
      </trkpt>
      <trkpt lat="45.89679" lon="4.73999">
        <ele>179</ele>
        <time>2016-11-30T14:05:37Z</time>
      </trkpt>
      <trkpt lat="45.89673" lon="4.74001">
        <ele>179</ele>
        <time>2016-11-30T14:05:38Z</time>
      </trkpt>
      <trkpt lat="45.89668" lon="4.74003">
        <ele>179</ele>
        <time>2016-11-30T14:05:39Z</time>
      </trkpt>
      <trkpt lat="45.89662" lon="4.74005">
        <ele>179</ele>
        <time>2016-11-30T14:05:40Z</time>
      </trkpt>
      <trkpt lat="45.89657" lon="4.74007">
        <ele>179</ele>
        <time>2016-11-30T14:05:41Z</time>
      </trkpt>
      <trkpt lat="45.89651" lon="4.7401">
        <ele>180</ele>
        <time>2016-11-30T14:05:42Z</time>
      </trkpt>
      <trkpt lat="45.89646" lon="4.74013">
        <ele>180</ele>
        <time>2016-11-30T14:05:43Z</time>
      </trkpt>
      <trkpt lat="45.89641" lon="4.74015">
        <ele>180</ele>
        <time>2016-11-30T14:05:44Z</time>
      </trkpt>
      <trkpt lat="45.89636" lon="4.74018">
        <ele>180</ele>
        <time>2016-11-30T14:05:45Z</time>
      </trkpt>
      <trkpt lat="45.8963" lon="4.7402">
        <ele>180</ele>
        <time>2016-11-30T14:05:46Z</time>
      </trkpt>
      <trkpt lat="45.89625" lon="4.74022">
        <ele>180</ele>
        <time>2016-11-30T14:05:47Z</time>
      </trkpt>
      <trkpt lat="45.89619" lon="4.74025">
        <ele>180</ele>
        <time>2016-11-30T14:05:48Z</time>
      </trkpt>
      <trkpt lat="45.89613" lon="4.74027">
        <ele>180</ele>
        <time>2016-11-30T14:05:49Z</time>
      </trkpt>
      <trkpt lat="45.89608" lon="4.74029">
        <ele>180</ele>
        <time>2016-11-30T14:05:50Z</time>
      </trkpt>
      <trkpt lat="45.89603" lon="4.74032">
        <ele>180</ele>
        <time>2016-11-30T14:05:51Z</time>
      </trkpt>
      <trkpt lat="45.89597" lon="4.74034">
        <ele>180</ele>
        <time>2016-11-30T14:05:52Z</time>
      </trkpt>
      <trkpt lat="45.89591" lon="4.74037">
        <ele>180</ele>
        <time>2016-11-30T14:05:53Z</time>
      </trkpt>
      <trkpt lat="45.89587" lon="4.74039">
        <ele>180</ele>
        <time>2016-11-30T14:05:54Z</time>
      </trkpt>
      <trkpt lat="45.89583" lon="4.74042">
        <ele>181</ele>
        <time>2016-11-30T14:05:55Z</time>
      </trkpt>
      <trkpt lat="45.89578" lon="4.74044">
        <ele>181</ele>
        <time>2016-11-30T14:05:56Z</time>
      </trkpt>
      <trkpt lat="45.89573" lon="4.74047">
        <ele>181</ele>
        <time>2016-11-30T14:05:57Z</time>
      </trkpt>
      <trkpt lat="45.89567" lon="4.7405">
        <ele>181</ele>
        <time>2016-11-30T14:05:58Z</time>
      </trkpt>
      <trkpt lat="45.89561" lon="4.74052">
        <ele>181</ele>
        <time>2016-11-30T14:05:59Z</time>
      </trkpt>
      <trkpt lat="45.89555" lon="4.74053">
        <ele>181</ele>
        <time>2016-11-30T14:06:00Z</time>
      </trkpt>
      <trkpt lat="45.8955" lon="4.74056">
        <ele>181</ele>
        <time>2016-11-30T14:06:01Z</time>
      </trkpt>
      <trkpt lat="45.89544" lon="4.74058">
        <ele>181</ele>
        <time>2016-11-30T14:06:02Z</time>
      </trkpt>
      <trkpt lat="45.89539" lon="4.7406">
        <ele>181</ele>
        <time>2016-11-30T14:06:03Z</time>
      </trkpt>
      <trkpt lat="45.89533" lon="4.74063">
        <ele>181</ele>
        <time>2016-11-30T14:06:04Z</time>
      </trkpt>
      <trkpt lat="45.89527" lon="4.74065">
        <ele>181</ele>
        <time>2016-11-30T14:06:05Z</time>
      </trkpt>
      <trkpt lat="45.89521" lon="4.74068">
        <ele>181</ele>
        <time>2016-11-30T14:06:06Z</time>
      </trkpt>
      <trkpt lat="45.89515" lon="4.7407">
        <ele>181</ele>
        <time>2016-11-30T14:06:07Z</time>
      </trkpt>
      <trkpt lat="45.8951" lon="4.74073">
        <ele>181</ele>
        <time>2016-11-30T14:06:08Z</time>
      </trkpt>
      <trkpt lat="45.89504" lon="4.74075">
        <ele>181</ele>
        <time>2016-11-30T14:06:09Z</time>
      </trkpt>
      <trkpt lat="45.89499" lon="4.74078">
        <ele>181</ele>
        <time>2016-11-30T14:06:10Z</time>
      </trkpt>
      <trkpt lat="45.89493" lon="4.74081">
        <ele>181</ele>
        <time>2016-11-30T14:06:11Z</time>
      </trkpt>
      <trkpt lat="45.89487" lon="4.74082">
        <ele>181</ele>
        <time>2016-11-30T14:06:12Z</time>
      </trkpt>
      <trkpt lat="45.89481" lon="4.74085">
        <ele>182</ele>
        <time>2016-11-30T14:06:13Z</time>
      </trkpt>
      <trkpt lat="45.89476" lon="4.74087">
        <ele>182</ele>
        <time>2016-11-30T14:06:14Z</time>
      </trkpt>
      <trkpt lat="45.8947" lon="4.74089">
        <ele>182</ele>
        <time>2016-11-30T14:06:15Z</time>
      </trkpt>
      <trkpt lat="45.89465" lon="4.74092">
        <ele>182</ele>
        <time>2016-11-30T14:06:16Z</time>
      </trkpt>
      <trkpt lat="45.89459" lon="4.74094">
        <ele>182</ele>
        <time>2016-11-30T14:06:17Z</time>
      </trkpt>
      <trkpt lat="45.89454" lon="4.74096">
        <ele>182</ele>
        <time>2016-11-30T14:06:18Z</time>
      </trkpt>
      <trkpt lat="45.89448" lon="4.74098">
        <ele>182</ele>
        <time>2016-11-30T14:06:19Z</time>
      </trkpt>
      <trkpt lat="45.89442" lon="4.74101">
        <ele>182</ele>
        <time>2016-11-30T14:06:20Z</time>
      </trkpt>
      <trkpt lat="45.89436" lon="4.74103">
        <ele>182</ele>
        <time>2016-11-30T14:06:21Z</time>
      </trkpt>
      <trkpt lat="45.8943" lon="4.74106">
        <ele>183</ele>
        <time>2016-11-30T14:06:22Z</time>
      </trkpt>
      <trkpt lat="45.89424" lon="4.74109">
        <ele>183</ele>
        <time>2016-11-30T14:06:23Z</time>
      </trkpt>
      <trkpt lat="45.89418" lon="4.74111">
        <ele>183</ele>
        <time>2016-11-30T14:06:24Z</time>
      </trkpt>
      <trkpt lat="45.89413" lon="4.74113">
        <ele>183</ele>
        <time>2016-11-30T14:06:25Z</time>
      </trkpt>
      <trkpt lat="45.89407" lon="4.74115">
        <ele>183</ele>
        <time>2016-11-30T14:06:26Z</time>
      </trkpt>
      <trkpt lat="45.89401" lon="4.74118">
        <ele>184</ele>
        <time>2016-11-30T14:06:27Z</time>
      </trkpt>
      <trkpt lat="45.89396" lon="4.7412">
        <ele>184</ele>
        <time>2016-11-30T14:06:28Z</time>
      </trkpt>
      <trkpt lat="45.89391" lon="4.74123">
        <ele>184</ele>
        <time>2016-11-30T14:06:29Z</time>
      </trkpt>
      <trkpt lat="45.89385" lon="4.74125">
        <ele>184</ele>
        <time>2016-11-30T14:06:30Z</time>
      </trkpt>
      <trkpt lat="45.8938" lon="4.74127">
        <ele>184</ele>
        <time>2016-11-30T14:06:31Z</time>
      </trkpt>
      <trkpt lat="45.89374" lon="4.74129">
        <ele>184</ele>
        <time>2016-11-30T14:06:32Z</time>
      </trkpt>
      <trkpt lat="45.89369" lon="4.74131">
        <ele>184</ele>
        <time>2016-11-30T14:06:33Z</time>
      </trkpt>
      <trkpt lat="45.89364" lon="4.74134">
        <ele>184</ele>
        <time>2016-11-30T14:06:34Z</time>
      </trkpt>
      <trkpt lat="45.89359" lon="4.74136">
        <ele>184</ele>
        <time>2016-11-30T14:06:35Z</time>
      </trkpt>
      <trkpt lat="45.89353" lon="4.74139">
        <ele>184</ele>
        <time>2016-11-30T14:06:36Z</time>
      </trkpt>
      <trkpt lat="45.89348" lon="4.7414">
        <ele>185</ele>
        <time>2016-11-30T14:06:37Z</time>
      </trkpt>
      <trkpt lat="45.89342" lon="4.74142">
        <ele>185</ele>
        <time>2016-11-30T14:06:38Z</time>
      </trkpt>
      <trkpt lat="45.89337" lon="4.74145">
        <ele>185</ele>
        <time>2016-11-30T14:06:39Z</time>
      </trkpt>
      <trkpt lat="45.89332" lon="4.74148">
        <ele>185</ele>
        <time>2016-11-30T14:06:40Z</time>
      </trkpt>
      <trkpt lat="45.89324" lon="4.74151">
        <ele>185</ele>
        <time>2016-11-30T14:06:42Z</time>
      </trkpt>
      <trkpt lat="45.89319" lon="4.74152">
        <ele>185</ele>
        <time>2016-11-30T14:06:43Z</time>
      </trkpt>
      <trkpt lat="45.89312" lon="4.74156">
        <ele>185</ele>
        <time>2016-11-30T14:06:44Z</time>
      </trkpt>
      <trkpt lat="45.89308" lon="4.74159">
        <ele>185</ele>
        <time>2016-11-30T14:06:45Z</time>
      </trkpt>
      <trkpt lat="45.8929" lon="4.7417">
        <ele>186</ele>
        <time>2016-11-30T14:06:48Z</time>
      </trkpt>
      <trkpt lat="45.89284" lon="4.74174">
        <ele>186</ele>
        <time>2016-11-30T14:06:49Z</time>
      </trkpt>
      <trkpt lat="45.89278" lon="4.74178">
        <ele>186</ele>
        <time>2016-11-30T14:06:50Z</time>
      </trkpt>
      <trkpt lat="45.89271" lon="4.74183">
        <ele>186</ele>
        <time>2016-11-30T14:06:51Z</time>
      </trkpt>
      <trkpt lat="45.89265" lon="4.74187">
        <ele>186</ele>
        <time>2016-11-30T14:06:52Z</time>
      </trkpt>
      <trkpt lat="45.89258" lon="4.74187">
        <ele>186</ele>
        <time>2016-11-30T14:06:53Z</time>
      </trkpt>
      <trkpt lat="45.89252" lon="4.74189">
        <ele>186</ele>
        <time>2016-11-30T14:06:54Z</time>
      </trkpt>
      <trkpt lat="45.89246" lon="4.74193">
        <ele>186</ele>
        <time>2016-11-30T14:06:55Z</time>
      </trkpt>
      <trkpt lat="45.89239" lon="4.74196">
        <ele>186</ele>
        <time>2016-11-30T14:06:56Z</time>
      </trkpt>
      <trkpt lat="45.89233" lon="4.742">
        <ele>186</ele>
        <time>2016-11-30T14:06:57Z</time>
      </trkpt>
      <trkpt lat="45.89227" lon="4.74204">
        <ele>186</ele>
        <time>2016-11-30T14:06:58Z</time>
      </trkpt>
      <trkpt lat="45.89223" lon="4.74204">
        <ele>186</ele>
        <time>2016-11-30T14:07:00Z</time>
      </trkpt>
      <trkpt lat="45.89218" lon="4.74207">
        <ele>186</ele>
        <time>2016-11-30T14:07:01Z</time>
      </trkpt>
      <trkpt lat="45.89212" lon="4.74211">
        <ele>186</ele>
        <time>2016-11-30T14:07:02Z</time>
      </trkpt>
      <trkpt lat="45.89207" lon="4.74214">
        <ele>186</ele>
        <time>2016-11-30T14:07:03Z</time>
      </trkpt>
      <trkpt lat="45.89201" lon="4.74217">
        <ele>186</ele>
        <time>2016-11-30T14:07:04Z</time>
      </trkpt>
      <trkpt lat="45.89195" lon="4.74219">
        <ele>186</ele>
        <time>2016-11-30T14:07:05Z</time>
      </trkpt>
      <trkpt lat="45.89189" lon="4.74222">
        <ele>186</ele>
        <time>2016-11-30T14:07:06Z</time>
      </trkpt>
      <trkpt lat="45.89185" lon="4.74224">
        <ele>186</ele>
        <time>2016-11-30T14:07:07Z</time>
      </trkpt>
      <trkpt lat="45.89179" lon="4.74226">
        <ele>186</ele>
        <time>2016-11-30T14:07:08Z</time>
      </trkpt>
      <trkpt lat="45.89173" lon="4.74229">
        <ele>186</ele>
        <time>2016-11-30T14:07:09Z</time>
      </trkpt>
      <trkpt lat="45.89166" lon="4.7423">
        <ele>186</ele>
        <time>2016-11-30T14:07:11Z</time>
      </trkpt>
      <trkpt lat="45.89161" lon="4.74232">
        <ele>186</ele>
        <time>2016-11-30T14:07:12Z</time>
      </trkpt>
      <trkpt lat="45.89156" lon="4.74232">
        <ele>186</ele>
        <time>2016-11-30T14:07:13Z</time>
      </trkpt>
      <trkpt lat="45.89151" lon="4.74234">
        <ele>186</ele>
        <time>2016-11-30T14:07:14Z</time>
      </trkpt>
      <trkpt lat="45.89146" lon="4.74235">
        <ele>186</ele>
        <time>2016-11-30T14:07:15Z</time>
      </trkpt>
      <trkpt lat="45.8914" lon="4.74237">
        <ele>186</ele>
        <time>2016-11-30T14:07:16Z</time>
      </trkpt>
      <trkpt lat="45.89135" lon="4.74239">
        <ele>186</ele>
        <time>2016-11-30T14:07:17Z</time>
      </trkpt>
      <trkpt lat="45.89129" lon="4.74241">
        <ele>186</ele>
        <time>2016-11-30T14:07:18Z</time>
      </trkpt>
      <trkpt lat="45.89124" lon="4.74243">
        <ele>186</ele>
        <time>2016-11-30T14:07:19Z</time>
      </trkpt>
      <trkpt lat="45.89118" lon="4.74245">
        <ele>186</ele>
        <time>2016-11-30T14:07:20Z</time>
      </trkpt>
      <trkpt lat="45.89112" lon="4.74247">
        <ele>186</ele>
        <time>2016-11-30T14:07:21Z</time>
      </trkpt>
      <trkpt lat="45.89106" lon="4.74249">
        <ele>186</ele>
        <time>2016-11-30T14:07:22Z</time>
      </trkpt>
      <trkpt lat="45.89101" lon="4.74251">
        <ele>186</ele>
        <time>2016-11-30T14:07:23Z</time>
      </trkpt>
      <trkpt lat="45.89095" lon="4.74253">
        <ele>186</ele>
        <time>2016-11-30T14:07:24Z</time>
      </trkpt>
      <trkpt lat="45.8909" lon="4.74255">
        <ele>186</ele>
        <time>2016-11-30T14:07:25Z</time>
      </trkpt>
      <trkpt lat="45.89084" lon="4.74257">
        <ele>186</ele>
        <time>2016-11-30T14:07:26Z</time>
      </trkpt>
      <trkpt lat="45.89078" lon="4.74258">
        <ele>186</ele>
        <time>2016-11-30T14:07:27Z</time>
      </trkpt>
      <trkpt lat="45.89072" lon="4.7426">
        <ele>186</ele>
        <time>2016-11-30T14:07:28Z</time>
      </trkpt>
      <trkpt lat="45.89067" lon="4.74262">
        <ele>186</ele>
        <time>2016-11-30T14:07:29Z</time>
      </trkpt>
      <trkpt lat="45.89061" lon="4.74265">
        <ele>187</ele>
        <time>2016-11-30T14:07:30Z</time>
      </trkpt>
      <trkpt lat="45.89056" lon="4.74268">
        <ele>187</ele>
        <time>2016-11-30T14:07:31Z</time>
      </trkpt>
      <trkpt lat="45.89051" lon="4.7427">
        <ele>187</ele>
        <time>2016-11-30T14:07:32Z</time>
      </trkpt>
      <trkpt lat="45.89045" lon="4.74273">
        <ele>187</ele>
        <time>2016-11-30T14:07:33Z</time>
      </trkpt>
      <trkpt lat="45.8904" lon="4.74275">
        <ele>187</ele>
        <time>2016-11-30T14:07:34Z</time>
      </trkpt>
      <trkpt lat="45.89034" lon="4.74276">
        <ele>187</ele>
        <time>2016-11-30T14:07:35Z</time>
      </trkpt>
      <trkpt lat="45.89028" lon="4.74278">
        <ele>187</ele>
        <time>2016-11-30T14:07:36Z</time>
      </trkpt>
      <trkpt lat="45.89022" lon="4.7428">
        <ele>187</ele>
        <time>2016-11-30T14:07:37Z</time>
      </trkpt>
      <trkpt lat="45.89016" lon="4.74282">
        <ele>187</ele>
        <time>2016-11-30T14:07:38Z</time>
      </trkpt>
      <trkpt lat="45.89011" lon="4.74284">
        <ele>187</ele>
        <time>2016-11-30T14:07:39Z</time>
      </trkpt>
      <trkpt lat="45.89004" lon="4.74286">
        <ele>187</ele>
        <time>2016-11-30T14:07:40Z</time>
      </trkpt>
      <trkpt lat="45.88998" lon="4.74288">
        <ele>187</ele>
        <time>2016-11-30T14:07:41Z</time>
      </trkpt>
      <trkpt lat="45.88993" lon="4.74291">
        <ele>187</ele>
        <time>2016-11-30T14:07:42Z</time>
      </trkpt>
      <trkpt lat="45.88986" lon="4.74292">
        <ele>187</ele>
        <time>2016-11-30T14:07:43Z</time>
      </trkpt>
      <trkpt lat="45.8898" lon="4.7429">
        <ele>187</ele>
        <time>2016-11-30T14:07:44Z</time>
      </trkpt>
      <trkpt lat="45.88975" lon="4.74291">
        <ele>187</ele>
        <time>2016-11-30T14:07:45Z</time>
      </trkpt>
      <trkpt lat="45.88969" lon="4.74292">
        <ele>187</ele>
        <time>2016-11-30T14:07:46Z</time>
      </trkpt>
      <trkpt lat="45.88964" lon="4.74292">
        <ele>187</ele>
        <time>2016-11-30T14:07:47Z</time>
      </trkpt>
      <trkpt lat="45.88957" lon="4.74289">
        <ele>187</ele>
        <time>2016-11-30T14:07:48Z</time>
      </trkpt>
      <trkpt lat="45.88951" lon="4.74288">
        <ele>187</ele>
        <time>2016-11-30T14:07:49Z</time>
      </trkpt>
      <trkpt lat="45.88946" lon="4.74287">
        <ele>187</ele>
        <time>2016-11-30T14:07:50Z</time>
      </trkpt>
      <trkpt lat="45.8894" lon="4.74285">
        <ele>187</ele>
        <time>2016-11-30T14:07:51Z</time>
      </trkpt>
      <trkpt lat="45.88935" lon="4.74284">
        <ele>187</ele>
        <time>2016-11-30T14:07:52Z</time>
      </trkpt>
      <trkpt lat="45.88929" lon="4.74282">
        <ele>187</ele>
        <time>2016-11-30T14:07:53Z</time>
      </trkpt>
      <trkpt lat="45.88923" lon="4.74281">
        <ele>187</ele>
        <time>2016-11-30T14:07:54Z</time>
      </trkpt>
      <trkpt lat="45.88916" lon="4.74279">
        <ele>188</ele>
        <time>2016-11-30T14:07:55Z</time>
      </trkpt>
      <trkpt lat="45.88909" lon="4.74277">
        <ele>188</ele>
        <time>2016-11-30T14:07:56Z</time>
      </trkpt>
      <trkpt lat="45.88903" lon="4.74274">
        <ele>188</ele>
        <time>2016-11-30T14:07:57Z</time>
      </trkpt>
      <trkpt lat="45.88897" lon="4.74273">
        <ele>188</ele>
        <time>2016-11-30T14:07:58Z</time>
      </trkpt>
      <trkpt lat="45.8889" lon="4.74271">
        <ele>188</ele>
        <time>2016-11-30T14:07:59Z</time>
      </trkpt>
      <trkpt lat="45.88889" lon="4.74264">
        <ele>188</ele>
        <time>2016-11-30T14:08:00Z</time>
      </trkpt>
      <trkpt lat="45.88884" lon="4.74261">
        <ele>188</ele>
        <time>2016-11-30T14:08:01Z</time>
      </trkpt>
      <trkpt lat="45.88881" lon="4.74255">
        <ele>188</ele>
        <time>2016-11-30T14:08:02Z</time>
      </trkpt>
      <trkpt lat="45.88876" lon="4.74245">
        <ele>187</ele>
        <time>2016-11-30T14:08:04Z</time>
      </trkpt>
      <trkpt lat="45.88873" lon="4.74241">
        <ele>187</ele>
        <time>2016-11-30T14:08:05Z</time>
      </trkpt>
      <trkpt lat="45.88869" lon="4.74237">
        <ele>187</ele>
        <time>2016-11-30T14:08:06Z</time>
      </trkpt>
      <trkpt lat="45.88865" lon="4.74234">
        <ele>187</ele>
        <time>2016-11-30T14:08:07Z</time>
      </trkpt>
      <trkpt lat="45.88858" lon="4.7423">
        <ele>187</ele>
        <time>2016-11-30T14:08:08Z</time>
      </trkpt>
      <trkpt lat="45.88853" lon="4.74227">
        <ele>187</ele>
        <time>2016-11-30T14:08:09Z</time>
      </trkpt>
      <trkpt lat="45.88849" lon="4.74225">
        <ele>187</ele>
        <time>2016-11-30T14:08:10Z</time>
      </trkpt>
      <trkpt lat="45.88844" lon="4.74221">
        <ele>187</ele>
        <time>2016-11-30T14:08:11Z</time>
      </trkpt>
      <trkpt lat="45.88836" lon="4.74215">
        <ele>187</ele>
        <time>2016-11-30T14:08:13Z</time>
      </trkpt>
      <trkpt lat="45.88832" lon="4.74211">
        <ele>188</ele>
        <time>2016-11-30T14:08:14Z</time>
      </trkpt>
      <trkpt lat="45.88828" lon="4.74208">
        <ele>187</ele>
        <time>2016-11-30T14:08:15Z</time>
      </trkpt>
      <trkpt lat="45.88824" lon="4.74205">
        <ele>187</ele>
        <time>2016-11-30T14:08:16Z</time>
      </trkpt>
      <trkpt lat="45.88819" lon="4.74202">
        <ele>187</ele>
        <time>2016-11-30T14:08:17Z</time>
      </trkpt>
      <trkpt lat="45.88816" lon="4.74198">
        <ele>187</ele>
        <time>2016-11-30T14:08:18Z</time>
      </trkpt>
      <trkpt lat="45.88811" lon="4.74195">
        <ele>187</ele>
        <time>2016-11-30T14:08:19Z</time>
      </trkpt>
      <trkpt lat="45.88806" lon="4.74194">
        <ele>187</ele>
        <time>2016-11-30T14:08:20Z</time>
      </trkpt>
      <trkpt lat="45.88802" lon="4.74191">
        <ele>187</ele>
        <time>2016-11-30T14:08:21Z</time>
      </trkpt>
      <trkpt lat="45.88798" lon="4.74188">
        <ele>187</ele>
        <time>2016-11-30T14:08:22Z</time>
      </trkpt>
      <trkpt lat="45.88793" lon="4.74184">
        <ele>188</ele>
        <time>2016-11-30T14:08:23Z</time>
      </trkpt>
      <trkpt lat="45.88787" lon="4.74181">
        <ele>188</ele>
        <time>2016-11-30T14:08:24Z</time>
      </trkpt>
      <trkpt lat="45.88782" lon="4.74178">
        <ele>188</ele>
        <time>2016-11-30T14:08:25Z</time>
      </trkpt>
      <trkpt lat="45.88776" lon="4.74176">
        <ele>188</ele>
        <time>2016-11-30T14:08:26Z</time>
      </trkpt>
      <trkpt lat="45.88771" lon="4.74174">
        <ele>188</ele>
        <time>2016-11-30T14:08:27Z</time>
      </trkpt>
      <trkpt lat="45.88767" lon="4.7417">
        <ele>188</ele>
        <time>2016-11-30T14:08:28Z</time>
      </trkpt>
      <trkpt lat="45.88763" lon="4.74167">
        <ele>188</ele>
        <time>2016-11-30T14:08:29Z</time>
      </trkpt>
      <trkpt lat="45.88758" lon="4.74164">
        <ele>188</ele>
        <time>2016-11-30T14:08:30Z</time>
      </trkpt>
      <trkpt lat="45.88753" lon="4.7416">
        <ele>188</ele>
        <time>2016-11-30T14:08:31Z</time>
      </trkpt>
      <trkpt lat="45.88748" lon="4.74156">
        <ele>188</ele>
        <time>2016-11-30T14:08:32Z</time>
      </trkpt>
      <trkpt lat="45.88743" lon="4.74153">
        <ele>188</ele>
        <time>2016-11-30T14:08:33Z</time>
      </trkpt>
      <trkpt lat="45.88739" lon="4.7415">
        <ele>188</ele>
        <time>2016-11-30T14:08:34Z</time>
      </trkpt>
      <trkpt lat="45.88733" lon="4.74146">
        <ele>188</ele>
        <time>2016-11-30T14:08:35Z</time>
      </trkpt>
      <trkpt lat="45.88728" lon="4.74141">
        <ele>188</ele>
        <time>2016-11-30T14:08:36Z</time>
      </trkpt>
      <trkpt lat="45.88723" lon="4.74136">
        <ele>188</ele>
        <time>2016-11-30T14:08:37Z</time>
      </trkpt>
      <trkpt lat="45.88718" lon="4.74132">
        <ele>188</ele>
        <time>2016-11-30T14:08:38Z</time>
      </trkpt>
      <trkpt lat="45.88714" lon="4.74128">
        <ele>188</ele>
        <time>2016-11-30T14:08:39Z</time>
      </trkpt>
      <trkpt lat="45.88708" lon="4.74124">
        <ele>188</ele>
        <time>2016-11-30T14:08:40Z</time>
      </trkpt>
      <trkpt lat="45.88703" lon="4.74119">
        <ele>188</ele>
        <time>2016-11-30T14:08:41Z</time>
      </trkpt>
      <trkpt lat="45.88698" lon="4.74116">
        <ele>188</ele>
        <time>2016-11-30T14:08:42Z</time>
      </trkpt>
      <trkpt lat="45.88693" lon="4.74113">
        <ele>188</ele>
        <time>2016-11-30T14:08:43Z</time>
      </trkpt>
      <trkpt lat="45.88687" lon="4.74111">
        <ele>188</ele>
        <time>2016-11-30T14:08:44Z</time>
      </trkpt>
      <trkpt lat="45.88682" lon="4.74109">
        <ele>188</ele>
        <time>2016-11-30T14:08:45Z</time>
      </trkpt>
      <trkpt lat="45.88678" lon="4.74105">
        <ele>188</ele>
        <time>2016-11-30T14:08:46Z</time>
      </trkpt>
      <trkpt lat="45.88674" lon="4.741">
        <ele>188</ele>
        <time>2016-11-30T14:08:47Z</time>
      </trkpt>
      <trkpt lat="45.8867" lon="4.74092">
        <ele>188</ele>
        <time>2016-11-30T14:08:48Z</time>
      </trkpt>
      <trkpt lat="45.88666" lon="4.74086">
        <ele>188</ele>
        <time>2016-11-30T14:08:49Z</time>
      </trkpt>
      <trkpt lat="45.88662" lon="4.74079">
        <ele>188</ele>
        <time>2016-11-30T14:08:50Z</time>
      </trkpt>
      <trkpt lat="45.88659" lon="4.74073">
        <ele>188</ele>
        <time>2016-11-30T14:08:51Z</time>
      </trkpt>
      <trkpt lat="45.88655" lon="4.74066">
        <ele>188</ele>
        <time>2016-11-30T14:08:52Z</time>
      </trkpt>
      <trkpt lat="45.88652" lon="4.74059">
        <ele>187</ele>
        <time>2016-11-30T14:08:53Z</time>
      </trkpt>
      <trkpt lat="45.88648" lon="4.74052">
        <ele>187</ele>
        <time>2016-11-30T14:08:54Z</time>
      </trkpt>
      <trkpt lat="45.88644" lon="4.74045">
        <ele>187</ele>
        <time>2016-11-30T14:08:55Z</time>
      </trkpt>
      <trkpt lat="45.88641" lon="4.74037">
        <ele>187</ele>
        <time>2016-11-30T14:08:56Z</time>
      </trkpt>
      <trkpt lat="45.88637" lon="4.7403">
        <ele>187</ele>
        <time>2016-11-30T14:08:57Z</time>
      </trkpt>
      <trkpt lat="45.88637" lon="4.74021">
        <ele>187</ele>
        <time>2016-11-30T14:08:58Z</time>
      </trkpt>
      <trkpt lat="45.88636" lon="4.74013">
        <ele>187</ele>
        <time>2016-11-30T14:08:59Z</time>
      </trkpt>
      <trkpt lat="45.88635" lon="4.74005">
        <ele>187</ele>
        <time>2016-11-30T14:09:00Z</time>
      </trkpt>
      <trkpt lat="45.88633" lon="4.73999">
        <ele>187</ele>
        <time>2016-11-30T14:09:01Z</time>
      </trkpt>
      <trkpt lat="45.88632" lon="4.73991">
        <ele>187</ele>
        <time>2016-11-30T14:09:02Z</time>
      </trkpt>
      <trkpt lat="45.88631" lon="4.73984">
        <ele>187</ele>
        <time>2016-11-30T14:09:03Z</time>
      </trkpt>
      <trkpt lat="45.8863" lon="4.73975">
        <ele>187</ele>
        <time>2016-11-30T14:09:04Z</time>
      </trkpt>
      <trkpt lat="45.88629" lon="4.73967">
        <ele>187</ele>
        <time>2016-11-30T14:09:05Z</time>
      </trkpt>
      <trkpt lat="45.88627" lon="4.7396">
        <ele>187</ele>
        <time>2016-11-30T14:09:06Z</time>
      </trkpt>
      <trkpt lat="45.88627" lon="4.73951">
        <ele>187</ele>
        <time>2016-11-30T14:09:07Z</time>
      </trkpt>
      <trkpt lat="45.88628" lon="4.73939">
        <ele>187</ele>
        <time>2016-11-30T14:09:08Z</time>
      </trkpt>
      <trkpt lat="45.88629" lon="4.7393">
        <ele>187</ele>
        <time>2016-11-30T14:09:09Z</time>
      </trkpt>
      <trkpt lat="45.8863" lon="4.73921">
        <ele>187</ele>
        <time>2016-11-30T14:09:10Z</time>
      </trkpt>
      <trkpt lat="45.88632" lon="4.73912">
        <ele>187</ele>
        <time>2016-11-30T14:09:11Z</time>
      </trkpt>
      <trkpt lat="45.88632" lon="4.73903">
        <ele>187</ele>
        <time>2016-11-30T14:09:12Z</time>
      </trkpt>
      <trkpt lat="45.88632" lon="4.73895">
        <ele>187</ele>
        <time>2016-11-30T14:09:13Z</time>
      </trkpt>
      <trkpt lat="45.88632" lon="4.73886">
        <ele>187</ele>
        <time>2016-11-30T14:09:14Z</time>
      </trkpt>
      <trkpt lat="45.88633" lon="4.73877">
        <ele>187</ele>
        <time>2016-11-30T14:09:15Z</time>
      </trkpt>
      <trkpt lat="45.88632" lon="4.73869">
        <ele>187</ele>
        <time>2016-11-30T14:09:16Z</time>
      </trkpt>
      <trkpt lat="45.88633" lon="4.73861">
        <ele>187</ele>
        <time>2016-11-30T14:09:17Z</time>
      </trkpt>
      <trkpt lat="45.88633" lon="4.73853">
        <ele>187</ele>
        <time>2016-11-30T14:09:18Z</time>
      </trkpt>
      <trkpt lat="45.88633" lon="4.73843">
        <ele>187</ele>
        <time>2016-11-30T14:09:19Z</time>
      </trkpt>
      <trkpt lat="45.88634" lon="4.73835">
        <ele>187</ele>
        <time>2016-11-30T14:09:20Z</time>
      </trkpt>
      <trkpt lat="45.88635" lon="4.73827">
        <ele>187</ele>
        <time>2016-11-30T14:09:21Z</time>
      </trkpt>
      <trkpt lat="45.88636" lon="4.73819">
        <ele>187</ele>
        <time>2016-11-30T14:09:22Z</time>
      </trkpt>
      <trkpt lat="45.88638" lon="4.7381">
        <ele>187</ele>
        <time>2016-11-30T14:09:23Z</time>
      </trkpt>
      <trkpt lat="45.88637" lon="4.73803">
        <ele>187</ele>
        <time>2016-11-30T14:09:24Z</time>
      </trkpt>
      <trkpt lat="45.88638" lon="4.73796">
        <ele>187</ele>
        <time>2016-11-30T14:09:25Z</time>
      </trkpt>
      <trkpt lat="45.88638" lon="4.73788">
        <ele>187</ele>
        <time>2016-11-30T14:09:26Z</time>
      </trkpt>
      <trkpt lat="45.88639" lon="4.73779">
        <ele>187</ele>
        <time>2016-11-30T14:09:27Z</time>
      </trkpt>
      <trkpt lat="45.88639" lon="4.73772">
        <ele>187</ele>
        <time>2016-11-30T14:09:28Z</time>
      </trkpt>
      <trkpt lat="45.88639" lon="4.73764">
        <ele>187</ele>
        <time>2016-11-30T14:09:29Z</time>
      </trkpt>
      <trkpt lat="45.88639" lon="4.73757">
        <ele>187</ele>
        <time>2016-11-30T14:09:30Z</time>
      </trkpt>
      <trkpt lat="45.8864" lon="4.7375">
        <ele>186</ele>
        <time>2016-11-30T14:09:31Z</time>
      </trkpt>
      <trkpt lat="45.88641" lon="4.73743">
        <ele>186</ele>
        <time>2016-11-30T14:09:32Z</time>
      </trkpt>
      <trkpt lat="45.88641" lon="4.73737">
        <ele>186</ele>
        <time>2016-11-30T14:09:33Z</time>
      </trkpt>
      <trkpt lat="45.88642" lon="4.7373">
        <ele>186</ele>
        <time>2016-11-30T14:09:34Z</time>
      </trkpt>
      <trkpt lat="45.88643" lon="4.73724">
        <ele>186</ele>
        <time>2016-11-30T14:09:35Z</time>
      </trkpt>
      <trkpt lat="45.88644" lon="4.73717">
        <ele>186</ele>
        <time>2016-11-30T14:09:36Z</time>
      </trkpt>
      <trkpt lat="45.88645" lon="4.73704">
        <ele>186</ele>
        <time>2016-11-30T14:09:38Z</time>
      </trkpt>
      <trkpt lat="45.88645" lon="4.73698">
        <ele>186</ele>
        <time>2016-11-30T14:09:39Z</time>
      </trkpt>
      <trkpt lat="45.88646" lon="4.73686">
        <ele>186</ele>
        <time>2016-11-30T14:09:41Z</time>
      </trkpt>
      <trkpt lat="45.88647" lon="4.73679">
        <ele>186</ele>
        <time>2016-11-30T14:09:42Z</time>
      </trkpt>
      <trkpt lat="45.88649" lon="4.73667">
        <ele>186</ele>
        <time>2016-11-30T14:09:44Z</time>
      </trkpt>
      <trkpt lat="45.8865" lon="4.73661">
        <ele>186</ele>
        <time>2016-11-30T14:09:45Z</time>
      </trkpt>
      <trkpt lat="45.88651" lon="4.73649">
        <ele>186</ele>
        <time>2016-11-30T14:09:47Z</time>
      </trkpt>
      <trkpt lat="45.88649" lon="4.73643">
        <ele>186</ele>
        <time>2016-11-30T14:09:48Z</time>
      </trkpt>
      <trkpt lat="45.88649" lon="4.73636">
        <ele>186</ele>
        <time>2016-11-30T14:09:49Z</time>
      </trkpt>
      <trkpt lat="45.8865" lon="4.73629">
        <ele>186</ele>
        <time>2016-11-30T14:09:50Z</time>
      </trkpt>
      <trkpt lat="45.88651" lon="4.73621">
        <ele>186</ele>
        <time>2016-11-30T14:09:51Z</time>
      </trkpt>
      <trkpt lat="45.88651" lon="4.73614">
        <ele>186</ele>
        <time>2016-11-30T14:09:52Z</time>
      </trkpt>
      <trkpt lat="45.88652" lon="4.73607">
        <ele>186</ele>
        <time>2016-11-30T14:09:53Z</time>
      </trkpt>
      <trkpt lat="45.88651" lon="4.736">
        <ele>185</ele>
        <time>2016-11-30T14:09:54Z</time>
      </trkpt>
      <trkpt lat="45.88652" lon="4.73592">
        <ele>185</ele>
        <time>2016-11-30T14:09:55Z</time>
      </trkpt>
      <trkpt lat="45.88652" lon="4.73584">
        <ele>185</ele>
        <time>2016-11-30T14:09:56Z</time>
      </trkpt>
      <trkpt lat="45.88652" lon="4.73575">
        <ele>185</ele>
        <time>2016-11-30T14:09:57Z</time>
      </trkpt>
      <trkpt lat="45.88654" lon="4.73565">
        <ele>185</ele>
        <time>2016-11-30T14:09:58Z</time>
      </trkpt>
      <trkpt lat="45.88654" lon="4.73556">
        <ele>185</ele>
        <time>2016-11-30T14:09:59Z</time>
      </trkpt>
      <trkpt lat="45.88654" lon="4.73547">
        <ele>185</ele>
        <time>2016-11-30T14:10:00Z</time>
      </trkpt>
      <trkpt lat="45.88655" lon="4.73537">
        <ele>185</ele>
        <time>2016-11-30T14:10:01Z</time>
      </trkpt>
      <trkpt lat="45.88655" lon="4.73528">
        <ele>185</ele>
        <time>2016-11-30T14:10:02Z</time>
      </trkpt>
      <trkpt lat="45.88655" lon="4.73518">
        <ele>185</ele>
        <time>2016-11-30T14:10:03Z</time>
      </trkpt>
      <trkpt lat="45.88658" lon="4.73508">
        <ele>184</ele>
        <time>2016-11-30T14:10:04Z</time>
      </trkpt>
      <trkpt lat="45.88659" lon="4.73497">
        <ele>184</ele>
        <time>2016-11-30T14:10:05Z</time>
      </trkpt>
      <trkpt lat="45.88661" lon="4.73487">
        <ele>184</ele>
        <time>2016-11-30T14:10:06Z</time>
      </trkpt>
      <trkpt lat="45.88661" lon="4.73476">
        <ele>184</ele>
        <time>2016-11-30T14:10:07Z</time>
      </trkpt>
      <trkpt lat="45.88661" lon="4.73466">
        <ele>184</ele>
        <time>2016-11-30T14:10:08Z</time>
      </trkpt>
      <trkpt lat="45.8866" lon="4.73456">
        <ele>184</ele>
        <time>2016-11-30T14:10:09Z</time>
      </trkpt>
      <trkpt lat="45.88659" lon="4.73445">
        <ele>184</ele>
        <time>2016-11-30T14:10:10Z</time>
      </trkpt>
      <trkpt lat="45.88659" lon="4.73435">
        <ele>184</ele>
        <time>2016-11-30T14:10:11Z</time>
      </trkpt>
      <trkpt lat="45.88657" lon="4.73425">
        <ele>184</ele>
        <time>2016-11-30T14:10:12Z</time>
      </trkpt>
      <trkpt lat="45.88656" lon="4.73415">
        <ele>184</ele>
        <time>2016-11-30T14:10:13Z</time>
      </trkpt>
      <trkpt lat="45.88654" lon="4.73405">
        <ele>184</ele>
        <time>2016-11-30T14:10:14Z</time>
      </trkpt>
      <trkpt lat="45.88652" lon="4.73395">
        <ele>184</ele>
        <time>2016-11-30T14:10:15Z</time>
      </trkpt>
      <trkpt lat="45.88652" lon="4.73386">
        <ele>184</ele>
        <time>2016-11-30T14:10:16Z</time>
      </trkpt>
      <trkpt lat="45.88652" lon="4.73377">
        <ele>184</ele>
        <time>2016-11-30T14:10:17Z</time>
      </trkpt>
      <trkpt lat="45.8865" lon="4.73372">
        <ele>184</ele>
        <time>2016-11-30T14:10:18Z</time>
      </trkpt>
      <trkpt lat="45.88646" lon="4.73365">
        <ele>184</ele>
        <time>2016-11-30T14:10:20Z</time>
      </trkpt>
      <trkpt lat="45.88642" lon="4.73363">
        <ele>184</ele>
        <time>2016-11-30T14:10:21Z</time>
      </trkpt>
      <trkpt lat="45.88638" lon="4.73361">
        <ele>184</ele>
        <time>2016-11-30T14:10:22Z</time>
      </trkpt>
      <trkpt lat="45.88621" lon="4.73368">
        <ele>183</ele>
        <time>2016-11-30T14:10:23Z</time>
      </trkpt>
      <trkpt lat="45.88611" lon="4.73371">
        <ele>183</ele>
        <time>2016-11-30T14:10:24Z</time>
      </trkpt>
      <trkpt lat="45.88603" lon="4.73372">
        <ele>183</ele>
        <time>2016-11-30T14:10:25Z</time>
      </trkpt>
      <trkpt lat="45.88595" lon="4.73373">
        <ele>183</ele>
        <time>2016-11-30T14:10:26Z</time>
      </trkpt>
      <trkpt lat="45.88589" lon="4.73375">
        <ele>183</ele>
        <time>2016-11-30T14:10:27Z</time>
      </trkpt>
      <trkpt lat="45.88583" lon="4.73377">
        <ele>183</ele>
        <time>2016-11-30T14:10:28Z</time>
      </trkpt>
      <trkpt lat="45.88576" lon="4.73381">
        <ele>183</ele>
        <time>2016-11-30T14:10:29Z</time>
      </trkpt>
      <trkpt lat="45.88569" lon="4.73385">
        <ele>183</ele>
        <time>2016-11-30T14:10:30Z</time>
      </trkpt>
      <trkpt lat="45.88563" lon="4.73387">
        <ele>183</ele>
        <time>2016-11-30T14:10:31Z</time>
      </trkpt>
      <trkpt lat="45.88557" lon="4.73388">
        <ele>183</ele>
        <time>2016-11-30T14:10:32Z</time>
      </trkpt>
      <trkpt lat="45.88552" lon="4.73388">
        <ele>183</ele>
        <time>2016-11-30T14:10:33Z</time>
      </trkpt>
      <trkpt lat="45.88546" lon="4.7339">
        <ele>183</ele>
        <time>2016-11-30T14:10:34Z</time>
      </trkpt>
      <trkpt lat="45.8854" lon="4.73392">
        <ele>183</ele>
        <time>2016-11-30T14:10:35Z</time>
      </trkpt>
      <trkpt lat="45.88534" lon="4.73393">
        <ele>183</ele>
        <time>2016-11-30T14:10:36Z</time>
      </trkpt>
      <trkpt lat="45.88528" lon="4.73395">
        <ele>183</ele>
        <time>2016-11-30T14:10:37Z</time>
      </trkpt>
      <trkpt lat="45.88522" lon="4.73397">
        <ele>183</ele>
        <time>2016-11-30T14:10:38Z</time>
      </trkpt>
      <trkpt lat="45.88517" lon="4.73399">
        <ele>184</ele>
        <time>2016-11-30T14:10:39Z</time>
      </trkpt>
      <trkpt lat="45.88511" lon="4.73401">
        <ele>184</ele>
        <time>2016-11-30T14:10:40Z</time>
      </trkpt>
      <trkpt lat="45.88505" lon="4.73404">
        <ele>184</ele>
        <time>2016-11-30T14:10:41Z</time>
      </trkpt>
      <trkpt lat="45.88499" lon="4.73406">
        <ele>184</ele>
        <time>2016-11-30T14:10:42Z</time>
      </trkpt>
      <trkpt lat="45.88493" lon="4.73408">
        <ele>184</ele>
        <time>2016-11-30T14:10:43Z</time>
      </trkpt>
      <trkpt lat="45.88488" lon="4.7341">
        <ele>184</ele>
        <time>2016-11-30T14:10:44Z</time>
      </trkpt>
      <trkpt lat="45.88482" lon="4.73411">
        <ele>184</ele>
        <time>2016-11-30T14:10:45Z</time>
      </trkpt>
      <trkpt lat="45.88476" lon="4.73413">
        <ele>184</ele>
        <time>2016-11-30T14:10:46Z</time>
      </trkpt>
      <trkpt lat="45.8847" lon="4.73416">
        <ele>184</ele>
        <time>2016-11-30T14:10:47Z</time>
      </trkpt>
      <trkpt lat="45.88465" lon="4.73417">
        <ele>184</ele>
        <time>2016-11-30T14:10:48Z</time>
      </trkpt>
      <trkpt lat="45.88459" lon="4.73419">
        <ele>184</ele>
        <time>2016-11-30T14:10:49Z</time>
      </trkpt>
      <trkpt lat="45.88453" lon="4.73421">
        <ele>184</ele>
        <time>2016-11-30T14:10:50Z</time>
      </trkpt>
      <trkpt lat="45.88447" lon="4.73423">
        <ele>184</ele>
        <time>2016-11-30T14:10:51Z</time>
      </trkpt>
      <trkpt lat="45.88441" lon="4.73426">
        <ele>184</ele>
        <time>2016-11-30T14:10:52Z</time>
      </trkpt>
      <trkpt lat="45.88434" lon="4.73427">
        <ele>184</ele>
        <time>2016-11-30T14:10:53Z</time>
      </trkpt>
      <trkpt lat="45.88428" lon="4.7343">
        <ele>184</ele>
        <time>2016-11-30T14:10:54Z</time>
      </trkpt>
      <trkpt lat="45.88422" lon="4.73431">
        <ele>184</ele>
        <time>2016-11-30T14:10:55Z</time>
      </trkpt>
      <trkpt lat="45.88417" lon="4.73434">
        <ele>184</ele>
        <time>2016-11-30T14:10:56Z</time>
      </trkpt>
      <trkpt lat="45.8841" lon="4.73435">
        <ele>184</ele>
        <time>2016-11-30T14:10:57Z</time>
      </trkpt>
      <trkpt lat="45.88405" lon="4.73437">
        <ele>184</ele>
        <time>2016-11-30T14:10:58Z</time>
      </trkpt>
      <trkpt lat="45.88399" lon="4.73439">
        <ele>184</ele>
        <time>2016-11-30T14:10:59Z</time>
      </trkpt>
      <trkpt lat="45.88394" lon="4.73441">
        <ele>184</ele>
        <time>2016-11-30T14:11:00Z</time>
      </trkpt>
      <trkpt lat="45.88388" lon="4.73442">
        <ele>184</ele>
        <time>2016-11-30T14:11:01Z</time>
      </trkpt>
      <trkpt lat="45.88383" lon="4.73444">
        <ele>184</ele>
        <time>2016-11-30T14:11:02Z</time>
      </trkpt>
      <trkpt lat="45.88377" lon="4.73445">
        <ele>184</ele>
        <time>2016-11-30T14:11:03Z</time>
      </trkpt>
      <trkpt lat="45.88371" lon="4.73447">
        <ele>184</ele>
        <time>2016-11-30T14:11:04Z</time>
      </trkpt>
      <trkpt lat="45.88366" lon="4.73449">
        <ele>184</ele>
        <time>2016-11-30T14:11:05Z</time>
      </trkpt>
      <trkpt lat="45.8836" lon="4.73451">
        <ele>184</ele>
        <time>2016-11-30T14:11:06Z</time>
      </trkpt>
      <trkpt lat="45.88355" lon="4.73453">
        <ele>184</ele>
        <time>2016-11-30T14:11:07Z</time>
      </trkpt>
      <trkpt lat="45.8835" lon="4.73455">
        <ele>184</ele>
        <time>2016-11-30T14:11:08Z</time>
      </trkpt>
      <trkpt lat="45.88345" lon="4.73457">
        <ele>184</ele>
        <time>2016-11-30T14:11:09Z</time>
      </trkpt>
      <trkpt lat="45.88339" lon="4.73459">
        <ele>184</ele>
        <time>2016-11-30T14:11:10Z</time>
      </trkpt>
      <trkpt lat="45.88334" lon="4.73461">
        <ele>184</ele>
        <time>2016-11-30T14:11:11Z</time>
      </trkpt>
      <trkpt lat="45.88329" lon="4.73463">
        <ele>184</ele>
        <time>2016-11-30T14:11:12Z</time>
      </trkpt>
      <trkpt lat="45.88323" lon="4.73465">
        <ele>184</ele>
        <time>2016-11-30T14:11:13Z</time>
      </trkpt>
      <trkpt lat="45.88318" lon="4.73467">
        <ele>184</ele>
        <time>2016-11-30T14:11:14Z</time>
      </trkpt>
      <trkpt lat="45.88312" lon="4.7347">
        <ele>184</ele>
        <time>2016-11-30T14:11:15Z</time>
      </trkpt>
      <trkpt lat="45.88307" lon="4.73472">
        <ele>184</ele>
        <time>2016-11-30T14:11:16Z</time>
      </trkpt>
      <trkpt lat="45.88301" lon="4.73475">
        <ele>184</ele>
        <time>2016-11-30T14:11:17Z</time>
      </trkpt>
      <trkpt lat="45.88295" lon="4.73476">
        <ele>184</ele>
        <time>2016-11-30T14:11:18Z</time>
      </trkpt>
      <trkpt lat="45.8829" lon="4.73478">
        <ele>184</ele>
        <time>2016-11-30T14:11:19Z</time>
      </trkpt>
      <trkpt lat="45.88285" lon="4.73481">
        <ele>184</ele>
        <time>2016-11-30T14:11:20Z</time>
      </trkpt>
      <trkpt lat="45.8828" lon="4.73484">
        <ele>184</ele>
        <time>2016-11-30T14:11:21Z</time>
      </trkpt>
      <trkpt lat="45.88275" lon="4.73487">
        <ele>184</ele>
        <time>2016-11-30T14:11:22Z</time>
      </trkpt>
      <trkpt lat="45.88271" lon="4.73491">
        <ele>184</ele>
        <time>2016-11-30T14:11:23Z</time>
      </trkpt>
      <trkpt lat="45.88266" lon="4.73495">
        <ele>184</ele>
        <time>2016-11-30T14:11:24Z</time>
      </trkpt>
      <trkpt lat="45.88261" lon="4.73499">
        <ele>185</ele>
        <time>2016-11-30T14:11:25Z</time>
      </trkpt>
      <trkpt lat="45.88255" lon="4.73503">
        <ele>185</ele>
        <time>2016-11-30T14:11:26Z</time>
      </trkpt>
      <trkpt lat="45.8825" lon="4.73506">
        <ele>185</ele>
        <time>2016-11-30T14:11:27Z</time>
      </trkpt>
      <trkpt lat="45.88244" lon="4.7351">
        <ele>185</ele>
        <time>2016-11-30T14:11:28Z</time>
      </trkpt>
      <trkpt lat="45.88239" lon="4.73514">
        <ele>185</ele>
        <time>2016-11-30T14:11:29Z</time>
      </trkpt>
      <trkpt lat="45.88234" lon="4.73518">
        <ele>185</ele>
        <time>2016-11-30T14:11:30Z</time>
      </trkpt>
      <trkpt lat="45.88229" lon="4.73522">
        <ele>185</ele>
        <time>2016-11-30T14:11:31Z</time>
      </trkpt>
      <trkpt lat="45.88224" lon="4.73526">
        <ele>185</ele>
        <time>2016-11-30T14:11:32Z</time>
      </trkpt>
      <trkpt lat="45.88218" lon="4.73528">
        <ele>185</ele>
        <time>2016-11-30T14:11:33Z</time>
      </trkpt>
      <trkpt lat="45.88213" lon="4.73531">
        <ele>185</ele>
        <time>2016-11-30T14:11:34Z</time>
      </trkpt>
      <trkpt lat="45.88208" lon="4.73534">
        <ele>186</ele>
        <time>2016-11-30T14:11:35Z</time>
      </trkpt>
      <trkpt lat="45.88203" lon="4.73538">
        <ele>186</ele>
        <time>2016-11-30T14:11:36Z</time>
      </trkpt>
      <trkpt lat="45.88199" lon="4.73541">
        <ele>186</ele>
        <time>2016-11-30T14:11:37Z</time>
      </trkpt>
      <trkpt lat="45.88194" lon="4.73544">
        <ele>186</ele>
        <time>2016-11-30T14:11:38Z</time>
      </trkpt>
      <trkpt lat="45.88189" lon="4.73548">
        <ele>186</ele>
        <time>2016-11-30T14:11:39Z</time>
      </trkpt>
      <trkpt lat="45.88185" lon="4.73551">
        <ele>186</ele>
        <time>2016-11-30T14:11:40Z</time>
      </trkpt>
      <trkpt lat="45.8818" lon="4.73555">
        <ele>186</ele>
        <time>2016-11-30T14:11:41Z</time>
      </trkpt>
      <trkpt lat="45.88176" lon="4.73558">
        <ele>186</ele>
        <time>2016-11-30T14:11:42Z</time>
      </trkpt>
      <trkpt lat="45.88171" lon="4.73562">
        <ele>186</ele>
        <time>2016-11-30T14:11:43Z</time>
      </trkpt>
      <trkpt lat="45.88166" lon="4.73565">
        <ele>186</ele>
        <time>2016-11-30T14:11:44Z</time>
      </trkpt>
      <trkpt lat="45.88162" lon="4.73568">
        <ele>186</ele>
        <time>2016-11-30T14:11:45Z</time>
      </trkpt>
      <trkpt lat="45.88157" lon="4.73571">
        <ele>186</ele>
        <time>2016-11-30T14:11:46Z</time>
      </trkpt>
      <trkpt lat="45.88152" lon="4.73574">
        <ele>186</ele>
        <time>2016-11-30T14:11:47Z</time>
      </trkpt>
      <trkpt lat="45.88147" lon="4.73577">
        <ele>186</ele>
        <time>2016-11-30T14:11:48Z</time>
      </trkpt>
      <trkpt lat="45.88142" lon="4.7358">
        <ele>186</ele>
        <time>2016-11-30T14:11:49Z</time>
      </trkpt>
      <trkpt lat="45.88138" lon="4.73584">
        <ele>187</ele>
        <time>2016-11-30T14:11:50Z</time>
      </trkpt>
      <trkpt lat="45.88134" lon="4.73588">
        <ele>187</ele>
        <time>2016-11-30T14:11:51Z</time>
      </trkpt>
      <trkpt lat="45.88128" lon="4.73592">
        <ele>187</ele>
        <time>2016-11-30T14:11:52Z</time>
      </trkpt>
      <trkpt lat="45.88123" lon="4.73595">
        <ele>187</ele>
        <time>2016-11-30T14:11:53Z</time>
      </trkpt>
      <trkpt lat="45.88118" lon="4.73599">
        <ele>187</ele>
        <time>2016-11-30T14:11:54Z</time>
      </trkpt>
      <trkpt lat="45.88113" lon="4.73602">
        <ele>188</ele>
        <time>2016-11-30T14:11:55Z</time>
      </trkpt>
      <trkpt lat="45.88108" lon="4.73606">
        <ele>188</ele>
        <time>2016-11-30T14:11:56Z</time>
      </trkpt>
      <trkpt lat="45.88103" lon="4.73609">
        <ele>188</ele>
        <time>2016-11-30T14:11:57Z</time>
      </trkpt>
      <trkpt lat="45.88098" lon="4.73613">
        <ele>188</ele>
        <time>2016-11-30T14:11:58Z</time>
      </trkpt>
      <trkpt lat="45.88093" lon="4.73616">
        <ele>188</ele>
        <time>2016-11-30T14:11:59Z</time>
      </trkpt>
      <trkpt lat="45.88089" lon="4.73619">
        <ele>188</ele>
        <time>2016-11-30T14:12:00Z</time>
      </trkpt>
      <trkpt lat="45.88084" lon="4.73622">
        <ele>188</ele>
        <time>2016-11-30T14:12:01Z</time>
      </trkpt>
      <trkpt lat="45.88079" lon="4.73625">
        <ele>189</ele>
        <time>2016-11-30T14:12:02Z</time>
      </trkpt>
      <trkpt lat="45.88074" lon="4.73628">
        <ele>189</ele>
        <time>2016-11-30T14:12:03Z</time>
      </trkpt>
      <trkpt lat="45.88069" lon="4.73631">
        <ele>189</ele>
        <time>2016-11-30T14:12:04Z</time>
      </trkpt>
      <trkpt lat="45.88064" lon="4.73634">
        <ele>189</ele>
        <time>2016-11-30T14:12:05Z</time>
      </trkpt>
      <trkpt lat="45.88059" lon="4.73637">
        <ele>189</ele>
        <time>2016-11-30T14:12:06Z</time>
      </trkpt>
      <trkpt lat="45.88054" lon="4.73639">
        <ele>189</ele>
        <time>2016-11-30T14:12:07Z</time>
      </trkpt>
      <trkpt lat="45.88049" lon="4.73642">
        <ele>189</ele>
        <time>2016-11-30T14:12:08Z</time>
      </trkpt>
      <trkpt lat="45.88042" lon="4.73648">
        <ele>189</ele>
        <time>2016-11-30T14:12:10Z</time>
      </trkpt>
      <trkpt lat="45.88037" lon="4.73652">
        <ele>189</ele>
        <time>2016-11-30T14:12:11Z</time>
      </trkpt>
      <trkpt lat="45.88033" lon="4.73655">
        <ele>189</ele>
        <time>2016-11-30T14:12:12Z</time>
      </trkpt>
      <trkpt lat="45.88029" lon="4.73657">
        <ele>189</ele>
        <time>2016-11-30T14:12:13Z</time>
      </trkpt>
      <trkpt lat="45.88024" lon="4.73659">
        <ele>189</ele>
        <time>2016-11-30T14:12:14Z</time>
      </trkpt>
      <trkpt lat="45.88019" lon="4.73659">
        <ele>189</ele>
        <time>2016-11-30T14:12:15Z</time>
      </trkpt>
      <trkpt lat="45.88014" lon="4.73659">
        <ele>189</ele>
        <time>2016-11-30T14:12:16Z</time>
      </trkpt>
      <trkpt lat="45.88008" lon="4.73659">
        <ele>190</ele>
        <time>2016-11-30T14:12:17Z</time>
      </trkpt>
      <trkpt lat="45.88003" lon="4.73657">
        <ele>190</ele>
        <time>2016-11-30T14:12:18Z</time>
      </trkpt>
      <trkpt lat="45.87998" lon="4.73656">
        <ele>190</ele>
        <time>2016-11-30T14:12:19Z</time>
      </trkpt>
      <trkpt lat="45.87993" lon="4.73653">
        <ele>190</ele>
        <time>2016-11-30T14:12:20Z</time>
      </trkpt>
      <trkpt lat="45.87988" lon="4.73652">
        <ele>190</ele>
        <time>2016-11-30T14:12:21Z</time>
      </trkpt>
      <trkpt lat="45.87982" lon="4.73651">
        <ele>190</ele>
        <time>2016-11-30T14:12:22Z</time>
      </trkpt>
      <trkpt lat="45.87976" lon="4.73649">
        <ele>190</ele>
        <time>2016-11-30T14:12:23Z</time>
      </trkpt>
      <trkpt lat="45.87971" lon="4.73647">
        <ele>190</ele>
        <time>2016-11-30T14:12:24Z</time>
      </trkpt>
      <trkpt lat="45.87965" lon="4.73646">
        <ele>190</ele>
        <time>2016-11-30T14:12:25Z</time>
      </trkpt>
      <trkpt lat="45.87959" lon="4.73643">
        <ele>190</ele>
        <time>2016-11-30T14:12:26Z</time>
      </trkpt>
      <trkpt lat="45.87953" lon="4.73641">
        <ele>190</ele>
        <time>2016-11-30T14:12:27Z</time>
      </trkpt>
      <trkpt lat="45.87947" lon="4.7364">
        <ele>190</ele>
        <time>2016-11-30T14:12:28Z</time>
      </trkpt>
      <trkpt lat="45.87941" lon="4.73638">
        <ele>190</ele>
        <time>2016-11-30T14:12:29Z</time>
      </trkpt>
      <trkpt lat="45.87935" lon="4.73636">
        <ele>190</ele>
        <time>2016-11-30T14:12:30Z</time>
      </trkpt>
      <trkpt lat="45.87929" lon="4.73635">
        <ele>190</ele>
        <time>2016-11-30T14:12:31Z</time>
      </trkpt>
      <trkpt lat="45.87924" lon="4.73633">
        <ele>190</ele>
        <time>2016-11-30T14:12:32Z</time>
      </trkpt>
      <trkpt lat="45.87918" lon="4.73632">
        <ele>190</ele>
        <time>2016-11-30T14:12:33Z</time>
      </trkpt>
      <trkpt lat="45.87913" lon="4.7363">
        <ele>190</ele>
        <time>2016-11-30T14:12:34Z</time>
      </trkpt>
      <trkpt lat="45.87908" lon="4.73629">
        <ele>190</ele>
        <time>2016-11-30T14:12:35Z</time>
      </trkpt>
      <trkpt lat="45.87903" lon="4.73628">
        <ele>190</ele>
        <time>2016-11-30T14:12:36Z</time>
      </trkpt>
      <trkpt lat="45.87898" lon="4.73626">
        <ele>190</ele>
        <time>2016-11-30T14:12:37Z</time>
      </trkpt>
      <trkpt lat="45.87893" lon="4.73624">
        <ele>190</ele>
        <time>2016-11-30T14:12:38Z</time>
      </trkpt>
      <trkpt lat="45.87888" lon="4.73622">
        <ele>190</ele>
        <time>2016-11-30T14:12:39Z</time>
      </trkpt>
      <trkpt lat="45.8788" lon="4.73619">
        <ele>190</ele>
        <time>2016-11-30T14:12:41Z</time>
      </trkpt>
      <trkpt lat="45.87875" lon="4.73619">
        <ele>190</ele>
        <time>2016-11-30T14:12:42Z</time>
      </trkpt>
      <trkpt lat="45.8787" lon="4.73619">
        <ele>190</ele>
        <time>2016-11-30T14:12:43Z</time>
      </trkpt>
      <trkpt lat="45.87865" lon="4.73621">
        <ele>190</ele>
        <time>2016-11-30T14:12:44Z</time>
      </trkpt>
      <trkpt lat="45.87861" lon="4.73623">
        <ele>190</ele>
        <time>2016-11-30T14:12:45Z</time>
      </trkpt>
      <trkpt lat="45.87856" lon="4.73624">
        <ele>190</ele>
        <time>2016-11-30T14:12:46Z</time>
      </trkpt>
      <trkpt lat="45.87851" lon="4.73625">
        <ele>190</ele>
        <time>2016-11-30T14:12:47Z</time>
      </trkpt>
      <trkpt lat="45.87845" lon="4.73626">
        <ele>191</ele>
        <time>2016-11-30T14:12:48Z</time>
      </trkpt>
      <trkpt lat="45.87838" lon="4.73627">
        <ele>191</ele>
        <time>2016-11-30T14:12:50Z</time>
      </trkpt>
      <trkpt lat="45.87834" lon="4.73626">
        <ele>191</ele>
        <time>2016-11-30T14:12:51Z</time>
      </trkpt>
      <trkpt lat="45.87829" lon="4.73618">
        <ele>190</ele>
        <time>2016-11-30T14:12:52Z</time>
      </trkpt>
      <trkpt lat="45.87825" lon="4.73612">
        <ele>190</ele>
        <time>2016-11-30T14:12:53Z</time>
      </trkpt>
      <trkpt lat="45.87821" lon="4.73608">
        <ele>190</ele>
        <time>2016-11-30T14:12:54Z</time>
      </trkpt>
      <trkpt lat="45.87817" lon="4.73603">
        <ele>190</ele>
        <time>2016-11-30T14:12:55Z</time>
      </trkpt>
      <trkpt lat="45.87813" lon="4.73598">
        <ele>190</ele>
        <time>2016-11-30T14:12:56Z</time>
      </trkpt>
      <trkpt lat="45.8781" lon="4.73592">
        <ele>190</ele>
        <time>2016-11-30T14:12:57Z</time>
      </trkpt>
      <trkpt lat="45.87807" lon="4.73587">
        <ele>190</ele>
        <time>2016-11-30T14:12:58Z</time>
      </trkpt>
      <trkpt lat="45.87804" lon="4.73581">
        <ele>189</ele>
        <time>2016-11-30T14:12:59Z</time>
      </trkpt>
      <trkpt lat="45.87802" lon="4.73575">
        <ele>189</ele>
        <time>2016-11-30T14:13:00Z</time>
      </trkpt>
      <trkpt lat="45.878" lon="4.73569">
        <ele>189</ele>
        <time>2016-11-30T14:13:01Z</time>
      </trkpt>
      <trkpt lat="45.87797" lon="4.73563">
        <ele>189</ele>
        <time>2016-11-30T14:13:02Z</time>
      </trkpt>
      <trkpt lat="45.87794" lon="4.73557">
        <ele>189</ele>
        <time>2016-11-30T14:13:03Z</time>
      </trkpt>
      <trkpt lat="45.87791" lon="4.73551">
        <ele>189</ele>
        <time>2016-11-30T14:13:04Z</time>
      </trkpt>
      <trkpt lat="45.87788" lon="4.73545">
        <ele>189</ele>
        <time>2016-11-30T14:13:05Z</time>
      </trkpt>
      <trkpt lat="45.87784" lon="4.73539">
        <ele>189</ele>
        <time>2016-11-30T14:13:06Z</time>
      </trkpt>
      <trkpt lat="45.87782" lon="4.73532">
        <ele>189</ele>
        <time>2016-11-30T14:13:07Z</time>
      </trkpt>
      <trkpt lat="45.87779" lon="4.73525">
        <ele>189</ele>
        <time>2016-11-30T14:13:08Z</time>
      </trkpt>
      <trkpt lat="45.87777" lon="4.73519">
        <ele>189</ele>
        <time>2016-11-30T14:13:09Z</time>
      </trkpt>
      <trkpt lat="45.87776" lon="4.73512">
        <ele>189</ele>
        <time>2016-11-30T14:13:10Z</time>
      </trkpt>
      <trkpt lat="45.87774" lon="4.73506">
        <ele>189</ele>
        <time>2016-11-30T14:13:11Z</time>
      </trkpt>
      <trkpt lat="45.87771" lon="4.73499">
        <ele>189</ele>
        <time>2016-11-30T14:13:12Z</time>
      </trkpt>
      <trkpt lat="45.87768" lon="4.73492">
        <ele>189</ele>
        <time>2016-11-30T14:13:13Z</time>
      </trkpt>
      <trkpt lat="45.87765" lon="4.73485">
        <ele>189</ele>
        <time>2016-11-30T14:13:14Z</time>
      </trkpt>
      <trkpt lat="45.87762" lon="4.73478">
        <ele>188</ele>
        <time>2016-11-30T14:13:15Z</time>
      </trkpt>
      <trkpt lat="45.87759" lon="4.73472">
        <ele>188</ele>
        <time>2016-11-30T14:13:16Z</time>
      </trkpt>
      <trkpt lat="45.87756" lon="4.73465">
        <ele>188</ele>
        <time>2016-11-30T14:13:17Z</time>
      </trkpt>
      <trkpt lat="45.87753" lon="4.73458">
        <ele>188</ele>
        <time>2016-11-30T14:13:18Z</time>
      </trkpt>
      <trkpt lat="45.8775" lon="4.73452">
        <ele>189</ele>
        <time>2016-11-30T14:13:19Z</time>
      </trkpt>
      <trkpt lat="45.87747" lon="4.73445">
        <ele>189</ele>
        <time>2016-11-30T14:13:20Z</time>
      </trkpt>
      <trkpt lat="45.87745" lon="4.73439">
        <ele>189</ele>
        <time>2016-11-30T14:13:21Z</time>
      </trkpt>
      <trkpt lat="45.87742" lon="4.73432">
        <ele>188</ele>
        <time>2016-11-30T14:13:22Z</time>
      </trkpt>
      <trkpt lat="45.87738" lon="4.73426">
        <ele>188</ele>
        <time>2016-11-30T14:13:23Z</time>
      </trkpt>
      <trkpt lat="45.87735" lon="4.73419">
        <ele>188</ele>
        <time>2016-11-30T14:13:24Z</time>
      </trkpt>
      <trkpt lat="45.87731" lon="4.73413">
        <ele>188</ele>
        <time>2016-11-30T14:13:25Z</time>
      </trkpt>
      <trkpt lat="45.87729" lon="4.73406">
        <ele>188</ele>
        <time>2016-11-30T14:13:26Z</time>
      </trkpt>
      <trkpt lat="45.87725" lon="4.734">
        <ele>188</ele>
        <time>2016-11-30T14:13:27Z</time>
      </trkpt>
      <trkpt lat="45.87722" lon="4.73393">
        <ele>188</ele>
        <time>2016-11-30T14:13:28Z</time>
      </trkpt>
      <trkpt lat="45.87719" lon="4.73386">
        <ele>188</ele>
        <time>2016-11-30T14:13:29Z</time>
      </trkpt>
      <trkpt lat="45.87716" lon="4.73379">
        <ele>187</ele>
        <time>2016-11-30T14:13:30Z</time>
      </trkpt>
      <trkpt lat="45.87713" lon="4.73372">
        <ele>187</ele>
        <time>2016-11-30T14:13:31Z</time>
      </trkpt>
      <trkpt lat="45.87711" lon="4.73365">
        <ele>187</ele>
        <time>2016-11-30T14:13:32Z</time>
      </trkpt>
      <trkpt lat="45.87708" lon="4.73358">
        <ele>187</ele>
        <time>2016-11-30T14:13:33Z</time>
      </trkpt>
      <trkpt lat="45.87705" lon="4.73351">
        <ele>187</ele>
        <time>2016-11-30T14:13:34Z</time>
      </trkpt>
      <trkpt lat="45.87701" lon="4.73345">
        <ele>187</ele>
        <time>2016-11-30T14:13:35Z</time>
      </trkpt>
      <trkpt lat="45.87698" lon="4.73338">
        <ele>187</ele>
        <time>2016-11-30T14:13:36Z</time>
      </trkpt>
      <trkpt lat="45.87696" lon="4.73332">
        <ele>188</ele>
        <time>2016-11-30T14:13:37Z</time>
      </trkpt>
      <trkpt lat="45.87693" lon="4.73325">
        <ele>188</ele>
        <time>2016-11-30T14:13:38Z</time>
      </trkpt>
      <trkpt lat="45.8769" lon="4.73319">
        <ele>188</ele>
        <time>2016-11-30T14:13:39Z</time>
      </trkpt>
      <trkpt lat="45.87687" lon="4.73313">
        <ele>188</ele>
        <time>2016-11-30T14:13:40Z</time>
      </trkpt>
      <trkpt lat="45.87685" lon="4.73306">
        <ele>188</ele>
        <time>2016-11-30T14:13:41Z</time>
      </trkpt>
      <trkpt lat="45.87682" lon="4.733">
        <ele>188</ele>
        <time>2016-11-30T14:13:42Z</time>
      </trkpt>
      <trkpt lat="45.87679" lon="4.73294">
        <ele>188</ele>
        <time>2016-11-30T14:13:43Z</time>
      </trkpt>
      <trkpt lat="45.87676" lon="4.73287">
        <ele>188</ele>
        <time>2016-11-30T14:13:44Z</time>
      </trkpt>
      <trkpt lat="45.87673" lon="4.73281">
        <ele>188</ele>
        <time>2016-11-30T14:13:45Z</time>
      </trkpt>
      <trkpt lat="45.8767" lon="4.73274">
        <ele>188</ele>
        <time>2016-11-30T14:13:46Z</time>
      </trkpt>
      <trkpt lat="45.87667" lon="4.73268">
        <ele>188</ele>
        <time>2016-11-30T14:13:47Z</time>
      </trkpt>
      <trkpt lat="45.87663" lon="4.73261">
        <ele>189</ele>
        <time>2016-11-30T14:13:48Z</time>
      </trkpt>
      <trkpt lat="45.8766" lon="4.73255">
        <ele>189</ele>
        <time>2016-11-30T14:13:49Z</time>
      </trkpt>
      <trkpt lat="45.87657" lon="4.73248">
        <ele>189</ele>
        <time>2016-11-30T14:13:50Z</time>
      </trkpt>
      <trkpt lat="45.87654" lon="4.73242">
        <ele>188</ele>
        <time>2016-11-30T14:13:51Z</time>
      </trkpt>
      <trkpt lat="45.87651" lon="4.73235">
        <ele>188</ele>
        <time>2016-11-30T14:13:52Z</time>
      </trkpt>
      <trkpt lat="45.87648" lon="4.73229">
        <ele>188</ele>
        <time>2016-11-30T14:13:53Z</time>
      </trkpt>
      <trkpt lat="45.87644" lon="4.73223">
        <ele>188</ele>
        <time>2016-11-30T14:13:54Z</time>
      </trkpt>
      <trkpt lat="45.87641" lon="4.73216">
        <ele>188</ele>
        <time>2016-11-30T14:13:55Z</time>
      </trkpt>
      <trkpt lat="45.87638" lon="4.7321">
        <ele>188</ele>
        <time>2016-11-30T14:13:56Z</time>
      </trkpt>
      <trkpt lat="45.87635" lon="4.73203">
        <ele>188</ele>
        <time>2016-11-30T14:13:57Z</time>
      </trkpt>
      <trkpt lat="45.87631" lon="4.73196">
        <ele>188</ele>
        <time>2016-11-30T14:13:58Z</time>
      </trkpt>
      <trkpt lat="45.87628" lon="4.73189">
        <ele>188</ele>
        <time>2016-11-30T14:13:59Z</time>
      </trkpt>
      <trkpt lat="45.87626" lon="4.73183">
        <ele>188</ele>
        <time>2016-11-30T14:14:00Z</time>
      </trkpt>
      <trkpt lat="45.87622" lon="4.73176">
        <ele>187</ele>
        <time>2016-11-30T14:14:01Z</time>
      </trkpt>
      <trkpt lat="45.87619" lon="4.73169">
        <ele>187</ele>
        <time>2016-11-30T14:14:02Z</time>
      </trkpt>
      <trkpt lat="45.87616" lon="4.73162">
        <ele>187</ele>
        <time>2016-11-30T14:14:03Z</time>
      </trkpt>
      <trkpt lat="45.87613" lon="4.73155">
        <ele>187</ele>
        <time>2016-11-30T14:14:04Z</time>
      </trkpt>
      <trkpt lat="45.87609" lon="4.73148">
        <ele>187</ele>
        <time>2016-11-30T14:14:05Z</time>
      </trkpt>
      <trkpt lat="45.87606" lon="4.7314">
        <ele>187</ele>
        <time>2016-11-30T14:14:06Z</time>
      </trkpt>
      <trkpt lat="45.87601" lon="4.73133">
        <ele>187</ele>
        <time>2016-11-30T14:14:07Z</time>
      </trkpt>
      <trkpt lat="45.87597" lon="4.73125">
        <ele>188</ele>
        <time>2016-11-30T14:14:08Z</time>
      </trkpt>
      <trkpt lat="45.87593" lon="4.73117">
        <ele>188</ele>
        <time>2016-11-30T14:14:09Z</time>
      </trkpt>
      <trkpt lat="45.87589" lon="4.73109">
        <ele>188</ele>
        <time>2016-11-30T14:14:10Z</time>
      </trkpt>
      <trkpt lat="45.87585" lon="4.731">
        <ele>188</ele>
        <time>2016-11-30T14:14:11Z</time>
      </trkpt>
      <trkpt lat="45.87581" lon="4.73092">
        <ele>188</ele>
        <time>2016-11-30T14:14:12Z</time>
      </trkpt>
      <trkpt lat="45.87576" lon="4.73085">
        <ele>188</ele>
        <time>2016-11-30T14:14:13Z</time>
      </trkpt>
      <trkpt lat="45.87572" lon="4.73076">
        <ele>188</ele>
        <time>2016-11-30T14:14:14Z</time>
      </trkpt>
      <trkpt lat="45.87568" lon="4.73069">
        <ele>188</ele>
        <time>2016-11-30T14:14:15Z</time>
      </trkpt>
      <trkpt lat="45.87564" lon="4.73061">
        <ele>188</ele>
        <time>2016-11-30T14:14:16Z</time>
      </trkpt>
      <trkpt lat="45.8756" lon="4.73054">
        <ele>188</ele>
        <time>2016-11-30T14:14:17Z</time>
      </trkpt>
      <trkpt lat="45.87556" lon="4.73046">
        <ele>188</ele>
        <time>2016-11-30T14:14:18Z</time>
      </trkpt>
      <trkpt lat="45.87552" lon="4.73038">
        <ele>188</ele>
        <time>2016-11-30T14:14:19Z</time>
      </trkpt>
      <trkpt lat="45.87549" lon="4.73031">
        <ele>188</ele>
        <time>2016-11-30T14:14:20Z</time>
      </trkpt>
      <trkpt lat="45.87546" lon="4.73022">
        <ele>188</ele>
        <time>2016-11-30T14:14:21Z</time>
      </trkpt>
      <trkpt lat="45.87544" lon="4.73015">
        <ele>188</ele>
        <time>2016-11-30T14:14:22Z</time>
      </trkpt>
      <trkpt lat="45.87539" lon="4.73008">
        <ele>187</ele>
        <time>2016-11-30T14:14:23Z</time>
      </trkpt>
      <trkpt lat="45.87536" lon="4.73001">
        <ele>187</ele>
        <time>2016-11-30T14:14:24Z</time>
      </trkpt>
      <trkpt lat="45.87534" lon="4.72994">
        <ele>187</ele>
        <time>2016-11-30T14:14:25Z</time>
      </trkpt>
      <trkpt lat="45.8753" lon="4.72987">
        <ele>187</ele>
        <time>2016-11-30T14:14:26Z</time>
      </trkpt>
      <trkpt lat="45.87528" lon="4.7298">
        <ele>187</ele>
        <time>2016-11-30T14:14:27Z</time>
      </trkpt>
      <trkpt lat="45.87524" lon="4.72973">
        <ele>187</ele>
        <time>2016-11-30T14:14:28Z</time>
      </trkpt>
      <trkpt lat="45.87521" lon="4.72966">
        <ele>187</ele>
        <time>2016-11-30T14:14:29Z</time>
      </trkpt>
      <trkpt lat="45.87518" lon="4.7296">
        <ele>187</ele>
        <time>2016-11-30T14:14:30Z</time>
      </trkpt>
      <trkpt lat="45.87514" lon="4.72954">
        <ele>187</ele>
        <time>2016-11-30T14:14:31Z</time>
      </trkpt>
      <trkpt lat="45.87509" lon="4.72949">
        <ele>187</ele>
        <time>2016-11-30T14:14:32Z</time>
      </trkpt>
      <trkpt lat="45.87505" lon="4.72944">
        <ele>187</ele>
        <time>2016-11-30T14:14:33Z</time>
      </trkpt>
      <trkpt lat="45.87502" lon="4.72939">
        <ele>187</ele>
        <time>2016-11-30T14:14:34Z</time>
      </trkpt>
      <trkpt lat="45.87497" lon="4.72936">
        <ele>188</ele>
        <time>2016-11-30T14:14:35Z</time>
      </trkpt>
      <trkpt lat="45.87493" lon="4.72932">
        <ele>188</ele>
        <time>2016-11-30T14:14:36Z</time>
      </trkpt>
      <trkpt lat="45.87489" lon="4.72929">
        <ele>188</ele>
        <time>2016-11-30T14:14:37Z</time>
      </trkpt>
      <trkpt lat="45.87486" lon="4.72924">
        <ele>188</ele>
        <time>2016-11-30T14:14:38Z</time>
      </trkpt>
      <trkpt lat="45.87483" lon="4.72919">
        <ele>188</ele>
        <time>2016-11-30T14:14:39Z</time>
      </trkpt>
      <trkpt lat="45.8748" lon="4.72913">
        <ele>188</ele>
        <time>2016-11-30T14:14:40Z</time>
      </trkpt>
      <trkpt lat="45.87478" lon="4.72908">
        <ele>188</ele>
        <time>2016-11-30T14:14:41Z</time>
      </trkpt>
      <trkpt lat="45.87473" lon="4.72897">
        <ele>188</ele>
        <time>2016-11-30T14:14:43Z</time>
      </trkpt>
      <trkpt lat="45.8747" lon="4.72893">
        <ele>188</ele>
        <time>2016-11-30T14:14:44Z</time>
      </trkpt>
      <trkpt lat="45.87467" lon="4.72882">
        <ele>188</ele>
        <time>2016-11-30T14:14:46Z</time>
      </trkpt>
      <trkpt lat="45.87465" lon="4.72876">
        <ele>188</ele>
        <time>2016-11-30T14:14:47Z</time>
      </trkpt>
      <trkpt lat="45.87463" lon="4.72871">
        <ele>188</ele>
        <time>2016-11-30T14:14:48Z</time>
      </trkpt>
      <trkpt lat="45.8746" lon="4.72864">
        <ele>188</ele>
        <time>2016-11-30T14:14:49Z</time>
      </trkpt>
      <trkpt lat="45.87457" lon="4.72857">
        <ele>188</ele>
        <time>2016-11-30T14:14:50Z</time>
      </trkpt>
      <trkpt lat="45.87454" lon="4.72851">
        <ele>188</ele>
        <time>2016-11-30T14:14:51Z</time>
      </trkpt>
      <trkpt lat="45.87452" lon="4.72844">
        <ele>188</ele>
        <time>2016-11-30T14:14:52Z</time>
      </trkpt>
      <trkpt lat="45.87449" lon="4.72838">
        <ele>188</ele>
        <time>2016-11-30T14:14:53Z</time>
      </trkpt>
      <trkpt lat="45.87446" lon="4.72831">
        <ele>189</ele>
        <time>2016-11-30T14:14:54Z</time>
      </trkpt>
      <trkpt lat="45.87443" lon="4.72824">
        <ele>189</ele>
        <time>2016-11-30T14:14:55Z</time>
      </trkpt>
      <trkpt lat="45.8744" lon="4.72818">
        <ele>189</ele>
        <time>2016-11-30T14:14:56Z</time>
      </trkpt>
      <trkpt lat="45.87437" lon="4.72811">
        <ele>189</ele>
        <time>2016-11-30T14:14:57Z</time>
      </trkpt>
      <trkpt lat="45.87434" lon="4.72805">
        <ele>189</ele>
        <time>2016-11-30T14:14:58Z</time>
      </trkpt>
      <trkpt lat="45.8743" lon="4.72799">
        <ele>189</ele>
        <time>2016-11-30T14:14:59Z</time>
      </trkpt>
      <trkpt lat="45.87427" lon="4.72793">
        <ele>189</ele>
        <time>2016-11-30T14:15:00Z</time>
      </trkpt>
      <trkpt lat="45.87424" lon="4.72787">
        <ele>189</ele>
        <time>2016-11-30T14:15:01Z</time>
      </trkpt>
      <trkpt lat="45.87421" lon="4.72782">
        <ele>189</ele>
        <time>2016-11-30T14:15:02Z</time>
      </trkpt>
      <trkpt lat="45.87418" lon="4.72776">
        <ele>189</ele>
        <time>2016-11-30T14:15:03Z</time>
      </trkpt>
      <trkpt lat="45.87416" lon="4.72769">
        <ele>189</ele>
        <time>2016-11-30T14:15:04Z</time>
      </trkpt>
      <trkpt lat="45.87414" lon="4.72763">
        <ele>189</ele>
        <time>2016-11-30T14:15:05Z</time>
      </trkpt>
      <trkpt lat="45.87411" lon="4.72757">
        <ele>189</ele>
        <time>2016-11-30T14:15:06Z</time>
      </trkpt>
      <trkpt lat="45.87408" lon="4.72751">
        <ele>189</ele>
        <time>2016-11-30T14:15:07Z</time>
      </trkpt>
      <trkpt lat="45.87405" lon="4.72745">
        <ele>189</ele>
        <time>2016-11-30T14:15:08Z</time>
      </trkpt>
      <trkpt lat="45.87402" lon="4.72739">
        <ele>189</ele>
        <time>2016-11-30T14:15:09Z</time>
      </trkpt>
      <trkpt lat="45.87396" lon="4.72737">
        <ele>189</ele>
        <time>2016-11-30T14:15:10Z</time>
      </trkpt>
      <trkpt lat="45.87392" lon="4.72732">
        <ele>190</ele>
        <time>2016-11-30T14:15:11Z</time>
      </trkpt>
      <trkpt lat="45.87389" lon="4.72726">
        <ele>190</ele>
        <time>2016-11-30T14:15:12Z</time>
      </trkpt>
      <trkpt lat="45.87387" lon="4.72721">
        <ele>190</ele>
        <time>2016-11-30T14:15:13Z</time>
      </trkpt>
      <trkpt lat="45.87385" lon="4.72715">
        <ele>190</ele>
        <time>2016-11-30T14:15:14Z</time>
      </trkpt>
      <trkpt lat="45.87382" lon="4.72709">
        <ele>190</ele>
        <time>2016-11-30T14:15:15Z</time>
      </trkpt>
      <trkpt lat="45.87379" lon="4.72704">
        <ele>190</ele>
        <time>2016-11-30T14:15:16Z</time>
      </trkpt>
      <trkpt lat="45.87376" lon="4.72698">
        <ele>190</ele>
        <time>2016-11-30T14:15:17Z</time>
      </trkpt>
      <trkpt lat="45.87372" lon="4.72693">
        <ele>190</ele>
        <time>2016-11-30T14:15:18Z</time>
      </trkpt>
      <trkpt lat="45.87369" lon="4.72688">
        <ele>190</ele>
        <time>2016-11-30T14:15:19Z</time>
      </trkpt>
      <trkpt lat="45.87365" lon="4.72683">
        <ele>190</ele>
        <time>2016-11-30T14:15:20Z</time>
      </trkpt>
      <trkpt lat="45.87361" lon="4.72678">
        <ele>190</ele>
        <time>2016-11-30T14:15:21Z</time>
      </trkpt>
      <trkpt lat="45.87358" lon="4.72673">
        <ele>190</ele>
        <time>2016-11-30T14:15:22Z</time>
      </trkpt>
      <trkpt lat="45.87354" lon="4.72669">
        <ele>190</ele>
        <time>2016-11-30T14:15:23Z</time>
      </trkpt>
      <trkpt lat="45.8735" lon="4.72666">
        <ele>190</ele>
        <time>2016-11-30T14:15:24Z</time>
      </trkpt>
      <trkpt lat="45.87346" lon="4.72663">
        <ele>190</ele>
        <time>2016-11-30T14:15:25Z</time>
      </trkpt>
      <trkpt lat="45.87342" lon="4.72659">
        <ele>190</ele>
        <time>2016-11-30T14:15:26Z</time>
      </trkpt>
      <trkpt lat="45.87339" lon="4.72655">
        <ele>190</ele>
        <time>2016-11-30T14:15:27Z</time>
      </trkpt>
      <trkpt lat="45.87331" lon="4.72648">
        <ele>192</ele>
        <time>2016-11-30T14:15:29Z</time>
      </trkpt>
      <trkpt lat="45.87329" lon="4.72644">
        <ele>192</ele>
        <time>2016-11-30T14:15:30Z</time>
      </trkpt>
      <trkpt lat="45.87322" lon="4.72636">
        <ele>193</ele>
        <time>2016-11-30T14:15:32Z</time>
      </trkpt>
      <trkpt lat="45.87319" lon="4.72633">
        <ele>193</ele>
        <time>2016-11-30T14:15:33Z</time>
      </trkpt>
      <trkpt lat="45.87316" lon="4.72629">
        <ele>193</ele>
        <time>2016-11-30T14:15:34Z</time>
      </trkpt>
      <trkpt lat="45.87312" lon="4.72624">
        <ele>193</ele>
        <time>2016-11-30T14:15:35Z</time>
      </trkpt>
      <trkpt lat="45.87308" lon="4.7262">
        <ele>193</ele>
        <time>2016-11-30T14:15:36Z</time>
      </trkpt>
      <trkpt lat="45.87305" lon="4.72615">
        <ele>193</ele>
        <time>2016-11-30T14:15:37Z</time>
      </trkpt>
      <trkpt lat="45.87305" lon="4.72608">
        <ele>193</ele>
        <time>2016-11-30T14:15:38Z</time>
      </trkpt>
      <trkpt lat="45.87302" lon="4.72602">
        <ele>194</ele>
        <time>2016-11-30T14:15:39Z</time>
      </trkpt>
      <trkpt lat="45.87299" lon="4.72596">
        <ele>194</ele>
        <time>2016-11-30T14:15:40Z</time>
      </trkpt>
      <trkpt lat="45.87296" lon="4.72592">
        <ele>194</ele>
        <time>2016-11-30T14:15:41Z</time>
      </trkpt>
      <trkpt lat="45.87292" lon="4.72587">
        <ele>194</ele>
        <time>2016-11-30T14:15:42Z</time>
      </trkpt>
      <trkpt lat="45.87289" lon="4.72582">
        <ele>194</ele>
        <time>2016-11-30T14:15:43Z</time>
      </trkpt>
      <trkpt lat="45.87285" lon="4.72578">
        <ele>194</ele>
        <time>2016-11-30T14:15:44Z</time>
      </trkpt>
      <trkpt lat="45.87282" lon="4.72571">
        <ele>194</ele>
        <time>2016-11-30T14:15:45Z</time>
      </trkpt>
      <trkpt lat="45.87279" lon="4.72566">
        <ele>194</ele>
        <time>2016-11-30T14:15:46Z</time>
      </trkpt>
      <trkpt lat="45.87276" lon="4.7256">
        <ele>194</ele>
        <time>2016-11-30T14:15:47Z</time>
      </trkpt>
      <trkpt lat="45.87272" lon="4.72549">
        <ele>194</ele>
        <time>2016-11-30T14:15:50Z</time>
      </trkpt>
      <trkpt lat="45.87266" lon="4.72548">
        <ele>194</ele>
        <time>2016-11-30T14:15:51Z</time>
      </trkpt>
      <trkpt lat="45.87265" lon="4.72537">
        <ele>193</ele>
        <time>2016-11-30T14:15:53Z</time>
      </trkpt>
      <trkpt lat="45.87264" lon="4.72533">
        <ele>193</ele>
        <time>2016-11-30T14:15:54Z</time>
      </trkpt>
      <trkpt lat="45.8726" lon="4.72526">
        <ele>193</ele>
        <time>2016-11-30T14:15:56Z</time>
      </trkpt>
      <trkpt lat="45.87257" lon="4.72523">
        <ele>193</ele>
        <time>2016-11-30T14:15:57Z</time>
      </trkpt>
      <trkpt lat="45.87253" lon="4.72517">
        <ele>193</ele>
        <time>2016-11-30T14:15:59Z</time>
      </trkpt>
      <trkpt lat="45.87249" lon="4.72513">
        <ele>195</ele>
        <time>2016-11-30T14:16:00Z</time>
      </trkpt>
      <trkpt lat="45.87244" lon="4.72504">
        <ele>194</ele>
        <time>2016-11-30T14:16:02Z</time>
      </trkpt>
      <trkpt lat="45.87241" lon="4.725">
        <ele>195</ele>
        <time>2016-11-30T14:16:03Z</time>
      </trkpt>
      <trkpt lat="45.87235" lon="4.72491">
        <ele>194</ele>
        <time>2016-11-30T14:16:05Z</time>
      </trkpt>
      <trkpt lat="45.87233" lon="4.72486">
        <ele>194</ele>
        <time>2016-11-30T14:16:06Z</time>
      </trkpt>
      <trkpt lat="45.87228" lon="4.72476">
        <ele>194</ele>
        <time>2016-11-30T14:16:08Z</time>
      </trkpt>
      <trkpt lat="45.87224" lon="4.72472">
        <ele>194</ele>
        <time>2016-11-30T14:16:09Z</time>
      </trkpt>
      <trkpt lat="45.87218" lon="4.72464">
        <ele>194</ele>
        <time>2016-11-30T14:16:11Z</time>
      </trkpt>
      <trkpt lat="45.87215" lon="4.72459">
        <ele>194</ele>
        <time>2016-11-30T14:16:12Z</time>
      </trkpt>
      <trkpt lat="45.87208" lon="4.72451">
        <ele>194</ele>
        <time>2016-11-30T14:16:14Z</time>
      </trkpt>
      <trkpt lat="45.87206" lon="4.72446">
        <ele>194</ele>
        <time>2016-11-30T14:16:15Z</time>
      </trkpt>
      <trkpt lat="45.87202" lon="4.72442">
        <ele>194</ele>
        <time>2016-11-30T14:16:16Z</time>
      </trkpt>
      <trkpt lat="45.87198" lon="4.72438">
        <ele>194</ele>
        <time>2016-11-30T14:16:17Z</time>
      </trkpt>
      <trkpt lat="45.87194" lon="4.72433">
        <ele>194</ele>
        <time>2016-11-30T14:16:18Z</time>
      </trkpt>
      <trkpt lat="45.8719" lon="4.72429">
        <ele>194</ele>
        <time>2016-11-30T14:16:19Z</time>
      </trkpt>
      <trkpt lat="45.87185" lon="4.72421">
        <ele>194</ele>
        <time>2016-11-30T14:16:21Z</time>
      </trkpt>
      <trkpt lat="45.87182" lon="4.72416">
        <ele>192</ele>
        <time>2016-11-30T14:16:22Z</time>
      </trkpt>
      <trkpt lat="45.87176" lon="4.72407">
        <ele>192</ele>
        <time>2016-11-30T14:16:24Z</time>
      </trkpt>
      <trkpt lat="45.87173" lon="4.72402">
        <ele>192</ele>
        <time>2016-11-30T14:16:25Z</time>
      </trkpt>
      <trkpt lat="45.87171" lon="4.72396">
        <ele>191</ele>
        <time>2016-11-30T14:16:26Z</time>
      </trkpt>
      <trkpt lat="45.87168" lon="4.72391">
        <ele>191</ele>
        <time>2016-11-30T14:16:27Z</time>
      </trkpt>
      <trkpt lat="45.87166" lon="4.72385">
        <ele>197</ele>
        <time>2016-11-30T14:16:28Z</time>
      </trkpt>
      <trkpt lat="45.87163" lon="4.7238">
        <ele>197</ele>
        <time>2016-11-30T14:16:29Z</time>
      </trkpt>
      <trkpt lat="45.87161" lon="4.72374">
        <ele>197</ele>
        <time>2016-11-30T14:16:30Z</time>
      </trkpt>
      <trkpt lat="45.87158" lon="4.72368">
        <ele>196</ele>
        <time>2016-11-30T14:16:31Z</time>
      </trkpt>
      <trkpt lat="45.87154" lon="4.72357">
        <ele>196</ele>
        <time>2016-11-30T14:16:33Z</time>
      </trkpt>
      <trkpt lat="45.87151" lon="4.72351">
        <ele>195</ele>
        <time>2016-11-30T14:16:34Z</time>
      </trkpt>
      <trkpt lat="45.87149" lon="4.72345">
        <ele>195</ele>
        <time>2016-11-30T14:16:35Z</time>
      </trkpt>
      <trkpt lat="45.87146" lon="4.72339">
        <ele>195</ele>
        <time>2016-11-30T14:16:36Z</time>
      </trkpt>
      <trkpt lat="45.87143" lon="4.72334">
        <ele>196</ele>
        <time>2016-11-30T14:16:37Z</time>
      </trkpt>
      <trkpt lat="45.87141" lon="4.72329">
        <ele>194</ele>
        <time>2016-11-30T14:16:38Z</time>
      </trkpt>
      <trkpt lat="45.87138" lon="4.72323">
        <ele>195</ele>
        <time>2016-11-30T14:16:39Z</time>
      </trkpt>
      <trkpt lat="45.87135" lon="4.72316">
        <ele>195</ele>
        <time>2016-11-30T14:16:40Z</time>
      </trkpt>
      <trkpt lat="45.87132" lon="4.7231">
        <ele>196</ele>
        <time>2016-11-30T14:16:41Z</time>
      </trkpt>
      <trkpt lat="45.87129" lon="4.72304">
        <ele>196</ele>
        <time>2016-11-30T14:16:42Z</time>
      </trkpt>
      <trkpt lat="45.87126" lon="4.72298">
        <ele>196</ele>
        <time>2016-11-30T14:16:43Z</time>
      </trkpt>
      <trkpt lat="45.87123" lon="4.72292">
        <ele>196</ele>
        <time>2016-11-30T14:16:44Z</time>
      </trkpt>
      <trkpt lat="45.87119" lon="4.72286">
        <ele>196</ele>
        <time>2016-11-30T14:16:45Z</time>
      </trkpt>
      <trkpt lat="45.87116" lon="4.72281">
        <ele>196</ele>
        <time>2016-11-30T14:16:46Z</time>
      </trkpt>
      <trkpt lat="45.87112" lon="4.72275">
        <ele>197</ele>
        <time>2016-11-30T14:16:47Z</time>
      </trkpt>
      <trkpt lat="45.87109" lon="4.72269">
        <ele>197</ele>
        <time>2016-11-30T14:16:48Z</time>
      </trkpt>
      <trkpt lat="45.87105" lon="4.72264">
        <ele>197</ele>
        <time>2016-11-30T14:16:49Z</time>
      </trkpt>
      <trkpt lat="45.87103" lon="4.72258">
        <ele>197</ele>
        <time>2016-11-30T14:16:50Z</time>
      </trkpt>
      <trkpt lat="45.87098" lon="4.72252">
        <ele>198</ele>
        <time>2016-11-30T14:16:51Z</time>
      </trkpt>
      <trkpt lat="45.87094" lon="4.72247">
        <ele>196</ele>
        <time>2016-11-30T14:16:52Z</time>
      </trkpt>
      <trkpt lat="45.8709" lon="4.72242">
        <ele>196</ele>
        <time>2016-11-30T14:16:53Z</time>
      </trkpt>
      <trkpt lat="45.87086" lon="4.72236">
        <ele>196</ele>
        <time>2016-11-30T14:16:54Z</time>
      </trkpt>
      <trkpt lat="45.87081" lon="4.72231">
        <ele>199</ele>
        <time>2016-11-30T14:16:55Z</time>
      </trkpt>
      <trkpt lat="45.87077" lon="4.72226">
        <ele>199</ele>
        <time>2016-11-30T14:16:56Z</time>
      </trkpt>
      <trkpt lat="45.87073" lon="4.72221">
        <ele>199</ele>
        <time>2016-11-30T14:16:57Z</time>
      </trkpt>
      <trkpt lat="45.87068" lon="4.72217">
        <ele>199</ele>
        <time>2016-11-30T14:16:58Z</time>
      </trkpt>
      <trkpt lat="45.87062" lon="4.72213">
        <ele>199</ele>
        <time>2016-11-30T14:16:59Z</time>
      </trkpt>
      <trkpt lat="45.87058" lon="4.72209">
        <ele>200</ele>
        <time>2016-11-30T14:17:00Z</time>
      </trkpt>
      <trkpt lat="45.87052" lon="4.72205">
        <ele>200</ele>
        <time>2016-11-30T14:17:01Z</time>
      </trkpt>
      <trkpt lat="45.87047" lon="4.72202">
        <ele>200</ele>
        <time>2016-11-30T14:17:02Z</time>
      </trkpt>
      <trkpt lat="45.87042" lon="4.72197">
        <ele>200</ele>
        <time>2016-11-30T14:17:03Z</time>
      </trkpt>
      <trkpt lat="45.87037" lon="4.72193">
        <ele>200</ele>
        <time>2016-11-30T14:17:04Z</time>
      </trkpt>
      <trkpt lat="45.87031" lon="4.7219">
        <ele>200</ele>
        <time>2016-11-30T14:17:05Z</time>
      </trkpt>
      <trkpt lat="45.87025" lon="4.72185">
        <ele>201</ele>
        <time>2016-11-30T14:17:06Z</time>
      </trkpt>
      <trkpt lat="45.87019" lon="4.72182">
        <ele>201</ele>
        <time>2016-11-30T14:17:07Z</time>
      </trkpt>
      <trkpt lat="45.87013" lon="4.72178">
        <ele>201</ele>
        <time>2016-11-30T14:17:08Z</time>
      </trkpt>
      <trkpt lat="45.87008" lon="4.72174">
        <ele>201</ele>
        <time>2016-11-30T14:17:09Z</time>
      </trkpt>
      <trkpt lat="45.87002" lon="4.7217">
        <ele>201</ele>
        <time>2016-11-30T14:17:10Z</time>
      </trkpt>
      <trkpt lat="45.86997" lon="4.72166">
        <ele>201</ele>
        <time>2016-11-30T14:17:11Z</time>
      </trkpt>
      <trkpt lat="45.86992" lon="4.72163">
        <ele>201</ele>
        <time>2016-11-30T14:17:12Z</time>
      </trkpt>
      <trkpt lat="45.86986" lon="4.72159">
        <ele>200</ele>
        <time>2016-11-30T14:17:13Z</time>
      </trkpt>
      <trkpt lat="45.86981" lon="4.72156">
        <ele>200</ele>
        <time>2016-11-30T14:17:14Z</time>
      </trkpt>
      <trkpt lat="45.86975" lon="4.72152">
        <ele>200</ele>
        <time>2016-11-30T14:17:15Z</time>
      </trkpt>
      <trkpt lat="45.8697" lon="4.72148">
        <ele>200</ele>
        <time>2016-11-30T14:17:16Z</time>
      </trkpt>
      <trkpt lat="45.86964" lon="4.72145">
        <ele>200</ele>
        <time>2016-11-30T14:17:17Z</time>
      </trkpt>
      <trkpt lat="45.86958" lon="4.72143">
        <ele>201</ele>
        <time>2016-11-30T14:17:18Z</time>
      </trkpt>
      <trkpt lat="45.86951" lon="4.7214">
        <ele>201</ele>
        <time>2016-11-30T14:17:19Z</time>
      </trkpt>
      <trkpt lat="45.86946" lon="4.72137">
        <ele>201</ele>
        <time>2016-11-30T14:17:20Z</time>
      </trkpt>
      <trkpt lat="45.86939" lon="4.72134">
        <ele>201</ele>
        <time>2016-11-30T14:17:21Z</time>
      </trkpt>
      <trkpt lat="45.86932" lon="4.72131">
        <ele>201</ele>
        <time>2016-11-30T14:17:22Z</time>
      </trkpt>
      <trkpt lat="45.86927" lon="4.72128">
        <ele>200</ele>
        <time>2016-11-30T14:17:23Z</time>
      </trkpt>
      <trkpt lat="45.86921" lon="4.72126">
        <ele>200</ele>
        <time>2016-11-30T14:17:24Z</time>
      </trkpt>
      <trkpt lat="45.86914" lon="4.72124">
        <ele>202</ele>
        <time>2016-11-30T14:17:25Z</time>
      </trkpt>
      <trkpt lat="45.86908" lon="4.72121">
        <ele>202</ele>
        <time>2016-11-30T14:17:26Z</time>
      </trkpt>
      <trkpt lat="45.86902" lon="4.72119">
        <ele>201</ele>
        <time>2016-11-30T14:17:27Z</time>
      </trkpt>
      <trkpt lat="45.86895" lon="4.72116">
        <ele>201</ele>
        <time>2016-11-30T14:17:28Z</time>
      </trkpt>
      <trkpt lat="45.86888" lon="4.72114">
        <ele>201</ele>
        <time>2016-11-30T14:17:29Z</time>
      </trkpt>
      <trkpt lat="45.86882" lon="4.72111">
        <ele>201</ele>
        <time>2016-11-30T14:17:30Z</time>
      </trkpt>
      <trkpt lat="45.86875" lon="4.72108">
        <ele>201</ele>
        <time>2016-11-30T14:17:31Z</time>
      </trkpt>
      <trkpt lat="45.86868" lon="4.72107">
        <ele>201</ele>
        <time>2016-11-30T14:17:32Z</time>
      </trkpt>
      <trkpt lat="45.86861" lon="4.72104">
        <ele>200</ele>
        <time>2016-11-30T14:17:33Z</time>
      </trkpt>
      <trkpt lat="45.86854" lon="4.721">
        <ele>199</ele>
        <time>2016-11-30T14:17:34Z</time>
      </trkpt>
      <trkpt lat="45.86847" lon="4.72098">
        <ele>198</ele>
        <time>2016-11-30T14:17:35Z</time>
      </trkpt>
      <trkpt lat="45.86841" lon="4.72096">
        <ele>197</ele>
        <time>2016-11-30T14:17:36Z</time>
      </trkpt>
      <trkpt lat="45.86834" lon="4.72094">
        <ele>197</ele>
        <time>2016-11-30T14:17:37Z</time>
      </trkpt>
      <trkpt lat="45.86829" lon="4.72093">
        <ele>197</ele>
        <time>2016-11-30T14:17:38Z</time>
      </trkpt>
      <trkpt lat="45.86824" lon="4.72091">
        <ele>198</ele>
        <time>2016-11-30T14:17:39Z</time>
      </trkpt>
      <trkpt lat="45.86818" lon="4.72089">
        <ele>199</ele>
        <time>2016-11-30T14:17:40Z</time>
      </trkpt>
      <trkpt lat="45.86796" lon="4.72077">
        <ele>194</ele>
        <time>2016-11-30T14:17:44Z</time>
      </trkpt>
      <trkpt lat="45.86791" lon="4.72074">
        <ele>194</ele>
        <time>2016-11-30T14:17:45Z</time>
      </trkpt>
      <trkpt lat="45.86785" lon="4.72071">
        <ele>194</ele>
        <time>2016-11-30T14:17:46Z</time>
      </trkpt>
      <trkpt lat="45.8678" lon="4.72069">
        <ele>194</ele>
        <time>2016-11-30T14:17:47Z</time>
      </trkpt>
      <trkpt lat="45.86774" lon="4.72066">
        <ele>195</ele>
        <time>2016-11-30T14:17:48Z</time>
      </trkpt>
      <trkpt lat="45.86769" lon="4.72064">
        <ele>195</ele>
        <time>2016-11-30T14:17:49Z</time>
      </trkpt>
      <trkpt lat="45.86764" lon="4.72061">
        <ele>195</ele>
        <time>2016-11-30T14:17:50Z</time>
      </trkpt>
      <trkpt lat="45.86759" lon="4.72058">
        <ele>195</ele>
        <time>2016-11-30T14:17:51Z</time>
      </trkpt>
      <trkpt lat="45.86755" lon="4.72057">
        <ele>195</ele>
        <time>2016-11-30T14:17:52Z</time>
      </trkpt>
      <trkpt lat="45.8675" lon="4.72055">
        <ele>197</ele>
        <time>2016-11-30T14:17:53Z</time>
      </trkpt>
      <trkpt lat="45.86745" lon="4.72053">
        <ele>197</ele>
        <time>2016-11-30T14:17:54Z</time>
      </trkpt>
      <trkpt lat="45.8674" lon="4.7205">
        <ele>197</ele>
        <time>2016-11-30T14:17:55Z</time>
      </trkpt>
      <trkpt lat="45.86735" lon="4.72047">
        <ele>197</ele>
        <time>2016-11-30T14:17:56Z</time>
      </trkpt>
      <trkpt lat="45.8673" lon="4.72044">
        <ele>197</ele>
        <time>2016-11-30T14:17:57Z</time>
      </trkpt>
      <trkpt lat="45.86725" lon="4.72041">
        <ele>197</ele>
        <time>2016-11-30T14:17:58Z</time>
      </trkpt>
      <trkpt lat="45.8672" lon="4.72038">
        <ele>197</ele>
        <time>2016-11-30T14:17:59Z</time>
      </trkpt>
      <trkpt lat="45.86715" lon="4.72035">
        <ele>197</ele>
        <time>2016-11-30T14:18:00Z</time>
      </trkpt>
      <trkpt lat="45.8671" lon="4.72031">
        <ele>197</ele>
        <time>2016-11-30T14:18:01Z</time>
      </trkpt>
      <trkpt lat="45.86705" lon="4.72028">
        <ele>197</ele>
        <time>2016-11-30T14:18:02Z</time>
      </trkpt>
      <trkpt lat="45.86699" lon="4.72024">
        <ele>197</ele>
        <time>2016-11-30T14:18:03Z</time>
      </trkpt>
      <trkpt lat="45.86694" lon="4.72019">
        <ele>197</ele>
        <time>2016-11-30T14:18:04Z</time>
      </trkpt>
      <trkpt lat="45.86689" lon="4.72015">
        <ele>196</ele>
        <time>2016-11-30T14:18:05Z</time>
      </trkpt>
      <trkpt lat="45.86684" lon="4.72011">
        <ele>196</ele>
        <time>2016-11-30T14:18:06Z</time>
      </trkpt>
      <trkpt lat="45.86679" lon="4.72006">
        <ele>196</ele>
        <time>2016-11-30T14:18:07Z</time>
      </trkpt>
      <trkpt lat="45.86673" lon="4.72002">
        <ele>196</ele>
        <time>2016-11-30T14:18:08Z</time>
      </trkpt>
      <trkpt lat="45.86669" lon="4.71998">
        <ele>195</ele>
        <time>2016-11-30T14:18:09Z</time>
      </trkpt>
      <trkpt lat="45.86664" lon="4.71994">
        <ele>195</ele>
        <time>2016-11-30T14:18:10Z</time>
      </trkpt>
      <trkpt lat="45.86658" lon="4.7199">
        <ele>195</ele>
        <time>2016-11-30T14:18:11Z</time>
      </trkpt>
      <trkpt lat="45.86653" lon="4.71986">
        <ele>195</ele>
        <time>2016-11-30T14:18:12Z</time>
      </trkpt>
      <trkpt lat="45.86649" lon="4.71981">
        <ele>195</ele>
        <time>2016-11-30T14:18:13Z</time>
      </trkpt>
      <trkpt lat="45.86644" lon="4.71976">
        <ele>195</ele>
        <time>2016-11-30T14:18:14Z</time>
      </trkpt>
      <trkpt lat="45.86639" lon="4.71972">
        <ele>195</ele>
        <time>2016-11-30T14:18:15Z</time>
      </trkpt>
      <trkpt lat="45.86634" lon="4.71968">
        <ele>195</ele>
        <time>2016-11-30T14:18:16Z</time>
      </trkpt>
      <trkpt lat="45.86629" lon="4.71964">
        <ele>195</ele>
        <time>2016-11-30T14:18:17Z</time>
      </trkpt>
      <trkpt lat="45.86626" lon="4.71961">
        <ele>195</ele>
        <time>2016-11-30T14:18:18Z</time>
      </trkpt>
      <trkpt lat="45.8662" lon="4.71957">
        <ele>194</ele>
        <time>2016-11-30T14:18:19Z</time>
      </trkpt>
      <trkpt lat="45.86615" lon="4.71953">
        <ele>194</ele>
        <time>2016-11-30T14:18:20Z</time>
      </trkpt>
      <trkpt lat="45.8661" lon="4.7195">
        <ele>194</ele>
        <time>2016-11-30T14:18:21Z</time>
      </trkpt>
      <trkpt lat="45.86605" lon="4.71946">
        <ele>194</ele>
        <time>2016-11-30T14:18:22Z</time>
      </trkpt>
      <trkpt lat="45.866" lon="4.71942">
        <ele>194</ele>
        <time>2016-11-30T14:18:23Z</time>
      </trkpt>
      <trkpt lat="45.86595" lon="4.71938">
        <ele>194</ele>
        <time>2016-11-30T14:18:24Z</time>
      </trkpt>
      <trkpt lat="45.86591" lon="4.71934">
        <ele>194</ele>
        <time>2016-11-30T14:18:25Z</time>
      </trkpt>
      <trkpt lat="45.86586" lon="4.7193">
        <ele>194</ele>
        <time>2016-11-30T14:18:26Z</time>
      </trkpt>
      <trkpt lat="45.86581" lon="4.71926">
        <ele>195</ele>
        <time>2016-11-30T14:18:27Z</time>
      </trkpt>
      <trkpt lat="45.86576" lon="4.71922">
        <ele>195</ele>
        <time>2016-11-30T14:18:28Z</time>
      </trkpt>
      <trkpt lat="45.86572" lon="4.71919">
        <ele>195</ele>
        <time>2016-11-30T14:18:29Z</time>
      </trkpt>
      <trkpt lat="45.86568" lon="4.71916">
        <ele>194</ele>
        <time>2016-11-30T14:18:30Z</time>
      </trkpt>
      <trkpt lat="45.86562" lon="4.71912">
        <ele>195</ele>
        <time>2016-11-30T14:18:31Z</time>
      </trkpt>
      <trkpt lat="45.86558" lon="4.71908">
        <ele>195</ele>
        <time>2016-11-30T14:18:32Z</time>
      </trkpt>
      <trkpt lat="45.86552" lon="4.71904">
        <ele>195</ele>
        <time>2016-11-30T14:18:33Z</time>
      </trkpt>
      <trkpt lat="45.86547" lon="4.719">
        <ele>195</ele>
        <time>2016-11-30T14:18:34Z</time>
      </trkpt>
      <trkpt lat="45.86542" lon="4.71896">
        <ele>195</ele>
        <time>2016-11-30T14:18:35Z</time>
      </trkpt>
      <trkpt lat="45.86538" lon="4.71892">
        <ele>195</ele>
        <time>2016-11-30T14:18:36Z</time>
      </trkpt>
      <trkpt lat="45.86533" lon="4.71888">
        <ele>195</ele>
        <time>2016-11-30T14:18:37Z</time>
      </trkpt>
      <trkpt lat="45.86528" lon="4.71884">
        <ele>195</ele>
        <time>2016-11-30T14:18:38Z</time>
      </trkpt>
      <trkpt lat="45.86524" lon="4.7188">
        <ele>195</ele>
        <time>2016-11-30T14:18:39Z</time>
      </trkpt>
      <trkpt lat="45.86519" lon="4.71876">
        <ele>195</ele>
        <time>2016-11-30T14:18:40Z</time>
      </trkpt>
      <trkpt lat="45.86514" lon="4.71873">
        <ele>195</ele>
        <time>2016-11-30T14:18:41Z</time>
      </trkpt>
      <trkpt lat="45.8651" lon="4.71869">
        <ele>195</ele>
        <time>2016-11-30T14:18:42Z</time>
      </trkpt>
      <trkpt lat="45.86505" lon="4.71865">
        <ele>195</ele>
        <time>2016-11-30T14:18:43Z</time>
      </trkpt>
      <trkpt lat="45.86501" lon="4.71861">
        <ele>195</ele>
        <time>2016-11-30T14:18:44Z</time>
      </trkpt>
      <trkpt lat="45.86496" lon="4.71858">
        <ele>198</ele>
        <time>2016-11-30T14:18:45Z</time>
      </trkpt>
      <trkpt lat="45.86491" lon="4.71855">
        <ele>198</ele>
        <time>2016-11-30T14:18:46Z</time>
      </trkpt>
      <trkpt lat="45.86486" lon="4.71852">
        <ele>198</ele>
        <time>2016-11-30T14:18:47Z</time>
      </trkpt>
      <trkpt lat="45.86481" lon="4.71847">
        <ele>198</ele>
        <time>2016-11-30T14:18:48Z</time>
      </trkpt>
      <trkpt lat="45.86475" lon="4.71843">
        <ele>198</ele>
        <time>2016-11-30T14:18:49Z</time>
      </trkpt>
      <trkpt lat="45.86471" lon="4.71839">
        <ele>199</ele>
        <time>2016-11-30T14:18:50Z</time>
      </trkpt>
      <trkpt lat="45.86466" lon="4.71835">
        <ele>199</ele>
        <time>2016-11-30T14:18:51Z</time>
      </trkpt>
      <trkpt lat="45.86462" lon="4.71831">
        <ele>196</ele>
        <time>2016-11-30T14:18:52Z</time>
      </trkpt>
      <trkpt lat="45.86456" lon="4.71828">
        <ele>197</ele>
        <time>2016-11-30T14:18:53Z</time>
      </trkpt>
      <trkpt lat="45.86452" lon="4.71823">
        <ele>197</ele>
        <time>2016-11-30T14:18:54Z</time>
      </trkpt>
      <trkpt lat="45.86448" lon="4.71817">
        <ele>197</ele>
        <time>2016-11-30T14:18:55Z</time>
      </trkpt>
      <trkpt lat="45.86443" lon="4.71813">
        <ele>197</ele>
        <time>2016-11-30T14:18:56Z</time>
      </trkpt>
      <trkpt lat="45.86437" lon="4.71809">
        <ele>197</ele>
        <time>2016-11-30T14:18:57Z</time>
      </trkpt>
      <trkpt lat="45.86431" lon="4.71805">
        <ele>197</ele>
        <time>2016-11-30T14:18:58Z</time>
      </trkpt>
      <trkpt lat="45.86428" lon="4.718">
        <ele>197</ele>
        <time>2016-11-30T14:18:59Z</time>
      </trkpt>
      <trkpt lat="45.86422" lon="4.71797">
        <ele>197</ele>
        <time>2016-11-30T14:19:00Z</time>
      </trkpt>
      <trkpt lat="45.86417" lon="4.71794">
        <ele>196</ele>
        <time>2016-11-30T14:19:01Z</time>
      </trkpt>
      <trkpt lat="45.86412" lon="4.7179">
        <ele>198</ele>
        <time>2016-11-30T14:19:02Z</time>
      </trkpt>
      <trkpt lat="45.86406" lon="4.71786">
        <ele>198</ele>
        <time>2016-11-30T14:19:03Z</time>
      </trkpt>
      <trkpt lat="45.86401" lon="4.71781">
        <ele>198</ele>
        <time>2016-11-30T14:19:04Z</time>
      </trkpt>
      <trkpt lat="45.86396" lon="4.71777">
        <ele>198</ele>
        <time>2016-11-30T14:19:05Z</time>
      </trkpt>
      <trkpt lat="45.8639" lon="4.71773">
        <ele>198</ele>
        <time>2016-11-30T14:19:06Z</time>
      </trkpt>
      <trkpt lat="45.86386" lon="4.71769">
        <ele>198</ele>
        <time>2016-11-30T14:19:07Z</time>
      </trkpt>
      <trkpt lat="45.8638" lon="4.71766">
        <ele>198</ele>
        <time>2016-11-30T14:19:08Z</time>
      </trkpt>
      <trkpt lat="45.86374" lon="4.71762">
        <ele>198</ele>
        <time>2016-11-30T14:19:09Z</time>
      </trkpt>
      <trkpt lat="45.86368" lon="4.71759">
        <ele>198</ele>
        <time>2016-11-30T14:19:10Z</time>
      </trkpt>
      <trkpt lat="45.86363" lon="4.71754">
        <ele>198</ele>
        <time>2016-11-30T14:19:11Z</time>
      </trkpt>
      <trkpt lat="45.86357" lon="4.71752">
        <ele>197</ele>
        <time>2016-11-30T14:19:12Z</time>
      </trkpt>
      <trkpt lat="45.8635" lon="4.71747">
        <ele>195</ele>
        <time>2016-11-30T14:19:13Z</time>
      </trkpt>
      <trkpt lat="45.86343" lon="4.71744">
        <ele>195</ele>
        <time>2016-11-30T14:19:14Z</time>
      </trkpt>
      <trkpt lat="45.86336" lon="4.71741">
        <ele>195</ele>
        <time>2016-11-30T14:19:15Z</time>
      </trkpt>
      <trkpt lat="45.86331" lon="4.71737">
        <ele>196</ele>
        <time>2016-11-30T14:19:16Z</time>
      </trkpt>
      <trkpt lat="45.86325" lon="4.71734">
        <ele>196</ele>
        <time>2016-11-30T14:19:17Z</time>
      </trkpt>
      <trkpt lat="45.86319" lon="4.7173">
        <ele>196</ele>
        <time>2016-11-30T14:19:18Z</time>
      </trkpt>
      <trkpt lat="45.86314" lon="4.71725">
        <ele>196</ele>
        <time>2016-11-30T14:19:19Z</time>
      </trkpt>
      <trkpt lat="45.86308" lon="4.71722">
        <ele>196</ele>
        <time>2016-11-30T14:19:20Z</time>
      </trkpt>
      <trkpt lat="45.86303" lon="4.71717">
        <ele>196</ele>
        <time>2016-11-30T14:19:21Z</time>
      </trkpt>
      <trkpt lat="45.86298" lon="4.71713">
        <ele>196</ele>
        <time>2016-11-30T14:19:22Z</time>
      </trkpt>
      <trkpt lat="45.86294" lon="4.71709">
        <ele>195</ele>
        <time>2016-11-30T14:19:23Z</time>
      </trkpt>
      <trkpt lat="45.86288" lon="4.71705">
        <ele>195</ele>
        <time>2016-11-30T14:19:24Z</time>
      </trkpt>
      <trkpt lat="45.86283" lon="4.71702">
        <ele>195</ele>
        <time>2016-11-30T14:19:25Z</time>
      </trkpt>
      <trkpt lat="45.86278" lon="4.71699">
        <ele>195</ele>
        <time>2016-11-30T14:19:26Z</time>
      </trkpt>
      <trkpt lat="45.86273" lon="4.71693">
        <ele>195</ele>
        <time>2016-11-30T14:19:27Z</time>
      </trkpt>
      <trkpt lat="45.86269" lon="4.71689">
        <ele>195</ele>
        <time>2016-11-30T14:19:28Z</time>
      </trkpt>
      <trkpt lat="45.86262" lon="4.71681">
        <ele>195</ele>
        <time>2016-11-30T14:19:30Z</time>
      </trkpt>
      <trkpt lat="45.86257" lon="4.71676">
        <ele>195</ele>
        <time>2016-11-30T14:19:31Z</time>
      </trkpt>
      <trkpt lat="45.86252" lon="4.71672">
        <ele>195</ele>
        <time>2016-11-30T14:19:32Z</time>
      </trkpt>
      <trkpt lat="45.86247" lon="4.71667">
        <ele>195</ele>
        <time>2016-11-30T14:19:33Z</time>
      </trkpt>
      <trkpt lat="45.86243" lon="4.71663">
        <ele>195</ele>
        <time>2016-11-30T14:19:34Z</time>
      </trkpt>
      <trkpt lat="45.86239" lon="4.71658">
        <ele>195</ele>
        <time>2016-11-30T14:19:35Z</time>
      </trkpt>
      <trkpt lat="45.86234" lon="4.71653">
        <ele>195</ele>
        <time>2016-11-30T14:19:36Z</time>
      </trkpt>
      <trkpt lat="45.8623" lon="4.7165">
        <ele>195</ele>
        <time>2016-11-30T14:19:37Z</time>
      </trkpt>
      <trkpt lat="45.86225" lon="4.71646">
        <ele>195</ele>
        <time>2016-11-30T14:19:38Z</time>
      </trkpt>
      <trkpt lat="45.86224" lon="4.7164">
        <ele>195</ele>
        <time>2016-11-30T14:19:39Z</time>
      </trkpt>
      <trkpt lat="45.86218" lon="4.71636">
        <ele>195</ele>
        <time>2016-11-30T14:19:41Z</time>
      </trkpt>
      <trkpt lat="45.86215" lon="4.71631">
        <ele>195</ele>
        <time>2016-11-30T14:19:42Z</time>
      </trkpt>
      <trkpt lat="45.86213" lon="4.71623">
        <ele>195</ele>
        <time>2016-11-30T14:19:43Z</time>
      </trkpt>
      <trkpt lat="45.8621" lon="4.71616">
        <ele>195</ele>
        <time>2016-11-30T14:19:44Z</time>
      </trkpt>
      <trkpt lat="45.86206" lon="4.71611">
        <ele>195</ele>
        <time>2016-11-30T14:19:45Z</time>
      </trkpt>
      <trkpt lat="45.86202" lon="4.71606">
        <ele>195</ele>
        <time>2016-11-30T14:19:46Z</time>
      </trkpt>
      <trkpt lat="45.86197" lon="4.716">
        <ele>195</ele>
        <time>2016-11-30T14:19:47Z</time>
      </trkpt>
      <trkpt lat="45.86193" lon="4.71595">
        <ele>195</ele>
        <time>2016-11-30T14:19:48Z</time>
      </trkpt>
      <trkpt lat="45.8619" lon="4.71587">
        <ele>195</ele>
        <time>2016-11-30T14:19:49Z</time>
      </trkpt>
      <trkpt lat="45.86186" lon="4.71579">
        <ele>195</ele>
        <time>2016-11-30T14:19:50Z</time>
      </trkpt>
      <trkpt lat="45.86182" lon="4.71573">
        <ele>195</ele>
        <time>2016-11-30T14:19:51Z</time>
      </trkpt>
      <trkpt lat="45.86178" lon="4.71567">
        <ele>195</ele>
        <time>2016-11-30T14:19:52Z</time>
      </trkpt>
      <trkpt lat="45.86174" lon="4.71561">
        <ele>195</ele>
        <time>2016-11-30T14:19:53Z</time>
      </trkpt>
      <trkpt lat="45.86171" lon="4.71555">
        <ele>195</ele>
        <time>2016-11-30T14:19:54Z</time>
      </trkpt>
      <trkpt lat="45.86168" lon="4.7155">
        <ele>195</ele>
        <time>2016-11-30T14:19:55Z</time>
      </trkpt>
      <trkpt lat="45.86165" lon="4.71544">
        <ele>196</ele>
        <time>2016-11-30T14:19:56Z</time>
      </trkpt>
      <trkpt lat="45.86162" lon="4.71539">
        <ele>195</ele>
        <time>2016-11-30T14:19:57Z</time>
      </trkpt>
      <trkpt lat="45.86158" lon="4.71533">
        <ele>195</ele>
        <time>2016-11-30T14:19:58Z</time>
      </trkpt>
      <trkpt lat="45.86155" lon="4.71527">
        <ele>195</ele>
        <time>2016-11-30T14:19:59Z</time>
      </trkpt>
      <trkpt lat="45.86152" lon="4.71521">
        <ele>195</ele>
        <time>2016-11-30T14:20:00Z</time>
      </trkpt>
      <trkpt lat="45.86149" lon="4.71516">
        <ele>195</ele>
        <time>2016-11-30T14:20:01Z</time>
      </trkpt>
      <trkpt lat="45.86146" lon="4.7151">
        <ele>195</ele>
        <time>2016-11-30T14:20:02Z</time>
      </trkpt>
      <trkpt lat="45.86143" lon="4.71504">
        <ele>195</ele>
        <time>2016-11-30T14:20:03Z</time>
      </trkpt>
      <trkpt lat="45.86141" lon="4.71499">
        <ele>195</ele>
        <time>2016-11-30T14:20:04Z</time>
      </trkpt>
      <trkpt lat="45.86138" lon="4.71493">
        <ele>195</ele>
        <time>2016-11-30T14:20:05Z</time>
      </trkpt>
      <trkpt lat="45.86136" lon="4.71486">
        <ele>195</ele>
        <time>2016-11-30T14:20:06Z</time>
      </trkpt>
      <trkpt lat="45.86133" lon="4.71476">
        <ele>195</ele>
        <time>2016-11-30T14:20:08Z</time>
      </trkpt>
      <trkpt lat="45.8613" lon="4.71469">
        <ele>195</ele>
        <time>2016-11-30T14:20:09Z</time>
      </trkpt>
      <trkpt lat="45.86127" lon="4.71462">
        <ele>195</ele>
        <time>2016-11-30T14:20:10Z</time>
      </trkpt>
      <trkpt lat="45.86126" lon="4.71454">
        <ele>195</ele>
        <time>2016-11-30T14:20:11Z</time>
      </trkpt>
      <trkpt lat="45.86126" lon="4.71445">
        <ele>195</ele>
        <time>2016-11-30T14:20:12Z</time>
      </trkpt>
      <trkpt lat="45.86125" lon="4.71435">
        <ele>195</ele>
        <time>2016-11-30T14:20:13Z</time>
      </trkpt>
      <trkpt lat="45.86123" lon="4.71428">
        <ele>195</ele>
        <time>2016-11-30T14:20:14Z</time>
      </trkpt>
      <trkpt lat="45.86121" lon="4.7142">
        <ele>195</ele>
        <time>2016-11-30T14:20:15Z</time>
      </trkpt>
      <trkpt lat="45.86119" lon="4.71412">
        <ele>196</ele>
        <time>2016-11-30T14:20:16Z</time>
      </trkpt>
      <trkpt lat="45.86117" lon="4.71404">
        <ele>196</ele>
        <time>2016-11-30T14:20:17Z</time>
      </trkpt>
      <trkpt lat="45.86115" lon="4.71397">
        <ele>196</ele>
        <time>2016-11-30T14:20:18Z</time>
      </trkpt>
      <trkpt lat="45.86112" lon="4.71391">
        <ele>196</ele>
        <time>2016-11-30T14:20:19Z</time>
      </trkpt>
      <trkpt lat="45.8611" lon="4.71383">
        <ele>196</ele>
        <time>2016-11-30T14:20:20Z</time>
      </trkpt>
      <trkpt lat="45.86108" lon="4.71378">
        <ele>196</ele>
        <time>2016-11-30T14:20:21Z</time>
      </trkpt>
      <trkpt lat="45.86107" lon="4.7137">
        <ele>196</ele>
        <time>2016-11-30T14:20:22Z</time>
      </trkpt>
      <trkpt lat="45.86106" lon="4.71364">
        <ele>196</ele>
        <time>2016-11-30T14:20:23Z</time>
      </trkpt>
      <trkpt lat="45.86105" lon="4.71357">
        <ele>196</ele>
        <time>2016-11-30T14:20:24Z</time>
      </trkpt>
      <trkpt lat="45.86104" lon="4.71349">
        <ele>196</ele>
        <time>2016-11-30T14:20:25Z</time>
      </trkpt>
      <trkpt lat="45.86103" lon="4.71342">
        <ele>196</ele>
        <time>2016-11-30T14:20:26Z</time>
      </trkpt>
      <trkpt lat="45.86102" lon="4.71334">
        <ele>196</ele>
        <time>2016-11-30T14:20:27Z</time>
      </trkpt>
      <trkpt lat="45.86101" lon="4.71327">
        <ele>197</ele>
        <time>2016-11-30T14:20:28Z</time>
      </trkpt>
      <trkpt lat="45.86099" lon="4.71319">
        <ele>197</ele>
        <time>2016-11-30T14:20:29Z</time>
      </trkpt>
      <trkpt lat="45.86097" lon="4.71312">
        <ele>197</ele>
        <time>2016-11-30T14:20:30Z</time>
      </trkpt>
      <trkpt lat="45.86095" lon="4.71305">
        <ele>197</ele>
        <time>2016-11-30T14:20:31Z</time>
      </trkpt>
      <trkpt lat="45.86094" lon="4.71297">
        <ele>197</ele>
        <time>2016-11-30T14:20:32Z</time>
      </trkpt>
      <trkpt lat="45.86093" lon="4.7129">
        <ele>197</ele>
        <time>2016-11-30T14:20:33Z</time>
      </trkpt>
      <trkpt lat="45.86091" lon="4.71283">
        <ele>197</ele>
        <time>2016-11-30T14:20:34Z</time>
      </trkpt>
      <trkpt lat="45.8609" lon="4.71277">
        <ele>197</ele>
        <time>2016-11-30T14:20:35Z</time>
      </trkpt>
      <trkpt lat="45.86088" lon="4.71265">
        <ele>197</ele>
        <time>2016-11-30T14:20:37Z</time>
      </trkpt>
      <trkpt lat="45.86088" lon="4.7126">
        <ele>197</ele>
        <time>2016-11-30T14:20:38Z</time>
      </trkpt>
      <trkpt lat="45.86085" lon="4.7125">
        <ele>198</ele>
        <time>2016-11-30T14:20:40Z</time>
      </trkpt>
      <trkpt lat="45.86084" lon="4.71244">
        <ele>198</ele>
        <time>2016-11-30T14:20:41Z</time>
      </trkpt>
      <trkpt lat="45.86082" lon="4.71233">
        <ele>198</ele>
        <time>2016-11-30T14:20:43Z</time>
      </trkpt>
      <trkpt lat="45.8608" lon="4.71227">
        <ele>198</ele>
        <time>2016-11-30T14:20:44Z</time>
      </trkpt>
      <trkpt lat="45.86079" lon="4.71215">
        <ele>198</ele>
        <time>2016-11-30T14:20:46Z</time>
      </trkpt>
      <trkpt lat="45.86078" lon="4.71209">
        <ele>198</ele>
        <time>2016-11-30T14:20:47Z</time>
      </trkpt>
      <trkpt lat="45.86079" lon="4.71202">
        <ele>198</ele>
        <time>2016-11-30T14:20:48Z</time>
      </trkpt>
      <trkpt lat="45.8608" lon="4.71195">
        <ele>198</ele>
        <time>2016-11-30T14:20:49Z</time>
      </trkpt>
      <trkpt lat="45.86081" lon="4.71187">
        <ele>198</ele>
        <time>2016-11-30T14:20:50Z</time>
      </trkpt>
      <trkpt lat="45.86082" lon="4.7118">
        <ele>198</ele>
        <time>2016-11-30T14:20:51Z</time>
      </trkpt>
      <trkpt lat="45.86083" lon="4.71173">
        <ele>198</ele>
        <time>2016-11-30T14:20:52Z</time>
      </trkpt>
      <trkpt lat="45.86085" lon="4.71166">
        <ele>198</ele>
        <time>2016-11-30T14:20:53Z</time>
      </trkpt>
      <trkpt lat="45.86087" lon="4.71151">
        <ele>197</ele>
        <time>2016-11-30T14:20:54Z</time>
      </trkpt>
      <trkpt lat="45.86087" lon="4.71143">
        <ele>197</ele>
        <time>2016-11-30T14:20:55Z</time>
      </trkpt>
      <trkpt lat="45.86084" lon="4.71138">
        <ele>197</ele>
        <time>2016-11-30T14:20:56Z</time>
      </trkpt>
      <trkpt lat="45.86078" lon="4.71133">
        <ele>197</ele>
        <time>2016-11-30T14:20:58Z</time>
      </trkpt>
      <trkpt lat="45.86075" lon="4.71128">
        <ele>197</ele>
        <time>2016-11-30T14:20:59Z</time>
      </trkpt>
      <trkpt lat="45.86069" lon="4.71128">
        <ele>197</ele>
        <time>2016-11-30T14:21:00Z</time>
      </trkpt>
      <trkpt lat="45.86065" lon="4.71123">
        <ele>197</ele>
        <time>2016-11-30T14:21:01Z</time>
      </trkpt>
      <trkpt lat="45.86063" lon="4.71117">
        <ele>197</ele>
        <time>2016-11-30T14:21:02Z</time>
      </trkpt>
      <trkpt lat="45.86059" lon="4.71112">
        <ele>197</ele>
        <time>2016-11-30T14:21:03Z</time>
      </trkpt>
      <trkpt lat="45.86056" lon="4.71105">
        <ele>197</ele>
        <time>2016-11-30T14:21:04Z</time>
      </trkpt>
      <trkpt lat="45.86053" lon="4.71098">
        <ele>197</ele>
        <time>2016-11-30T14:21:05Z</time>
      </trkpt>
      <trkpt lat="45.86051" lon="4.7109">
        <ele>197</ele>
        <time>2016-11-30T14:21:06Z</time>
      </trkpt>
      <trkpt lat="45.86048" lon="4.71083">
        <ele>196</ele>
        <time>2016-11-30T14:21:07Z</time>
      </trkpt>
      <trkpt lat="45.86045" lon="4.71075">
        <ele>196</ele>
        <time>2016-11-30T14:21:08Z</time>
      </trkpt>
      <trkpt lat="45.86043" lon="4.71067">
        <ele>196</ele>
        <time>2016-11-30T14:21:09Z</time>
      </trkpt>
      <trkpt lat="45.86041" lon="4.7106">
        <ele>197</ele>
        <time>2016-11-30T14:21:10Z</time>
      </trkpt>
      <trkpt lat="45.86033" lon="4.71053">
        <ele>197</ele>
        <time>2016-11-30T14:21:11Z</time>
      </trkpt>
      <trkpt lat="45.8603" lon="4.71045">
        <ele>197</ele>
        <time>2016-11-30T14:21:12Z</time>
      </trkpt>
      <trkpt lat="45.86029" lon="4.71038">
        <ele>197</ele>
        <time>2016-11-30T14:21:13Z</time>
      </trkpt>
      <trkpt lat="45.86025" lon="4.71032">
        <ele>197</ele>
        <time>2016-11-30T14:21:14Z</time>
      </trkpt>
      <trkpt lat="45.86021" lon="4.71026">
        <ele>197</ele>
        <time>2016-11-30T14:21:15Z</time>
      </trkpt>
      <trkpt lat="45.86018" lon="4.7102">
        <ele>197</ele>
        <time>2016-11-30T14:21:16Z</time>
      </trkpt>
      <trkpt lat="45.86016" lon="4.71013">
        <ele>197</ele>
        <time>2016-11-30T14:21:17Z</time>
      </trkpt>
      <trkpt lat="45.8601" lon="4.71003">
        <ele>197</ele>
        <time>2016-11-30T14:21:19Z</time>
      </trkpt>
      <trkpt lat="45.86007" lon="4.70998">
        <ele>197</ele>
        <time>2016-11-30T14:21:20Z</time>
      </trkpt>
      <trkpt lat="45.86002" lon="4.70993">
        <ele>197</ele>
        <time>2016-11-30T14:21:21Z</time>
      </trkpt>
      <trkpt lat="45.85998" lon="4.70988">
        <ele>197</ele>
        <time>2016-11-30T14:21:22Z</time>
      </trkpt>
      <trkpt lat="45.85994" lon="4.70984">
        <ele>197</ele>
        <time>2016-11-30T14:21:23Z</time>
      </trkpt>
      <trkpt lat="45.8599" lon="4.70981">
        <ele>197</ele>
        <time>2016-11-30T14:21:24Z</time>
      </trkpt>
      <trkpt lat="45.85986" lon="4.70976">
        <ele>197</ele>
        <time>2016-11-30T14:21:25Z</time>
      </trkpt>
      <trkpt lat="45.8598" lon="4.70974">
        <ele>197</ele>
        <time>2016-11-30T14:21:26Z</time>
      </trkpt>
      <trkpt lat="45.85975" lon="4.70971">
        <ele>197</ele>
        <time>2016-11-30T14:21:27Z</time>
      </trkpt>
      <trkpt lat="45.85971" lon="4.70969">
        <ele>197</ele>
        <time>2016-11-30T14:21:28Z</time>
      </trkpt>
      <trkpt lat="45.85965" lon="4.70968">
        <ele>197</ele>
        <time>2016-11-30T14:21:29Z</time>
      </trkpt>
      <trkpt lat="45.85959" lon="4.70967">
        <ele>197</ele>
        <time>2016-11-30T14:21:30Z</time>
      </trkpt>
      <trkpt lat="45.85954" lon="4.70967">
        <ele>197</ele>
        <time>2016-11-30T14:21:31Z</time>
      </trkpt>
      <trkpt lat="45.85949" lon="4.70966">
        <ele>197</ele>
        <time>2016-11-30T14:21:32Z</time>
      </trkpt>
      <trkpt lat="45.85944" lon="4.70964">
        <ele>197</ele>
        <time>2016-11-30T14:21:33Z</time>
      </trkpt>
      <trkpt lat="45.85939" lon="4.70963">
        <ele>197</ele>
        <time>2016-11-30T14:21:34Z</time>
      </trkpt>
      <trkpt lat="45.85932" lon="4.70955">
        <ele>197</ele>
        <time>2016-11-30T14:21:36Z</time>
      </trkpt>
      <trkpt lat="45.85928" lon="4.70952">
        <ele>197</ele>
        <time>2016-11-30T14:21:37Z</time>
      </trkpt>
      <trkpt lat="45.85923" lon="4.70946">
        <ele>197</ele>
        <time>2016-11-30T14:21:39Z</time>
      </trkpt>
      <trkpt lat="45.85921" lon="4.70939">
        <ele>197</ele>
        <time>2016-11-30T14:21:40Z</time>
      </trkpt>
      <trkpt lat="45.85922" lon="4.70934">
        <ele>197</ele>
        <time>2016-11-30T14:21:41Z</time>
      </trkpt>
      <trkpt lat="45.85924" lon="4.70926">
        <ele>197</ele>
        <time>2016-11-30T14:21:42Z</time>
      </trkpt>
      <trkpt lat="45.85927" lon="4.70918">
        <ele>197</ele>
        <time>2016-11-30T14:21:43Z</time>
      </trkpt>
      <trkpt lat="45.85927" lon="4.70911">
        <ele>197</ele>
        <time>2016-11-30T14:21:44Z</time>
      </trkpt>
      <trkpt lat="45.85928" lon="4.70905">
        <ele>197</ele>
        <time>2016-11-30T14:21:45Z</time>
      </trkpt>
      <trkpt lat="45.85929" lon="4.70899">
        <ele>197</ele>
        <time>2016-11-30T14:21:46Z</time>
      </trkpt>
      <trkpt lat="45.85931" lon="4.70891">
        <ele>197</ele>
        <time>2016-11-30T14:21:47Z</time>
      </trkpt>
      <trkpt lat="45.85933" lon="4.70883">
        <ele>197</ele>
        <time>2016-11-30T14:21:48Z</time>
      </trkpt>
      <trkpt lat="45.85936" lon="4.70874">
        <ele>196</ele>
        <time>2016-11-30T14:21:49Z</time>
      </trkpt>
      <trkpt lat="45.85937" lon="4.70864">
        <ele>196</ele>
        <time>2016-11-30T14:21:50Z</time>
      </trkpt>
      <trkpt lat="45.85938" lon="4.70855">
        <ele>196</ele>
        <time>2016-11-30T14:21:51Z</time>
      </trkpt>
      <trkpt lat="45.8594" lon="4.70846">
        <ele>196</ele>
        <time>2016-11-30T14:21:52Z</time>
      </trkpt>
      <trkpt lat="45.85941" lon="4.70838">
        <ele>196</ele>
        <time>2016-11-30T14:21:53Z</time>
      </trkpt>
      <trkpt lat="45.85941" lon="4.70829">
        <ele>196</ele>
        <time>2016-11-30T14:21:54Z</time>
      </trkpt>
      <trkpt lat="45.85941" lon="4.70822">
        <ele>196</ele>
        <time>2016-11-30T14:21:55Z</time>
      </trkpt>
      <trkpt lat="45.85941" lon="4.70814">
        <ele>195</ele>
        <time>2016-11-30T14:21:56Z</time>
      </trkpt>
      <trkpt lat="45.8594" lon="4.70806">
        <ele>195</ele>
        <time>2016-11-30T14:21:57Z</time>
      </trkpt>
      <trkpt lat="45.85941" lon="4.70799">
        <ele>195</ele>
        <time>2016-11-30T14:21:58Z</time>
      </trkpt>
      <trkpt lat="45.85942" lon="4.70791">
        <ele>195</ele>
        <time>2016-11-30T14:21:59Z</time>
      </trkpt>
      <trkpt lat="45.85944" lon="4.70783">
        <ele>195</ele>
        <time>2016-11-30T14:22:00Z</time>
      </trkpt>
      <trkpt lat="45.85945" lon="4.70775">
        <ele>195</ele>
        <time>2016-11-30T14:22:01Z</time>
      </trkpt>
      <trkpt lat="45.85946" lon="4.70767">
        <ele>195</ele>
        <time>2016-11-30T14:22:02Z</time>
      </trkpt>
      <trkpt lat="45.85948" lon="4.70759">
        <ele>195</ele>
        <time>2016-11-30T14:22:03Z</time>
      </trkpt>
      <trkpt lat="45.85948" lon="4.70751">
        <ele>195</ele>
        <time>2016-11-30T14:22:04Z</time>
      </trkpt>
      <trkpt lat="45.85949" lon="4.70744">
        <ele>194</ele>
        <time>2016-11-30T14:22:05Z</time>
      </trkpt>
      <trkpt lat="45.8595" lon="4.70736">
        <ele>194</ele>
        <time>2016-11-30T14:22:06Z</time>
      </trkpt>
      <trkpt lat="45.85951" lon="4.70728">
        <ele>194</ele>
        <time>2016-11-30T14:22:07Z</time>
      </trkpt>
      <trkpt lat="45.85952" lon="4.70721">
        <ele>194</ele>
        <time>2016-11-30T14:22:08Z</time>
      </trkpt>
      <trkpt lat="45.85953" lon="4.70713">
        <ele>194</ele>
        <time>2016-11-30T14:22:09Z</time>
      </trkpt>
      <trkpt lat="45.85953" lon="4.70704">
        <ele>194</ele>
        <time>2016-11-30T14:22:10Z</time>
      </trkpt>
      <trkpt lat="45.85955" lon="4.70695">
        <ele>194</ele>
        <time>2016-11-30T14:22:11Z</time>
      </trkpt>
      <trkpt lat="45.85953" lon="4.70689">
        <ele>194</ele>
        <time>2016-11-30T14:22:12Z</time>
      </trkpt>
      <trkpt lat="45.8595" lon="4.70682">
        <ele>194</ele>
        <time>2016-11-30T14:22:13Z</time>
      </trkpt>
      <trkpt lat="45.85949" lon="4.70674">
        <ele>194</ele>
        <time>2016-11-30T14:22:14Z</time>
      </trkpt>
      <trkpt lat="45.85948" lon="4.70667">
        <ele>194</ele>
        <time>2016-11-30T14:22:15Z</time>
      </trkpt>
      <trkpt lat="45.85946" lon="4.70659">
        <ele>194</ele>
        <time>2016-11-30T14:22:16Z</time>
      </trkpt>
      <trkpt lat="45.85943" lon="4.70653">
        <ele>194</ele>
        <time>2016-11-30T14:22:17Z</time>
      </trkpt>
      <trkpt lat="45.85939" lon="4.70647">
        <ele>194</ele>
        <time>2016-11-30T14:22:18Z</time>
      </trkpt>
      <trkpt lat="45.85936" lon="4.7064">
        <ele>194</ele>
        <time>2016-11-30T14:22:19Z</time>
      </trkpt>
      <trkpt lat="45.85934" lon="4.70633">
        <ele>194</ele>
        <time>2016-11-30T14:22:20Z</time>
      </trkpt>
      <trkpt lat="45.85931" lon="4.70627">
        <ele>194</ele>
        <time>2016-11-30T14:22:21Z</time>
      </trkpt>
      <trkpt lat="45.85929" lon="4.70621">
        <ele>194</ele>
        <time>2016-11-30T14:22:22Z</time>
      </trkpt>
      <trkpt lat="45.85926" lon="4.70616">
        <ele>194</ele>
        <time>2016-11-30T14:22:23Z</time>
      </trkpt>
      <trkpt lat="45.85923" lon="4.70611">
        <ele>194</ele>
        <time>2016-11-30T14:22:24Z</time>
      </trkpt>
      <trkpt lat="45.8592" lon="4.70605">
        <ele>194</ele>
        <time>2016-11-30T14:22:25Z</time>
      </trkpt>
      <trkpt lat="45.85918" lon="4.70598">
        <ele>194</ele>
        <time>2016-11-30T14:22:26Z</time>
      </trkpt>
      <trkpt lat="45.85913" lon="4.70594">
        <ele>195</ele>
        <time>2016-11-30T14:22:27Z</time>
      </trkpt>
      <trkpt lat="45.85908" lon="4.70588">
        <ele>195</ele>
        <time>2016-11-30T14:22:28Z</time>
      </trkpt>
      <trkpt lat="45.85904" lon="4.70583">
        <ele>195</ele>
        <time>2016-11-30T14:22:29Z</time>
      </trkpt>
      <trkpt lat="45.859" lon="4.70579">
        <ele>195</ele>
        <time>2016-11-30T14:22:30Z</time>
      </trkpt>
      <trkpt lat="45.85893" lon="4.70577">
        <ele>195</ele>
        <time>2016-11-30T14:22:31Z</time>
      </trkpt>
      <trkpt lat="45.85888" lon="4.70573">
        <ele>195</ele>
        <time>2016-11-30T14:22:32Z</time>
      </trkpt>
      <trkpt lat="45.85883" lon="4.70571">
        <ele>195</ele>
        <time>2016-11-30T14:22:33Z</time>
      </trkpt>
      <trkpt lat="45.85878" lon="4.70569">
        <ele>195</ele>
        <time>2016-11-30T14:22:34Z</time>
      </trkpt>
      <trkpt lat="45.85873" lon="4.70567">
        <ele>195</ele>
        <time>2016-11-30T14:22:35Z</time>
      </trkpt>
      <trkpt lat="45.85868" lon="4.70565">
        <ele>195</ele>
        <time>2016-11-30T14:22:36Z</time>
      </trkpt>
      <trkpt lat="45.85863" lon="4.70563">
        <ele>195</ele>
        <time>2016-11-30T14:22:37Z</time>
      </trkpt>
      <trkpt lat="45.85858" lon="4.70561">
        <ele>195</ele>
        <time>2016-11-30T14:22:38Z</time>
      </trkpt>
      <trkpt lat="45.85853" lon="4.70559">
        <ele>195</ele>
        <time>2016-11-30T14:22:39Z</time>
      </trkpt>
      <trkpt lat="45.85848" lon="4.70557">
        <ele>195</ele>
        <time>2016-11-30T14:22:40Z</time>
      </trkpt>
      <trkpt lat="45.85843" lon="4.70555">
        <ele>195</ele>
        <time>2016-11-30T14:22:41Z</time>
      </trkpt>
      <trkpt lat="45.85838" lon="4.70553">
        <ele>195</ele>
        <time>2016-11-30T14:22:42Z</time>
      </trkpt>
      <trkpt lat="45.85831" lon="4.70553">
        <ele>195</ele>
        <time>2016-11-30T14:22:43Z</time>
      </trkpt>
      <trkpt lat="45.85826" lon="4.7055">
        <ele>195</ele>
        <time>2016-11-30T14:22:44Z</time>
      </trkpt>
      <trkpt lat="45.85821" lon="4.70547">
        <ele>195</ele>
        <time>2016-11-30T14:22:45Z</time>
      </trkpt>
      <trkpt lat="45.85816" lon="4.70545">
        <ele>195</ele>
        <time>2016-11-30T14:22:46Z</time>
      </trkpt>
      <trkpt lat="45.85811" lon="4.70542">
        <ele>195</ele>
        <time>2016-11-30T14:22:47Z</time>
      </trkpt>
      <trkpt lat="45.85806" lon="4.7054">
        <ele>195</ele>
        <time>2016-11-30T14:22:48Z</time>
      </trkpt>
      <trkpt lat="45.85801" lon="4.70537">
        <ele>195</ele>
        <time>2016-11-30T14:22:49Z</time>
      </trkpt>
      <trkpt lat="45.85796" lon="4.70533">
        <ele>195</ele>
        <time>2016-11-30T14:22:50Z</time>
      </trkpt>
      <trkpt lat="45.85792" lon="4.7053">
        <ele>196</ele>
        <time>2016-11-30T14:22:51Z</time>
      </trkpt>
      <trkpt lat="45.85787" lon="4.70527">
        <ele>196</ele>
        <time>2016-11-30T14:22:52Z</time>
      </trkpt>
      <trkpt lat="45.85782" lon="4.70525">
        <ele>196</ele>
        <time>2016-11-30T14:22:53Z</time>
      </trkpt>
      <trkpt lat="45.85778" lon="4.70522">
        <ele>196</ele>
        <time>2016-11-30T14:22:54Z</time>
      </trkpt>
      <trkpt lat="45.85774" lon="4.70519">
        <ele>196</ele>
        <time>2016-11-30T14:22:55Z</time>
      </trkpt>
      <trkpt lat="45.85769" lon="4.70516">
        <ele>196</ele>
        <time>2016-11-30T14:22:56Z</time>
      </trkpt>
      <trkpt lat="45.85764" lon="4.70513">
        <ele>196</ele>
        <time>2016-11-30T14:22:57Z</time>
      </trkpt>
      <trkpt lat="45.85759" lon="4.7051">
        <ele>196</ele>
        <time>2016-11-30T14:22:58Z</time>
      </trkpt>
      <trkpt lat="45.85752" lon="4.70504">
        <ele>196</ele>
        <time>2016-11-30T14:23:00Z</time>
      </trkpt>
      <trkpt lat="45.85748" lon="4.705">
        <ele>196</ele>
        <time>2016-11-30T14:23:01Z</time>
      </trkpt>
      <trkpt lat="45.8574" lon="4.70494">
        <ele>196</ele>
        <time>2016-11-30T14:23:03Z</time>
      </trkpt>
      <trkpt lat="45.85737" lon="4.70491">
        <ele>196</ele>
        <time>2016-11-30T14:23:04Z</time>
      </trkpt>
      <trkpt lat="45.85733" lon="4.70482">
        <ele>196</ele>
        <time>2016-11-30T14:23:06Z</time>
      </trkpt>
      <trkpt lat="45.8573" lon="4.70476">
        <ele>196</ele>
        <time>2016-11-30T14:23:07Z</time>
      </trkpt>
      <trkpt lat="45.85726" lon="4.7047">
        <ele>196</ele>
        <time>2016-11-30T14:23:08Z</time>
      </trkpt>
      <trkpt lat="45.85723" lon="4.70464">
        <ele>196</ele>
        <time>2016-11-30T14:23:09Z</time>
      </trkpt>
      <trkpt lat="45.8572" lon="4.70456">
        <ele>196</ele>
        <time>2016-11-30T14:23:10Z</time>
      </trkpt>
      <trkpt lat="45.85718" lon="4.70448">
        <ele>196</ele>
        <time>2016-11-30T14:23:11Z</time>
      </trkpt>
      <trkpt lat="45.85716" lon="4.7044">
        <ele>196</ele>
        <time>2016-11-30T14:23:12Z</time>
      </trkpt>
      <trkpt lat="45.85714" lon="4.70431">
        <ele>196</ele>
        <time>2016-11-30T14:23:13Z</time>
      </trkpt>
      <trkpt lat="45.85711" lon="4.70423">
        <ele>196</ele>
        <time>2016-11-30T14:23:14Z</time>
      </trkpt>
      <trkpt lat="45.85709" lon="4.70415">
        <ele>196</ele>
        <time>2016-11-30T14:23:15Z</time>
      </trkpt>
      <trkpt lat="45.85707" lon="4.70407">
        <ele>196</ele>
        <time>2016-11-30T14:23:16Z</time>
      </trkpt>
      <trkpt lat="45.85705" lon="4.70398">
        <ele>196</ele>
        <time>2016-11-30T14:23:17Z</time>
      </trkpt>
      <trkpt lat="45.85704" lon="4.7039">
        <ele>196</ele>
        <time>2016-11-30T14:23:18Z</time>
      </trkpt>
      <trkpt lat="45.85703" lon="4.70381">
        <ele>196</ele>
        <time>2016-11-30T14:23:19Z</time>
      </trkpt>
      <trkpt lat="45.85701" lon="4.70372">
        <ele>196</ele>
        <time>2016-11-30T14:23:20Z</time>
      </trkpt>
      <trkpt lat="45.85698" lon="4.70363">
        <ele>196</ele>
        <time>2016-11-30T14:23:21Z</time>
      </trkpt>
      <trkpt lat="45.85697" lon="4.70355">
        <ele>196</ele>
        <time>2016-11-30T14:23:22Z</time>
      </trkpt>
      <trkpt lat="45.85696" lon="4.70346">
        <ele>196</ele>
        <time>2016-11-30T14:23:23Z</time>
      </trkpt>
      <trkpt lat="45.85695" lon="4.70338">
        <ele>196</ele>
        <time>2016-11-30T14:23:24Z</time>
      </trkpt>
      <trkpt lat="45.85697" lon="4.70325">
        <ele>197</ele>
        <time>2016-11-30T14:23:25Z</time>
      </trkpt>
      <trkpt lat="45.85696" lon="4.70316">
        <ele>197</ele>
        <time>2016-11-30T14:23:26Z</time>
      </trkpt>
      <trkpt lat="45.85695" lon="4.70308">
        <ele>197</ele>
        <time>2016-11-30T14:23:27Z</time>
      </trkpt>
      <trkpt lat="45.85695" lon="4.70299">
        <ele>197</ele>
        <time>2016-11-30T14:23:28Z</time>
      </trkpt>
      <trkpt lat="45.85695" lon="4.70291">
        <ele>197</ele>
        <time>2016-11-30T14:23:29Z</time>
      </trkpt>
      <trkpt lat="45.85695" lon="4.70283">
        <ele>197</ele>
        <time>2016-11-30T14:23:30Z</time>
      </trkpt>
      <trkpt lat="45.85694" lon="4.70275">
        <ele>197</ele>
        <time>2016-11-30T14:23:31Z</time>
      </trkpt>
      <trkpt lat="45.85694" lon="4.70267">
        <ele>197</ele>
        <time>2016-11-30T14:23:32Z</time>
      </trkpt>
      <trkpt lat="45.85693" lon="4.70259">
        <ele>197</ele>
        <time>2016-11-30T14:23:33Z</time>
      </trkpt>
      <trkpt lat="45.85692" lon="4.70251">
        <ele>197</ele>
        <time>2016-11-30T14:23:34Z</time>
      </trkpt>
      <trkpt lat="45.85692" lon="4.70242">
        <ele>197</ele>
        <time>2016-11-30T14:23:35Z</time>
      </trkpt>
      <trkpt lat="45.85691" lon="4.70234">
        <ele>197</ele>
        <time>2016-11-30T14:23:36Z</time>
      </trkpt>
      <trkpt lat="45.8569" lon="4.70225">
        <ele>197</ele>
        <time>2016-11-30T14:23:37Z</time>
      </trkpt>
      <trkpt lat="45.85689" lon="4.70217">
        <ele>197</ele>
        <time>2016-11-30T14:23:38Z</time>
      </trkpt>
      <trkpt lat="45.85689" lon="4.70209">
        <ele>197</ele>
        <time>2016-11-30T14:23:39Z</time>
      </trkpt>
      <trkpt lat="45.85688" lon="4.70201">
        <ele>197</ele>
        <time>2016-11-30T14:23:40Z</time>
      </trkpt>
      <trkpt lat="45.85687" lon="4.70194">
        <ele>197</ele>
        <time>2016-11-30T14:23:41Z</time>
      </trkpt>
      <trkpt lat="45.85686" lon="4.70186">
        <ele>197</ele>
        <time>2016-11-30T14:23:42Z</time>
      </trkpt>
      <trkpt lat="45.85685" lon="4.70178">
        <ele>197</ele>
        <time>2016-11-30T14:23:43Z</time>
      </trkpt>
      <trkpt lat="45.85684" lon="4.70171">
        <ele>197</ele>
        <time>2016-11-30T14:23:44Z</time>
      </trkpt>
      <trkpt lat="45.85683" lon="4.70163">
        <ele>197</ele>
        <time>2016-11-30T14:23:45Z</time>
      </trkpt>
      <trkpt lat="45.85681" lon="4.70155">
        <ele>197</ele>
        <time>2016-11-30T14:23:46Z</time>
      </trkpt>
      <trkpt lat="45.8568" lon="4.70147">
        <ele>197</ele>
        <time>2016-11-30T14:23:47Z</time>
      </trkpt>
      <trkpt lat="45.85679" lon="4.70139">
        <ele>197</ele>
        <time>2016-11-30T14:23:48Z</time>
      </trkpt>
      <trkpt lat="45.85678" lon="4.70131">
        <ele>197</ele>
        <time>2016-11-30T14:23:49Z</time>
      </trkpt>
      <trkpt lat="45.85678" lon="4.70122">
        <ele>197</ele>
        <time>2016-11-30T14:23:50Z</time>
      </trkpt>
      <trkpt lat="45.85679" lon="4.7011">
        <ele>197</ele>
        <time>2016-11-30T14:23:51Z</time>
      </trkpt>
      <trkpt lat="45.85678" lon="4.70102">
        <ele>196</ele>
        <time>2016-11-30T14:23:52Z</time>
      </trkpt>
      <trkpt lat="45.85681" lon="4.70093">
        <ele>196</ele>
        <time>2016-11-30T14:23:53Z</time>
      </trkpt>
      <trkpt lat="45.85681" lon="4.70087">
        <ele>196</ele>
        <time>2016-11-30T14:23:54Z</time>
      </trkpt>
      <trkpt lat="45.85681" lon="4.70078">
        <ele>196</ele>
        <time>2016-11-30T14:23:55Z</time>
      </trkpt>
      <trkpt lat="45.85681" lon="4.70066">
        <ele>196</ele>
        <time>2016-11-30T14:23:57Z</time>
      </trkpt>
      <trkpt lat="45.85682" lon="4.70059">
        <ele>195</ele>
        <time>2016-11-30T14:23:58Z</time>
      </trkpt>
      <trkpt lat="45.85684" lon="4.70048">
        <ele>195</ele>
        <time>2016-11-30T14:24:00Z</time>
      </trkpt>
      <trkpt lat="45.85691" lon="4.70008">
        <ele>195</ele>
        <time>2016-11-30T14:24:06Z</time>
      </trkpt>
      <trkpt lat="45.85691" lon="4.7">
        <ele>195</ele>
        <time>2016-11-30T14:24:07Z</time>
      </trkpt>
      <trkpt lat="45.85692" lon="4.6999">
        <ele>195</ele>
        <time>2016-11-30T14:24:08Z</time>
      </trkpt>
      <trkpt lat="45.85692" lon="4.69982">
        <ele>195</ele>
        <time>2016-11-30T14:24:09Z</time>
      </trkpt>
      <trkpt lat="45.85691" lon="4.69973">
        <ele>195</ele>
        <time>2016-11-30T14:24:10Z</time>
      </trkpt>
      <trkpt lat="45.8569" lon="4.69965">
        <ele>195</ele>
        <time>2016-11-30T14:24:11Z</time>
      </trkpt>
      <trkpt lat="45.8569" lon="4.69957">
        <ele>195</ele>
        <time>2016-11-30T14:24:12Z</time>
      </trkpt>
      <trkpt lat="45.8569" lon="4.69947">
        <ele>195</ele>
        <time>2016-11-30T14:24:13Z</time>
      </trkpt>
      <trkpt lat="45.85688" lon="4.69938">
        <ele>195</ele>
        <time>2016-11-30T14:24:14Z</time>
      </trkpt>
      <trkpt lat="45.85686" lon="4.6993">
        <ele>195</ele>
        <time>2016-11-30T14:24:15Z</time>
      </trkpt>
      <trkpt lat="45.85685" lon="4.69922">
        <ele>195</ele>
        <time>2016-11-30T14:24:16Z</time>
      </trkpt>
      <trkpt lat="45.85683" lon="4.69914">
        <ele>195</ele>
        <time>2016-11-30T14:24:17Z</time>
      </trkpt>
      <trkpt lat="45.85681" lon="4.69907">
        <ele>195</ele>
        <time>2016-11-30T14:24:18Z</time>
      </trkpt>
      <trkpt lat="45.8568" lon="4.69899">
        <ele>195</ele>
        <time>2016-11-30T14:24:19Z</time>
      </trkpt>
      <trkpt lat="45.85678" lon="4.69891">
        <ele>195</ele>
        <time>2016-11-30T14:24:20Z</time>
      </trkpt>
      <trkpt lat="45.85677" lon="4.69884">
        <ele>195</ele>
        <time>2016-11-30T14:24:21Z</time>
      </trkpt>
      <trkpt lat="45.85675" lon="4.69876">
        <ele>195</ele>
        <time>2016-11-30T14:24:22Z</time>
      </trkpt>
      <trkpt lat="45.85674" lon="4.69868">
        <ele>195</ele>
        <time>2016-11-30T14:24:23Z</time>
      </trkpt>
      <trkpt lat="45.85672" lon="4.69861">
        <ele>195</ele>
        <time>2016-11-30T14:24:24Z</time>
      </trkpt>
      <trkpt lat="45.85671" lon="4.69853">
        <ele>195</ele>
        <time>2016-11-30T14:24:25Z</time>
      </trkpt>
      <trkpt lat="45.85664" lon="4.69848">
        <ele>195</ele>
        <time>2016-11-30T14:24:26Z</time>
      </trkpt>
      <trkpt lat="45.85657" lon="4.69844">
        <ele>195</ele>
        <time>2016-11-30T14:24:29Z</time>
      </trkpt>
      <trkpt lat="45.85658" lon="4.69838">
        <ele>195</ele>
        <time>2016-11-30T14:24:30Z</time>
      </trkpt>
      <trkpt lat="45.85659" lon="4.69831">
        <ele>195</ele>
        <time>2016-11-30T14:24:31Z</time>
      </trkpt>
      <trkpt lat="45.85659" lon="4.69825">
        <ele>195</ele>
        <time>2016-11-30T14:24:32Z</time>
      </trkpt>
      <trkpt lat="45.85659" lon="4.69815">
        <ele>195</ele>
        <time>2016-11-30T14:24:33Z</time>
      </trkpt>
      <trkpt lat="45.85659" lon="4.69806">
        <ele>195</ele>
        <time>2016-11-30T14:24:34Z</time>
      </trkpt>
      <trkpt lat="45.8566" lon="4.69797">
        <ele>195</ele>
        <time>2016-11-30T14:24:35Z</time>
      </trkpt>
      <trkpt lat="45.85658" lon="4.69768">
        <ele>195</ele>
        <time>2016-11-30T14:24:38Z</time>
      </trkpt>
      <trkpt lat="45.85657" lon="4.69758">
        <ele>195</ele>
        <time>2016-11-30T14:24:39Z</time>
      </trkpt>
      <trkpt lat="45.85657" lon="4.69747">
        <ele>195</ele>
        <time>2016-11-30T14:24:40Z</time>
      </trkpt>
      <trkpt lat="45.85656" lon="4.69738">
        <ele>195</ele>
        <time>2016-11-30T14:24:41Z</time>
      </trkpt>
      <trkpt lat="45.85655" lon="4.69728">
        <ele>195</ele>
        <time>2016-11-30T14:24:42Z</time>
      </trkpt>
      <trkpt lat="45.85653" lon="4.69719">
        <ele>196</ele>
        <time>2016-11-30T14:24:43Z</time>
      </trkpt>
      <trkpt lat="45.85652" lon="4.6971">
        <ele>196</ele>
        <time>2016-11-30T14:24:44Z</time>
      </trkpt>
      <trkpt lat="45.85652" lon="4.697">
        <ele>196</ele>
        <time>2016-11-30T14:24:45Z</time>
      </trkpt>
      <trkpt lat="45.85651" lon="4.69692">
        <ele>196</ele>
        <time>2016-11-30T14:24:46Z</time>
      </trkpt>
      <trkpt lat="45.8565" lon="4.69683">
        <ele>196</ele>
        <time>2016-11-30T14:24:47Z</time>
      </trkpt>
      <trkpt lat="45.85649" lon="4.69674">
        <ele>196</ele>
        <time>2016-11-30T14:24:48Z</time>
      </trkpt>
      <trkpt lat="45.85649" lon="4.69665">
        <ele>196</ele>
        <time>2016-11-30T14:24:49Z</time>
      </trkpt>
      <trkpt lat="45.85649" lon="4.69657">
        <ele>197</ele>
        <time>2016-11-30T14:24:50Z</time>
      </trkpt>
      <trkpt lat="45.85648" lon="4.69648">
        <ele>197</ele>
        <time>2016-11-30T14:24:51Z</time>
      </trkpt>
      <trkpt lat="45.85646" lon="4.6964">
        <ele>197</ele>
        <time>2016-11-30T14:24:52Z</time>
      </trkpt>
      <trkpt lat="45.85645" lon="4.69632">
        <ele>197</ele>
        <time>2016-11-30T14:24:53Z</time>
      </trkpt>
      <trkpt lat="45.85645" lon="4.69623">
        <ele>197</ele>
        <time>2016-11-30T14:24:54Z</time>
      </trkpt>
      <trkpt lat="45.85645" lon="4.69615">
        <ele>197</ele>
        <time>2016-11-30T14:24:55Z</time>
      </trkpt>
      <trkpt lat="45.85644" lon="4.69607">
        <ele>197</ele>
        <time>2016-11-30T14:24:56Z</time>
      </trkpt>
      <trkpt lat="45.85644" lon="4.69597">
        <ele>197</ele>
        <time>2016-11-30T14:24:57Z</time>
      </trkpt>
      <trkpt lat="45.85643" lon="4.69589">
        <ele>197</ele>
        <time>2016-11-30T14:24:58Z</time>
      </trkpt>
      <trkpt lat="45.85643" lon="4.69581">
        <ele>198</ele>
        <time>2016-11-30T14:24:59Z</time>
      </trkpt>
      <trkpt lat="45.85642" lon="4.69572">
        <ele>198</ele>
        <time>2016-11-30T14:25:00Z</time>
      </trkpt>
      <trkpt lat="45.85641" lon="4.69564">
        <ele>198</ele>
        <time>2016-11-30T14:25:01Z</time>
      </trkpt>
      <trkpt lat="45.85641" lon="4.69557">
        <ele>198</ele>
        <time>2016-11-30T14:25:02Z</time>
      </trkpt>
      <trkpt lat="45.8564" lon="4.69548">
        <ele>198</ele>
        <time>2016-11-30T14:25:03Z</time>
      </trkpt>
      <trkpt lat="45.8564" lon="4.69541">
        <ele>198</ele>
        <time>2016-11-30T14:25:04Z</time>
      </trkpt>
      <trkpt lat="45.85639" lon="4.69533">
        <ele>198</ele>
        <time>2016-11-30T14:25:05Z</time>
      </trkpt>
      <trkpt lat="45.85639" lon="4.69526">
        <ele>198</ele>
        <time>2016-11-30T14:25:06Z</time>
      </trkpt>
      <trkpt lat="45.85638" lon="4.69518">
        <ele>198</ele>
        <time>2016-11-30T14:25:07Z</time>
      </trkpt>
      <trkpt lat="45.85638" lon="4.6951">
        <ele>198</ele>
        <time>2016-11-30T14:25:08Z</time>
      </trkpt>
      <trkpt lat="45.85637" lon="4.69502">
        <ele>198</ele>
        <time>2016-11-30T14:25:09Z</time>
      </trkpt>
      <trkpt lat="45.85637" lon="4.69495">
        <ele>198</ele>
        <time>2016-11-30T14:25:10Z</time>
      </trkpt>
      <trkpt lat="45.85636" lon="4.69488">
        <ele>198</ele>
        <time>2016-11-30T14:25:11Z</time>
      </trkpt>
      <trkpt lat="45.85635" lon="4.6948">
        <ele>198</ele>
        <time>2016-11-30T14:25:12Z</time>
      </trkpt>
      <trkpt lat="45.85634" lon="4.69473">
        <ele>198</ele>
        <time>2016-11-30T14:25:13Z</time>
      </trkpt>
      <trkpt lat="45.85632" lon="4.69465">
        <ele>198</ele>
        <time>2016-11-30T14:25:14Z</time>
      </trkpt>
      <trkpt lat="45.85631" lon="4.69457">
        <ele>198</ele>
        <time>2016-11-30T14:25:15Z</time>
      </trkpt>
      <trkpt lat="45.85631" lon="4.69449">
        <ele>198</ele>
        <time>2016-11-30T14:25:16Z</time>
      </trkpt>
      <trkpt lat="45.8563" lon="4.69441">
        <ele>198</ele>
        <time>2016-11-30T14:25:17Z</time>
      </trkpt>
      <trkpt lat="45.85629" lon="4.69433">
        <ele>198</ele>
        <time>2016-11-30T14:25:18Z</time>
      </trkpt>
      <trkpt lat="45.85628" lon="4.69425">
        <ele>198</ele>
        <time>2016-11-30T14:25:19Z</time>
      </trkpt>
      <trkpt lat="45.85627" lon="4.69417">
        <ele>198</ele>
        <time>2016-11-30T14:25:20Z</time>
      </trkpt>
      <trkpt lat="45.85626" lon="4.69409">
        <ele>198</ele>
        <time>2016-11-30T14:25:21Z</time>
      </trkpt>
      <trkpt lat="45.85624" lon="4.69402">
        <ele>198</ele>
        <time>2016-11-30T14:25:22Z</time>
      </trkpt>
      <trkpt lat="45.85623" lon="4.69394">
        <ele>198</ele>
        <time>2016-11-30T14:25:23Z</time>
      </trkpt>
      <trkpt lat="45.85622" lon="4.69387">
        <ele>198</ele>
        <time>2016-11-30T14:25:24Z</time>
      </trkpt>
      <trkpt lat="45.85622" lon="4.69378">
        <ele>198</ele>
        <time>2016-11-30T14:25:25Z</time>
      </trkpt>
      <trkpt lat="45.85621" lon="4.6937">
        <ele>198</ele>
        <time>2016-11-30T14:25:26Z</time>
      </trkpt>
      <trkpt lat="45.8562" lon="4.69362">
        <ele>198</ele>
        <time>2016-11-30T14:25:27Z</time>
      </trkpt>
      <trkpt lat="45.85619" lon="4.69354">
        <ele>198</ele>
        <time>2016-11-30T14:25:28Z</time>
      </trkpt>
      <trkpt lat="45.85618" lon="4.69346">
        <ele>198</ele>
        <time>2016-11-30T14:25:29Z</time>
      </trkpt>
      <trkpt lat="45.85618" lon="4.69338">
        <ele>198</ele>
        <time>2016-11-30T14:25:30Z</time>
      </trkpt>
      <trkpt lat="45.85616" lon="4.6933">
        <ele>198</ele>
        <time>2016-11-30T14:25:31Z</time>
      </trkpt>
      <trkpt lat="45.85615" lon="4.69322">
        <ele>198</ele>
        <time>2016-11-30T14:25:32Z</time>
      </trkpt>
      <trkpt lat="45.85615" lon="4.69314">
        <ele>198</ele>
        <time>2016-11-30T14:25:33Z</time>
      </trkpt>
      <trkpt lat="45.85614" lon="4.69307">
        <ele>198</ele>
        <time>2016-11-30T14:25:34Z</time>
      </trkpt>
      <trkpt lat="45.85613" lon="4.69299">
        <ele>198</ele>
        <time>2016-11-30T14:25:35Z</time>
      </trkpt>
      <trkpt lat="45.85613" lon="4.69291">
        <ele>198</ele>
        <time>2016-11-30T14:25:36Z</time>
      </trkpt>
      <trkpt lat="45.85612" lon="4.69284">
        <ele>198</ele>
        <time>2016-11-30T14:25:37Z</time>
      </trkpt>
      <trkpt lat="45.85612" lon="4.69276">
        <ele>198</ele>
        <time>2016-11-30T14:25:38Z</time>
      </trkpt>
      <trkpt lat="45.85612" lon="4.69269">
        <ele>198</ele>
        <time>2016-11-30T14:25:39Z</time>
      </trkpt>
      <trkpt lat="45.85612" lon="4.69262">
        <ele>198</ele>
        <time>2016-11-30T14:25:40Z</time>
      </trkpt>
      <trkpt lat="45.85612" lon="4.69254">
        <ele>198</ele>
        <time>2016-11-30T14:25:41Z</time>
      </trkpt>
      <trkpt lat="45.85609" lon="4.69249">
        <ele>199</ele>
        <time>2016-11-30T14:25:42Z</time>
      </trkpt>
      <trkpt lat="45.85607" lon="4.69242">
        <ele>199</ele>
        <time>2016-11-30T14:25:43Z</time>
      </trkpt>
      <trkpt lat="45.85606" lon="4.69235">
        <ele>199</ele>
        <time>2016-11-30T14:25:44Z</time>
      </trkpt>
      <trkpt lat="45.85605" lon="4.69227">
        <ele>199</ele>
        <time>2016-11-30T14:25:45Z</time>
      </trkpt>
      <trkpt lat="45.85605" lon="4.69219">
        <ele>199</ele>
        <time>2016-11-30T14:25:46Z</time>
      </trkpt>
      <trkpt lat="45.85605" lon="4.69211">
        <ele>199</ele>
        <time>2016-11-30T14:25:47Z</time>
      </trkpt>
      <trkpt lat="45.85604" lon="4.69204">
        <ele>199</ele>
        <time>2016-11-30T14:25:48Z</time>
      </trkpt>
      <trkpt lat="45.85603" lon="4.69195">
        <ele>199</ele>
        <time>2016-11-30T14:25:49Z</time>
      </trkpt>
      <trkpt lat="45.85602" lon="4.69187">
        <ele>199</ele>
        <time>2016-11-30T14:25:50Z</time>
      </trkpt>
      <trkpt lat="45.85602" lon="4.69179">
        <ele>199</ele>
        <time>2016-11-30T14:25:51Z</time>
      </trkpt>
      <trkpt lat="45.85601" lon="4.69171">
        <ele>199</ele>
        <time>2016-11-30T14:25:52Z</time>
      </trkpt>
      <trkpt lat="45.85601" lon="4.69163">
        <ele>199</ele>
        <time>2016-11-30T14:25:53Z</time>
      </trkpt>
      <trkpt lat="45.856" lon="4.69154">
        <ele>199</ele>
        <time>2016-11-30T14:25:54Z</time>
      </trkpt>
      <trkpt lat="45.85599" lon="4.69145">
        <ele>199</ele>
        <time>2016-11-30T14:25:55Z</time>
      </trkpt>
      <trkpt lat="45.85598" lon="4.69138">
        <ele>199</ele>
        <time>2016-11-30T14:25:56Z</time>
      </trkpt>
      <trkpt lat="45.85597" lon="4.6913">
        <ele>198</ele>
        <time>2016-11-30T14:25:57Z</time>
      </trkpt>
      <trkpt lat="45.85596" lon="4.69122">
        <ele>198</ele>
        <time>2016-11-30T14:25:58Z</time>
      </trkpt>
      <trkpt lat="45.85595" lon="4.69115">
        <ele>198</ele>
        <time>2016-11-30T14:25:59Z</time>
      </trkpt>
      <trkpt lat="45.85595" lon="4.69107">
        <ele>199</ele>
        <time>2016-11-30T14:26:00Z</time>
      </trkpt>
      <trkpt lat="45.85594" lon="4.69098">
        <ele>199</ele>
        <time>2016-11-30T14:26:01Z</time>
      </trkpt>
      <trkpt lat="45.85594" lon="4.69089">
        <ele>199</ele>
        <time>2016-11-30T14:26:02Z</time>
      </trkpt>
      <trkpt lat="45.85593" lon="4.6908">
        <ele>199</ele>
        <time>2016-11-30T14:26:03Z</time>
      </trkpt>
      <trkpt lat="45.85592" lon="4.69072">
        <ele>199</ele>
        <time>2016-11-30T14:26:04Z</time>
      </trkpt>
      <trkpt lat="45.85591" lon="4.69063">
        <ele>199</ele>
        <time>2016-11-30T14:26:05Z</time>
      </trkpt>
      <trkpt lat="45.8559" lon="4.69055">
        <ele>199</ele>
        <time>2016-11-30T14:26:06Z</time>
      </trkpt>
      <trkpt lat="45.85589" lon="4.69046">
        <ele>199</ele>
        <time>2016-11-30T14:26:07Z</time>
      </trkpt>
      <trkpt lat="45.85588" lon="4.69037">
        <ele>199</ele>
        <time>2016-11-30T14:26:08Z</time>
      </trkpt>
      <trkpt lat="45.85587" lon="4.69028">
        <ele>199</ele>
        <time>2016-11-30T14:26:09Z</time>
      </trkpt>
      <trkpt lat="45.85587" lon="4.69019">
        <ele>199</ele>
        <time>2016-11-30T14:26:10Z</time>
      </trkpt>
      <trkpt lat="45.85586" lon="4.69011">
        <ele>200</ele>
        <time>2016-11-30T14:26:11Z</time>
      </trkpt>
      <trkpt lat="45.85586" lon="4.69003">
        <ele>200</ele>
        <time>2016-11-30T14:26:12Z</time>
      </trkpt>
      <trkpt lat="45.85584" lon="4.68994">
        <ele>200</ele>
        <time>2016-11-30T14:26:13Z</time>
      </trkpt>
      <trkpt lat="45.85584" lon="4.68984">
        <ele>200</ele>
        <time>2016-11-30T14:26:14Z</time>
      </trkpt>
      <trkpt lat="45.85583" lon="4.68975">
        <ele>200</ele>
        <time>2016-11-30T14:26:15Z</time>
      </trkpt>
      <trkpt lat="45.85582" lon="4.68966">
        <ele>200</ele>
        <time>2016-11-30T14:26:16Z</time>
      </trkpt>
      <trkpt lat="45.85581" lon="4.68957">
        <ele>200</ele>
        <time>2016-11-30T14:26:17Z</time>
      </trkpt>
      <trkpt lat="45.8558" lon="4.68949">
        <ele>200</ele>
        <time>2016-11-30T14:26:18Z</time>
      </trkpt>
      <trkpt lat="45.85579" lon="4.6894">
        <ele>200</ele>
        <time>2016-11-30T14:26:19Z</time>
      </trkpt>
      <trkpt lat="45.85579" lon="4.68932">
        <ele>200</ele>
        <time>2016-11-30T14:26:20Z</time>
      </trkpt>
      <trkpt lat="45.85579" lon="4.68924">
        <ele>200</ele>
        <time>2016-11-30T14:26:21Z</time>
      </trkpt>
      <trkpt lat="45.85578" lon="4.68915">
        <ele>200</ele>
        <time>2016-11-30T14:26:22Z</time>
      </trkpt>
      <trkpt lat="45.85578" lon="4.68907">
        <ele>200</ele>
        <time>2016-11-30T14:26:23Z</time>
      </trkpt>
      <trkpt lat="45.85577" lon="4.689">
        <ele>200</ele>
        <time>2016-11-30T14:26:24Z</time>
      </trkpt>
      <trkpt lat="45.85577" lon="4.68892">
        <ele>200</ele>
        <time>2016-11-30T14:26:25Z</time>
      </trkpt>
      <trkpt lat="45.85576" lon="4.68884">
        <ele>200</ele>
        <time>2016-11-30T14:26:26Z</time>
      </trkpt>
      <trkpt lat="45.85575" lon="4.68877">
        <ele>200</ele>
        <time>2016-11-30T14:26:27Z</time>
      </trkpt>
      <trkpt lat="45.85575" lon="4.68869">
        <ele>200</ele>
        <time>2016-11-30T14:26:28Z</time>
      </trkpt>
      <trkpt lat="45.85575" lon="4.68862">
        <ele>200</ele>
        <time>2016-11-30T14:26:29Z</time>
      </trkpt>
      <trkpt lat="45.85574" lon="4.68855">
        <ele>200</ele>
        <time>2016-11-30T14:26:30Z</time>
      </trkpt>
      <trkpt lat="45.85573" lon="4.68848">
        <ele>200</ele>
        <time>2016-11-30T14:26:31Z</time>
      </trkpt>
      <trkpt lat="45.85572" lon="4.68842">
        <ele>200</ele>
        <time>2016-11-30T14:26:32Z</time>
      </trkpt>
      <trkpt lat="45.85571" lon="4.68831">
        <ele>200</ele>
        <time>2016-11-30T14:26:34Z</time>
      </trkpt>
      <trkpt lat="45.85571" lon="4.68827">
        <ele>200</ele>
        <time>2016-11-30T14:26:35Z</time>
      </trkpt>
      <trkpt lat="45.85571" lon="4.68818">
        <ele>200</ele>
        <time>2016-11-30T14:26:37Z</time>
      </trkpt>
      <trkpt lat="45.85571" lon="4.68814">
        <ele>200</ele>
        <time>2016-11-30T14:26:38Z</time>
      </trkpt>
      <trkpt lat="45.85571" lon="4.68801">
        <ele>200</ele>
        <time>2016-11-30T14:26:41Z</time>
      </trkpt>
      <trkpt lat="45.85572" lon="4.68798">
        <ele>200</ele>
        <time>2016-11-30T14:26:42Z</time>
      </trkpt>
      <trkpt lat="45.85571" lon="4.68786">
        <ele>200</ele>
        <time>2016-11-30T14:26:45Z</time>
      </trkpt>
      <trkpt lat="45.8557" lon="4.68782">
        <ele>200</ele>
        <time>2016-11-30T14:26:46Z</time>
      </trkpt>
      <trkpt lat="45.85571" lon="4.68773">
        <ele>200</ele>
        <time>2016-11-30T14:26:48Z</time>
      </trkpt>
      <trkpt lat="45.85571" lon="4.68769">
        <ele>200</ele>
        <time>2016-11-30T14:26:49Z</time>
      </trkpt>
      <trkpt lat="45.85569" lon="4.68756">
        <ele>200</ele>
        <time>2016-11-30T14:26:52Z</time>
      </trkpt>
      <trkpt lat="45.85568" lon="4.68751">
        <ele>200</ele>
        <time>2016-11-30T14:26:53Z</time>
      </trkpt>
      <trkpt lat="45.85567" lon="4.68741">
        <ele>200</ele>
        <time>2016-11-30T14:26:55Z</time>
      </trkpt>
      <trkpt lat="45.85567" lon="4.68736">
        <ele>200</ele>
        <time>2016-11-30T14:26:56Z</time>
      </trkpt>
      <trkpt lat="45.85564" lon="4.68726">
        <ele>200</ele>
        <time>2016-11-30T14:26:58Z</time>
      </trkpt>
      <trkpt lat="45.85564" lon="4.68721">
        <ele>200</ele>
        <time>2016-11-30T14:26:59Z</time>
      </trkpt>
      <trkpt lat="45.85563" lon="4.6871">
        <ele>200</ele>
        <time>2016-11-30T14:27:01Z</time>
      </trkpt>
      <trkpt lat="45.85562" lon="4.68705">
        <ele>200</ele>
        <time>2016-11-30T14:27:02Z</time>
      </trkpt>
      <trkpt lat="45.8556" lon="4.68695">
        <ele>200</ele>
        <time>2016-11-30T14:27:04Z</time>
      </trkpt>
      <trkpt lat="45.8556" lon="4.6869">
        <ele>200</ele>
        <time>2016-11-30T14:27:05Z</time>
      </trkpt>
      <trkpt lat="45.85559" lon="4.6868">
        <ele>200</ele>
        <time>2016-11-30T14:27:07Z</time>
      </trkpt>
      <trkpt lat="45.85559" lon="4.68675">
        <ele>200</ele>
        <time>2016-11-30T14:27:08Z</time>
      </trkpt>
      <trkpt lat="45.85558" lon="4.68664">
        <ele>200</ele>
        <time>2016-11-30T14:27:10Z</time>
      </trkpt>
      <trkpt lat="45.85557" lon="4.68659">
        <ele>200</ele>
        <time>2016-11-30T14:27:11Z</time>
      </trkpt>
      <trkpt lat="45.85556" lon="4.68648">
        <ele>201</ele>
        <time>2016-11-30T14:27:13Z</time>
      </trkpt>
      <trkpt lat="45.85556" lon="4.68642">
        <ele>201</ele>
        <time>2016-11-30T14:27:14Z</time>
      </trkpt>
      <trkpt lat="45.85555" lon="4.68631">
        <ele>201</ele>
        <time>2016-11-30T14:27:16Z</time>
      </trkpt>
      <trkpt lat="45.85554" lon="4.68626">
        <ele>201</ele>
        <time>2016-11-30T14:27:17Z</time>
      </trkpt>
      <trkpt lat="45.85552" lon="4.68615">
        <ele>201</ele>
        <time>2016-11-30T14:27:19Z</time>
      </trkpt>
      <trkpt lat="45.85551" lon="4.68609">
        <ele>201</ele>
        <time>2016-11-30T14:27:20Z</time>
      </trkpt>
      <trkpt lat="45.85549" lon="4.68597">
        <ele>201</ele>
        <time>2016-11-30T14:27:22Z</time>
      </trkpt>
      <trkpt lat="45.85548" lon="4.68591">
        <ele>201</ele>
        <time>2016-11-30T14:27:23Z</time>
      </trkpt>
      <trkpt lat="45.85547" lon="4.68584">
        <ele>201</ele>
        <time>2016-11-30T14:27:24Z</time>
      </trkpt>
      <trkpt lat="45.85546" lon="4.68578">
        <ele>201</ele>
        <time>2016-11-30T14:27:25Z</time>
      </trkpt>
      <trkpt lat="45.85546" lon="4.68571">
        <ele>201</ele>
        <time>2016-11-30T14:27:26Z</time>
      </trkpt>
      <trkpt lat="45.85545" lon="4.68564">
        <ele>201</ele>
        <time>2016-11-30T14:27:27Z</time>
      </trkpt>
      <trkpt lat="45.85543" lon="4.68557">
        <ele>201</ele>
        <time>2016-11-30T14:27:28Z</time>
      </trkpt>
      <trkpt lat="45.85543" lon="4.6855">
        <ele>201</ele>
        <time>2016-11-30T14:27:29Z</time>
      </trkpt>
      <trkpt lat="45.85542" lon="4.68543">
        <ele>201</ele>
        <time>2016-11-30T14:27:30Z</time>
      </trkpt>
      <trkpt lat="45.85541" lon="4.68535">
        <ele>201</ele>
        <time>2016-11-30T14:27:31Z</time>
      </trkpt>
      <trkpt lat="45.8554" lon="4.68528">
        <ele>201</ele>
        <time>2016-11-30T14:27:32Z</time>
      </trkpt>
      <trkpt lat="45.85539" lon="4.68519">
        <ele>201</ele>
        <time>2016-11-30T14:27:33Z</time>
      </trkpt>
      <trkpt lat="45.85538" lon="4.68511">
        <ele>201</ele>
        <time>2016-11-30T14:27:34Z</time>
      </trkpt>
      <trkpt lat="45.85538" lon="4.68503">
        <ele>201</ele>
        <time>2016-11-30T14:27:35Z</time>
      </trkpt>
      <trkpt lat="45.85537" lon="4.68495">
        <ele>200</ele>
        <time>2016-11-30T14:27:36Z</time>
      </trkpt>
      <trkpt lat="45.85536" lon="4.68487">
        <ele>200</ele>
        <time>2016-11-30T14:27:37Z</time>
      </trkpt>
      <trkpt lat="45.85535" lon="4.68479">
        <ele>200</ele>
        <time>2016-11-30T14:27:38Z</time>
      </trkpt>
      <trkpt lat="45.85534" lon="4.68472">
        <ele>200</ele>
        <time>2016-11-30T14:27:39Z</time>
      </trkpt>
      <trkpt lat="45.85533" lon="4.68464">
        <ele>200</ele>
        <time>2016-11-30T14:27:40Z</time>
      </trkpt>
      <trkpt lat="45.85533" lon="4.68455">
        <ele>200</ele>
        <time>2016-11-30T14:27:41Z</time>
      </trkpt>
      <trkpt lat="45.85532" lon="4.68446">
        <ele>200</ele>
        <time>2016-11-30T14:27:42Z</time>
      </trkpt>
      <trkpt lat="45.85532" lon="4.68439">
        <ele>200</ele>
        <time>2016-11-30T14:27:43Z</time>
      </trkpt>
      <trkpt lat="45.85533" lon="4.68428">
        <ele>200</ele>
        <time>2016-11-30T14:27:44Z</time>
      </trkpt>
      <trkpt lat="45.85533" lon="4.6842">
        <ele>200</ele>
        <time>2016-11-30T14:27:45Z</time>
      </trkpt>
      <trkpt lat="45.85532" lon="4.68412">
        <ele>200</ele>
        <time>2016-11-30T14:27:46Z</time>
      </trkpt>
      <trkpt lat="45.85531" lon="4.68403">
        <ele>200</ele>
        <time>2016-11-30T14:27:47Z</time>
      </trkpt>
      <trkpt lat="45.8553" lon="4.68381">
        <ele>200</ele>
        <time>2016-11-30T14:27:50Z</time>
      </trkpt>
      <trkpt lat="45.85529" lon="4.68374">
        <ele>201</ele>
        <time>2016-11-30T14:27:51Z</time>
      </trkpt>
      <trkpt lat="45.85528" lon="4.68366">
        <ele>201</ele>
        <time>2016-11-30T14:27:52Z</time>
      </trkpt>
      <trkpt lat="45.85527" lon="4.68348">
        <ele>201</ele>
        <time>2016-11-30T14:27:54Z</time>
      </trkpt>
      <trkpt lat="45.85526" lon="4.68333">
        <ele>202</ele>
        <time>2016-11-30T14:27:56Z</time>
      </trkpt>
      <trkpt lat="45.85525" lon="4.68325">
        <ele>202</ele>
        <time>2016-11-30T14:27:57Z</time>
      </trkpt>
      <trkpt lat="45.85524" lon="4.68316">
        <ele>202</ele>
        <time>2016-11-30T14:27:58Z</time>
      </trkpt>
      <trkpt lat="45.85523" lon="4.68309">
        <ele>202</ele>
        <time>2016-11-30T14:27:59Z</time>
      </trkpt>
      <trkpt lat="45.85521" lon="4.68301">
        <ele>202</ele>
        <time>2016-11-30T14:28:00Z</time>
      </trkpt>
      <trkpt lat="45.8552" lon="4.68294">
        <ele>202</ele>
        <time>2016-11-30T14:28:01Z</time>
      </trkpt>
      <trkpt lat="45.85519" lon="4.68287">
        <ele>202</ele>
        <time>2016-11-30T14:28:02Z</time>
      </trkpt>
      <trkpt lat="45.85517" lon="4.6828">
        <ele>202</ele>
        <time>2016-11-30T14:28:03Z</time>
      </trkpt>
      <trkpt lat="45.85516" lon="4.68272">
        <ele>202</ele>
        <time>2016-11-30T14:28:04Z</time>
      </trkpt>
      <trkpt lat="45.85515" lon="4.68265">
        <ele>202</ele>
        <time>2016-11-30T14:28:05Z</time>
      </trkpt>
      <trkpt lat="45.85514" lon="4.68259">
        <ele>203</ele>
        <time>2016-11-30T14:28:06Z</time>
      </trkpt>
      <trkpt lat="45.85514" lon="4.68249">
        <ele>203</ele>
        <time>2016-11-30T14:28:07Z</time>
      </trkpt>
      <trkpt lat="45.85512" lon="4.68244">
        <ele>203</ele>
        <time>2016-11-30T14:28:08Z</time>
      </trkpt>
      <trkpt lat="45.85511" lon="4.68237">
        <ele>203</ele>
        <time>2016-11-30T14:28:09Z</time>
      </trkpt>
      <trkpt lat="45.85511" lon="4.6823">
        <ele>203</ele>
        <time>2016-11-30T14:28:10Z</time>
      </trkpt>
      <trkpt lat="45.85511" lon="4.68223">
        <ele>203</ele>
        <time>2016-11-30T14:28:11Z</time>
      </trkpt>
      <trkpt lat="45.85511" lon="4.68214">
        <ele>203</ele>
        <time>2016-11-30T14:28:12Z</time>
      </trkpt>
      <trkpt lat="45.8551" lon="4.68207">
        <ele>203</ele>
        <time>2016-11-30T14:28:13Z</time>
      </trkpt>
      <trkpt lat="45.8551" lon="4.68198">
        <ele>203</ele>
        <time>2016-11-30T14:28:14Z</time>
      </trkpt>
      <trkpt lat="45.8551" lon="4.68185">
        <ele>203</ele>
        <time>2016-11-30T14:28:16Z</time>
      </trkpt>
      <trkpt lat="45.85509" lon="4.68179">
        <ele>204</ele>
        <time>2016-11-30T14:28:17Z</time>
      </trkpt>
      <trkpt lat="45.8551" lon="4.68172">
        <ele>204</ele>
        <time>2016-11-30T14:28:18Z</time>
      </trkpt>
      <trkpt lat="45.8551" lon="4.68161">
        <ele>204</ele>
        <time>2016-11-30T14:28:20Z</time>
      </trkpt>
      <trkpt lat="45.8551" lon="4.68155">
        <ele>203</ele>
        <time>2016-11-30T14:28:21Z</time>
      </trkpt>
      <trkpt lat="45.85511" lon="4.68145">
        <ele>203</ele>
        <time>2016-11-30T14:28:23Z</time>
      </trkpt>
      <trkpt lat="45.85512" lon="4.6814">
        <ele>203</ele>
        <time>2016-11-30T14:28:24Z</time>
      </trkpt>
      <trkpt lat="45.8551" lon="4.68129">
        <ele>203</ele>
        <time>2016-11-30T14:28:32Z</time>
      </trkpt>
      <trkpt lat="45.8551" lon="4.68127">
        <ele>203</ele>
        <time>2016-11-30T14:28:33Z</time>
      </trkpt>
      <trkpt lat="45.85508" lon="4.6812">
        <ele>203</ele>
        <time>2016-11-30T14:28:35Z</time>
      </trkpt>
      <trkpt lat="45.85511" lon="4.68098">
        <ele>203</ele>
        <time>2016-11-30T14:28:43Z</time>
      </trkpt>
      <trkpt lat="45.8551" lon="4.68087">
        <ele>203</ele>
        <time>2016-11-30T14:28:45Z</time>
      </trkpt>
      <trkpt lat="45.85507" lon="4.68081">
        <ele>204</ele>
        <time>2016-11-30T14:28:46Z</time>
      </trkpt>
      <trkpt lat="45.85505" lon="4.68068">
        <ele>203</ele>
        <time>2016-11-30T14:28:48Z</time>
      </trkpt>
      <trkpt lat="45.85504" lon="4.68055">
        <ele>203</ele>
        <time>2016-11-30T14:28:50Z</time>
      </trkpt>
      <trkpt lat="45.85503" lon="4.68048">
        <ele>203</ele>
        <time>2016-11-30T14:28:51Z</time>
      </trkpt>
      <trkpt lat="45.85501" lon="4.68042">
        <ele>203</ele>
        <time>2016-11-30T14:28:52Z</time>
      </trkpt>
      <trkpt lat="45.855" lon="4.68035">
        <ele>207</ele>
        <time>2016-11-30T14:28:53Z</time>
      </trkpt>
      <trkpt lat="45.85498" lon="4.68023">
        <ele>207</ele>
        <time>2016-11-30T14:28:55Z</time>
      </trkpt>
      <trkpt lat="45.85497" lon="4.68017">
        <ele>207</ele>
        <time>2016-11-30T14:28:56Z</time>
      </trkpt>
      <trkpt lat="45.85495" lon="4.68006">
        <ele>206</ele>
        <time>2016-11-30T14:28:58Z</time>
      </trkpt>
      <trkpt lat="45.85501" lon="4.68">
        <ele>206</ele>
        <time>2016-11-30T14:28:59Z</time>
      </trkpt>
      <trkpt lat="45.85505" lon="4.67995">
        <ele>206</ele>
        <time>2016-11-30T14:29:00Z</time>
      </trkpt>
      <trkpt lat="45.85509" lon="4.6799">
        <ele>206</ele>
        <time>2016-11-30T14:29:01Z</time>
      </trkpt>
      <trkpt lat="45.85515" lon="4.67981">
        <ele>206</ele>
        <time>2016-11-30T14:29:03Z</time>
      </trkpt>
      <trkpt lat="45.85519" lon="4.67975">
        <ele>206</ele>
        <time>2016-11-30T14:29:04Z</time>
      </trkpt>
      <trkpt lat="45.85522" lon="4.6797">
        <ele>206</ele>
        <time>2016-11-30T14:29:05Z</time>
      </trkpt>
      <trkpt lat="45.85527" lon="4.67964">
        <ele>206</ele>
        <time>2016-11-30T14:29:06Z</time>
      </trkpt>
      <trkpt lat="45.85532" lon="4.6796">
        <ele>206</ele>
        <time>2016-11-30T14:29:07Z</time>
      </trkpt>
      <trkpt lat="45.85537" lon="4.67957">
        <ele>205</ele>
        <time>2016-11-30T14:29:08Z</time>
      </trkpt>
      <trkpt lat="45.85541" lon="4.67952">
        <ele>205</ele>
        <time>2016-11-30T14:29:09Z</time>
      </trkpt>
      <trkpt lat="45.85545" lon="4.67948">
        <ele>205</ele>
        <time>2016-11-30T14:29:10Z</time>
      </trkpt>
      <trkpt lat="45.8555" lon="4.67943">
        <ele>205</ele>
        <time>2016-11-30T14:29:11Z</time>
      </trkpt>
      <trkpt lat="45.85553" lon="4.67938">
        <ele>205</ele>
        <time>2016-11-30T14:29:12Z</time>
      </trkpt>
      <trkpt lat="45.85557" lon="4.67934">
        <ele>205</ele>
        <time>2016-11-30T14:29:13Z</time>
      </trkpt>
      <trkpt lat="45.85562" lon="4.67934">
        <ele>205</ele>
        <time>2016-11-30T14:29:14Z</time>
      </trkpt>
      <trkpt lat="45.85567" lon="4.67931">
        <ele>205</ele>
        <time>2016-11-30T14:29:15Z</time>
      </trkpt>
      <trkpt lat="45.85571" lon="4.67927">
        <ele>205</ele>
        <time>2016-11-30T14:29:16Z</time>
      </trkpt>
      <trkpt lat="45.85575" lon="4.67921">
        <ele>204</ele>
        <time>2016-11-30T14:29:17Z</time>
      </trkpt>
      <trkpt lat="45.85579" lon="4.67912">
        <ele>205</ele>
        <time>2016-11-30T14:29:18Z</time>
      </trkpt>
      <trkpt lat="45.85581" lon="4.67904">
        <ele>205</ele>
        <time>2016-11-30T14:29:19Z</time>
      </trkpt>
      <trkpt lat="45.85583" lon="4.679">
        <ele>206</ele>
        <time>2016-11-30T14:29:20Z</time>
      </trkpt>
      <trkpt lat="45.85585" lon="4.67892">
        <ele>207</ele>
        <time>2016-11-30T14:29:21Z</time>
      </trkpt>
      <trkpt lat="45.85586" lon="4.67885">
        <ele>207</ele>
        <time>2016-11-30T14:29:22Z</time>
      </trkpt>
      <trkpt lat="45.85582" lon="4.67875">
        <ele>206</ele>
        <time>2016-11-30T14:29:23Z</time>
      </trkpt>
      <trkpt lat="45.85592" lon="4.67767">
        <ele>208</ele>
        <time>2016-11-30T14:29:37Z</time>
      </trkpt>
      <trkpt lat="45.85595" lon="4.6776">
        <ele>208</ele>
        <time>2016-11-30T14:29:38Z</time>
      </trkpt>
      <trkpt lat="45.856" lon="4.67752">
        <ele>208</ele>
        <time>2016-11-30T14:29:39Z</time>
      </trkpt>
      <trkpt lat="45.85604" lon="4.67743">
        <ele>207</ele>
        <time>2016-11-30T14:29:40Z</time>
      </trkpt>
      <trkpt lat="45.8561" lon="4.67737">
        <ele>208</ele>
        <time>2016-11-30T14:29:41Z</time>
      </trkpt>
      <trkpt lat="45.85612" lon="4.67729">
        <ele>208</ele>
        <time>2016-11-30T14:29:42Z</time>
      </trkpt>
      <trkpt lat="45.85612" lon="4.67723">
        <ele>208</ele>
        <time>2016-11-30T14:29:43Z</time>
      </trkpt>
      <trkpt lat="45.85614" lon="4.67711">
        <ele>208</ele>
        <time>2016-11-30T14:29:45Z</time>
      </trkpt>
      <trkpt lat="45.85614" lon="4.67705">
        <ele>208</ele>
        <time>2016-11-30T14:29:46Z</time>
      </trkpt>
      <trkpt lat="45.85617" lon="4.67698">
        <ele>208</ele>
        <time>2016-11-30T14:29:47Z</time>
      </trkpt>
      <trkpt lat="45.85625" lon="4.6769">
        <ele>208</ele>
        <time>2016-11-30T14:29:48Z</time>
      </trkpt>
      <trkpt lat="45.85633" lon="4.67689">
        <ele>209</ele>
        <time>2016-11-30T14:29:49Z</time>
      </trkpt>
      <trkpt lat="45.85638" lon="4.67685">
        <ele>209</ele>
        <time>2016-11-30T14:29:50Z</time>
      </trkpt>
      <trkpt lat="45.85643" lon="4.6768">
        <ele>209</ele>
        <time>2016-11-30T14:29:51Z</time>
      </trkpt>
      <trkpt lat="45.85648" lon="4.67676">
        <ele>209</ele>
        <time>2016-11-30T14:29:52Z</time>
      </trkpt>
      <trkpt lat="45.85653" lon="4.67672">
        <ele>209</ele>
        <time>2016-11-30T14:29:53Z</time>
      </trkpt>
      <trkpt lat="45.85658" lon="4.67668">
        <ele>209</ele>
        <time>2016-11-30T14:29:54Z</time>
      </trkpt>
      <trkpt lat="45.85663" lon="4.67664">
        <ele>208</ele>
        <time>2016-11-30T14:29:55Z</time>
      </trkpt>
      <trkpt lat="45.85668" lon="4.67659">
        <ele>209</ele>
        <time>2016-11-30T14:29:56Z</time>
      </trkpt>
      <trkpt lat="45.85673" lon="4.67654">
        <ele>210</ele>
        <time>2016-11-30T14:29:57Z</time>
      </trkpt>
      <trkpt lat="45.85678" lon="4.67651">
        <ele>210</ele>
        <time>2016-11-30T14:29:58Z</time>
      </trkpt>
      <trkpt lat="45.85683" lon="4.67647">
        <ele>210</ele>
        <time>2016-11-30T14:29:59Z</time>
      </trkpt>
      <trkpt lat="45.85688" lon="4.67644">
        <ele>210</ele>
        <time>2016-11-30T14:30:00Z</time>
      </trkpt>
      <trkpt lat="45.85693" lon="4.67641">
        <ele>210</ele>
        <time>2016-11-30T14:30:01Z</time>
      </trkpt>
      <trkpt lat="45.85697" lon="4.67639">
        <ele>210</ele>
        <time>2016-11-30T14:30:02Z</time>
      </trkpt>
      <trkpt lat="45.85702" lon="4.67636">
        <ele>211</ele>
        <time>2016-11-30T14:30:03Z</time>
      </trkpt>
      <trkpt lat="45.85708" lon="4.67633">
        <ele>211</ele>
        <time>2016-11-30T14:30:04Z</time>
      </trkpt>
      <trkpt lat="45.85713" lon="4.6763">
        <ele>211</ele>
        <time>2016-11-30T14:30:05Z</time>
      </trkpt>
      <trkpt lat="45.85719" lon="4.67627">
        <ele>211</ele>
        <time>2016-11-30T14:30:06Z</time>
      </trkpt>
      <trkpt lat="45.85725" lon="4.67624">
        <ele>211</ele>
        <time>2016-11-30T14:30:07Z</time>
      </trkpt>
      <trkpt lat="45.8573" lon="4.67621">
        <ele>211</ele>
        <time>2016-11-30T14:30:08Z</time>
      </trkpt>
      <trkpt lat="45.85736" lon="4.67618">
        <ele>211</ele>
        <time>2016-11-30T14:30:09Z</time>
      </trkpt>
      <trkpt lat="45.85742" lon="4.67616">
        <ele>210</ele>
        <time>2016-11-30T14:30:10Z</time>
      </trkpt>
      <trkpt lat="45.85747" lon="4.67613">
        <ele>210</ele>
        <time>2016-11-30T14:30:11Z</time>
      </trkpt>
      <trkpt lat="45.85752" lon="4.6761">
        <ele>217</ele>
        <time>2016-11-30T14:30:12Z</time>
      </trkpt>
      <trkpt lat="45.85757" lon="4.67607">
        <ele>216</ele>
        <time>2016-11-30T14:30:13Z</time>
      </trkpt>
      <trkpt lat="45.85762" lon="4.67605">
        <ele>216</ele>
        <time>2016-11-30T14:30:14Z</time>
      </trkpt>
      <trkpt lat="45.85767" lon="4.67602">
        <ele>216</ele>
        <time>2016-11-30T14:30:15Z</time>
      </trkpt>
      <trkpt lat="45.85772" lon="4.67598">
        <ele>217</ele>
        <time>2016-11-30T14:30:16Z</time>
      </trkpt>
      <trkpt lat="45.85777" lon="4.67596">
        <ele>217</ele>
        <time>2016-11-30T14:30:17Z</time>
      </trkpt>
      <trkpt lat="45.85781" lon="4.67592">
        <ele>218</ele>
        <time>2016-11-30T14:30:18Z</time>
      </trkpt>
      <trkpt lat="45.85786" lon="4.67589">
        <ele>219</ele>
        <time>2016-11-30T14:30:19Z</time>
      </trkpt>
      <trkpt lat="45.85791" lon="4.67586">
        <ele>219</ele>
        <time>2016-11-30T14:30:20Z</time>
      </trkpt>
      <trkpt lat="45.85795" lon="4.67583">
        <ele>212</ele>
        <time>2016-11-30T14:30:21Z</time>
      </trkpt>
      <trkpt lat="45.85799" lon="4.67579">
        <ele>212</ele>
        <time>2016-11-30T14:30:22Z</time>
      </trkpt>
      <trkpt lat="45.85803" lon="4.67575">
        <ele>212</ele>
        <time>2016-11-30T14:30:23Z</time>
      </trkpt>
      <trkpt lat="45.85807" lon="4.67571">
        <ele>213</ele>
        <time>2016-11-30T14:30:24Z</time>
      </trkpt>
      <trkpt lat="45.85811" lon="4.67567">
        <ele>213</ele>
        <time>2016-11-30T14:30:25Z</time>
      </trkpt>
      <trkpt lat="45.85815" lon="4.67561">
        <ele>213</ele>
        <time>2016-11-30T14:30:26Z</time>
      </trkpt>
      <trkpt lat="45.8582" lon="4.67556">
        <ele>213</ele>
        <time>2016-11-30T14:30:27Z</time>
      </trkpt>
      <trkpt lat="45.85824" lon="4.6755">
        <ele>212</ele>
        <time>2016-11-30T14:30:28Z</time>
      </trkpt>
      <trkpt lat="45.85828" lon="4.67545">
        <ele>211</ele>
        <time>2016-11-30T14:30:29Z</time>
      </trkpt>
      <trkpt lat="45.85831" lon="4.67538">
        <ele>211</ele>
        <time>2016-11-30T14:30:30Z</time>
      </trkpt>
      <trkpt lat="45.85834" lon="4.67533">
        <ele>220</ele>
        <time>2016-11-30T14:30:31Z</time>
      </trkpt>
      <trkpt lat="45.85839" lon="4.67528">
        <ele>219</ele>
        <time>2016-11-30T14:30:32Z</time>
      </trkpt>
      <trkpt lat="45.85842" lon="4.67523">
        <ele>219</ele>
        <time>2016-11-30T14:30:33Z</time>
      </trkpt>
      <trkpt lat="45.85845" lon="4.67518">
        <ele>218</ele>
        <time>2016-11-30T14:30:34Z</time>
      </trkpt>
      <trkpt lat="45.85849" lon="4.67512">
        <ele>217</ele>
        <time>2016-11-30T14:30:35Z</time>
      </trkpt>
      <trkpt lat="45.85852" lon="4.67506">
        <ele>217</ele>
        <time>2016-11-30T14:30:36Z</time>
      </trkpt>
      <trkpt lat="45.85853" lon="4.67498">
        <ele>212</ele>
        <time>2016-11-30T14:30:37Z</time>
      </trkpt>
      <trkpt lat="45.85856" lon="4.67491">
        <ele>212</ele>
        <time>2016-11-30T14:30:38Z</time>
      </trkpt>
      <trkpt lat="45.85858" lon="4.67484">
        <ele>213</ele>
        <time>2016-11-30T14:30:39Z</time>
      </trkpt>
      <trkpt lat="45.85859" lon="4.67476">
        <ele>213</ele>
        <time>2016-11-30T14:30:40Z</time>
      </trkpt>
      <trkpt lat="45.85861" lon="4.67467">
        <ele>214</ele>
        <time>2016-11-30T14:30:41Z</time>
      </trkpt>
      <trkpt lat="45.85863" lon="4.6746">
        <ele>214</ele>
        <time>2016-11-30T14:30:42Z</time>
      </trkpt>
      <trkpt lat="45.85865" lon="4.67452">
        <ele>214</ele>
        <time>2016-11-30T14:30:43Z</time>
      </trkpt>
      <trkpt lat="45.85867" lon="4.67445">
        <ele>214</ele>
        <time>2016-11-30T14:30:44Z</time>
      </trkpt>
      <trkpt lat="45.85868" lon="4.67438">
        <ele>213</ele>
        <time>2016-11-30T14:30:45Z</time>
      </trkpt>
      <trkpt lat="45.8587" lon="4.67429">
        <ele>213</ele>
        <time>2016-11-30T14:30:46Z</time>
      </trkpt>
      <trkpt lat="45.85872" lon="4.67421">
        <ele>213</ele>
        <time>2016-11-30T14:30:47Z</time>
      </trkpt>
      <trkpt lat="45.85874" lon="4.67412">
        <ele>210</ele>
        <time>2016-11-30T14:30:48Z</time>
      </trkpt>
      <trkpt lat="45.85875" lon="4.67404">
        <ele>210</ele>
        <time>2016-11-30T14:30:49Z</time>
      </trkpt>
      <trkpt lat="45.85876" lon="4.67396">
        <ele>210</ele>
        <time>2016-11-30T14:30:50Z</time>
      </trkpt>
      <trkpt lat="45.85876" lon="4.67387">
        <ele>210</ele>
        <time>2016-11-30T14:30:51Z</time>
      </trkpt>
      <trkpt lat="45.85876" lon="4.67378">
        <ele>209</ele>
        <time>2016-11-30T14:30:52Z</time>
      </trkpt>
      <trkpt lat="45.85877" lon="4.67369">
        <ele>209</ele>
        <time>2016-11-30T14:30:53Z</time>
      </trkpt>
      <trkpt lat="45.85877" lon="4.67361">
        <ele>209</ele>
        <time>2016-11-30T14:30:54Z</time>
      </trkpt>
      <trkpt lat="45.85878" lon="4.67353">
        <ele>209</ele>
        <time>2016-11-30T14:30:55Z</time>
      </trkpt>
      <trkpt lat="45.85879" lon="4.67345">
        <ele>209</ele>
        <time>2016-11-30T14:30:56Z</time>
      </trkpt>
      <trkpt lat="45.85879" lon="4.67337">
        <ele>209</ele>
        <time>2016-11-30T14:30:57Z</time>
      </trkpt>
      <trkpt lat="45.8588" lon="4.67328">
        <ele>206</ele>
        <time>2016-11-30T14:30:58Z</time>
      </trkpt>
      <trkpt lat="45.85881" lon="4.6732">
        <ele>206</ele>
        <time>2016-11-30T14:30:59Z</time>
      </trkpt>
      <trkpt lat="45.85881" lon="4.67311">
        <ele>206</ele>
        <time>2016-11-30T14:31:00Z</time>
      </trkpt>
      <trkpt lat="45.85882" lon="4.67303">
        <ele>206</ele>
        <time>2016-11-30T14:31:01Z</time>
      </trkpt>
      <trkpt lat="45.85882" lon="4.67295">
        <ele>206</ele>
        <time>2016-11-30T14:31:02Z</time>
      </trkpt>
      <trkpt lat="45.85883" lon="4.67286">
        <ele>205</ele>
        <time>2016-11-30T14:31:03Z</time>
      </trkpt>
      <trkpt lat="45.85884" lon="4.67278">
        <ele>205</ele>
        <time>2016-11-30T14:31:04Z</time>
      </trkpt>
      <trkpt lat="45.85884" lon="4.67269">
        <ele>205</ele>
        <time>2016-11-30T14:31:05Z</time>
      </trkpt>
      <trkpt lat="45.85885" lon="4.6726">
        <ele>205</ele>
        <time>2016-11-30T14:31:06Z</time>
      </trkpt>
      <trkpt lat="45.85886" lon="4.67252">
        <ele>205</ele>
        <time>2016-11-30T14:31:07Z</time>
      </trkpt>
      <trkpt lat="45.85886" lon="4.67243">
        <ele>205</ele>
        <time>2016-11-30T14:31:08Z</time>
      </trkpt>
      <trkpt lat="45.85887" lon="4.67235">
        <ele>205</ele>
        <time>2016-11-30T14:31:09Z</time>
      </trkpt>
      <trkpt lat="45.85887" lon="4.67227">
        <ele>204</ele>
        <time>2016-11-30T14:31:10Z</time>
      </trkpt>
      <trkpt lat="45.85888" lon="4.67219">
        <ele>204</ele>
        <time>2016-11-30T14:31:11Z</time>
      </trkpt>
      <trkpt lat="45.85888" lon="4.67212">
        <ele>204</ele>
        <time>2016-11-30T14:31:12Z</time>
      </trkpt>
      <trkpt lat="45.85888" lon="4.67204">
        <ele>204</ele>
        <time>2016-11-30T14:31:13Z</time>
      </trkpt>
      <trkpt lat="45.85889" lon="4.67196">
        <ele>204</ele>
        <time>2016-11-30T14:31:14Z</time>
      </trkpt>
      <trkpt lat="45.85889" lon="4.67188">
        <ele>204</ele>
        <time>2016-11-30T14:31:15Z</time>
      </trkpt>
      <trkpt lat="45.8589" lon="4.6718">
        <ele>205</ele>
        <time>2016-11-30T14:31:16Z</time>
      </trkpt>
      <trkpt lat="45.8589" lon="4.67171">
        <ele>205</ele>
        <time>2016-11-30T14:31:17Z</time>
      </trkpt>
      <trkpt lat="45.85891" lon="4.67163">
        <ele>204</ele>
        <time>2016-11-30T14:31:18Z</time>
      </trkpt>
      <trkpt lat="45.85891" lon="4.67155">
        <ele>204</ele>
        <time>2016-11-30T14:31:19Z</time>
      </trkpt>
      <trkpt lat="45.85892" lon="4.67147">
        <ele>204</ele>
        <time>2016-11-30T14:31:20Z</time>
      </trkpt>
      <trkpt lat="45.85893" lon="4.67139">
        <ele>204</ele>
        <time>2016-11-30T14:31:21Z</time>
      </trkpt>
      <trkpt lat="45.85893" lon="4.67131">
        <ele>204</ele>
        <time>2016-11-30T14:31:22Z</time>
      </trkpt>
      <trkpt lat="45.85893" lon="4.67124">
        <ele>204</ele>
        <time>2016-11-30T14:31:23Z</time>
      </trkpt>
      <trkpt lat="45.85894" lon="4.67116">
        <ele>204</ele>
        <time>2016-11-30T14:31:24Z</time>
      </trkpt>
      <trkpt lat="45.85894" lon="4.67107">
        <ele>204</ele>
        <time>2016-11-30T14:31:25Z</time>
      </trkpt>
      <trkpt lat="45.85895" lon="4.671">
        <ele>204</ele>
        <time>2016-11-30T14:31:26Z</time>
      </trkpt>
      <trkpt lat="45.85896" lon="4.67092">
        <ele>204</ele>
        <time>2016-11-30T14:31:27Z</time>
      </trkpt>
      <trkpt lat="45.85896" lon="4.67084">
        <ele>204</ele>
        <time>2016-11-30T14:31:28Z</time>
      </trkpt>
      <trkpt lat="45.85898" lon="4.67077">
        <ele>205</ele>
        <time>2016-11-30T14:31:29Z</time>
      </trkpt>
      <trkpt lat="45.859" lon="4.67068">
        <ele>205</ele>
        <time>2016-11-30T14:31:30Z</time>
      </trkpt>
      <trkpt lat="45.85901" lon="4.6706">
        <ele>205</ele>
        <time>2016-11-30T14:31:31Z</time>
      </trkpt>
      <trkpt lat="45.85902" lon="4.67052">
        <ele>205</ele>
        <time>2016-11-30T14:31:32Z</time>
      </trkpt>
      <trkpt lat="45.85904" lon="4.67044">
        <ele>205</ele>
        <time>2016-11-30T14:31:33Z</time>
      </trkpt>
      <trkpt lat="45.85906" lon="4.67036">
        <ele>205</ele>
        <time>2016-11-30T14:31:34Z</time>
      </trkpt>
      <trkpt lat="45.85907" lon="4.67029">
        <ele>205</ele>
        <time>2016-11-30T14:31:35Z</time>
      </trkpt>
      <trkpt lat="45.85909" lon="4.67021">
        <ele>205</ele>
        <time>2016-11-30T14:31:36Z</time>
      </trkpt>
      <trkpt lat="45.8591" lon="4.67014">
        <ele>206</ele>
        <time>2016-11-30T14:31:37Z</time>
      </trkpt>
      <trkpt lat="45.85912" lon="4.67009">
        <ele>206</ele>
        <time>2016-11-30T14:31:38Z</time>
      </trkpt>
      <trkpt lat="45.85917" lon="4.66998">
        <ele>206</ele>
        <time>2016-11-30T14:31:40Z</time>
      </trkpt>
      <trkpt lat="45.8592" lon="4.66993">
        <ele>207</ele>
        <time>2016-11-30T14:31:41Z</time>
      </trkpt>
      <trkpt lat="45.85924" lon="4.66981">
        <ele>208</ele>
        <time>2016-11-30T14:31:43Z</time>
      </trkpt>
      <trkpt lat="45.85925" lon="4.66974">
        <ele>208</ele>
        <time>2016-11-30T14:31:44Z</time>
      </trkpt>
      <trkpt lat="45.85926" lon="4.66965">
        <ele>209</ele>
        <time>2016-11-30T14:31:45Z</time>
      </trkpt>
      <trkpt lat="45.85927" lon="4.66956">
        <ele>209</ele>
        <time>2016-11-30T14:31:46Z</time>
      </trkpt>
      <trkpt lat="45.85929" lon="4.66947">
        <ele>209</ele>
        <time>2016-11-30T14:31:47Z</time>
      </trkpt>
      <trkpt lat="45.8593" lon="4.6694">
        <ele>209</ele>
        <time>2016-11-30T14:31:48Z</time>
      </trkpt>
      <trkpt lat="45.85931" lon="4.66932">
        <ele>209</ele>
        <time>2016-11-30T14:31:49Z</time>
      </trkpt>
      <trkpt lat="45.85933" lon="4.66925">
        <ele>208</ele>
        <time>2016-11-30T14:31:50Z</time>
      </trkpt>
      <trkpt lat="45.85934" lon="4.66917">
        <ele>208</ele>
        <time>2016-11-30T14:31:51Z</time>
      </trkpt>
      <trkpt lat="45.85935" lon="4.6691">
        <ele>209</ele>
        <time>2016-11-30T14:31:52Z</time>
      </trkpt>
      <trkpt lat="45.85936" lon="4.66903">
        <ele>209</ele>
        <time>2016-11-30T14:31:53Z</time>
      </trkpt>
      <trkpt lat="45.85937" lon="4.66896">
        <ele>210</ele>
        <time>2016-11-30T14:31:54Z</time>
      </trkpt>
      <trkpt lat="45.85938" lon="4.66889">
        <ele>210</ele>
        <time>2016-11-30T14:31:55Z</time>
      </trkpt>
      <trkpt lat="45.8594" lon="4.66882">
        <ele>210</ele>
        <time>2016-11-30T14:31:56Z</time>
      </trkpt>
      <trkpt lat="45.85941" lon="4.66875">
        <ele>210</ele>
        <time>2016-11-30T14:31:57Z</time>
      </trkpt>
      <trkpt lat="45.85943" lon="4.66868">
        <ele>210</ele>
        <time>2016-11-30T14:31:58Z</time>
      </trkpt>
      <trkpt lat="45.85944" lon="4.6686">
        <ele>210</ele>
        <time>2016-11-30T14:31:59Z</time>
      </trkpt>
      <trkpt lat="45.85946" lon="4.66853">
        <ele>210</ele>
        <time>2016-11-30T14:32:00Z</time>
      </trkpt>
      <trkpt lat="45.85948" lon="4.66846">
        <ele>211</ele>
        <time>2016-11-30T14:32:01Z</time>
      </trkpt>
      <trkpt lat="45.85949" lon="4.6684">
        <ele>211</ele>
        <time>2016-11-30T14:32:02Z</time>
      </trkpt>
      <trkpt lat="45.85951" lon="4.66833">
        <ele>212</ele>
        <time>2016-11-30T14:32:03Z</time>
      </trkpt>
      <trkpt lat="45.85953" lon="4.66826">
        <ele>212</ele>
        <time>2016-11-30T14:32:04Z</time>
      </trkpt>
      <trkpt lat="45.85954" lon="4.66819">
        <ele>213</ele>
        <time>2016-11-30T14:32:05Z</time>
      </trkpt>
      <trkpt lat="45.85956" lon="4.66813">
        <ele>213</ele>
        <time>2016-11-30T14:32:06Z</time>
      </trkpt>
      <trkpt lat="45.85958" lon="4.66806">
        <ele>213</ele>
        <time>2016-11-30T14:32:07Z</time>
      </trkpt>
      <trkpt lat="45.8596" lon="4.66799">
        <ele>213</ele>
        <time>2016-11-30T14:32:08Z</time>
      </trkpt>
      <trkpt lat="45.85962" lon="4.66792">
        <ele>213</ele>
        <time>2016-11-30T14:32:09Z</time>
      </trkpt>
      <trkpt lat="45.85964" lon="4.66785">
        <ele>214</ele>
        <time>2016-11-30T14:32:10Z</time>
      </trkpt>
      <trkpt lat="45.85966" lon="4.66778">
        <ele>214</ele>
        <time>2016-11-30T14:32:11Z</time>
      </trkpt>
      <trkpt lat="45.85968" lon="4.66772">
        <ele>214</ele>
        <time>2016-11-30T14:32:12Z</time>
      </trkpt>
      <trkpt lat="45.8597" lon="4.66765">
        <ele>214</ele>
        <time>2016-11-30T14:32:13Z</time>
      </trkpt>
      <trkpt lat="45.85973" lon="4.66758">
        <ele>214</ele>
        <time>2016-11-30T14:32:14Z</time>
      </trkpt>
      <trkpt lat="45.85975" lon="4.66751">
        <ele>215</ele>
        <time>2016-11-30T14:32:15Z</time>
      </trkpt>
      <trkpt lat="45.85978" lon="4.66745">
        <ele>216</ele>
        <time>2016-11-30T14:32:16Z</time>
      </trkpt>
      <trkpt lat="45.8598" lon="4.66738">
        <ele>216</ele>
        <time>2016-11-30T14:32:17Z</time>
      </trkpt>
      <trkpt lat="45.85984" lon="4.66732">
        <ele>216</ele>
        <time>2016-11-30T14:32:18Z</time>
      </trkpt>
      <trkpt lat="45.85986" lon="4.66727">
        <ele>216</ele>
        <time>2016-11-30T14:32:19Z</time>
      </trkpt>
      <trkpt lat="45.85989" lon="4.66721">
        <ele>215</ele>
        <time>2016-11-30T14:32:20Z</time>
      </trkpt>
      <trkpt lat="45.85991" lon="4.66716">
        <ele>215</ele>
        <time>2016-11-30T14:32:21Z</time>
      </trkpt>
      <trkpt lat="45.85995" lon="4.6671">
        <ele>215</ele>
        <time>2016-11-30T14:32:22Z</time>
      </trkpt>
      <trkpt lat="45.86" lon="4.66704">
        <ele>215</ele>
        <time>2016-11-30T14:32:23Z</time>
      </trkpt>
      <trkpt lat="45.86003" lon="4.66698">
        <ele>219</ele>
        <time>2016-11-30T14:32:24Z</time>
      </trkpt>
      <trkpt lat="45.86007" lon="4.66692">
        <ele>218</ele>
        <time>2016-11-30T14:32:25Z</time>
      </trkpt>
      <trkpt lat="45.8601" lon="4.66687">
        <ele>217</ele>
        <time>2016-11-30T14:32:26Z</time>
      </trkpt>
      <trkpt lat="45.86014" lon="4.66682">
        <ele>217</ele>
        <time>2016-11-30T14:32:27Z</time>
      </trkpt>
      <trkpt lat="45.86018" lon="4.66678">
        <ele>217</ele>
        <time>2016-11-30T14:32:28Z</time>
      </trkpt>
      <trkpt lat="45.86022" lon="4.66673">
        <ele>218</ele>
        <time>2016-11-30T14:32:29Z</time>
      </trkpt>
      <trkpt lat="45.86026" lon="4.66668">
        <ele>218</ele>
        <time>2016-11-30T14:32:30Z</time>
      </trkpt>
      <trkpt lat="45.8603" lon="4.66663">
        <ele>214</ele>
        <time>2016-11-30T14:32:31Z</time>
      </trkpt>
      <trkpt lat="45.86034" lon="4.66658">
        <ele>214</ele>
        <time>2016-11-30T14:32:32Z</time>
      </trkpt>
      <trkpt lat="45.86037" lon="4.66653">
        <ele>214</ele>
        <time>2016-11-30T14:32:33Z</time>
      </trkpt>
      <trkpt lat="45.86042" lon="4.66649">
        <ele>214</ele>
        <time>2016-11-30T14:32:34Z</time>
      </trkpt>
      <trkpt lat="45.86047" lon="4.66644">
        <ele>215</ele>
        <time>2016-11-30T14:32:35Z</time>
      </trkpt>
      <trkpt lat="45.86052" lon="4.66639">
        <ele>215</ele>
        <time>2016-11-30T14:32:36Z</time>
      </trkpt>
      <trkpt lat="45.86057" lon="4.66635">
        <ele>215</ele>
        <time>2016-11-30T14:32:37Z</time>
      </trkpt>
      <trkpt lat="45.86061" lon="4.66631">
        <ele>215</ele>
        <time>2016-11-30T14:32:38Z</time>
      </trkpt>
      <trkpt lat="45.86065" lon="4.66627">
        <ele>214</ele>
        <time>2016-11-30T14:32:39Z</time>
      </trkpt>
      <trkpt lat="45.86069" lon="4.66623">
        <ele>214</ele>
        <time>2016-11-30T14:32:40Z</time>
      </trkpt>
      <trkpt lat="45.86074" lon="4.6662">
        <ele>214</ele>
        <time>2016-11-30T14:32:41Z</time>
      </trkpt>
      <trkpt lat="45.86078" lon="4.66617">
        <ele>214</ele>
        <time>2016-11-30T14:32:42Z</time>
      </trkpt>
      <trkpt lat="45.86083" lon="4.66614">
        <ele>213</ele>
        <time>2016-11-30T14:32:43Z</time>
      </trkpt>
      <trkpt lat="45.86088" lon="4.66611">
        <ele>219</ele>
        <time>2016-11-30T14:32:44Z</time>
      </trkpt>
      <trkpt lat="45.86093" lon="4.66609">
        <ele>219</ele>
        <time>2016-11-30T14:32:45Z</time>
      </trkpt>
      <trkpt lat="45.86097" lon="4.66606">
        <ele>219</ele>
        <time>2016-11-30T14:32:46Z</time>
      </trkpt>
      <trkpt lat="45.86102" lon="4.66603">
        <ele>219</ele>
        <time>2016-11-30T14:32:47Z</time>
      </trkpt>
      <trkpt lat="45.86107" lon="4.66599">
        <ele>219</ele>
        <time>2016-11-30T14:32:48Z</time>
      </trkpt>
      <trkpt lat="45.86114" lon="4.66592">
        <ele>220</ele>
        <time>2016-11-30T14:32:50Z</time>
      </trkpt>
      <trkpt lat="45.86119" lon="4.66588">
        <ele>220</ele>
        <time>2016-11-30T14:32:51Z</time>
      </trkpt>
      <trkpt lat="45.86123" lon="4.66584">
        <ele>221</ele>
        <time>2016-11-30T14:32:52Z</time>
      </trkpt>
      <trkpt lat="45.86129" lon="4.6658">
        <ele>214</ele>
        <time>2016-11-30T14:32:53Z</time>
      </trkpt>
      <trkpt lat="45.86134" lon="4.66575">
        <ele>215</ele>
        <time>2016-11-30T14:32:54Z</time>
      </trkpt>
      <trkpt lat="45.86138" lon="4.6657">
        <ele>215</ele>
        <time>2016-11-30T14:32:55Z</time>
      </trkpt>
      <trkpt lat="45.86143" lon="4.66565">
        <ele>215</ele>
        <time>2016-11-30T14:32:56Z</time>
      </trkpt>
      <trkpt lat="45.86148" lon="4.66559">
        <ele>215</ele>
        <time>2016-11-30T14:32:57Z</time>
      </trkpt>
      <trkpt lat="45.86153" lon="4.66554">
        <ele>215</ele>
        <time>2016-11-30T14:32:58Z</time>
      </trkpt>
      <trkpt lat="45.86157" lon="4.66547">
        <ele>214</ele>
        <time>2016-11-30T14:32:59Z</time>
      </trkpt>
      <trkpt lat="45.86161" lon="4.66542">
        <ele>214</ele>
        <time>2016-11-30T14:33:00Z</time>
      </trkpt>
      <trkpt lat="45.86165" lon="4.66536">
        <ele>213</ele>
        <time>2016-11-30T14:33:01Z</time>
      </trkpt>
      <trkpt lat="45.86169" lon="4.6653">
        <ele>218</ele>
        <time>2016-11-30T14:33:02Z</time>
      </trkpt>
      <trkpt lat="45.86172" lon="4.66524">
        <ele>217</ele>
        <time>2016-11-30T14:33:03Z</time>
      </trkpt>
      <trkpt lat="45.86176" lon="4.66518">
        <ele>216</ele>
        <time>2016-11-30T14:33:04Z</time>
      </trkpt>
      <trkpt lat="45.86181" lon="4.66512">
        <ele>216</ele>
        <time>2016-11-30T14:33:05Z</time>
      </trkpt>
      <trkpt lat="45.86185" lon="4.66505">
        <ele>216</ele>
        <time>2016-11-30T14:33:06Z</time>
      </trkpt>
      <trkpt lat="45.86188" lon="4.66499">
        <ele>212</ele>
        <time>2016-11-30T14:33:07Z</time>
      </trkpt>
      <trkpt lat="45.86192" lon="4.66492">
        <ele>213</ele>
        <time>2016-11-30T14:33:08Z</time>
      </trkpt>
      <trkpt lat="45.86196" lon="4.66485">
        <ele>213</ele>
        <time>2016-11-30T14:33:09Z</time>
      </trkpt>
      <trkpt lat="45.862" lon="4.66479">
        <ele>213</ele>
        <time>2016-11-30T14:33:10Z</time>
      </trkpt>
      <trkpt lat="45.86203" lon="4.66472">
        <ele>213</ele>
        <time>2016-11-30T14:33:11Z</time>
      </trkpt>
      <trkpt lat="45.86207" lon="4.66466">
        <ele>213</ele>
        <time>2016-11-30T14:33:12Z</time>
      </trkpt>
      <trkpt lat="45.86211" lon="4.6646">
        <ele>213</ele>
        <time>2016-11-30T14:33:13Z</time>
      </trkpt>
      <trkpt lat="45.86214" lon="4.66454">
        <ele>213</ele>
        <time>2016-11-30T14:33:14Z</time>
      </trkpt>
      <trkpt lat="45.86218" lon="4.66448">
        <ele>213</ele>
        <time>2016-11-30T14:33:15Z</time>
      </trkpt>
      <trkpt lat="45.86221" lon="4.66442">
        <ele>213</ele>
        <time>2016-11-30T14:33:16Z</time>
      </trkpt>
      <trkpt lat="45.86225" lon="4.66436">
        <ele>213</ele>
        <time>2016-11-30T14:33:17Z</time>
      </trkpt>
      <trkpt lat="45.86228" lon="4.6643">
        <ele>214</ele>
        <time>2016-11-30T14:33:18Z</time>
      </trkpt>
      <trkpt lat="45.86232" lon="4.66424">
        <ele>214</ele>
        <time>2016-11-30T14:33:19Z</time>
      </trkpt>
      <trkpt lat="45.86236" lon="4.66419">
        <ele>214</ele>
        <time>2016-11-30T14:33:20Z</time>
      </trkpt>
      <trkpt lat="45.86239" lon="4.66413">
        <ele>213</ele>
        <time>2016-11-30T14:33:21Z</time>
      </trkpt>
      <trkpt lat="45.86242" lon="4.66407">
        <ele>213</ele>
        <time>2016-11-30T14:33:22Z</time>
      </trkpt>
      <trkpt lat="45.86246" lon="4.66401">
        <ele>213</ele>
        <time>2016-11-30T14:33:23Z</time>
      </trkpt>
      <trkpt lat="45.86249" lon="4.66395">
        <ele>212</ele>
        <time>2016-11-30T14:33:24Z</time>
      </trkpt>
      <trkpt lat="45.86252" lon="4.66388">
        <ele>216</ele>
        <time>2016-11-30T14:33:25Z</time>
      </trkpt>
      <trkpt lat="45.86255" lon="4.66382">
        <ele>216</ele>
        <time>2016-11-30T14:33:26Z</time>
      </trkpt>
      <trkpt lat="45.86258" lon="4.66376">
        <ele>216</ele>
        <time>2016-11-30T14:33:27Z</time>
      </trkpt>
      <trkpt lat="45.86261" lon="4.66371">
        <ele>216</ele>
        <time>2016-11-30T14:33:28Z</time>
      </trkpt>
      <trkpt lat="45.86264" lon="4.66365">
        <ele>216</ele>
        <time>2016-11-30T14:33:29Z</time>
      </trkpt>
      <trkpt lat="45.86268" lon="4.66358">
        <ele>216</ele>
        <time>2016-11-30T14:33:30Z</time>
      </trkpt>
      <trkpt lat="45.86272" lon="4.66352">
        <ele>216</ele>
        <time>2016-11-30T14:33:31Z</time>
      </trkpt>
      <trkpt lat="45.86276" lon="4.66346">
        <ele>216</ele>
        <time>2016-11-30T14:33:32Z</time>
      </trkpt>
      <trkpt lat="45.86279" lon="4.66341">
        <ele>216</ele>
        <time>2016-11-30T14:33:33Z</time>
      </trkpt>
      <trkpt lat="45.86283" lon="4.66335">
        <ele>217</ele>
        <time>2016-11-30T14:33:34Z</time>
      </trkpt>
      <trkpt lat="45.86287" lon="4.6633">
        <ele>214</ele>
        <time>2016-11-30T14:33:35Z</time>
      </trkpt>
      <trkpt lat="45.8629" lon="4.66324">
        <ele>214</ele>
        <time>2016-11-30T14:33:36Z</time>
      </trkpt>
      <trkpt lat="45.86294" lon="4.66318">
        <ele>215</ele>
        <time>2016-11-30T14:33:37Z</time>
      </trkpt>
      <trkpt lat="45.86298" lon="4.66313">
        <ele>215</ele>
        <time>2016-11-30T14:33:38Z</time>
      </trkpt>
      <trkpt lat="45.86302" lon="4.66307">
        <ele>215</ele>
        <time>2016-11-30T14:33:39Z</time>
      </trkpt>
      <trkpt lat="45.86305" lon="4.66302">
        <ele>215</ele>
        <time>2016-11-30T14:33:40Z</time>
      </trkpt>
      <trkpt lat="45.86309" lon="4.66297">
        <ele>215</ele>
        <time>2016-11-30T14:33:41Z</time>
      </trkpt>
      <trkpt lat="45.86314" lon="4.66292">
        <ele>215</ele>
        <time>2016-11-30T14:33:42Z</time>
      </trkpt>
      <trkpt lat="45.86318" lon="4.66288">
        <ele>214</ele>
        <time>2016-11-30T14:33:43Z</time>
      </trkpt>
      <trkpt lat="45.86321" lon="4.66284">
        <ele>214</ele>
        <time>2016-11-30T14:33:44Z</time>
      </trkpt>
      <trkpt lat="45.86325" lon="4.6628">
        <ele>214</ele>
        <time>2016-11-30T14:33:45Z</time>
      </trkpt>
      <trkpt lat="45.86329" lon="4.66277">
        <ele>214</ele>
        <time>2016-11-30T14:33:46Z</time>
      </trkpt>
      <trkpt lat="45.86333" lon="4.66273">
        <ele>214</ele>
        <time>2016-11-30T14:33:47Z</time>
      </trkpt>
      <trkpt lat="45.86338" lon="4.6627">
        <ele>217</ele>
        <time>2016-11-30T14:33:48Z</time>
      </trkpt>
      <trkpt lat="45.86342" lon="4.66267">
        <ele>217</ele>
        <time>2016-11-30T14:33:49Z</time>
      </trkpt>
      <trkpt lat="45.86346" lon="4.66264">
        <ele>217</ele>
        <time>2016-11-30T14:33:50Z</time>
      </trkpt>
      <trkpt lat="45.86351" lon="4.66259">
        <ele>217</ele>
        <time>2016-11-30T14:33:51Z</time>
      </trkpt>
      <trkpt lat="45.86356" lon="4.66255">
        <ele>218</ele>
        <time>2016-11-30T14:33:52Z</time>
      </trkpt>
      <trkpt lat="45.86361" lon="4.66251">
        <ele>218</ele>
        <time>2016-11-30T14:33:53Z</time>
      </trkpt>
      <trkpt lat="45.86365" lon="4.66248">
        <ele>213</ele>
        <time>2016-11-30T14:33:54Z</time>
      </trkpt>
      <trkpt lat="45.8637" lon="4.66245">
        <ele>214</ele>
        <time>2016-11-30T14:33:55Z</time>
      </trkpt>
      <trkpt lat="45.86375" lon="4.66243">
        <ele>214</ele>
        <time>2016-11-30T14:33:56Z</time>
      </trkpt>
      <trkpt lat="45.8638" lon="4.6624">
        <ele>214</ele>
        <time>2016-11-30T14:33:57Z</time>
      </trkpt>
      <trkpt lat="45.86385" lon="4.66237">
        <ele>214</ele>
        <time>2016-11-30T14:33:58Z</time>
      </trkpt>
      <trkpt lat="45.8639" lon="4.66235">
        <ele>215</ele>
        <time>2016-11-30T14:33:59Z</time>
      </trkpt>
      <trkpt lat="45.86395" lon="4.66233">
        <ele>215</ele>
        <time>2016-11-30T14:34:00Z</time>
      </trkpt>
      <trkpt lat="45.86401" lon="4.66231">
        <ele>215</ele>
        <time>2016-11-30T14:34:01Z</time>
      </trkpt>
      <trkpt lat="45.86405" lon="4.66228">
        <ele>215</ele>
        <time>2016-11-30T14:34:02Z</time>
      </trkpt>
      <trkpt lat="45.8641" lon="4.66226">
        <ele>215</ele>
        <time>2016-11-30T14:34:03Z</time>
      </trkpt>
      <trkpt lat="45.86415" lon="4.66225">
        <ele>215</ele>
        <time>2016-11-30T14:34:04Z</time>
      </trkpt>
      <trkpt lat="45.8642" lon="4.66224">
        <ele>218</ele>
        <time>2016-11-30T14:34:05Z</time>
      </trkpt>
      <trkpt lat="45.86426" lon="4.66222">
        <ele>218</ele>
        <time>2016-11-30T14:34:06Z</time>
      </trkpt>
      <trkpt lat="45.86431" lon="4.6622">
        <ele>218</ele>
        <time>2016-11-30T14:34:07Z</time>
      </trkpt>
      <trkpt lat="45.86436" lon="4.66218">
        <ele>218</ele>
        <time>2016-11-30T14:34:08Z</time>
      </trkpt>
      <trkpt lat="45.86442" lon="4.66216">
        <ele>218</ele>
        <time>2016-11-30T14:34:09Z</time>
      </trkpt>
      <trkpt lat="45.86447" lon="4.66215">
        <ele>218</ele>
        <time>2016-11-30T14:34:10Z</time>
      </trkpt>
      <trkpt lat="45.86451" lon="4.66213">
        <ele>218</ele>
        <time>2016-11-30T14:34:11Z</time>
      </trkpt>
      <trkpt lat="45.86455" lon="4.66211">
        <ele>218</ele>
        <time>2016-11-30T14:34:12Z</time>
      </trkpt>
      <trkpt lat="45.8646" lon="4.66209">
        <ele>218</ele>
        <time>2016-11-30T14:34:13Z</time>
      </trkpt>
      <trkpt lat="45.86468" lon="4.66207">
        <ele>218</ele>
        <time>2016-11-30T14:34:15Z</time>
      </trkpt>
      <trkpt lat="45.86473" lon="4.66206">
        <ele>218</ele>
        <time>2016-11-30T14:34:16Z</time>
      </trkpt>
      <trkpt lat="45.86478" lon="4.66205">
        <ele>218</ele>
        <time>2016-11-30T14:34:17Z</time>
      </trkpt>
      <trkpt lat="45.86482" lon="4.66204">
        <ele>218</ele>
        <time>2016-11-30T14:34:18Z</time>
      </trkpt>
      <trkpt lat="45.8649" lon="4.66201">
        <ele>218</ele>
        <time>2016-11-30T14:34:20Z</time>
      </trkpt>
      <trkpt lat="45.86495" lon="4.66198">
        <ele>218</ele>
        <time>2016-11-30T14:34:21Z</time>
      </trkpt>
      <trkpt lat="45.865" lon="4.66197">
        <ele>218</ele>
        <time>2016-11-30T14:34:22Z</time>
      </trkpt>
      <trkpt lat="45.86505" lon="4.66196">
        <ele>223</ele>
        <time>2016-11-30T14:34:23Z</time>
      </trkpt>
      <trkpt lat="45.86513" lon="4.66193">
        <ele>223</ele>
        <time>2016-11-30T14:34:25Z</time>
      </trkpt>
      <trkpt lat="45.86519" lon="4.66191">
        <ele>224</ele>
        <time>2016-11-30T14:34:26Z</time>
      </trkpt>
      <trkpt lat="45.86525" lon="4.66189">
        <ele>224</ele>
        <time>2016-11-30T14:34:27Z</time>
      </trkpt>
      <trkpt lat="45.8653" lon="4.66187">
        <ele>224</ele>
        <time>2016-11-30T14:34:28Z</time>
      </trkpt>
      <trkpt lat="45.86535" lon="4.66183">
        <ele>225</ele>
        <time>2016-11-30T14:34:29Z</time>
      </trkpt>
      <trkpt lat="45.86539" lon="4.66181">
        <ele>225</ele>
        <time>2016-11-30T14:34:30Z</time>
      </trkpt>
      <trkpt lat="45.86544" lon="4.66178">
        <ele>225</ele>
        <time>2016-11-30T14:34:31Z</time>
      </trkpt>
      <trkpt lat="45.86548" lon="4.66174">
        <ele>226</ele>
        <time>2016-11-30T14:34:32Z</time>
      </trkpt>
      <trkpt lat="45.86553" lon="4.66171">
        <ele>226</ele>
        <time>2016-11-30T14:34:33Z</time>
      </trkpt>
      <trkpt lat="45.86557" lon="4.66168">
        <ele>226</ele>
        <time>2016-11-30T14:34:34Z</time>
      </trkpt>
      <trkpt lat="45.86561" lon="4.66166">
        <ele>220</ele>
        <time>2016-11-30T14:34:35Z</time>
      </trkpt>
      <trkpt lat="45.86566" lon="4.66163">
        <ele>221</ele>
        <time>2016-11-30T14:34:36Z</time>
      </trkpt>
      <trkpt lat="45.86574" lon="4.66158">
        <ele>222</ele>
        <time>2016-11-30T14:34:38Z</time>
      </trkpt>
      <trkpt lat="45.86578" lon="4.66154">
        <ele>222</ele>
        <time>2016-11-30T14:34:39Z</time>
      </trkpt>
      <trkpt lat="45.86583" lon="4.6615">
        <ele>221</ele>
        <time>2016-11-30T14:34:40Z</time>
      </trkpt>
      <trkpt lat="45.86587" lon="4.66146">
        <ele>226</ele>
        <time>2016-11-30T14:34:41Z</time>
      </trkpt>
      <trkpt lat="45.86595" lon="4.66139">
        <ele>226</ele>
        <time>2016-11-30T14:34:43Z</time>
      </trkpt>
      <trkpt lat="45.86599" lon="4.66136">
        <ele>226</ele>
        <time>2016-11-30T14:34:44Z</time>
      </trkpt>
      <trkpt lat="45.86603" lon="4.66132">
        <ele>225</ele>
        <time>2016-11-30T14:34:45Z</time>
      </trkpt>
      <trkpt lat="45.86608" lon="4.66128">
        <ele>225</ele>
        <time>2016-11-30T14:34:46Z</time>
      </trkpt>
      <trkpt lat="45.86612" lon="4.66126">
        <ele>225</ele>
        <time>2016-11-30T14:34:47Z</time>
      </trkpt>
      <trkpt lat="45.86617" lon="4.66123">
        <ele>225</ele>
        <time>2016-11-30T14:34:48Z</time>
      </trkpt>
      <trkpt lat="45.86621" lon="4.66121">
        <ele>225</ele>
        <time>2016-11-30T14:34:49Z</time>
      </trkpt>
      <trkpt lat="45.86626" lon="4.66118">
        <ele>225</ele>
        <time>2016-11-30T14:34:50Z</time>
      </trkpt>
      <trkpt lat="45.86631" lon="4.66115">
        <ele>225</ele>
        <time>2016-11-30T14:34:51Z</time>
      </trkpt>
      <trkpt lat="45.86635" lon="4.66111">
        <ele>225</ele>
        <time>2016-11-30T14:34:52Z</time>
      </trkpt>
      <trkpt lat="45.8664" lon="4.66107">
        <ele>224</ele>
        <time>2016-11-30T14:34:53Z</time>
      </trkpt>
      <trkpt lat="45.86645" lon="4.66104">
        <ele>224</ele>
        <time>2016-11-30T14:34:54Z</time>
      </trkpt>
      <trkpt lat="45.8665" lon="4.66101">
        <ele>224</ele>
        <time>2016-11-30T14:34:55Z</time>
      </trkpt>
      <trkpt lat="45.86655" lon="4.66099">
        <ele>223</ele>
        <time>2016-11-30T14:34:56Z</time>
      </trkpt>
      <trkpt lat="45.86659" lon="4.66097">
        <ele>223</ele>
        <time>2016-11-30T14:34:57Z</time>
      </trkpt>
      <trkpt lat="45.86664" lon="4.66096">
        <ele>222</ele>
        <time>2016-11-30T14:34:58Z</time>
      </trkpt>
      <trkpt lat="45.86672" lon="4.66092">
        <ele>226</ele>
        <time>2016-11-30T14:35:00Z</time>
      </trkpt>
      <trkpt lat="45.86676" lon="4.6609">
        <ele>227</ele>
        <time>2016-11-30T14:35:01Z</time>
      </trkpt>
      <trkpt lat="45.86681" lon="4.66088">
        <ele>229</ele>
        <time>2016-11-30T14:35:02Z</time>
      </trkpt>
      <trkpt lat="45.86685" lon="4.66086">
        <ele>231</ele>
        <time>2016-11-30T14:35:03Z</time>
      </trkpt>
      <trkpt lat="45.86797" lon="4.65989">
        <ele>224</ele>
        <time>2016-11-30T14:35:28Z</time>
      </trkpt>
      <trkpt lat="45.86799" lon="4.65983">
        <ele>224</ele>
        <time>2016-11-30T14:35:29Z</time>
      </trkpt>
      <trkpt lat="45.86803" lon="4.65977">
        <ele>224</ele>
        <time>2016-11-30T14:35:30Z</time>
      </trkpt>
      <trkpt lat="45.86806" lon="4.65972">
        <ele>224</ele>
        <time>2016-11-30T14:35:31Z</time>
      </trkpt>
      <trkpt lat="45.86809" lon="4.65967">
        <ele>223</ele>
        <time>2016-11-30T14:35:32Z</time>
      </trkpt>
      <trkpt lat="45.86812" lon="4.6596">
        <ele>223</ele>
        <time>2016-11-30T14:35:33Z</time>
      </trkpt>
      <trkpt lat="45.86816" lon="4.65955">
        <ele>223</ele>
        <time>2016-11-30T14:35:34Z</time>
      </trkpt>
      <trkpt lat="45.86819" lon="4.65949">
        <ele>222</ele>
        <time>2016-11-30T14:35:35Z</time>
      </trkpt>
      <trkpt lat="45.86822" lon="4.65943">
        <ele>222</ele>
        <time>2016-11-30T14:35:36Z</time>
      </trkpt>
      <trkpt lat="45.86826" lon="4.65937">
        <ele>222</ele>
        <time>2016-11-30T14:35:37Z</time>
      </trkpt>
      <trkpt lat="45.8683" lon="4.65932">
        <ele>222</ele>
        <time>2016-11-30T14:35:38Z</time>
      </trkpt>
      <trkpt lat="45.86833" lon="4.65926">
        <ele>221</ele>
        <time>2016-11-30T14:35:39Z</time>
      </trkpt>
      <trkpt lat="45.86836" lon="4.65921">
        <ele>225</ele>
        <time>2016-11-30T14:35:40Z</time>
      </trkpt>
      <trkpt lat="45.86839" lon="4.65915">
        <ele>223</ele>
        <time>2016-11-30T14:35:41Z</time>
      </trkpt>
      <trkpt lat="45.86842" lon="4.6591">
        <ele>224</ele>
        <time>2016-11-30T14:35:42Z</time>
      </trkpt>
      <trkpt lat="45.86844" lon="4.65904">
        <ele>225</ele>
        <time>2016-11-30T14:35:43Z</time>
      </trkpt>
      <trkpt lat="45.86846" lon="4.65897">
        <ele>226</ele>
        <time>2016-11-30T14:35:44Z</time>
      </trkpt>
      <trkpt lat="45.86849" lon="4.65891">
        <ele>226</ele>
        <time>2016-11-30T14:35:45Z</time>
      </trkpt>
      <trkpt lat="45.86852" lon="4.65885">
        <ele>227</ele>
        <time>2016-11-30T14:35:46Z</time>
      </trkpt>
      <trkpt lat="45.86854" lon="4.65879">
        <ele>227</ele>
        <time>2016-11-30T14:35:47Z</time>
      </trkpt>
      <trkpt lat="45.86857" lon="4.65872">
        <ele>227</ele>
        <time>2016-11-30T14:35:48Z</time>
      </trkpt>
      <trkpt lat="45.8686" lon="4.65865">
        <ele>226</ele>
        <time>2016-11-30T14:35:49Z</time>
      </trkpt>
      <trkpt lat="45.86862" lon="4.65857">
        <ele>226</ele>
        <time>2016-11-30T14:35:50Z</time>
      </trkpt>
      <trkpt lat="45.86865" lon="4.65851">
        <ele>226</ele>
        <time>2016-11-30T14:35:51Z</time>
      </trkpt>
      <trkpt lat="45.86867" lon="4.65844">
        <ele>226</ele>
        <time>2016-11-30T14:35:52Z</time>
      </trkpt>
      <trkpt lat="45.8687" lon="4.65837">
        <ele>226</ele>
        <time>2016-11-30T14:35:53Z</time>
      </trkpt>
      <trkpt lat="45.86872" lon="4.6583">
        <ele>222</ele>
        <time>2016-11-30T14:35:54Z</time>
      </trkpt>
      <trkpt lat="45.86873" lon="4.65824">
        <ele>222</ele>
        <time>2016-11-30T14:35:55Z</time>
      </trkpt>
      <trkpt lat="45.86875" lon="4.65815">
        <ele>222</ele>
        <time>2016-11-30T14:35:56Z</time>
      </trkpt>
      <trkpt lat="45.86877" lon="4.65808">
        <ele>223</ele>
        <time>2016-11-30T14:35:57Z</time>
      </trkpt>
      <trkpt lat="45.86879" lon="4.65801">
        <ele>223</ele>
        <time>2016-11-30T14:35:58Z</time>
      </trkpt>
      <trkpt lat="45.86881" lon="4.65793">
        <ele>223</ele>
        <time>2016-11-30T14:35:59Z</time>
      </trkpt>
      <trkpt lat="45.86882" lon="4.65786">
        <ele>223</ele>
        <time>2016-11-30T14:36:00Z</time>
      </trkpt>
      <trkpt lat="45.86883" lon="4.65779">
        <ele>223</ele>
        <time>2016-11-30T14:36:01Z</time>
      </trkpt>
      <trkpt lat="45.86885" lon="4.65772">
        <ele>223</ele>
        <time>2016-11-30T14:36:02Z</time>
      </trkpt>
      <trkpt lat="45.86887" lon="4.65764">
        <ele>223</ele>
        <time>2016-11-30T14:36:03Z</time>
      </trkpt>
      <trkpt lat="45.86888" lon="4.65756">
        <ele>224</ele>
        <time>2016-11-30T14:36:04Z</time>
      </trkpt>
      <trkpt lat="45.86889" lon="4.65748">
        <ele>223</ele>
        <time>2016-11-30T14:36:05Z</time>
      </trkpt>
      <trkpt lat="45.8689" lon="4.6574">
        <ele>223</ele>
        <time>2016-11-30T14:36:06Z</time>
      </trkpt>
      <trkpt lat="45.86891" lon="4.65731">
        <ele>223</ele>
        <time>2016-11-30T14:36:07Z</time>
      </trkpt>
      <trkpt lat="45.86892" lon="4.65722">
        <ele>223</ele>
        <time>2016-11-30T14:36:08Z</time>
      </trkpt>
      <trkpt lat="45.86892" lon="4.65714">
        <ele>223</ele>
        <time>2016-11-30T14:36:09Z</time>
      </trkpt>
      <trkpt lat="45.86893" lon="4.65705">
        <ele>223</ele>
        <time>2016-11-30T14:36:10Z</time>
      </trkpt>
      <trkpt lat="45.86894" lon="4.65694">
        <ele>223</ele>
        <time>2016-11-30T14:36:11Z</time>
      </trkpt>
      <trkpt lat="45.86894" lon="4.65683">
        <ele>224</ele>
        <time>2016-11-30T14:36:12Z</time>
      </trkpt>
      <trkpt lat="45.86895" lon="4.65674">
        <ele>225</ele>
        <time>2016-11-30T14:36:13Z</time>
      </trkpt>
      <trkpt lat="45.86896" lon="4.65665">
        <ele>225</ele>
        <time>2016-11-30T14:36:14Z</time>
      </trkpt>
      <trkpt lat="45.86896" lon="4.65656">
        <ele>224</ele>
        <time>2016-11-30T14:36:15Z</time>
      </trkpt>
      <trkpt lat="45.86898" lon="4.65646">
        <ele>224</ele>
        <time>2016-11-30T14:36:16Z</time>
      </trkpt>
      <trkpt lat="45.86899" lon="4.65637">
        <ele>223</ele>
        <time>2016-11-30T14:36:17Z</time>
      </trkpt>
      <trkpt lat="45.869" lon="4.65628">
        <ele>223</ele>
        <time>2016-11-30T14:36:18Z</time>
      </trkpt>
      <trkpt lat="45.86902" lon="4.65618">
        <ele>223</ele>
        <time>2016-11-30T14:36:19Z</time>
      </trkpt>
      <trkpt lat="45.86904" lon="4.65608">
        <ele>223</ele>
        <time>2016-11-30T14:36:20Z</time>
      </trkpt>
      <trkpt lat="45.86906" lon="4.65598">
        <ele>224</ele>
        <time>2016-11-30T14:36:21Z</time>
      </trkpt>
      <trkpt lat="45.86908" lon="4.65588">
        <ele>224</ele>
        <time>2016-11-30T14:36:22Z</time>
      </trkpt>
      <trkpt lat="45.86909" lon="4.65579">
        <ele>223</ele>
        <time>2016-11-30T14:36:23Z</time>
      </trkpt>
      <trkpt lat="45.86912" lon="4.65569">
        <ele>222</ele>
        <time>2016-11-30T14:36:24Z</time>
      </trkpt>
      <trkpt lat="45.86914" lon="4.6556">
        <ele>220</ele>
        <time>2016-11-30T14:36:25Z</time>
      </trkpt>
      <trkpt lat="45.86917" lon="4.6555">
        <ele>230</ele>
        <time>2016-11-30T14:36:26Z</time>
      </trkpt>
      <trkpt lat="45.8692" lon="4.6554">
        <ele>229</ele>
        <time>2016-11-30T14:36:27Z</time>
      </trkpt>
      <trkpt lat="45.86924" lon="4.65531">
        <ele>229</ele>
        <time>2016-11-30T14:36:28Z</time>
      </trkpt>
      <trkpt lat="45.86927" lon="4.65521">
        <ele>227</ele>
        <time>2016-11-30T14:36:29Z</time>
      </trkpt>
      <trkpt lat="45.86931" lon="4.65512">
        <ele>226</ele>
        <time>2016-11-30T14:36:30Z</time>
      </trkpt>
      <trkpt lat="45.86936" lon="4.65503">
        <ele>226</ele>
        <time>2016-11-30T14:36:31Z</time>
      </trkpt>
      <trkpt lat="45.86941" lon="4.65493">
        <ele>221</ele>
        <time>2016-11-30T14:36:32Z</time>
      </trkpt>
      <trkpt lat="45.86947" lon="4.65484">
        <ele>222</ele>
        <time>2016-11-30T14:36:33Z</time>
      </trkpt>
      <trkpt lat="45.86953" lon="4.65475">
        <ele>222</ele>
        <time>2016-11-30T14:36:34Z</time>
      </trkpt>
      <trkpt lat="45.8696" lon="4.65466">
        <ele>223</ele>
        <time>2016-11-30T14:36:35Z</time>
      </trkpt>
      <trkpt lat="45.86965" lon="4.65458">
        <ele>222</ele>
        <time>2016-11-30T14:36:36Z</time>
      </trkpt>
      <trkpt lat="45.86971" lon="4.6545">
        <ele>222</ele>
        <time>2016-11-30T14:36:37Z</time>
      </trkpt>
      <trkpt lat="45.86975" lon="4.65441">
        <ele>222</ele>
        <time>2016-11-30T14:36:38Z</time>
      </trkpt>
      <trkpt lat="45.8698" lon="4.65432">
        <ele>222</ele>
        <time>2016-11-30T14:36:39Z</time>
      </trkpt>
      <trkpt lat="45.86986" lon="4.65423">
        <ele>221</ele>
        <time>2016-11-30T14:36:40Z</time>
      </trkpt>
      <trkpt lat="45.86992" lon="4.65414">
        <ele>219</ele>
        <time>2016-11-30T14:36:41Z</time>
      </trkpt>
      <trkpt lat="45.86997" lon="4.65406">
        <ele>219</ele>
        <time>2016-11-30T14:36:42Z</time>
      </trkpt>
      <trkpt lat="45.87002" lon="4.65399">
        <ele>222</ele>
        <time>2016-11-30T14:36:43Z</time>
      </trkpt>
      <trkpt lat="45.87008" lon="4.65392">
        <ele>223</ele>
        <time>2016-11-30T14:36:44Z</time>
      </trkpt>
      <trkpt lat="45.87014" lon="4.65384">
        <ele>223</ele>
        <time>2016-11-30T14:36:45Z</time>
      </trkpt>
      <trkpt lat="45.8702" lon="4.65378">
        <ele>223</ele>
        <time>2016-11-30T14:36:46Z</time>
      </trkpt>
      <trkpt lat="45.87026" lon="4.65371">
        <ele>223</ele>
        <time>2016-11-30T14:36:47Z</time>
      </trkpt>
      <trkpt lat="45.87032" lon="4.65364">
        <ele>223</ele>
        <time>2016-11-30T14:36:48Z</time>
      </trkpt>
      <trkpt lat="45.87037" lon="4.65359">
        <ele>223</ele>
        <time>2016-11-30T14:36:49Z</time>
      </trkpt>
      <trkpt lat="45.87042" lon="4.65352">
        <ele>223</ele>
        <time>2016-11-30T14:36:50Z</time>
      </trkpt>
      <trkpt lat="45.87048" lon="4.65345">
        <ele>223</ele>
        <time>2016-11-30T14:36:51Z</time>
      </trkpt>
      <trkpt lat="45.87052" lon="4.65337">
        <ele>223</ele>
        <time>2016-11-30T14:36:52Z</time>
      </trkpt>
      <trkpt lat="45.87056" lon="4.65328">
        <ele>218</ele>
        <time>2016-11-30T14:36:53Z</time>
      </trkpt>
      <trkpt lat="45.8706" lon="4.65319">
        <ele>218</ele>
        <time>2016-11-30T14:36:54Z</time>
      </trkpt>
      <trkpt lat="45.87063" lon="4.65312">
        <ele>218</ele>
        <time>2016-11-30T14:36:55Z</time>
      </trkpt>
      <trkpt lat="45.87068" lon="4.65303">
        <ele>217</ele>
        <time>2016-11-30T14:36:56Z</time>
      </trkpt>
      <trkpt lat="45.87071" lon="4.65295">
        <ele>217</ele>
        <time>2016-11-30T14:36:57Z</time>
      </trkpt>
      <trkpt lat="45.87075" lon="4.65287">
        <ele>216</ele>
        <time>2016-11-30T14:36:58Z</time>
      </trkpt>
      <trkpt lat="45.87079" lon="4.6528">
        <ele>215</ele>
        <time>2016-11-30T14:36:59Z</time>
      </trkpt>
      <trkpt lat="45.87082" lon="4.65273">
        <ele>215</ele>
        <time>2016-11-30T14:37:00Z</time>
      </trkpt>
      <trkpt lat="45.87086" lon="4.65265">
        <ele>222</ele>
        <time>2016-11-30T14:37:01Z</time>
      </trkpt>
      <trkpt lat="45.8709" lon="4.65258">
        <ele>219</ele>
        <time>2016-11-30T14:37:02Z</time>
      </trkpt>
      <trkpt lat="45.87093" lon="4.6525">
        <ele>219</ele>
        <time>2016-11-30T14:37:03Z</time>
      </trkpt>
      <trkpt lat="45.87097" lon="4.65244">
        <ele>217</ele>
        <time>2016-11-30T14:37:04Z</time>
      </trkpt>
      <trkpt lat="45.87101" lon="4.65238">
        <ele>218</ele>
        <time>2016-11-30T14:37:05Z</time>
      </trkpt>
      <trkpt lat="45.87105" lon="4.65232">
        <ele>218</ele>
        <time>2016-11-30T14:37:06Z</time>
      </trkpt>
      <trkpt lat="45.87109" lon="4.65226">
        <ele>219</ele>
        <time>2016-11-30T14:37:07Z</time>
      </trkpt>
      <trkpt lat="45.87113" lon="4.65219">
        <ele>219</ele>
        <time>2016-11-30T14:37:08Z</time>
      </trkpt>
      <trkpt lat="45.87117" lon="4.65213">
        <ele>220</ele>
        <time>2016-11-30T14:37:09Z</time>
      </trkpt>
      <trkpt lat="45.87122" lon="4.65206">
        <ele>220</ele>
        <time>2016-11-30T14:37:10Z</time>
      </trkpt>
      <trkpt lat="45.87127" lon="4.65199">
        <ele>220</ele>
        <time>2016-11-30T14:37:11Z</time>
      </trkpt>
      <trkpt lat="45.87132" lon="4.65194">
        <ele>220</ele>
        <time>2016-11-30T14:37:12Z</time>
      </trkpt>
      <trkpt lat="45.87137" lon="4.65187">
        <ele>220</ele>
        <time>2016-11-30T14:37:13Z</time>
      </trkpt>
      <trkpt lat="45.87141" lon="4.65183">
        <ele>220</ele>
        <time>2016-11-30T14:37:14Z</time>
      </trkpt>
      <trkpt lat="45.87146" lon="4.65177">
        <ele>220</ele>
        <time>2016-11-30T14:37:15Z</time>
      </trkpt>
      <trkpt lat="45.87151" lon="4.65171">
        <ele>220</ele>
        <time>2016-11-30T14:37:16Z</time>
      </trkpt>
      <trkpt lat="45.87156" lon="4.65166">
        <ele>217</ele>
        <time>2016-11-30T14:37:17Z</time>
      </trkpt>
      <trkpt lat="45.87161" lon="4.6516">
        <ele>218</ele>
        <time>2016-11-30T14:37:18Z</time>
      </trkpt>
      <trkpt lat="45.87166" lon="4.65154">
        <ele>217</ele>
        <time>2016-11-30T14:37:19Z</time>
      </trkpt>
      <trkpt lat="45.8717" lon="4.65149">
        <ele>221</ele>
        <time>2016-11-30T14:37:20Z</time>
      </trkpt>
      <trkpt lat="45.87175" lon="4.65144">
        <ele>221</ele>
        <time>2016-11-30T14:37:21Z</time>
      </trkpt>
      <trkpt lat="45.8718" lon="4.65139">
        <ele>221</ele>
        <time>2016-11-30T14:37:22Z</time>
      </trkpt>
      <trkpt lat="45.87184" lon="4.65133">
        <ele>221</ele>
        <time>2016-11-30T14:37:23Z</time>
      </trkpt>
      <trkpt lat="45.87189" lon="4.65129">
        <ele>221</ele>
        <time>2016-11-30T14:37:24Z</time>
      </trkpt>
      <trkpt lat="45.87194" lon="4.65124">
        <ele>221</ele>
        <time>2016-11-30T14:37:25Z</time>
      </trkpt>
      <trkpt lat="45.87199" lon="4.65121">
        <ele>221</ele>
        <time>2016-11-30T14:37:26Z</time>
      </trkpt>
      <trkpt lat="45.87204" lon="4.65116">
        <ele>221</ele>
        <time>2016-11-30T14:37:27Z</time>
      </trkpt>
      <trkpt lat="45.87208" lon="4.65112">
        <ele>221</ele>
        <time>2016-11-30T14:37:28Z</time>
      </trkpt>
      <trkpt lat="45.87214" lon="4.65109">
        <ele>221</ele>
        <time>2016-11-30T14:37:29Z</time>
      </trkpt>
      <trkpt lat="45.87219" lon="4.65106">
        <ele>221</ele>
        <time>2016-11-30T14:37:30Z</time>
      </trkpt>
      <trkpt lat="45.87224" lon="4.65102">
        <ele>221</ele>
        <time>2016-11-30T14:37:31Z</time>
      </trkpt>
      <trkpt lat="45.87229" lon="4.65099">
        <ele>221</ele>
        <time>2016-11-30T14:37:32Z</time>
      </trkpt>
      <trkpt lat="45.87234" lon="4.65095">
        <ele>220</ele>
        <time>2016-11-30T14:37:33Z</time>
      </trkpt>
      <trkpt lat="45.8724" lon="4.65092">
        <ele>220</ele>
        <time>2016-11-30T14:37:34Z</time>
      </trkpt>
      <trkpt lat="45.87245" lon="4.65089">
        <ele>219</ele>
        <time>2016-11-30T14:37:35Z</time>
      </trkpt>
      <trkpt lat="45.8725" lon="4.65085">
        <ele>219</ele>
        <time>2016-11-30T14:37:36Z</time>
      </trkpt>
      <trkpt lat="45.87256" lon="4.65081">
        <ele>218</ele>
        <time>2016-11-30T14:37:37Z</time>
      </trkpt>
      <trkpt lat="45.8726" lon="4.65078">
        <ele>219</ele>
        <time>2016-11-30T14:37:38Z</time>
      </trkpt>
      <trkpt lat="45.87265" lon="4.65074">
        <ele>219</ele>
        <time>2016-11-30T14:37:39Z</time>
      </trkpt>
      <trkpt lat="45.8727" lon="4.6507">
        <ele>219</ele>
        <time>2016-11-30T14:37:40Z</time>
      </trkpt>
      <trkpt lat="45.87276" lon="4.65064">
        <ele>220</ele>
        <time>2016-11-30T14:37:41Z</time>
      </trkpt>
      <trkpt lat="45.8728" lon="4.65058">
        <ele>220</ele>
        <time>2016-11-30T14:37:42Z</time>
      </trkpt>
      <trkpt lat="45.87284" lon="4.65052">
        <ele>220</ele>
        <time>2016-11-30T14:37:43Z</time>
      </trkpt>
      <trkpt lat="45.87289" lon="4.65046">
        <ele>220</ele>
        <time>2016-11-30T14:37:44Z</time>
      </trkpt>
      <trkpt lat="45.87293" lon="4.6504">
        <ele>220</ele>
        <time>2016-11-30T14:37:45Z</time>
      </trkpt>
      <trkpt lat="45.87297" lon="4.65035">
        <ele>220</ele>
        <time>2016-11-30T14:37:46Z</time>
      </trkpt>
      <trkpt lat="45.87301" lon="4.6503">
        <ele>220</ele>
        <time>2016-11-30T14:37:47Z</time>
      </trkpt>
      <trkpt lat="45.87305" lon="4.65024">
        <ele>219</ele>
        <time>2016-11-30T14:37:48Z</time>
      </trkpt>
      <trkpt lat="45.87309" lon="4.65018">
        <ele>219</ele>
        <time>2016-11-30T14:37:49Z</time>
      </trkpt>
      <trkpt lat="45.87312" lon="4.65011">
        <ele>219</ele>
        <time>2016-11-30T14:37:50Z</time>
      </trkpt>
      <trkpt lat="45.87316" lon="4.65003">
        <ele>219</ele>
        <time>2016-11-30T14:37:51Z</time>
      </trkpt>
      <trkpt lat="45.8732" lon="4.64996">
        <ele>216</ele>
        <time>2016-11-30T14:37:52Z</time>
      </trkpt>
      <trkpt lat="45.87323" lon="4.64988">
        <ele>215</ele>
        <time>2016-11-30T14:37:53Z</time>
      </trkpt>
      <trkpt lat="45.87327" lon="4.64981">
        <ele>215</ele>
        <time>2016-11-30T14:37:54Z</time>
      </trkpt>
      <trkpt lat="45.8733" lon="4.64975">
        <ele>215</ele>
        <time>2016-11-30T14:37:55Z</time>
      </trkpt>
      <trkpt lat="45.87333" lon="4.6497">
        <ele>214</ele>
        <time>2016-11-30T14:37:56Z</time>
      </trkpt>
      <trkpt lat="45.87337" lon="4.64963">
        <ele>219</ele>
        <time>2016-11-30T14:37:57Z</time>
      </trkpt>
      <trkpt lat="45.87341" lon="4.64957">
        <ele>218</ele>
        <time>2016-11-30T14:37:58Z</time>
      </trkpt>
      <trkpt lat="45.87344" lon="4.6495">
        <ele>218</ele>
        <time>2016-11-30T14:37:59Z</time>
      </trkpt>
      <trkpt lat="45.87347" lon="4.64944">
        <ele>218</ele>
        <time>2016-11-30T14:38:00Z</time>
      </trkpt>
      <trkpt lat="45.87351" lon="4.64937">
        <ele>217</ele>
        <time>2016-11-30T14:38:01Z</time>
      </trkpt>
      <trkpt lat="45.87354" lon="4.6493">
        <ele>217</ele>
        <time>2016-11-30T14:38:02Z</time>
      </trkpt>
      <trkpt lat="45.87358" lon="4.64924">
        <ele>217</ele>
        <time>2016-11-30T14:38:03Z</time>
      </trkpt>
      <trkpt lat="45.87362" lon="4.64918">
        <ele>217</ele>
        <time>2016-11-30T14:38:04Z</time>
      </trkpt>
      <trkpt lat="45.87366" lon="4.64912">
        <ele>214</ele>
        <time>2016-11-30T14:38:05Z</time>
      </trkpt>
      <trkpt lat="45.8737" lon="4.64906">
        <ele>215</ele>
        <time>2016-11-30T14:38:06Z</time>
      </trkpt>
      <trkpt lat="45.87375" lon="4.649">
        <ele>215</ele>
        <time>2016-11-30T14:38:07Z</time>
      </trkpt>
      <trkpt lat="45.8738" lon="4.64894">
        <ele>215</ele>
        <time>2016-11-30T14:38:08Z</time>
      </trkpt>
      <trkpt lat="45.87385" lon="4.64889">
        <ele>215</ele>
        <time>2016-11-30T14:38:09Z</time>
      </trkpt>
      <trkpt lat="45.8739" lon="4.64883">
        <ele>215</ele>
        <time>2016-11-30T14:38:10Z</time>
      </trkpt>
      <trkpt lat="45.87394" lon="4.6488">
        <ele>215</ele>
        <time>2016-11-30T14:38:11Z</time>
      </trkpt>
      <trkpt lat="45.87399" lon="4.64877">
        <ele>215</ele>
        <time>2016-11-30T14:38:12Z</time>
      </trkpt>
      <trkpt lat="45.87404" lon="4.64871">
        <ele>215</ele>
        <time>2016-11-30T14:38:13Z</time>
      </trkpt>
      <trkpt lat="45.87408" lon="4.64866">
        <ele>215</ele>
        <time>2016-11-30T14:38:14Z</time>
      </trkpt>
      <trkpt lat="45.87413" lon="4.6486">
        <ele>215</ele>
        <time>2016-11-30T14:38:15Z</time>
      </trkpt>
      <trkpt lat="45.87417" lon="4.64855">
        <ele>219</ele>
        <time>2016-11-30T14:38:16Z</time>
      </trkpt>
      <trkpt lat="45.87421" lon="4.6485">
        <ele>218</ele>
        <time>2016-11-30T14:38:17Z</time>
      </trkpt>
      <trkpt lat="45.87426" lon="4.64844">
        <ele>218</ele>
        <time>2016-11-30T14:38:18Z</time>
      </trkpt>
      <trkpt lat="45.8743" lon="4.64839">
        <ele>218</ele>
        <time>2016-11-30T14:38:19Z</time>
      </trkpt>
      <trkpt lat="45.87434" lon="4.64833">
        <ele>215</ele>
        <time>2016-11-30T14:38:20Z</time>
      </trkpt>
      <trkpt lat="45.87439" lon="4.64827">
        <ele>215</ele>
        <time>2016-11-30T14:38:21Z</time>
      </trkpt>
      <trkpt lat="45.87443" lon="4.64821">
        <ele>215</ele>
        <time>2016-11-30T14:38:22Z</time>
      </trkpt>
      <trkpt lat="45.87448" lon="4.64816">
        <ele>215</ele>
        <time>2016-11-30T14:38:23Z</time>
      </trkpt>
      <trkpt lat="45.87453" lon="4.64811">
        <ele>215</ele>
        <time>2016-11-30T14:38:25Z</time>
      </trkpt>
      <trkpt lat="45.87527" lon="4.64709">
        <ele>212</ele>
        <time>2016-11-30T14:38:43Z</time>
      </trkpt>
      <trkpt lat="45.87531" lon="4.64705">
        <ele>212</ele>
        <time>2016-11-30T14:38:44Z</time>
      </trkpt>
      <trkpt lat="45.87535" lon="4.64701">
        <ele>212</ele>
        <time>2016-11-30T14:38:45Z</time>
      </trkpt>
      <trkpt lat="45.87539" lon="4.64696">
        <ele>212</ele>
        <time>2016-11-30T14:38:46Z</time>
      </trkpt>
      <trkpt lat="45.87544" lon="4.6469">
        <ele>212</ele>
        <time>2016-11-30T14:38:47Z</time>
      </trkpt>
      <trkpt lat="45.87549" lon="4.64684">
        <ele>212</ele>
        <time>2016-11-30T14:38:48Z</time>
      </trkpt>
      <trkpt lat="45.87553" lon="4.64679">
        <ele>212</ele>
        <time>2016-11-30T14:38:49Z</time>
      </trkpt>
      <trkpt lat="45.87557" lon="4.64674">
        <ele>212</ele>
        <time>2016-11-30T14:38:50Z</time>
      </trkpt>
      <trkpt lat="45.87561" lon="4.64668">
        <ele>212</ele>
        <time>2016-11-30T14:38:51Z</time>
      </trkpt>
      <trkpt lat="45.87565" lon="4.64662">
        <ele>212</ele>
        <time>2016-11-30T14:38:52Z</time>
      </trkpt>
      <trkpt lat="45.87569" lon="4.64657">
        <ele>212</ele>
        <time>2016-11-30T14:38:53Z</time>
      </trkpt>
      <trkpt lat="45.87573" lon="4.64652">
        <ele>212</ele>
        <time>2016-11-30T14:38:54Z</time>
      </trkpt>
      <trkpt lat="45.87577" lon="4.64647">
        <ele>212</ele>
        <time>2016-11-30T14:38:55Z</time>
      </trkpt>
      <trkpt lat="45.8758" lon="4.64642">
        <ele>212</ele>
        <time>2016-11-30T14:38:56Z</time>
      </trkpt>
      <trkpt lat="45.87584" lon="4.64636">
        <ele>212</ele>
        <time>2016-11-30T14:38:57Z</time>
      </trkpt>
      <trkpt lat="45.87587" lon="4.6463">
        <ele>212</ele>
        <time>2016-11-30T14:38:58Z</time>
      </trkpt>
      <trkpt lat="45.87591" lon="4.64624">
        <ele>212</ele>
        <time>2016-11-30T14:38:59Z</time>
      </trkpt>
      <trkpt lat="45.87594" lon="4.64618">
        <ele>212</ele>
        <time>2016-11-30T14:39:00Z</time>
      </trkpt>
      <trkpt lat="45.87598" lon="4.64614">
        <ele>212</ele>
        <time>2016-11-30T14:39:01Z</time>
      </trkpt>
      <trkpt lat="45.87602" lon="4.64609">
        <ele>212</ele>
        <time>2016-11-30T14:39:02Z</time>
      </trkpt>
      <trkpt lat="45.87606" lon="4.64603">
        <ele>212</ele>
        <time>2016-11-30T14:39:03Z</time>
      </trkpt>
      <trkpt lat="45.87609" lon="4.64597">
        <ele>212</ele>
        <time>2016-11-30T14:39:04Z</time>
      </trkpt>
      <trkpt lat="45.87614" lon="4.64592">
        <ele>212</ele>
        <time>2016-11-30T14:39:05Z</time>
      </trkpt>
      <trkpt lat="45.87618" lon="4.64585">
        <ele>212</ele>
        <time>2016-11-30T14:39:06Z</time>
      </trkpt>
      <trkpt lat="45.87622" lon="4.64579">
        <ele>212</ele>
        <time>2016-11-30T14:39:07Z</time>
      </trkpt>
      <trkpt lat="45.87626" lon="4.64575">
        <ele>212</ele>
        <time>2016-11-30T14:39:08Z</time>
      </trkpt>
      <trkpt lat="45.8763" lon="4.64569">
        <ele>212</ele>
        <time>2016-11-30T14:39:09Z</time>
      </trkpt>
      <trkpt lat="45.87634" lon="4.64564">
        <ele>212</ele>
        <time>2016-11-30T14:39:10Z</time>
      </trkpt>
      <trkpt lat="45.87638" lon="4.64558">
        <ele>212</ele>
        <time>2016-11-30T14:39:11Z</time>
      </trkpt>
      <trkpt lat="45.87643" lon="4.64553">
        <ele>212</ele>
        <time>2016-11-30T14:39:12Z</time>
      </trkpt>
      <trkpt lat="45.87647" lon="4.64547">
        <ele>213</ele>
        <time>2016-11-30T14:39:13Z</time>
      </trkpt>
      <trkpt lat="45.87651" lon="4.64541">
        <ele>213</ele>
        <time>2016-11-30T14:39:14Z</time>
      </trkpt>
      <trkpt lat="45.87655" lon="4.64536">
        <ele>213</ele>
        <time>2016-11-30T14:39:15Z</time>
      </trkpt>
      <trkpt lat="45.87658" lon="4.64531">
        <ele>213</ele>
        <time>2016-11-30T14:39:16Z</time>
      </trkpt>
      <trkpt lat="45.87662" lon="4.64526">
        <ele>213</ele>
        <time>2016-11-30T14:39:17Z</time>
      </trkpt>
      <trkpt lat="45.87668" lon="4.64517">
        <ele>215</ele>
        <time>2016-11-30T14:39:19Z</time>
      </trkpt>
      <trkpt lat="45.8767" lon="4.64514">
        <ele>215</ele>
        <time>2016-11-30T14:39:20Z</time>
      </trkpt>
      <trkpt lat="45.87673" lon="4.64509">
        <ele>215</ele>
        <time>2016-11-30T14:39:21Z</time>
      </trkpt>
      <trkpt lat="45.87677" lon="4.64505">
        <ele>215</ele>
        <time>2016-11-30T14:39:22Z</time>
      </trkpt>
      <trkpt lat="45.87684" lon="4.64502">
        <ele>215</ele>
        <time>2016-11-30T14:39:24Z</time>
      </trkpt>
      <trkpt lat="45.87688" lon="4.64504">
        <ele>215</ele>
        <time>2016-11-30T14:39:25Z</time>
      </trkpt>
      <trkpt lat="45.87691" lon="4.6451">
        <ele>215</ele>
        <time>2016-11-30T14:39:26Z</time>
      </trkpt>
      <trkpt lat="45.87694" lon="4.64515">
        <ele>215</ele>
        <time>2016-11-30T14:39:27Z</time>
      </trkpt>
      <trkpt lat="45.87698" lon="4.6452">
        <ele>215</ele>
        <time>2016-11-30T14:39:28Z</time>
      </trkpt>
      <trkpt lat="45.87701" lon="4.64524">
        <ele>215</ele>
        <time>2016-11-30T14:39:29Z</time>
      </trkpt>
      <trkpt lat="45.87706" lon="4.64532">
        <ele>216</ele>
        <time>2016-11-30T14:39:31Z</time>
      </trkpt>
      <trkpt lat="45.87709" lon="4.64537">
        <ele>216</ele>
        <time>2016-11-30T14:39:32Z</time>
      </trkpt>
      <trkpt lat="45.87712" lon="4.64543">
        <ele>216</ele>
        <time>2016-11-30T14:39:33Z</time>
      </trkpt>
      <trkpt lat="45.87715" lon="4.64547">
        <ele>216</ele>
        <time>2016-11-30T14:39:34Z</time>
      </trkpt>
      <trkpt lat="45.87723" lon="4.64553">
        <ele>216</ele>
        <time>2016-11-30T14:39:36Z</time>
      </trkpt>
      <trkpt lat="45.87724" lon="4.64558">
        <ele>217</ele>
        <time>2016-11-30T14:39:37Z</time>
      </trkpt>
      <trkpt lat="45.87726" lon="4.64564">
        <ele>217</ele>
        <time>2016-11-30T14:39:38Z</time>
      </trkpt>
      <trkpt lat="45.87725" lon="4.64573">
        <ele>217</ele>
        <time>2016-11-30T14:39:39Z</time>
      </trkpt>
      <trkpt lat="45.87727" lon="4.64585">
        <ele>218</ele>
        <time>2016-11-30T14:39:41Z</time>
      </trkpt>
      <trkpt lat="45.87728" lon="4.64591">
        <ele>218</ele>
        <time>2016-11-30T14:39:42Z</time>
      </trkpt>
      <trkpt lat="45.87729" lon="4.64598">
        <ele>218</ele>
        <time>2016-11-30T14:39:43Z</time>
      </trkpt>
      <trkpt lat="45.87731" lon="4.64604">
        <ele>218</ele>
        <time>2016-11-30T14:39:44Z</time>
      </trkpt>
      <trkpt lat="45.87734" lon="4.64615">
        <ele>217</ele>
        <time>2016-11-30T14:39:46Z</time>
      </trkpt>
      <trkpt lat="45.87735" lon="4.64621">
        <ele>217</ele>
        <time>2016-11-30T14:39:47Z</time>
      </trkpt>
      <trkpt lat="45.87736" lon="4.64634">
        <ele>217</ele>
        <time>2016-11-30T14:39:49Z</time>
      </trkpt>
      <trkpt lat="45.87735" lon="4.6464">
        <ele>217</ele>
        <time>2016-11-30T14:39:50Z</time>
      </trkpt>
      <trkpt lat="45.87734" lon="4.64646">
        <ele>217</ele>
        <time>2016-11-30T14:39:51Z</time>
      </trkpt>
      <trkpt lat="45.87734" lon="4.64653">
        <ele>217</ele>
        <time>2016-11-30T14:39:52Z</time>
      </trkpt>
      <trkpt lat="45.87733" lon="4.64661">
        <ele>217</ele>
        <time>2016-11-30T14:39:53Z</time>
      </trkpt>
      <trkpt lat="45.87732" lon="4.64669">
        <ele>216</ele>
        <time>2016-11-30T14:39:54Z</time>
      </trkpt>
      <trkpt lat="45.87731" lon="4.64676">
        <ele>216</ele>
        <time>2016-11-30T14:39:55Z</time>
      </trkpt>
      <trkpt lat="45.87731" lon="4.64684">
        <ele>216</ele>
        <time>2016-11-30T14:39:56Z</time>
      </trkpt>
      <trkpt lat="45.87731" lon="4.64691">
        <ele>216</ele>
        <time>2016-11-30T14:39:57Z</time>
      </trkpt>
      <trkpt lat="45.87731" lon="4.64699">
        <ele>215</ele>
        <time>2016-11-30T14:39:58Z</time>
      </trkpt>
      <trkpt lat="45.87731" lon="4.64706">
        <ele>215</ele>
        <time>2016-11-30T14:39:59Z</time>
      </trkpt>
      <trkpt lat="45.87731" lon="4.64713">
        <ele>215</ele>
        <time>2016-11-30T14:40:00Z</time>
      </trkpt>
      <trkpt lat="45.87732" lon="4.6472">
        <ele>215</ele>
        <time>2016-11-30T14:40:01Z</time>
      </trkpt>
      <trkpt lat="45.87733" lon="4.64727">
        <ele>215</ele>
        <time>2016-11-30T14:40:02Z</time>
      </trkpt>
      <trkpt lat="45.87734" lon="4.64734">
        <ele>214</ele>
        <time>2016-11-30T14:40:03Z</time>
      </trkpt>
      <trkpt lat="45.87734" lon="4.6474">
        <ele>214</ele>
        <time>2016-11-30T14:40:04Z</time>
      </trkpt>
      <trkpt lat="45.87735" lon="4.64753">
        <ele>213</ele>
        <time>2016-11-30T14:40:06Z</time>
      </trkpt>
      <trkpt lat="45.87736" lon="4.6476">
        <ele>213</ele>
        <time>2016-11-30T14:40:07Z</time>
      </trkpt>
      <trkpt lat="45.87737" lon="4.64772">
        <ele>213</ele>
        <time>2016-11-30T14:40:09Z</time>
      </trkpt>
      <trkpt lat="45.87738" lon="4.64778">
        <ele>213</ele>
        <time>2016-11-30T14:40:10Z</time>
      </trkpt>
      <trkpt lat="45.87739" lon="4.64785">
        <ele>213</ele>
        <time>2016-11-30T14:40:11Z</time>
      </trkpt>
      <trkpt lat="45.87741" lon="4.64791">
        <ele>213</ele>
        <time>2016-11-30T14:40:12Z</time>
      </trkpt>
      <trkpt lat="45.87746" lon="4.64802">
        <ele>214</ele>
        <time>2016-11-30T14:40:14Z</time>
      </trkpt>
      <trkpt lat="45.87748" lon="4.64807">
        <ele>214</ele>
        <time>2016-11-30T14:40:15Z</time>
      </trkpt>
      <trkpt lat="45.8775" lon="4.64813">
        <ele>214</ele>
        <time>2016-11-30T14:40:16Z</time>
      </trkpt>
      <trkpt lat="45.87752" lon="4.64818">
        <ele>214</ele>
        <time>2016-11-30T14:40:17Z</time>
      </trkpt>
      <trkpt lat="45.87756" lon="4.64828">
        <ele>214</ele>
        <time>2016-11-30T14:40:19Z</time>
      </trkpt>
      <trkpt lat="45.87759" lon="4.64832">
        <ele>214</ele>
        <time>2016-11-30T14:40:20Z</time>
      </trkpt>
      <trkpt lat="45.87764" lon="4.6484">
        <ele>216</ele>
        <time>2016-11-30T14:40:22Z</time>
      </trkpt>
      <trkpt lat="45.87766" lon="4.64844">
        <ele>216</ele>
        <time>2016-11-30T14:40:23Z</time>
      </trkpt>
      <trkpt lat="45.87769" lon="4.64851">
        <ele>217</ele>
        <time>2016-11-30T14:40:25Z</time>
      </trkpt>
      <trkpt lat="45.87771" lon="4.64854">
        <ele>217</ele>
        <time>2016-11-30T14:40:26Z</time>
      </trkpt>
      <trkpt lat="45.87776" lon="4.64861">
        <ele>218</ele>
        <time>2016-11-30T14:40:28Z</time>
      </trkpt>
      <trkpt lat="45.87778" lon="4.64864">
        <ele>218</ele>
        <time>2016-11-30T14:40:29Z</time>
      </trkpt>
      <trkpt lat="45.87784" lon="4.64871">
        <ele>218</ele>
        <time>2016-11-30T14:40:32Z</time>
      </trkpt>
      <trkpt lat="45.87786" lon="4.64874">
        <ele>218</ele>
        <time>2016-11-30T14:40:33Z</time>
      </trkpt>
      <trkpt lat="45.87789" lon="4.64884">
        <ele>219</ele>
        <time>2016-11-30T14:40:36Z</time>
      </trkpt>
      <trkpt lat="45.87791" lon="4.64887">
        <ele>219</ele>
        <time>2016-11-30T14:40:37Z</time>
      </trkpt>
      <trkpt lat="45.87794" lon="4.64897">
        <ele>219</ele>
        <time>2016-11-30T14:40:40Z</time>
      </trkpt>
      <trkpt lat="45.87796" lon="4.649">
        <ele>219</ele>
        <time>2016-11-30T14:40:41Z</time>
      </trkpt>
      <trkpt lat="45.878" lon="4.64909">
        <ele>220</ele>
        <time>2016-11-30T14:40:44Z</time>
      </trkpt>
      <trkpt lat="45.87801" lon="4.64913">
        <ele>220</ele>
        <time>2016-11-30T14:40:45Z</time>
      </trkpt>
      <trkpt lat="45.87806" lon="4.6492">
        <ele>224</ele>
        <time>2016-11-30T14:40:48Z</time>
      </trkpt>
      <trkpt lat="45.87808" lon="4.64923">
        <ele>224</ele>
        <time>2016-11-30T14:40:49Z</time>
      </trkpt>
      <trkpt lat="45.87811" lon="4.64931">
        <ele>224</ele>
        <time>2016-11-30T14:40:52Z</time>
      </trkpt>
      <trkpt lat="45.87814" lon="4.64934">
        <ele>225</ele>
        <time>2016-11-30T14:40:53Z</time>
      </trkpt>
      <trkpt lat="45.8782" lon="4.64941">
        <ele>225</ele>
        <time>2016-11-30T14:40:56Z</time>
      </trkpt>
      <trkpt lat="45.87822" lon="4.64943">
        <ele>225</ele>
        <time>2016-11-30T14:40:57Z</time>
      </trkpt>
      <trkpt lat="45.87828" lon="4.64952">
        <ele>226</ele>
        <time>2016-11-30T14:41:01Z</time>
      </trkpt>
      <trkpt lat="45.8783" lon="4.64953">
        <ele>226</ele>
        <time>2016-11-30T14:41:02Z</time>
      </trkpt>
      <trkpt lat="45.87833" lon="4.64953">
        <ele>226</ele>
        <time>2016-11-30T14:41:03Z</time>
      </trkpt>
      <trkpt lat="45.87842" lon="4.64952">
        <ele>228</ele>
        <time>2016-11-30T14:41:04Z</time>
      </trkpt>
      <trkpt lat="45.87848" lon="4.64957">
        <ele>228</ele>
        <time>2016-11-30T14:41:07Z</time>
      </trkpt>
      <trkpt lat="45.87849" lon="4.64959">
        <ele>228</ele>
        <time>2016-11-30T14:41:08Z</time>
      </trkpt>
      <trkpt lat="45.87855" lon="4.64962">
        <ele>229</ele>
        <time>2016-11-30T14:41:11Z</time>
      </trkpt>
      <trkpt lat="45.87866" lon="4.64978">
        <ele>230</ele>
        <time>2016-11-30T14:41:19Z</time>
      </trkpt>
      <trkpt lat="45.87872" lon="4.64984">
        <ele>230</ele>
        <time>2016-11-30T14:41:23Z</time>
      </trkpt>
      <trkpt lat="45.87873" lon="4.64986">
        <ele>230</ele>
        <time>2016-11-30T14:41:24Z</time>
      </trkpt>
      <trkpt lat="45.87881" lon="4.64986">
        <ele>231</ele>
        <time>2016-11-30T14:41:29Z</time>
      </trkpt>
      <trkpt lat="45.87882" lon="4.64988">
        <ele>231</ele>
        <time>2016-11-30T14:41:30Z</time>
      </trkpt>
      <trkpt lat="45.8789" lon="4.64993">
        <ele>232</ele>
        <time>2016-11-30T14:41:35Z</time>
      </trkpt>
      <trkpt lat="45.87892" lon="4.64994">
        <ele>232</ele>
        <time>2016-11-30T14:41:36Z</time>
      </trkpt>
      <trkpt lat="45.87898" lon="4.64997">
        <ele>233</ele>
        <time>2016-11-30T14:41:40Z</time>
      </trkpt>
      <trkpt lat="45.879" lon="4.64998">
        <ele>233</ele>
        <time>2016-11-30T14:41:41Z</time>
      </trkpt>
      <trkpt lat="45.87908" lon="4.64999">
        <ele>235</ele>
        <time>2016-11-30T14:41:46Z</time>
      </trkpt>
      <trkpt lat="45.8791" lon="4.65">
        <ele>235</ele>
        <time>2016-11-30T14:41:47Z</time>
      </trkpt>
      <trkpt lat="45.87919" lon="4.64998">
        <ele>237</ele>
        <time>2016-11-30T14:41:51Z</time>
      </trkpt>
      <trkpt lat="45.8792" lon="4.64998">
        <ele>237</ele>
        <time>2016-11-30T14:41:52Z</time>
      </trkpt>
      <trkpt lat="45.87929" lon="4.65">
        <ele>237</ele>
        <time>2016-11-30T14:41:56Z</time>
      </trkpt>
      <trkpt lat="45.87931" lon="4.65">
        <ele>237</ele>
        <time>2016-11-30T14:41:57Z</time>
      </trkpt>
      <trkpt lat="45.87938" lon="4.64997">
        <ele>238</ele>
        <time>2016-11-30T14:42:01Z</time>
      </trkpt>
      <trkpt lat="45.8794" lon="4.64996">
        <ele>238</ele>
        <time>2016-11-30T14:42:02Z</time>
      </trkpt>
      <trkpt lat="45.87948" lon="4.64992">
        <ele>238</ele>
        <time>2016-11-30T14:42:06Z</time>
      </trkpt>
      <trkpt lat="45.87949" lon="4.64991">
        <ele>238</ele>
        <time>2016-11-30T14:42:07Z</time>
      </trkpt>
      <trkpt lat="45.87957" lon="4.64987">
        <ele>239</ele>
        <time>2016-11-30T14:42:11Z</time>
      </trkpt>
      <trkpt lat="45.8796" lon="4.64986">
        <ele>239</ele>
        <time>2016-11-30T14:42:12Z</time>
      </trkpt>
      <trkpt lat="45.87966" lon="4.64982">
        <ele>239</ele>
        <time>2016-11-30T14:42:16Z</time>
      </trkpt>
      <trkpt lat="45.87969" lon="4.6498">
        <ele>239</ele>
        <time>2016-11-30T14:42:17Z</time>
      </trkpt>
      <trkpt lat="45.87975" lon="4.64976">
        <ele>240</ele>
        <time>2016-11-30T14:42:21Z</time>
      </trkpt>
      <trkpt lat="45.87977" lon="4.64974">
        <ele>240</ele>
        <time>2016-11-30T14:42:22Z</time>
      </trkpt>
      <trkpt lat="45.87982" lon="4.64966">
        <ele>239</ele>
        <time>2016-11-30T14:42:26Z</time>
      </trkpt>
      <trkpt lat="45.87984" lon="4.64964">
        <ele>239</ele>
        <time>2016-11-30T14:42:27Z</time>
      </trkpt>
      <trkpt lat="45.87991" lon="4.6496">
        <ele>239</ele>
        <time>2016-11-30T14:42:31Z</time>
      </trkpt>
      <trkpt lat="45.87993" lon="4.64958">
        <ele>239</ele>
        <time>2016-11-30T14:42:32Z</time>
      </trkpt>
      <trkpt lat="45.88" lon="4.64953">
        <ele>238</ele>
        <time>2016-11-30T14:42:36Z</time>
      </trkpt>
      <trkpt lat="45.88001" lon="4.64951">
        <ele>247</ele>
        <time>2016-11-30T14:42:37Z</time>
      </trkpt>
      <trkpt lat="45.88007" lon="4.64946">
        <ele>247</ele>
        <time>2016-11-30T14:42:40Z</time>
      </trkpt>
      <trkpt lat="45.88009" lon="4.64944">
        <ele>246</ele>
        <time>2016-11-30T14:42:41Z</time>
      </trkpt>
      <trkpt lat="45.88015" lon="4.64939">
        <ele>246</ele>
        <time>2016-11-30T14:42:44Z</time>
      </trkpt>
      <trkpt lat="45.88017" lon="4.64937">
        <ele>246</ele>
        <time>2016-11-30T14:42:45Z</time>
      </trkpt>
      <trkpt lat="45.88023" lon="4.64931">
        <ele>246</ele>
        <time>2016-11-30T14:42:48Z</time>
      </trkpt>
      <trkpt lat="45.88025" lon="4.64929">
        <ele>247</ele>
        <time>2016-11-30T14:42:49Z</time>
      </trkpt>
      <trkpt lat="45.88031" lon="4.6492">
        <ele>247</ele>
        <time>2016-11-30T14:42:53Z</time>
      </trkpt>
      <trkpt lat="45.88033" lon="4.64918">
        <ele>248</ele>
        <time>2016-11-30T14:42:54Z</time>
      </trkpt>
      <trkpt lat="45.88039" lon="4.64911">
        <ele>240</ele>
        <time>2016-11-30T14:42:58Z</time>
      </trkpt>
      <trkpt lat="45.88041" lon="4.64909">
        <ele>240</ele>
        <time>2016-11-30T14:42:59Z</time>
      </trkpt>
      <trkpt lat="45.88047" lon="4.64902">
        <ele>240</ele>
        <time>2016-11-30T14:43:03Z</time>
      </trkpt>
      <trkpt lat="45.88048" lon="4.649">
        <ele>241</ele>
        <time>2016-11-30T14:43:04Z</time>
      </trkpt>
      <trkpt lat="45.88055" lon="4.64894">
        <ele>241</ele>
        <time>2016-11-30T14:43:08Z</time>
      </trkpt>
      <trkpt lat="45.88057" lon="4.64893">
        <ele>241</ele>
        <time>2016-11-30T14:43:09Z</time>
      </trkpt>
      <trkpt lat="45.88064" lon="4.64891">
        <ele>242</ele>
        <time>2016-11-30T14:43:13Z</time>
      </trkpt>
      <trkpt lat="45.88066" lon="4.64889">
        <ele>242</ele>
        <time>2016-11-30T14:43:14Z</time>
      </trkpt>
      <trkpt lat="45.88072" lon="4.64884">
        <ele>242</ele>
        <time>2016-11-30T14:43:17Z</time>
      </trkpt>
      <trkpt lat="45.88074" lon="4.64882">
        <ele>241</ele>
        <time>2016-11-30T14:43:18Z</time>
      </trkpt>
      <trkpt lat="45.88081" lon="4.64879">
        <ele>241</ele>
        <time>2016-11-30T14:43:22Z</time>
      </trkpt>
      <trkpt lat="45.88083" lon="4.64878">
        <ele>241</ele>
        <time>2016-11-30T14:43:23Z</time>
      </trkpt>
      <trkpt lat="45.88092" lon="4.64875">
        <ele>248</ele>
        <time>2016-11-30T14:43:28Z</time>
      </trkpt>
      <trkpt lat="45.88093" lon="4.64874">
        <ele>248</ele>
        <time>2016-11-30T14:43:29Z</time>
      </trkpt>
      <trkpt lat="45.88101" lon="4.64869">
        <ele>248</ele>
        <time>2016-11-30T14:43:33Z</time>
      </trkpt>
      <trkpt lat="45.88103" lon="4.64868">
        <ele>248</ele>
        <time>2016-11-30T14:43:34Z</time>
      </trkpt>
      <trkpt lat="45.8811" lon="4.64865">
        <ele>247</ele>
        <time>2016-11-30T14:43:37Z</time>
      </trkpt>
      <trkpt lat="45.88112" lon="4.64864">
        <ele>248</ele>
        <time>2016-11-30T14:43:38Z</time>
      </trkpt>
      <trkpt lat="45.88119" lon="4.64863">
        <ele>248</ele>
        <time>2016-11-30T14:43:41Z</time>
      </trkpt>
      <trkpt lat="45.88121" lon="4.64862">
        <ele>248</ele>
        <time>2016-11-30T14:43:42Z</time>
      </trkpt>
      <trkpt lat="45.8813" lon="4.6486">
        <ele>248</ele>
        <time>2016-11-30T14:43:46Z</time>
      </trkpt>
      <trkpt lat="45.88132" lon="4.64859">
        <ele>248</ele>
        <time>2016-11-30T14:43:47Z</time>
      </trkpt>
      <trkpt lat="45.8814" lon="4.64858">
        <ele>248</ele>
        <time>2016-11-30T14:43:51Z</time>
      </trkpt>
      <trkpt lat="45.88142" lon="4.64858">
        <ele>248</ele>
        <time>2016-11-30T14:43:52Z</time>
      </trkpt>
      <trkpt lat="45.8815" lon="4.64856">
        <ele>248</ele>
        <time>2016-11-30T14:43:56Z</time>
      </trkpt>
      <trkpt lat="45.88152" lon="4.64856">
        <ele>248</ele>
        <time>2016-11-30T14:43:57Z</time>
      </trkpt>
      <trkpt lat="45.88161" lon="4.64854">
        <ele>248</ele>
        <time>2016-11-30T14:44:01Z</time>
      </trkpt>
      <trkpt lat="45.88163" lon="4.64853">
        <ele>248</ele>
        <time>2016-11-30T14:44:02Z</time>
      </trkpt>
      <trkpt lat="45.88171" lon="4.6485">
        <ele>252</ele>
        <time>2016-11-30T14:44:06Z</time>
      </trkpt>
      <trkpt lat="45.88174" lon="4.64849">
        <ele>252</ele>
        <time>2016-11-30T14:44:07Z</time>
      </trkpt>
      <trkpt lat="45.88182" lon="4.64849">
        <ele>253</ele>
        <time>2016-11-30T14:44:11Z</time>
      </trkpt>
      <trkpt lat="45.88184" lon="4.6485">
        <ele>253</ele>
        <time>2016-11-30T14:44:12Z</time>
      </trkpt>
      <trkpt lat="45.88192" lon="4.64852">
        <ele>255</ele>
        <time>2016-11-30T14:44:16Z</time>
      </trkpt>
      <trkpt lat="45.88194" lon="4.64853">
        <ele>255</ele>
        <time>2016-11-30T14:44:17Z</time>
      </trkpt>
      <trkpt lat="45.88201" lon="4.6485">
        <ele>256</ele>
        <time>2016-11-30T14:44:20Z</time>
      </trkpt>
      <trkpt lat="45.88203" lon="4.64849">
        <ele>256</ele>
        <time>2016-11-30T14:44:21Z</time>
      </trkpt>
      <trkpt lat="45.88212" lon="4.64848">
        <ele>256</ele>
        <time>2016-11-30T14:44:25Z</time>
      </trkpt>
      <trkpt lat="45.88214" lon="4.64847">
        <ele>257</ele>
        <time>2016-11-30T14:44:26Z</time>
      </trkpt>
      <trkpt lat="45.88222" lon="4.64844">
        <ele>257</ele>
        <time>2016-11-30T14:44:30Z</time>
      </trkpt>
      <trkpt lat="45.88225" lon="4.64843">
        <ele>257</ele>
        <time>2016-11-30T14:44:31Z</time>
      </trkpt>
      <trkpt lat="45.88232" lon="4.64839">
        <ele>257</ele>
        <time>2016-11-30T14:44:34Z</time>
      </trkpt>
      <trkpt lat="45.88235" lon="4.64837">
        <ele>257</ele>
        <time>2016-11-30T14:44:35Z</time>
      </trkpt>
      <trkpt lat="45.88242" lon="4.64834">
        <ele>257</ele>
        <time>2016-11-30T14:44:40Z</time>
      </trkpt>
      <trkpt lat="45.88244" lon="4.64833">
        <ele>254</ele>
        <time>2016-11-30T14:44:41Z</time>
      </trkpt>
      <trkpt lat="45.88252" lon="4.64831">
        <ele>257</ele>
        <time>2016-11-30T14:44:46Z</time>
      </trkpt>
      <trkpt lat="45.88254" lon="4.64829">
        <ele>257</ele>
        <time>2016-11-30T14:44:47Z</time>
      </trkpt>
      <trkpt lat="45.88263" lon="4.64825">
        <ele>257</ele>
        <time>2016-11-30T14:44:52Z</time>
      </trkpt>
      <trkpt lat="45.88264" lon="4.64824">
        <ele>257</ele>
        <time>2016-11-30T14:44:53Z</time>
      </trkpt>
      <trkpt lat="45.8827" lon="4.64824">
        <ele>258</ele>
        <time>2016-11-30T14:44:57Z</time>
      </trkpt>
      <trkpt lat="45.88273" lon="4.64824">
        <ele>258</ele>
        <time>2016-11-30T14:44:58Z</time>
      </trkpt>
      <trkpt lat="45.88282" lon="4.64825">
        <ele>259</ele>
        <time>2016-11-30T14:45:04Z</time>
      </trkpt>
      <trkpt lat="45.88283" lon="4.64824">
        <ele>259</ele>
        <time>2016-11-30T14:45:05Z</time>
      </trkpt>
      <trkpt lat="45.88292" lon="4.64824">
        <ele>260</ele>
        <time>2016-11-30T14:45:11Z</time>
      </trkpt>
      <trkpt lat="45.88293" lon="4.64823">
        <ele>260</ele>
        <time>2016-11-30T14:45:12Z</time>
      </trkpt>
      <trkpt lat="45.88302" lon="4.64821">
        <ele>261</ele>
        <time>2016-11-30T14:45:18Z</time>
      </trkpt>
      <trkpt lat="45.88304" lon="4.64819">
        <ele>261</ele>
        <time>2016-11-30T14:45:19Z</time>
      </trkpt>
      <trkpt lat="45.88312" lon="4.64817">
        <ele>262</ele>
        <time>2016-11-30T14:45:23Z</time>
      </trkpt>
      <trkpt lat="45.88314" lon="4.64817">
        <ele>263</ele>
        <time>2016-11-30T14:45:24Z</time>
      </trkpt>
      <trkpt lat="45.8832" lon="4.64814">
        <ele>263</ele>
        <time>2016-11-30T14:45:29Z</time>
      </trkpt>
      <trkpt lat="45.88322" lon="4.64814">
        <ele>264</ele>
        <time>2016-11-30T14:45:30Z</time>
      </trkpt>
      <trkpt lat="45.88329" lon="4.64811">
        <ele>264</ele>
        <time>2016-11-30T14:45:34Z</time>
      </trkpt>
      <trkpt lat="45.88331" lon="4.64809">
        <ele>263</ele>
        <time>2016-11-30T14:45:35Z</time>
      </trkpt>
      <trkpt lat="45.88339" lon="4.64806">
        <ele>268</ele>
        <time>2016-11-30T14:45:40Z</time>
      </trkpt>
      <trkpt lat="45.88341" lon="4.64806">
        <ele>268</ele>
        <time>2016-11-30T14:45:41Z</time>
      </trkpt>
      <trkpt lat="45.88347" lon="4.64804">
        <ele>268</ele>
        <time>2016-11-30T14:45:45Z</time>
      </trkpt>
      <trkpt lat="45.8835" lon="4.64804">
        <ele>268</ele>
        <time>2016-11-30T14:45:46Z</time>
      </trkpt>
      <trkpt lat="45.88357" lon="4.64804">
        <ele>268</ele>
        <time>2016-11-30T14:45:50Z</time>
      </trkpt>
      <trkpt lat="45.88359" lon="4.64804">
        <ele>268</ele>
        <time>2016-11-30T14:45:51Z</time>
      </trkpt>
      <trkpt lat="45.88368" lon="4.64801">
        <ele>268</ele>
        <time>2016-11-30T14:45:55Z</time>
      </trkpt>
      <trkpt lat="45.8837" lon="4.64801">
        <ele>268</ele>
        <time>2016-11-30T14:45:56Z</time>
      </trkpt>
      <trkpt lat="45.88377" lon="4.648">
        <ele>268</ele>
        <time>2016-11-30T14:46:01Z</time>
      </trkpt>
      <trkpt lat="45.88379" lon="4.64799">
        <ele>268</ele>
        <time>2016-11-30T14:46:02Z</time>
      </trkpt>
      <trkpt lat="45.88386" lon="4.64799">
        <ele>269</ele>
        <time>2016-11-30T14:46:06Z</time>
      </trkpt>
      <trkpt lat="45.88388" lon="4.64799">
        <ele>269</ele>
        <time>2016-11-30T14:46:07Z</time>
      </trkpt>
      <trkpt lat="45.88396" lon="4.64798">
        <ele>269</ele>
        <time>2016-11-30T14:46:12Z</time>
      </trkpt>
      <trkpt lat="45.88398" lon="4.64797">
        <ele>269</ele>
        <time>2016-11-30T14:46:13Z</time>
      </trkpt>
      <trkpt lat="45.88406" lon="4.64793">
        <ele>269</ele>
        <time>2016-11-30T14:46:17Z</time>
      </trkpt>
      <trkpt lat="45.88408" lon="4.64793">
        <ele>269</ele>
        <time>2016-11-30T14:46:18Z</time>
      </trkpt>
      <trkpt lat="45.88415" lon="4.64792">
        <ele>269</ele>
        <time>2016-11-30T14:46:22Z</time>
      </trkpt>
      <trkpt lat="45.88417" lon="4.64792">
        <ele>272</ele>
        <time>2016-11-30T14:46:23Z</time>
      </trkpt>
      <trkpt lat="45.88424" lon="4.64788">
        <ele>271</ele>
        <time>2016-11-30T14:46:26Z</time>
      </trkpt>
      <trkpt lat="45.88426" lon="4.64787">
        <ele>271</ele>
        <time>2016-11-30T14:46:27Z</time>
      </trkpt>
      <trkpt lat="45.88434" lon="4.64789">
        <ele>271</ele>
        <time>2016-11-30T14:46:31Z</time>
      </trkpt>
      <trkpt lat="45.88436" lon="4.6479">
        <ele>272</ele>
        <time>2016-11-30T14:46:32Z</time>
      </trkpt>
      <trkpt lat="45.88444" lon="4.64791">
        <ele>272</ele>
        <time>2016-11-30T14:46:37Z</time>
      </trkpt>
      <trkpt lat="45.88446" lon="4.64791">
        <ele>272</ele>
        <time>2016-11-30T14:46:38Z</time>
      </trkpt>
      <trkpt lat="45.88454" lon="4.64788">
        <ele>272</ele>
        <time>2016-11-30T14:46:42Z</time>
      </trkpt>
      <trkpt lat="45.88456" lon="4.64788">
        <ele>272</ele>
        <time>2016-11-30T14:46:43Z</time>
      </trkpt>
      <trkpt lat="45.88464" lon="4.64789">
        <ele>272</ele>
        <time>2016-11-30T14:46:48Z</time>
      </trkpt>
      <trkpt lat="45.88465" lon="4.64788">
        <ele>272</ele>
        <time>2016-11-30T14:46:49Z</time>
      </trkpt>
      <trkpt lat="45.88474" lon="4.64787">
        <ele>272</ele>
        <time>2016-11-30T14:46:53Z</time>
      </trkpt>
      <trkpt lat="45.88476" lon="4.64787">
        <ele>272</ele>
        <time>2016-11-30T14:46:54Z</time>
      </trkpt>
      <trkpt lat="45.88484" lon="4.64785">
        <ele>272</ele>
        <time>2016-11-30T14:46:58Z</time>
      </trkpt>
      <trkpt lat="45.88486" lon="4.64785">
        <ele>272</ele>
        <time>2016-11-30T14:46:59Z</time>
      </trkpt>
      <trkpt lat="45.88494" lon="4.64782">
        <ele>272</ele>
        <time>2016-11-30T14:47:02Z</time>
      </trkpt>
      <trkpt lat="45.88496" lon="4.64781">
        <ele>272</ele>
        <time>2016-11-30T14:47:03Z</time>
      </trkpt>
      <trkpt lat="45.88505" lon="4.64782">
        <ele>271</ele>
        <time>2016-11-30T14:47:07Z</time>
      </trkpt>
      <trkpt lat="45.88508" lon="4.64783">
        <ele>272</ele>
        <time>2016-11-30T14:47:08Z</time>
      </trkpt>
      <trkpt lat="45.88515" lon="4.64783">
        <ele>272</ele>
        <time>2016-11-30T14:47:11Z</time>
      </trkpt>
      <trkpt lat="45.88517" lon="4.64783">
        <ele>272</ele>
        <time>2016-11-30T14:47:12Z</time>
      </trkpt>
      <trkpt lat="45.88524" lon="4.64786">
        <ele>272</ele>
        <time>2016-11-30T14:47:15Z</time>
      </trkpt>
      <trkpt lat="45.88526" lon="4.64786">
        <ele>272</ele>
        <time>2016-11-30T14:47:16Z</time>
      </trkpt>
      <trkpt lat="45.88534" lon="4.64786">
        <ele>272</ele>
        <time>2016-11-30T14:47:19Z</time>
      </trkpt>
      <trkpt lat="45.88537" lon="4.64788">
        <ele>272</ele>
        <time>2016-11-30T14:47:20Z</time>
      </trkpt>
      <trkpt lat="45.88543" lon="4.64792">
        <ele>272</ele>
        <time>2016-11-30T14:47:23Z</time>
      </trkpt>
      <trkpt lat="45.88545" lon="4.64794">
        <ele>272</ele>
        <time>2016-11-30T14:47:24Z</time>
      </trkpt>
      <trkpt lat="45.8855" lon="4.64802">
        <ele>272</ele>
        <time>2016-11-30T14:47:28Z</time>
      </trkpt>
      <trkpt lat="45.88551" lon="4.64804">
        <ele>272</ele>
        <time>2016-11-30T14:47:29Z</time>
      </trkpt>
      <trkpt lat="45.88554" lon="4.64816">
        <ele>272</ele>
        <time>2016-11-30T14:47:33Z</time>
      </trkpt>
      <trkpt lat="45.88554" lon="4.64819">
        <ele>272</ele>
        <time>2016-11-30T14:47:34Z</time>
      </trkpt>
      <trkpt lat="45.88555" lon="4.64829">
        <ele>273</ele>
        <time>2016-11-30T14:47:38Z</time>
      </trkpt>
      <trkpt lat="45.88555" lon="4.64832">
        <ele>273</ele>
        <time>2016-11-30T14:47:39Z</time>
      </trkpt>
      <trkpt lat="45.88555" lon="4.64842">
        <ele>276</ele>
        <time>2016-11-30T14:47:42Z</time>
      </trkpt>
      <trkpt lat="45.88555" lon="4.64846">
        <ele>276</ele>
        <time>2016-11-30T14:47:43Z</time>
      </trkpt>
      <trkpt lat="45.88554" lon="4.64858">
        <ele>276</ele>
        <time>2016-11-30T14:47:47Z</time>
      </trkpt>
      <trkpt lat="45.88554" lon="4.64861">
        <ele>276</ele>
        <time>2016-11-30T14:47:48Z</time>
      </trkpt>
      <trkpt lat="45.88553" lon="4.6487">
        <ele>276</ele>
        <time>2016-11-30T14:47:51Z</time>
      </trkpt>
      <trkpt lat="45.88552" lon="4.64875">
        <ele>276</ele>
        <time>2016-11-30T14:47:52Z</time>
      </trkpt>
      <trkpt lat="45.88551" lon="4.64887">
        <ele>277</ele>
        <time>2016-11-30T14:47:57Z</time>
      </trkpt>
      <trkpt lat="45.88551" lon="4.6489">
        <ele>277</ele>
        <time>2016-11-30T14:47:58Z</time>
      </trkpt>
      <trkpt lat="45.8855" lon="4.649">
        <ele>277</ele>
        <time>2016-11-30T14:48:02Z</time>
      </trkpt>
      <trkpt lat="45.8855" lon="4.64904">
        <ele>276</ele>
        <time>2016-11-30T14:48:03Z</time>
      </trkpt>
      <trkpt lat="45.88548" lon="4.64914">
        <ele>277</ele>
        <time>2016-11-30T14:48:07Z</time>
      </trkpt>
      <trkpt lat="45.88548" lon="4.64917">
        <ele>279</ele>
        <time>2016-11-30T14:48:08Z</time>
      </trkpt>
      <trkpt lat="45.88546" lon="4.6493">
        <ele>279</ele>
        <time>2016-11-30T14:48:12Z</time>
      </trkpt>
      <trkpt lat="45.88545" lon="4.64933">
        <ele>279</ele>
        <time>2016-11-30T14:48:13Z</time>
      </trkpt>
      <trkpt lat="45.88541" lon="4.64944">
        <ele>280</ele>
        <time>2016-11-30T14:48:17Z</time>
      </trkpt>
      <trkpt lat="45.88541" lon="4.64947">
        <ele>280</ele>
        <time>2016-11-30T14:48:18Z</time>
      </trkpt>
      <trkpt lat="45.8854" lon="4.64958">
        <ele>280</ele>
        <time>2016-11-30T14:48:22Z</time>
      </trkpt>
      <trkpt lat="45.8854" lon="4.64961">
        <ele>281</ele>
        <time>2016-11-30T14:48:23Z</time>
      </trkpt>
      <trkpt lat="45.88537" lon="4.64974">
        <ele>281</ele>
        <time>2016-11-30T14:48:28Z</time>
      </trkpt>
      <trkpt lat="45.88536" lon="4.64976">
        <ele>281</ele>
        <time>2016-11-30T14:48:29Z</time>
      </trkpt>
      <trkpt lat="45.88534" lon="4.64987">
        <ele>282</ele>
        <time>2016-11-30T14:48:33Z</time>
      </trkpt>
      <trkpt lat="45.88533" lon="4.6499">
        <ele>282</ele>
        <time>2016-11-30T14:48:34Z</time>
      </trkpt>
      <trkpt lat="45.8853" lon="4.65002">
        <ele>285</ele>
        <time>2016-11-30T14:48:39Z</time>
      </trkpt>
      <trkpt lat="45.8853" lon="4.65005">
        <ele>285</ele>
        <time>2016-11-30T14:48:40Z</time>
      </trkpt>
      <trkpt lat="45.88528" lon="4.65017">
        <ele>285</ele>
        <time>2016-11-30T14:48:45Z</time>
      </trkpt>
      <trkpt lat="45.88527" lon="4.65019">
        <ele>285</ele>
        <time>2016-11-30T14:48:46Z</time>
      </trkpt>
      <trkpt lat="45.88523" lon="4.6503">
        <ele>285</ele>
        <time>2016-11-30T14:48:50Z</time>
      </trkpt>
      <trkpt lat="45.88524" lon="4.65033">
        <ele>285</ele>
        <time>2016-11-30T14:48:51Z</time>
      </trkpt>
      <trkpt lat="45.88521" lon="4.65045">
        <ele>285</ele>
        <time>2016-11-30T14:48:55Z</time>
      </trkpt>
      <trkpt lat="45.88519" lon="4.65047">
        <ele>285</ele>
        <time>2016-11-30T14:48:56Z</time>
      </trkpt>
      <trkpt lat="45.88515" lon="4.65058">
        <ele>286</ele>
        <time>2016-11-30T14:49:00Z</time>
      </trkpt>
      <trkpt lat="45.88515" lon="4.6506">
        <ele>286</ele>
        <time>2016-11-30T14:49:01Z</time>
      </trkpt>
      <trkpt lat="45.8851" lon="4.6507">
        <ele>287</ele>
        <time>2016-11-30T14:49:05Z</time>
      </trkpt>
      <trkpt lat="45.88509" lon="4.65072">
        <ele>287</ele>
        <time>2016-11-30T14:49:06Z</time>
      </trkpt>
      <trkpt lat="45.88506" lon="4.65082">
        <ele>289</ele>
        <time>2016-11-30T14:49:10Z</time>
      </trkpt>
      <trkpt lat="45.88505" lon="4.65085">
        <ele>289</ele>
        <time>2016-11-30T14:49:11Z</time>
      </trkpt>
      <trkpt lat="45.88499" lon="4.65095">
        <ele>291</ele>
        <time>2016-11-30T14:49:16Z</time>
      </trkpt>
      <trkpt lat="45.88497" lon="4.65096">
        <ele>292</ele>
        <time>2016-11-30T14:49:17Z</time>
      </trkpt>
      <trkpt lat="45.88493" lon="4.65104">
        <ele>292</ele>
        <time>2016-11-30T14:49:21Z</time>
      </trkpt>
      <trkpt lat="45.88491" lon="4.65107">
        <ele>292</ele>
        <time>2016-11-30T14:49:22Z</time>
      </trkpt>
      <trkpt lat="45.88486" lon="4.65118">
        <ele>293</ele>
        <time>2016-11-30T14:49:26Z</time>
      </trkpt>
      <trkpt lat="45.88485" lon="4.65119">
        <ele>293</ele>
        <time>2016-11-30T14:49:27Z</time>
      </trkpt>
      <trkpt lat="45.88479" lon="4.65127">
        <ele>293</ele>
        <time>2016-11-30T14:49:31Z</time>
      </trkpt>
      <trkpt lat="45.88477" lon="4.65129">
        <ele>294</ele>
        <time>2016-11-30T14:49:32Z</time>
      </trkpt>
      <trkpt lat="45.88471" lon="4.65134">
        <ele>294</ele>
        <time>2016-11-30T14:49:36Z</time>
      </trkpt>
      <trkpt lat="45.88469" lon="4.65135">
        <ele>294</ele>
        <time>2016-11-30T14:49:37Z</time>
      </trkpt>
      <trkpt lat="45.88463" lon="4.65143">
        <ele>294</ele>
        <time>2016-11-30T14:49:41Z</time>
      </trkpt>
      <trkpt lat="45.88462" lon="4.65145">
        <ele>294</ele>
        <time>2016-11-30T14:49:42Z</time>
      </trkpt>
      <trkpt lat="45.88456" lon="4.65152">
        <ele>295</ele>
        <time>2016-11-30T14:49:46Z</time>
      </trkpt>
      <trkpt lat="45.88455" lon="4.65154">
        <ele>295</ele>
        <time>2016-11-30T14:49:47Z</time>
      </trkpt>
      <trkpt lat="45.88448" lon="4.6516">
        <ele>295</ele>
        <time>2016-11-30T14:49:51Z</time>
      </trkpt>
      <trkpt lat="45.88446" lon="4.65163">
        <ele>295</ele>
        <time>2016-11-30T14:49:52Z</time>
      </trkpt>
      <trkpt lat="45.8844" lon="4.65168">
        <ele>297</ele>
        <time>2016-11-30T14:49:56Z</time>
      </trkpt>
      <trkpt lat="45.88438" lon="4.65169">
        <ele>297</ele>
        <time>2016-11-30T14:49:57Z</time>
      </trkpt>
      <trkpt lat="45.88432" lon="4.65174">
        <ele>298</ele>
        <time>2016-11-30T14:50:01Z</time>
      </trkpt>
      <trkpt lat="45.8843" lon="4.65175">
        <ele>298</ele>
        <time>2016-11-30T14:50:02Z</time>
      </trkpt>
      <trkpt lat="45.88424" lon="4.65182">
        <ele>298</ele>
        <time>2016-11-30T14:50:06Z</time>
      </trkpt>
      <trkpt lat="45.88422" lon="4.65184">
        <ele>298</ele>
        <time>2016-11-30T14:50:07Z</time>
      </trkpt>
      <trkpt lat="45.88415" lon="4.65188">
        <ele>299</ele>
        <time>2016-11-30T14:50:11Z</time>
      </trkpt>
      <trkpt lat="45.88412" lon="4.6519">
        <ele>299</ele>
        <time>2016-11-30T14:50:12Z</time>
      </trkpt>
      <trkpt lat="45.88407" lon="4.65196">
        <ele>299</ele>
        <time>2016-11-30T14:50:15Z</time>
      </trkpt>
      <trkpt lat="45.88405" lon="4.65198">
        <ele>299</ele>
        <time>2016-11-30T14:50:16Z</time>
      </trkpt>
      <trkpt lat="45.88399" lon="4.65205">
        <ele>300</ele>
        <time>2016-11-30T14:50:21Z</time>
      </trkpt>
      <trkpt lat="45.88397" lon="4.65207">
        <ele>300</ele>
        <time>2016-11-30T14:50:22Z</time>
      </trkpt>
      <trkpt lat="45.88393" lon="4.65213">
        <ele>300</ele>
        <time>2016-11-30T14:50:25Z</time>
      </trkpt>
      <trkpt lat="45.88392" lon="4.65218">
        <ele>300</ele>
        <time>2016-11-30T14:50:26Z</time>
      </trkpt>
      <trkpt lat="45.88385" lon="4.65226">
        <ele>300</ele>
        <time>2016-11-30T14:50:30Z</time>
      </trkpt>
      <trkpt lat="45.88384" lon="4.65227">
        <ele>300</ele>
        <time>2016-11-30T14:50:31Z</time>
      </trkpt>
      <trkpt lat="45.88376" lon="4.65231">
        <ele>300</ele>
        <time>2016-11-30T14:50:35Z</time>
      </trkpt>
      <trkpt lat="45.88375" lon="4.65234">
        <ele>300</ele>
        <time>2016-11-30T14:50:36Z</time>
      </trkpt>
      <trkpt lat="45.88367" lon="4.6524">
        <ele>300</ele>
        <time>2016-11-30T14:50:40Z</time>
      </trkpt>
      <trkpt lat="45.88366" lon="4.65242">
        <ele>300</ele>
        <time>2016-11-30T14:50:41Z</time>
      </trkpt>
      <trkpt lat="45.8836" lon="4.65248">
        <ele>300</ele>
        <time>2016-11-30T14:50:44Z</time>
      </trkpt>
      <trkpt lat="45.88358" lon="4.65248">
        <ele>300</ele>
        <time>2016-11-30T14:50:45Z</time>
      </trkpt>
      <trkpt lat="45.8835" lon="4.65255">
        <ele>301</ele>
        <time>2016-11-30T14:50:49Z</time>
      </trkpt>
      <trkpt lat="45.88349" lon="4.65258">
        <ele>301</ele>
        <time>2016-11-30T14:50:50Z</time>
      </trkpt>
      <trkpt lat="45.88344" lon="4.65265">
        <ele>301</ele>
        <time>2016-11-30T14:50:54Z</time>
      </trkpt>
      <trkpt lat="45.88342" lon="4.65266">
        <ele>301</ele>
        <time>2016-11-30T14:50:55Z</time>
      </trkpt>
      <trkpt lat="45.88334" lon="4.65271">
        <ele>301</ele>
        <time>2016-11-30T14:50:59Z</time>
      </trkpt>
      <trkpt lat="45.88333" lon="4.65272">
        <ele>303</ele>
        <time>2016-11-30T14:51:00Z</time>
      </trkpt>
      <trkpt lat="45.88327" lon="4.65282">
        <ele>304</ele>
        <time>2016-11-30T14:51:04Z</time>
      </trkpt>
      <trkpt lat="45.88324" lon="4.65284">
        <ele>304</ele>
        <time>2016-11-30T14:51:05Z</time>
      </trkpt>
      <trkpt lat="45.88319" lon="4.65292">
        <ele>304</ele>
        <time>2016-11-30T14:51:09Z</time>
      </trkpt>
      <trkpt lat="45.88318" lon="4.65294">
        <ele>304</ele>
        <time>2016-11-30T14:51:10Z</time>
      </trkpt>
      <trkpt lat="45.88313" lon="4.65302">
        <ele>305</ele>
        <time>2016-11-30T14:51:14Z</time>
      </trkpt>
      <trkpt lat="45.88311" lon="4.65304">
        <ele>305</ele>
        <time>2016-11-30T14:51:15Z</time>
      </trkpt>
      <trkpt lat="45.88307" lon="4.65314">
        <ele>305</ele>
        <time>2016-11-30T14:51:19Z</time>
      </trkpt>
      <trkpt lat="45.88305" lon="4.65316">
        <ele>305</ele>
        <time>2016-11-30T14:51:20Z</time>
      </trkpt>
      <trkpt lat="45.883" lon="4.65326">
        <ele>305</ele>
        <time>2016-11-30T14:51:24Z</time>
      </trkpt>
      <trkpt lat="45.88299" lon="4.65329">
        <ele>305</ele>
        <time>2016-11-30T14:51:25Z</time>
      </trkpt>
      <trkpt lat="45.88296" lon="4.6534">
        <ele>307</ele>
        <time>2016-11-30T14:51:29Z</time>
      </trkpt>
      <trkpt lat="45.88295" lon="4.65344">
        <ele>307</ele>
        <time>2016-11-30T14:51:30Z</time>
      </trkpt>
      <trkpt lat="45.88292" lon="4.65351">
        <ele>307</ele>
        <time>2016-11-30T14:51:33Z</time>
      </trkpt>
      <trkpt lat="45.8829" lon="4.65354">
        <ele>308</ele>
        <time>2016-11-30T14:51:34Z</time>
      </trkpt>
      <trkpt lat="45.88288" lon="4.65367">
        <ele>308</ele>
        <time>2016-11-30T14:51:39Z</time>
      </trkpt>
      <trkpt lat="45.88287" lon="4.65369">
        <ele>308</ele>
        <time>2016-11-30T14:51:40Z</time>
      </trkpt>
      <trkpt lat="45.88285" lon="4.65382">
        <ele>308</ele>
        <time>2016-11-30T14:51:45Z</time>
      </trkpt>
      <trkpt lat="45.88284" lon="4.65383">
        <ele>308</ele>
        <time>2016-11-30T14:51:46Z</time>
      </trkpt>
      <trkpt lat="45.88282" lon="4.65394">
        <ele>308</ele>
        <time>2016-11-30T14:51:49Z</time>
      </trkpt>
      <trkpt lat="45.88282" lon="4.65396">
        <ele>308</ele>
        <time>2016-11-30T14:51:50Z</time>
      </trkpt>
      <trkpt lat="45.88279" lon="4.65406">
        <ele>309</ele>
        <time>2016-11-30T14:51:54Z</time>
      </trkpt>
      <trkpt lat="45.88278" lon="4.65409">
        <ele>309</ele>
        <time>2016-11-30T14:51:55Z</time>
      </trkpt>
      <trkpt lat="45.88273" lon="4.65419">
        <ele>310</ele>
        <time>2016-11-30T14:51:59Z</time>
      </trkpt>
      <trkpt lat="45.88273" lon="4.65422">
        <ele>310</ele>
        <time>2016-11-30T14:52:00Z</time>
      </trkpt>
      <trkpt lat="45.88269" lon="4.65432">
        <ele>311</ele>
        <time>2016-11-30T14:52:03Z</time>
      </trkpt>
      <trkpt lat="45.88268" lon="4.65435">
        <ele>311</ele>
        <time>2016-11-30T14:52:04Z</time>
      </trkpt>
      <trkpt lat="45.88266" lon="4.65445">
        <ele>311</ele>
        <time>2016-11-30T14:52:07Z</time>
      </trkpt>
      <trkpt lat="45.88265" lon="4.65448">
        <ele>311</ele>
        <time>2016-11-30T14:52:08Z</time>
      </trkpt>
      <trkpt lat="45.88262" lon="4.6546">
        <ele>311</ele>
        <time>2016-11-30T14:52:13Z</time>
      </trkpt>
      <trkpt lat="45.88262" lon="4.65462">
        <ele>311</ele>
        <time>2016-11-30T14:52:14Z</time>
      </trkpt>
      <trkpt lat="45.88258" lon="4.65472">
        <ele>312</ele>
        <time>2016-11-30T14:52:19Z</time>
      </trkpt>
      <trkpt lat="45.88257" lon="4.65475">
        <ele>312</ele>
        <time>2016-11-30T14:52:20Z</time>
      </trkpt>
      <trkpt lat="45.88254" lon="4.65484">
        <ele>313</ele>
        <time>2016-11-30T14:52:24Z</time>
      </trkpt>
      <trkpt lat="45.88253" lon="4.65487">
        <ele>313</ele>
        <time>2016-11-30T14:52:25Z</time>
      </trkpt>
      <trkpt lat="45.8825" lon="4.65496">
        <ele>314</ele>
        <time>2016-11-30T14:52:29Z</time>
      </trkpt>
      <trkpt lat="45.88249" lon="4.65499">
        <ele>315</ele>
        <time>2016-11-30T14:52:30Z</time>
      </trkpt>
      <trkpt lat="45.88245" lon="4.65509">
        <ele>317</ele>
        <time>2016-11-30T14:52:34Z</time>
      </trkpt>
      <trkpt lat="45.88244" lon="4.65511">
        <ele>317</ele>
        <time>2016-11-30T14:52:35Z</time>
      </trkpt>
      <trkpt lat="45.88241" lon="4.65521">
        <ele>318</ele>
        <time>2016-11-30T14:52:39Z</time>
      </trkpt>
      <trkpt lat="45.8824" lon="4.65523">
        <ele>319</ele>
        <time>2016-11-30T14:52:40Z</time>
      </trkpt>
      <trkpt lat="45.88237" lon="4.65532">
        <ele>319</ele>
        <time>2016-11-30T14:52:44Z</time>
      </trkpt>
      <trkpt lat="45.88236" lon="4.65534">
        <ele>319</ele>
        <time>2016-11-30T14:52:45Z</time>
      </trkpt>
      <trkpt lat="45.88233" lon="4.65546">
        <ele>320</ele>
        <time>2016-11-30T14:52:49Z</time>
      </trkpt>
      <trkpt lat="45.88232" lon="4.65549">
        <ele>320</ele>
        <time>2016-11-30T14:52:50Z</time>
      </trkpt>
      <trkpt lat="45.88229" lon="4.65559">
        <ele>320</ele>
        <time>2016-11-30T14:52:55Z</time>
      </trkpt>
      <trkpt lat="45.88228" lon="4.65562">
        <ele>320</ele>
        <time>2016-11-30T14:52:56Z</time>
      </trkpt>
      <trkpt lat="45.88224" lon="4.65571">
        <ele>320</ele>
        <time>2016-11-30T14:53:00Z</time>
      </trkpt>
      <trkpt lat="45.88223" lon="4.65574">
        <ele>320</ele>
        <time>2016-11-30T14:53:01Z</time>
      </trkpt>
      <trkpt lat="45.88219" lon="4.65584">
        <ele>321</ele>
        <time>2016-11-30T14:53:06Z</time>
      </trkpt>
      <trkpt lat="45.88218" lon="4.65587">
        <ele>321</ele>
        <time>2016-11-30T14:53:07Z</time>
      </trkpt>
      <trkpt lat="45.88215" lon="4.65597">
        <ele>321</ele>
        <time>2016-11-30T14:53:10Z</time>
      </trkpt>
      <trkpt lat="45.88215" lon="4.65599">
        <ele>321</ele>
        <time>2016-11-30T14:53:11Z</time>
      </trkpt>
      <trkpt lat="45.88212" lon="4.65611">
        <ele>321</ele>
        <time>2016-11-30T14:53:16Z</time>
      </trkpt>
      <trkpt lat="45.88212" lon="4.65613">
        <ele>321</ele>
        <time>2016-11-30T14:53:17Z</time>
      </trkpt>
      <trkpt lat="45.88208" lon="4.65623">
        <ele>321</ele>
        <time>2016-11-30T14:53:21Z</time>
      </trkpt>
      <trkpt lat="45.88208" lon="4.65625">
        <ele>321</ele>
        <time>2016-11-30T14:53:22Z</time>
      </trkpt>
      <trkpt lat="45.88204" lon="4.65636">
        <ele>321</ele>
        <time>2016-11-30T14:53:26Z</time>
      </trkpt>
      <trkpt lat="45.88203" lon="4.65638">
        <ele>321</ele>
        <time>2016-11-30T14:53:27Z</time>
      </trkpt>
      <trkpt lat="45.88198" lon="4.65646">
        <ele>321</ele>
        <time>2016-11-30T14:53:31Z</time>
      </trkpt>
      <trkpt lat="45.88197" lon="4.65648">
        <ele>322</ele>
        <time>2016-11-30T14:53:32Z</time>
      </trkpt>
      <trkpt lat="45.88193" lon="4.65657">
        <ele>322</ele>
        <time>2016-11-30T14:53:36Z</time>
      </trkpt>
      <trkpt lat="45.88192" lon="4.6566">
        <ele>322</ele>
        <time>2016-11-30T14:53:37Z</time>
      </trkpt>
      <trkpt lat="45.88189" lon="4.65669">
        <ele>322</ele>
        <time>2016-11-30T14:53:41Z</time>
      </trkpt>
      <trkpt lat="45.88188" lon="4.65671">
        <ele>322</ele>
        <time>2016-11-30T14:53:42Z</time>
      </trkpt>
      <trkpt lat="45.88182" lon="4.65681">
        <ele>322</ele>
        <time>2016-11-30T14:53:47Z</time>
      </trkpt>
      <trkpt lat="45.88181" lon="4.65683">
        <ele>322</ele>
        <time>2016-11-30T14:53:48Z</time>
      </trkpt>
      <trkpt lat="45.88177" lon="4.65694">
        <ele>322</ele>
        <time>2016-11-30T14:53:52Z</time>
      </trkpt>
      <trkpt lat="45.88176" lon="4.65696">
        <ele>322</ele>
        <time>2016-11-30T14:53:53Z</time>
      </trkpt>
      <trkpt lat="45.88171" lon="4.65703">
        <ele>322</ele>
        <time>2016-11-30T14:53:56Z</time>
      </trkpt>
      <trkpt lat="45.88169" lon="4.65705">
        <ele>322</ele>
        <time>2016-11-30T14:53:57Z</time>
      </trkpt>
      <trkpt lat="45.88164" lon="4.65714">
        <ele>331</ele>
        <time>2016-11-30T14:54:01Z</time>
      </trkpt>
      <trkpt lat="45.88163" lon="4.65716">
        <ele>331</ele>
        <time>2016-11-30T14:54:02Z</time>
      </trkpt>
      <trkpt lat="45.88157" lon="4.65725">
        <ele>330</ele>
        <time>2016-11-30T14:54:07Z</time>
      </trkpt>
      <trkpt lat="45.88156" lon="4.65728">
        <ele>330</ele>
        <time>2016-11-30T14:54:08Z</time>
      </trkpt>
      <trkpt lat="45.8815" lon="4.65736">
        <ele>330</ele>
        <time>2016-11-30T14:54:12Z</time>
      </trkpt>
      <trkpt lat="45.88149" lon="4.65738">
        <ele>330</ele>
        <time>2016-11-30T14:54:13Z</time>
      </trkpt>
      <trkpt lat="45.88143" lon="4.65743">
        <ele>331</ele>
        <time>2016-11-30T14:54:16Z</time>
      </trkpt>
      <trkpt lat="45.88141" lon="4.65746">
        <ele>331</ele>
        <time>2016-11-30T14:54:17Z</time>
      </trkpt>
      <trkpt lat="45.88135" lon="4.65753">
        <ele>331</ele>
        <time>2016-11-30T14:54:21Z</time>
      </trkpt>
      <trkpt lat="45.88134" lon="4.65755">
        <ele>332</ele>
        <time>2016-11-30T14:54:22Z</time>
      </trkpt>
      <trkpt lat="45.88128" lon="4.65761">
        <ele>332</ele>
        <time>2016-11-30T14:54:25Z</time>
      </trkpt>
      <trkpt lat="45.88126" lon="4.65763">
        <ele>333</ele>
        <time>2016-11-30T14:54:26Z</time>
      </trkpt>
      <trkpt lat="45.8812" lon="4.65769">
        <ele>333</ele>
        <time>2016-11-30T14:54:30Z</time>
      </trkpt>
      <trkpt lat="45.88118" lon="4.65771">
        <ele>334</ele>
        <time>2016-11-30T14:54:31Z</time>
      </trkpt>
      <trkpt lat="45.88111" lon="4.65777">
        <ele>334</ele>
        <time>2016-11-30T14:54:35Z</time>
      </trkpt>
      <trkpt lat="45.88109" lon="4.6578">
        <ele>334</ele>
        <time>2016-11-30T14:54:36Z</time>
      </trkpt>
      <trkpt lat="45.88103" lon="4.65786">
        <ele>334</ele>
        <time>2016-11-30T14:54:39Z</time>
      </trkpt>
      <trkpt lat="45.881" lon="4.65787">
        <ele>334</ele>
        <time>2016-11-30T14:54:40Z</time>
      </trkpt>
      <trkpt lat="45.88094" lon="4.65792">
        <ele>334</ele>
        <time>2016-11-30T14:54:43Z</time>
      </trkpt>
      <trkpt lat="45.88092" lon="4.65794">
        <ele>334</ele>
        <time>2016-11-30T14:54:44Z</time>
      </trkpt>
      <trkpt lat="45.88086" lon="4.65798">
        <ele>334</ele>
        <time>2016-11-30T14:54:47Z</time>
      </trkpt>
      <trkpt lat="45.88083" lon="4.658">
        <ele>341</ele>
        <time>2016-11-30T14:54:48Z</time>
      </trkpt>
      <trkpt lat="45.88076" lon="4.65806">
        <ele>341</ele>
        <time>2016-11-30T14:54:52Z</time>
      </trkpt>
      <trkpt lat="45.88074" lon="4.65807">
        <ele>341</ele>
        <time>2016-11-30T14:54:53Z</time>
      </trkpt>
      <trkpt lat="45.88066" lon="4.65813">
        <ele>341</ele>
        <time>2016-11-30T14:54:58Z</time>
      </trkpt>
      <trkpt lat="45.88065" lon="4.65813">
        <ele>341</ele>
        <time>2016-11-30T14:54:59Z</time>
      </trkpt>
      <trkpt lat="45.88057" lon="4.65817">
        <ele>341</ele>
        <time>2016-11-30T14:55:02Z</time>
      </trkpt>
      <trkpt lat="45.88055" lon="4.65818">
        <ele>342</ele>
        <time>2016-11-30T14:55:03Z</time>
      </trkpt>
      <trkpt lat="45.88049" lon="4.65821">
        <ele>342</ele>
        <time>2016-11-30T14:55:06Z</time>
      </trkpt>
      <trkpt lat="45.88047" lon="4.65822">
        <ele>342</ele>
        <time>2016-11-30T14:55:07Z</time>
      </trkpt>
      <trkpt lat="45.88041" lon="4.65827">
        <ele>343</ele>
        <time>2016-11-30T14:55:10Z</time>
      </trkpt>
      <trkpt lat="45.88038" lon="4.65828">
        <ele>343</ele>
        <time>2016-11-30T14:55:11Z</time>
      </trkpt>
      <trkpt lat="45.88032" lon="4.65832">
        <ele>343</ele>
        <time>2016-11-30T14:55:14Z</time>
      </trkpt>
      <trkpt lat="45.8803" lon="4.65834">
        <ele>339</ele>
        <time>2016-11-30T14:55:15Z</time>
      </trkpt>
      <trkpt lat="45.88023" lon="4.6584">
        <ele>339</ele>
        <time>2016-11-30T14:55:19Z</time>
      </trkpt>
      <trkpt lat="45.8802" lon="4.65842">
        <ele>340</ele>
        <time>2016-11-30T14:55:20Z</time>
      </trkpt>
      <trkpt lat="45.88013" lon="4.65848">
        <ele>340</ele>
        <time>2016-11-30T14:55:23Z</time>
      </trkpt>
      <trkpt lat="45.88011" lon="4.6585">
        <ele>340</ele>
        <time>2016-11-30T14:55:24Z</time>
      </trkpt>
      <trkpt lat="45.88003" lon="4.65854">
        <ele>340</ele>
        <time>2016-11-30T14:55:27Z</time>
      </trkpt>
      <trkpt lat="45.88001" lon="4.65856">
        <ele>340</ele>
        <time>2016-11-30T14:55:28Z</time>
      </trkpt>
      <trkpt lat="45.87995" lon="4.65861">
        <ele>344</ele>
        <time>2016-11-30T14:55:31Z</time>
      </trkpt>
      <trkpt lat="45.87993" lon="4.65863">
        <ele>344</ele>
        <time>2016-11-30T14:55:32Z</time>
      </trkpt>
      <trkpt lat="45.87985" lon="4.65868">
        <ele>344</ele>
        <time>2016-11-30T14:55:35Z</time>
      </trkpt>
      <trkpt lat="45.87983" lon="4.65872">
        <ele>343</ele>
        <time>2016-11-30T14:55:36Z</time>
      </trkpt>
      <trkpt lat="45.87978" lon="4.65879">
        <ele>343</ele>
        <time>2016-11-30T14:55:38Z</time>
      </trkpt>
      <trkpt lat="45.87976" lon="4.65882">
        <ele>343</ele>
        <time>2016-11-30T14:55:39Z</time>
      </trkpt>
      <trkpt lat="45.87971" lon="4.65891">
        <ele>343</ele>
        <time>2016-11-30T14:55:42Z</time>
      </trkpt>
      <trkpt lat="45.87969" lon="4.65895">
        <ele>343</ele>
        <time>2016-11-30T14:55:43Z</time>
      </trkpt>
      <trkpt lat="45.87963" lon="4.65904">
        <ele>343</ele>
        <time>2016-11-30T14:55:46Z</time>
      </trkpt>
      <trkpt lat="45.87961" lon="4.65905">
        <ele>343</ele>
        <time>2016-11-30T14:55:47Z</time>
      </trkpt>
      <trkpt lat="45.87955" lon="4.65912">
        <ele>343</ele>
        <time>2016-11-30T14:55:50Z</time>
      </trkpt>
      <trkpt lat="45.87953" lon="4.65914">
        <ele>343</ele>
        <time>2016-11-30T14:55:51Z</time>
      </trkpt>
      <trkpt lat="45.87948" lon="4.65923">
        <ele>341</ele>
        <time>2016-11-30T14:55:54Z</time>
      </trkpt>
      <trkpt lat="45.87946" lon="4.65926">
        <ele>341</ele>
        <time>2016-11-30T14:55:55Z</time>
      </trkpt>
      <trkpt lat="45.87941" lon="4.65935">
        <ele>341</ele>
        <time>2016-11-30T14:55:58Z</time>
      </trkpt>
      <trkpt lat="45.8794" lon="4.65937">
        <ele>341</ele>
        <time>2016-11-30T14:55:59Z</time>
      </trkpt>
      <trkpt lat="45.87938" lon="4.65947">
        <ele>341</ele>
        <time>2016-11-30T14:56:02Z</time>
      </trkpt>
      <trkpt lat="45.87937" lon="4.6595">
        <ele>341</ele>
        <time>2016-11-30T14:56:03Z</time>
      </trkpt>
      <trkpt lat="45.87934" lon="4.65961">
        <ele>341</ele>
        <time>2016-11-30T14:56:06Z</time>
      </trkpt>
      <trkpt lat="45.87933" lon="4.65966">
        <ele>341</ele>
        <time>2016-11-30T14:56:07Z</time>
      </trkpt>
      <trkpt lat="45.87932" lon="4.65974">
        <ele>341</ele>
        <time>2016-11-30T14:56:09Z</time>
      </trkpt>
      <trkpt lat="45.87932" lon="4.65979">
        <ele>341</ele>
        <time>2016-11-30T14:56:10Z</time>
      </trkpt>
      <trkpt lat="45.8793" lon="4.6599">
        <ele>341</ele>
        <time>2016-11-30T14:56:13Z</time>
      </trkpt>
      <trkpt lat="45.8793" lon="4.65994">
        <ele>342</ele>
        <time>2016-11-30T14:56:14Z</time>
      </trkpt>
      <trkpt lat="45.87928" lon="4.66004">
        <ele>342</ele>
        <time>2016-11-30T14:56:17Z</time>
      </trkpt>
      <trkpt lat="45.87928" lon="4.66008">
        <ele>342</ele>
        <time>2016-11-30T14:56:18Z</time>
      </trkpt>
      <trkpt lat="45.87929" lon="4.6602">
        <ele>342</ele>
        <time>2016-11-30T14:56:21Z</time>
      </trkpt>
      <trkpt lat="45.8793" lon="4.66024">
        <ele>342</ele>
        <time>2016-11-30T14:56:22Z</time>
      </trkpt>
      <trkpt lat="45.87929" lon="4.66037">
        <ele>342</ele>
        <time>2016-11-30T14:56:25Z</time>
      </trkpt>
      <trkpt lat="45.87929" lon="4.66041">
        <ele>342</ele>
        <time>2016-11-30T14:56:26Z</time>
      </trkpt>
      <trkpt lat="45.87929" lon="4.66051">
        <ele>342</ele>
        <time>2016-11-30T14:56:29Z</time>
      </trkpt>
      <trkpt lat="45.87928" lon="4.66054">
        <ele>342</ele>
        <time>2016-11-30T14:56:30Z</time>
      </trkpt>
      <trkpt lat="45.87928" lon="4.66066">
        <ele>343</ele>
        <time>2016-11-30T14:56:34Z</time>
      </trkpt>
      <trkpt lat="45.87928" lon="4.66068">
        <ele>343</ele>
        <time>2016-11-30T14:56:35Z</time>
      </trkpt>
      <trkpt lat="45.87927" lon="4.66078">
        <ele>343</ele>
        <time>2016-11-30T14:56:39Z</time>
      </trkpt>
      <trkpt lat="45.87927" lon="4.66081">
        <ele>343</ele>
        <time>2016-11-30T14:56:40Z</time>
      </trkpt>
      <trkpt lat="45.87928" lon="4.66093">
        <ele>346</ele>
        <time>2016-11-30T14:56:44Z</time>
      </trkpt>
      <trkpt lat="45.87928" lon="4.66097">
        <ele>346</ele>
        <time>2016-11-30T14:56:45Z</time>
      </trkpt>
      <trkpt lat="45.87928" lon="4.66108">
        <ele>347</ele>
        <time>2016-11-30T14:56:49Z</time>
      </trkpt>
      <trkpt lat="45.87929" lon="4.66111">
        <ele>347</ele>
        <time>2016-11-30T14:56:50Z</time>
      </trkpt>
      <trkpt lat="45.87929" lon="4.66123">
        <ele>348</ele>
        <time>2016-11-30T14:56:54Z</time>
      </trkpt>
      <trkpt lat="45.87931" lon="4.66126">
        <ele>348</ele>
        <time>2016-11-30T14:56:55Z</time>
      </trkpt>
      <trkpt lat="45.87936" lon="4.66136">
        <ele>349</ele>
        <time>2016-11-30T14:56:59Z</time>
      </trkpt>
      <trkpt lat="45.87938" lon="4.66138">
        <ele>349</ele>
        <time>2016-11-30T14:57:00Z</time>
      </trkpt>
      <trkpt lat="45.87944" lon="4.66145">
        <ele>349</ele>
        <time>2016-11-30T14:57:03Z</time>
      </trkpt>
      <trkpt lat="45.87946" lon="4.66147">
        <ele>349</ele>
        <time>2016-11-30T14:57:04Z</time>
      </trkpt>
      <trkpt lat="45.87951" lon="4.66154">
        <ele>349</ele>
        <time>2016-11-30T14:57:07Z</time>
      </trkpt>
      <trkpt lat="45.87953" lon="4.66156">
        <ele>349</ele>
        <time>2016-11-30T14:57:08Z</time>
      </trkpt>
      <trkpt lat="45.87959" lon="4.6616">
        <ele>349</ele>
        <time>2016-11-30T14:57:10Z</time>
      </trkpt>
      <trkpt lat="45.87962" lon="4.66161">
        <ele>349</ele>
        <time>2016-11-30T14:57:11Z</time>
      </trkpt>
      <trkpt lat="45.8797" lon="4.66161">
        <ele>349</ele>
        <time>2016-11-30T14:57:14Z</time>
      </trkpt>
      <trkpt lat="45.87973" lon="4.66161">
        <ele>349</ele>
        <time>2016-11-30T14:57:15Z</time>
      </trkpt>
      <trkpt lat="45.87981" lon="4.66161">
        <ele>349</ele>
        <time>2016-11-30T14:57:18Z</time>
      </trkpt>
      <trkpt lat="45.87983" lon="4.66161">
        <ele>349</ele>
        <time>2016-11-30T14:57:19Z</time>
      </trkpt>
      <trkpt lat="45.87992" lon="4.66162">
        <ele>350</ele>
        <time>2016-11-30T14:57:22Z</time>
      </trkpt>
      <trkpt lat="45.87995" lon="4.66162">
        <ele>350</ele>
        <time>2016-11-30T14:57:23Z</time>
      </trkpt>
      <trkpt lat="45.88001" lon="4.66161">
        <ele>350</ele>
        <time>2016-11-30T14:57:25Z</time>
      </trkpt>
      <trkpt lat="45.88005" lon="4.6616">
        <ele>350</ele>
        <time>2016-11-30T14:57:26Z</time>
      </trkpt>
      <trkpt lat="45.88011" lon="4.66158">
        <ele>349</ele>
        <time>2016-11-30T14:57:28Z</time>
      </trkpt>
      <trkpt lat="45.88014" lon="4.66158">
        <ele>349</ele>
        <time>2016-11-30T14:57:29Z</time>
      </trkpt>
      <trkpt lat="45.88022" lon="4.66158">
        <ele>349</ele>
        <time>2016-11-30T14:57:32Z</time>
      </trkpt>
      <trkpt lat="45.88026" lon="4.66158">
        <ele>348</ele>
        <time>2016-11-30T14:57:33Z</time>
      </trkpt>
      <trkpt lat="45.88033" lon="4.66157">
        <ele>348</ele>
        <time>2016-11-30T14:57:35Z</time>
      </trkpt>
      <trkpt lat="45.88036" lon="4.66157">
        <ele>348</ele>
        <time>2016-11-30T14:57:36Z</time>
      </trkpt>
      <trkpt lat="45.88044" lon="4.66154">
        <ele>348</ele>
        <time>2016-11-30T14:57:38Z</time>
      </trkpt>
      <trkpt lat="45.88048" lon="4.66153">
        <ele>348</ele>
        <time>2016-11-30T14:57:39Z</time>
      </trkpt>
      <trkpt lat="45.88057" lon="4.66151">
        <ele>348</ele>
        <time>2016-11-30T14:57:41Z</time>
      </trkpt>
      <trkpt lat="45.88061" lon="4.6615">
        <ele>349</ele>
        <time>2016-11-30T14:57:42Z</time>
      </trkpt>
      <trkpt lat="45.88067" lon="4.6615">
        <ele>349</ele>
        <time>2016-11-30T14:57:44Z</time>
      </trkpt>
      <trkpt lat="45.8807" lon="4.6615">
        <ele>349</ele>
        <time>2016-11-30T14:57:45Z</time>
      </trkpt>
      <trkpt lat="45.88077" lon="4.66148">
        <ele>349</ele>
        <time>2016-11-30T14:57:47Z</time>
      </trkpt>
      <trkpt lat="45.8808" lon="4.66147">
        <ele>349</ele>
        <time>2016-11-30T14:57:48Z</time>
      </trkpt>
      <trkpt lat="45.88087" lon="4.66146">
        <ele>350</ele>
        <time>2016-11-30T14:57:50Z</time>
      </trkpt>
      <trkpt lat="45.8809" lon="4.66145">
        <ele>350</ele>
        <time>2016-11-30T14:57:51Z</time>
      </trkpt>
      <trkpt lat="45.88097" lon="4.66144">
        <ele>349</ele>
        <time>2016-11-30T14:57:53Z</time>
      </trkpt>
      <trkpt lat="45.88101" lon="4.66143">
        <ele>349</ele>
        <time>2016-11-30T14:57:54Z</time>
      </trkpt>
      <trkpt lat="45.88108" lon="4.66143">
        <ele>349</ele>
        <time>2016-11-30T14:57:56Z</time>
      </trkpt>
      <trkpt lat="45.88112" lon="4.66142">
        <ele>349</ele>
        <time>2016-11-30T14:57:57Z</time>
      </trkpt>
      <trkpt lat="45.88119" lon="4.66141">
        <ele>349</ele>
        <time>2016-11-30T14:57:59Z</time>
      </trkpt>
      <trkpt lat="45.88123" lon="4.66141">
        <ele>349</ele>
        <time>2016-11-30T14:58:00Z</time>
      </trkpt>
      <trkpt lat="45.8813" lon="4.66141">
        <ele>349</ele>
        <time>2016-11-30T14:58:02Z</time>
      </trkpt>
      <trkpt lat="45.88135" lon="4.66141">
        <ele>349</ele>
        <time>2016-11-30T14:58:03Z</time>
      </trkpt>
      <trkpt lat="45.88142" lon="4.66141">
        <ele>350</ele>
        <time>2016-11-30T14:58:05Z</time>
      </trkpt>
      <trkpt lat="45.88145" lon="4.66141">
        <ele>350</ele>
        <time>2016-11-30T14:58:06Z</time>
      </trkpt>
      <trkpt lat="45.88151" lon="4.6614">
        <ele>350</ele>
        <time>2016-11-30T14:58:08Z</time>
      </trkpt>
      <trkpt lat="45.88155" lon="4.6614">
        <ele>350</ele>
        <time>2016-11-30T14:58:09Z</time>
      </trkpt>
      <trkpt lat="45.88162" lon="4.66142">
        <ele>350</ele>
        <time>2016-11-30T14:58:11Z</time>
      </trkpt>
      <trkpt lat="45.88166" lon="4.66143">
        <ele>351</ele>
        <time>2016-11-30T14:58:12Z</time>
      </trkpt>
      <trkpt lat="45.88172" lon="4.66143">
        <ele>351</ele>
        <time>2016-11-30T14:58:14Z</time>
      </trkpt>
      <trkpt lat="45.88175" lon="4.66143">
        <ele>351</ele>
        <time>2016-11-30T14:58:15Z</time>
      </trkpt>
      <trkpt lat="45.88182" lon="4.66142">
        <ele>351</ele>
        <time>2016-11-30T14:58:17Z</time>
      </trkpt>
      <trkpt lat="45.88185" lon="4.66142">
        <ele>351</ele>
        <time>2016-11-30T14:58:18Z</time>
      </trkpt>
      <trkpt lat="45.88193" lon="4.66141">
        <ele>350</ele>
        <time>2016-11-30T14:58:20Z</time>
      </trkpt>
      <trkpt lat="45.88195" lon="4.66141">
        <ele>350</ele>
        <time>2016-11-30T14:58:21Z</time>
      </trkpt>
      <trkpt lat="45.88202" lon="4.66142">
        <ele>350</ele>
        <time>2016-11-30T14:58:23Z</time>
      </trkpt>
      <trkpt lat="45.88207" lon="4.66141">
        <ele>350</ele>
        <time>2016-11-30T14:58:24Z</time>
      </trkpt>
      <trkpt lat="45.88214" lon="4.6614">
        <ele>350</ele>
        <time>2016-11-30T14:58:26Z</time>
      </trkpt>
      <trkpt lat="45.88218" lon="4.6614">
        <ele>350</ele>
        <time>2016-11-30T14:58:27Z</time>
      </trkpt>
      <trkpt lat="45.88224" lon="4.66141">
        <ele>350</ele>
        <time>2016-11-30T14:58:29Z</time>
      </trkpt>
      <trkpt lat="45.88227" lon="4.66141">
        <ele>351</ele>
        <time>2016-11-30T14:58:30Z</time>
      </trkpt>
      <trkpt lat="45.88234" lon="4.66141">
        <ele>351</ele>
        <time>2016-11-30T14:58:32Z</time>
      </trkpt>
      <trkpt lat="45.88237" lon="4.66141">
        <ele>351</ele>
        <time>2016-11-30T14:58:33Z</time>
      </trkpt>
      <trkpt lat="45.88243" lon="4.66141">
        <ele>351</ele>
        <time>2016-11-30T14:58:35Z</time>
      </trkpt>
      <trkpt lat="45.88246" lon="4.66141">
        <ele>351</ele>
        <time>2016-11-30T14:58:36Z</time>
      </trkpt>
      <trkpt lat="45.88252" lon="4.66143">
        <ele>352</ele>
        <time>2016-11-30T14:58:38Z</time>
      </trkpt>
      <trkpt lat="45.88255" lon="4.66144">
        <ele>353</ele>
        <time>2016-11-30T14:58:39Z</time>
      </trkpt>
      <trkpt lat="45.88261" lon="4.66145">
        <ele>353</ele>
        <time>2016-11-30T14:58:41Z</time>
      </trkpt>
      <trkpt lat="45.88264" lon="4.66145">
        <ele>353</ele>
        <time>2016-11-30T14:58:42Z</time>
      </trkpt>
      <trkpt lat="45.8827" lon="4.66144">
        <ele>352</ele>
        <time>2016-11-30T14:58:44Z</time>
      </trkpt>
      <trkpt lat="45.88274" lon="4.66144">
        <ele>352</ele>
        <time>2016-11-30T14:58:45Z</time>
      </trkpt>
      <trkpt lat="45.88282" lon="4.66145">
        <ele>353</ele>
        <time>2016-11-30T14:58:48Z</time>
      </trkpt>
      <trkpt lat="45.88284" lon="4.66145">
        <ele>353</ele>
        <time>2016-11-30T14:58:49Z</time>
      </trkpt>
      <trkpt lat="45.88292" lon="4.66146">
        <ele>353</ele>
        <time>2016-11-30T14:58:52Z</time>
      </trkpt>
      <trkpt lat="45.88295" lon="4.66146">
        <ele>353</ele>
        <time>2016-11-30T14:58:53Z</time>
      </trkpt>
      <trkpt lat="45.88303" lon="4.66146">
        <ele>353</ele>
        <time>2016-11-30T14:58:56Z</time>
      </trkpt>
      <trkpt lat="45.88306" lon="4.66146">
        <ele>354</ele>
        <time>2016-11-30T14:58:57Z</time>
      </trkpt>
      <trkpt lat="45.88312" lon="4.66146">
        <ele>354</ele>
        <time>2016-11-30T14:58:59Z</time>
      </trkpt>
      <trkpt lat="45.88315" lon="4.66147">
        <ele>354</ele>
        <time>2016-11-30T14:59:00Z</time>
      </trkpt>
      <trkpt lat="45.88321" lon="4.66147">
        <ele>355</ele>
        <time>2016-11-30T14:59:02Z</time>
      </trkpt>
      <trkpt lat="45.88325" lon="4.66147">
        <ele>355</ele>
        <time>2016-11-30T14:59:03Z</time>
      </trkpt>
      <trkpt lat="45.88333" lon="4.66148">
        <ele>356</ele>
        <time>2016-11-30T14:59:06Z</time>
      </trkpt>
      <trkpt lat="45.88336" lon="4.6615">
        <ele>358</ele>
        <time>2016-11-30T14:59:07Z</time>
      </trkpt>
      <trkpt lat="45.88344" lon="4.66151">
        <ele>358</ele>
        <time>2016-11-30T14:59:10Z</time>
      </trkpt>
      <trkpt lat="45.88346" lon="4.66151">
        <ele>358</ele>
        <time>2016-11-30T14:59:11Z</time>
      </trkpt>
      <trkpt lat="45.88354" lon="4.66151">
        <ele>357</ele>
        <time>2016-11-30T14:59:14Z</time>
      </trkpt>
      <trkpt lat="45.88357" lon="4.66151">
        <ele>357</ele>
        <time>2016-11-30T14:59:15Z</time>
      </trkpt>
      <trkpt lat="45.88364" lon="4.66151">
        <ele>357</ele>
        <time>2016-11-30T14:59:18Z</time>
      </trkpt>
      <trkpt lat="45.88366" lon="4.66151">
        <ele>357</ele>
        <time>2016-11-30T14:59:19Z</time>
      </trkpt>
      <trkpt lat="45.88373" lon="4.66152">
        <ele>357</ele>
        <time>2016-11-30T14:59:22Z</time>
      </trkpt>
      <trkpt lat="45.88376" lon="4.66151">
        <ele>358</ele>
        <time>2016-11-30T14:59:23Z</time>
      </trkpt>
      <trkpt lat="45.88384" lon="4.6615">
        <ele>358</ele>
        <time>2016-11-30T14:59:26Z</time>
      </trkpt>
      <trkpt lat="45.88388" lon="4.6615">
        <ele>358</ele>
        <time>2016-11-30T14:59:27Z</time>
      </trkpt>
      <trkpt lat="45.88395" lon="4.6615">
        <ele>358</ele>
        <time>2016-11-30T14:59:30Z</time>
      </trkpt>
      <trkpt lat="45.88397" lon="4.6615">
        <ele>359</ele>
        <time>2016-11-30T14:59:31Z</time>
      </trkpt>
      <trkpt lat="45.88405" lon="4.66152">
        <ele>360</ele>
        <time>2016-11-30T14:59:35Z</time>
      </trkpt>
      <trkpt lat="45.88407" lon="4.66153">
        <ele>360</ele>
        <time>2016-11-30T14:59:36Z</time>
      </trkpt>
      <trkpt lat="45.88414" lon="4.66155">
        <ele>361</ele>
        <time>2016-11-30T14:59:40Z</time>
      </trkpt>
      <trkpt lat="45.88417" lon="4.66155">
        <ele>361</ele>
        <time>2016-11-30T14:59:41Z</time>
      </trkpt>
      <trkpt lat="45.88424" lon="4.66156">
        <ele>362</ele>
        <time>2016-11-30T14:59:45Z</time>
      </trkpt>
      <trkpt lat="45.88426" lon="4.66156">
        <ele>362</ele>
        <time>2016-11-30T14:59:46Z</time>
      </trkpt>
      <trkpt lat="45.88435" lon="4.66158">
        <ele>362</ele>
        <time>2016-11-30T14:59:51Z</time>
      </trkpt>
      <trkpt lat="45.88437" lon="4.66159">
        <ele>362</ele>
        <time>2016-11-30T14:59:52Z</time>
      </trkpt>
      <trkpt lat="45.88446" lon="4.66159">
        <ele>362</ele>
        <time>2016-11-30T14:59:56Z</time>
      </trkpt>
      <trkpt lat="45.88447" lon="4.66159">
        <ele>362</ele>
        <time>2016-11-30T14:59:57Z</time>
      </trkpt>
      <trkpt lat="45.88455" lon="4.66158">
        <ele>362</ele>
        <time>2016-11-30T15:00:00Z</time>
      </trkpt>
      <trkpt lat="45.88457" lon="4.66158">
        <ele>362</ele>
        <time>2016-11-30T15:00:01Z</time>
      </trkpt>
      <trkpt lat="45.88464" lon="4.66158">
        <ele>362</ele>
        <time>2016-11-30T15:00:04Z</time>
      </trkpt>
      <trkpt lat="45.88466" lon="4.66158">
        <ele>362</ele>
        <time>2016-11-30T15:00:05Z</time>
      </trkpt>
      <trkpt lat="45.88472" lon="4.66158">
        <ele>362</ele>
        <time>2016-11-30T15:00:08Z</time>
      </trkpt>
      <trkpt lat="45.88475" lon="4.66162">
        <ele>363</ele>
        <time>2016-11-30T15:00:09Z</time>
      </trkpt>
      <trkpt lat="45.88483" lon="4.6616">
        <ele>363</ele>
        <time>2016-11-30T15:00:15Z</time>
      </trkpt>
      <trkpt lat="45.88485" lon="4.66161">
        <ele>364</ele>
        <time>2016-11-30T15:00:16Z</time>
      </trkpt>
      <trkpt lat="45.88493" lon="4.66165">
        <ele>365</ele>
        <time>2016-11-30T15:00:20Z</time>
      </trkpt>
      <trkpt lat="45.88499" lon="4.66164">
        <ele>366</ele>
        <time>2016-11-30T15:00:21Z</time>
      </trkpt>
      <trkpt lat="45.88507" lon="4.66168">
        <ele>368</ele>
        <time>2016-11-30T15:00:25Z</time>
      </trkpt>
      <trkpt lat="45.88508" lon="4.66169">
        <ele>368</ele>
        <time>2016-11-30T15:00:26Z</time>
      </trkpt>
      <trkpt lat="45.88516" lon="4.66174">
        <ele>368</ele>
        <time>2016-11-30T15:00:31Z</time>
      </trkpt>
      <trkpt lat="45.88518" lon="4.66175">
        <ele>369</ele>
        <time>2016-11-30T15:00:32Z</time>
      </trkpt>
      <trkpt lat="45.88524" lon="4.66181">
        <ele>369</ele>
        <time>2016-11-30T15:00:36Z</time>
      </trkpt>
      <trkpt lat="45.88527" lon="4.66181">
        <ele>369</ele>
        <time>2016-11-30T15:00:37Z</time>
      </trkpt>
      <trkpt lat="45.88531" lon="4.6619">
        <ele>369</ele>
        <time>2016-11-30T15:00:40Z</time>
      </trkpt>
      <trkpt lat="45.88533" lon="4.66193">
        <ele>369</ele>
        <time>2016-11-30T15:00:41Z</time>
      </trkpt>
      <trkpt lat="45.88537" lon="4.66203">
        <ele>370</ele>
        <time>2016-11-30T15:00:45Z</time>
      </trkpt>
      <trkpt lat="45.8854" lon="4.66203">
        <ele>370</ele>
        <time>2016-11-30T15:00:46Z</time>
      </trkpt>
      <trkpt lat="45.88546" lon="4.66206">
        <ele>370</ele>
        <time>2016-11-30T15:00:49Z</time>
      </trkpt>
      <trkpt lat="45.88548" lon="4.66208">
        <ele>370</ele>
        <time>2016-11-30T15:00:50Z</time>
      </trkpt>
      <trkpt lat="45.88555" lon="4.66215">
        <ele>370</ele>
        <time>2016-11-30T15:00:54Z</time>
      </trkpt>
      <trkpt lat="45.88556" lon="4.66216">
        <ele>370</ele>
        <time>2016-11-30T15:00:55Z</time>
      </trkpt>
      <trkpt lat="45.88563" lon="4.66221">
        <ele>370</ele>
        <time>2016-11-30T15:00:59Z</time>
      </trkpt>
      <trkpt lat="45.88565" lon="4.66222">
        <ele>370</ele>
        <time>2016-11-30T15:01:00Z</time>
      </trkpt>
      <trkpt lat="45.88572" lon="4.66227">
        <ele>370</ele>
        <time>2016-11-30T15:01:04Z</time>
      </trkpt>
      <trkpt lat="45.88575" lon="4.66229">
        <ele>370</ele>
        <time>2016-11-30T15:01:05Z</time>
      </trkpt>
      <trkpt lat="45.88582" lon="4.66235">
        <ele>370</ele>
        <time>2016-11-30T15:01:08Z</time>
      </trkpt>
      <trkpt lat="45.88583" lon="4.66238">
        <ele>371</ele>
        <time>2016-11-30T15:01:09Z</time>
      </trkpt>
      <trkpt lat="45.88587" lon="4.66249">
        <ele>370</ele>
        <time>2016-11-30T15:01:13Z</time>
      </trkpt>
      <trkpt lat="45.88588" lon="4.66252">
        <ele>371</ele>
        <time>2016-11-30T15:01:14Z</time>
      </trkpt>
      <trkpt lat="45.88592" lon="4.6626">
        <ele>371</ele>
        <time>2016-11-30T15:01:17Z</time>
      </trkpt>
      <trkpt lat="45.88594" lon="4.66263">
        <ele>372</ele>
        <time>2016-11-30T15:01:18Z</time>
      </trkpt>
      <trkpt lat="45.88598" lon="4.66271">
        <ele>372</ele>
        <time>2016-11-30T15:01:21Z</time>
      </trkpt>
      <trkpt lat="45.88599" lon="4.66274">
        <ele>372</ele>
        <time>2016-11-30T15:01:22Z</time>
      </trkpt>
      <trkpt lat="45.88604" lon="4.66281">
        <ele>372</ele>
        <time>2016-11-30T15:01:25Z</time>
      </trkpt>
      <trkpt lat="45.88606" lon="4.66284">
        <ele>372</ele>
        <time>2016-11-30T15:01:26Z</time>
      </trkpt>
      <trkpt lat="45.8861" lon="4.66293">
        <ele>373</ele>
        <time>2016-11-30T15:01:29Z</time>
      </trkpt>
      <trkpt lat="45.88612" lon="4.66296">
        <ele>373</ele>
        <time>2016-11-30T15:01:30Z</time>
      </trkpt>
      <trkpt lat="45.88616" lon="4.66306">
        <ele>373</ele>
        <time>2016-11-30T15:01:33Z</time>
      </trkpt>
      <trkpt lat="45.88617" lon="4.66308">
        <ele>374</ele>
        <time>2016-11-30T15:01:34Z</time>
      </trkpt>
      <trkpt lat="45.88622" lon="4.66319">
        <ele>374</ele>
        <time>2016-11-30T15:01:38Z</time>
      </trkpt>
      <trkpt lat="45.88623" lon="4.66322">
        <ele>374</ele>
        <time>2016-11-30T15:01:39Z</time>
      </trkpt>
      <trkpt lat="45.88627" lon="4.66329">
        <ele>374</ele>
        <time>2016-11-30T15:01:41Z</time>
      </trkpt>
      <trkpt lat="45.88629" lon="4.66333">
        <ele>374</ele>
        <time>2016-11-30T15:01:42Z</time>
      </trkpt>
      <trkpt lat="45.88635" lon="4.66341">
        <ele>379</ele>
        <time>2016-11-30T15:01:45Z</time>
      </trkpt>
      <trkpt lat="45.88637" lon="4.66344">
        <ele>379</ele>
        <time>2016-11-30T15:01:46Z</time>
      </trkpt>
      <trkpt lat="45.88642" lon="4.66354">
        <ele>380</ele>
        <time>2016-11-30T15:01:50Z</time>
      </trkpt>
      <trkpt lat="45.88643" lon="4.66356">
        <ele>380</ele>
        <time>2016-11-30T15:01:51Z</time>
      </trkpt>
      <trkpt lat="45.8865" lon="4.66364">
        <ele>380</ele>
        <time>2016-11-30T15:01:55Z</time>
      </trkpt>
      <trkpt lat="45.88652" lon="4.66366">
        <ele>380</ele>
        <time>2016-11-30T15:01:56Z</time>
      </trkpt>
      <trkpt lat="45.88656" lon="4.66373">
        <ele>381</ele>
        <time>2016-11-30T15:01:59Z</time>
      </trkpt>
      <trkpt lat="45.88658" lon="4.66376">
        <ele>381</ele>
        <time>2016-11-30T15:02:00Z</time>
      </trkpt>
      <trkpt lat="45.88662" lon="4.66384">
        <ele>381</ele>
        <time>2016-11-30T15:02:03Z</time>
      </trkpt>
      <trkpt lat="45.88665" lon="4.66386">
        <ele>381</ele>
        <time>2016-11-30T15:02:04Z</time>
      </trkpt>
      <trkpt lat="45.88672" lon="4.66392">
        <ele>378</ele>
        <time>2016-11-30T15:02:08Z</time>
      </trkpt>
      <trkpt lat="45.88674" lon="4.66394">
        <ele>378</ele>
        <time>2016-11-30T15:02:09Z</time>
      </trkpt>
      <trkpt lat="45.88681" lon="4.664">
        <ele>379</ele>
        <time>2016-11-30T15:02:13Z</time>
      </trkpt>
      <trkpt lat="45.88682" lon="4.66402">
        <ele>379</ele>
        <time>2016-11-30T15:02:14Z</time>
      </trkpt>
      <trkpt lat="45.88689" lon="4.6641">
        <ele>379</ele>
        <time>2016-11-30T15:02:18Z</time>
      </trkpt>
      <trkpt lat="45.88691" lon="4.66413">
        <ele>379</ele>
        <time>2016-11-30T15:02:19Z</time>
      </trkpt>
      <trkpt lat="45.88699" lon="4.66418">
        <ele>383</ele>
        <time>2016-11-30T15:02:23Z</time>
      </trkpt>
      <trkpt lat="45.88701" lon="4.6642">
        <ele>383</ele>
        <time>2016-11-30T15:02:24Z</time>
      </trkpt>
      <trkpt lat="45.88709" lon="4.66425">
        <ele>383</ele>
        <time>2016-11-30T15:02:28Z</time>
      </trkpt>
      <trkpt lat="45.88711" lon="4.66426">
        <ele>383</ele>
        <time>2016-11-30T15:02:29Z</time>
      </trkpt>
      <trkpt lat="45.88717" lon="4.66434">
        <ele>383</ele>
        <time>2016-11-30T15:02:33Z</time>
      </trkpt>
      <trkpt lat="45.88719" lon="4.66436">
        <ele>383</ele>
        <time>2016-11-30T15:02:34Z</time>
      </trkpt>
      <trkpt lat="45.88724" lon="4.66444">
        <ele>383</ele>
        <time>2016-11-30T15:02:37Z</time>
      </trkpt>
      <trkpt lat="45.88727" lon="4.66446">
        <ele>383</ele>
        <time>2016-11-30T15:02:38Z</time>
      </trkpt>
      <trkpt lat="45.88733" lon="4.66454">
        <ele>384</ele>
        <time>2016-11-30T15:02:42Z</time>
      </trkpt>
      <trkpt lat="45.88735" lon="4.66456">
        <ele>384</ele>
        <time>2016-11-30T15:02:43Z</time>
      </trkpt>
      <trkpt lat="45.88742" lon="4.66463">
        <ele>384</ele>
        <time>2016-11-30T15:02:47Z</time>
      </trkpt>
      <trkpt lat="45.88743" lon="4.66465">
        <ele>384</ele>
        <time>2016-11-30T15:02:48Z</time>
      </trkpt>
      <trkpt lat="45.88749" lon="4.6647">
        <ele>385</ele>
        <time>2016-11-30T15:02:51Z</time>
      </trkpt>
      <trkpt lat="45.88751" lon="4.66472">
        <ele>383</ele>
        <time>2016-11-30T15:02:52Z</time>
      </trkpt>
      <trkpt lat="45.88757" lon="4.66481">
        <ele>384</ele>
        <time>2016-11-30T15:02:56Z</time>
      </trkpt>
      <trkpt lat="45.88759" lon="4.66483">
        <ele>384</ele>
        <time>2016-11-30T15:02:57Z</time>
      </trkpt>
      <trkpt lat="45.88765" lon="4.66491">
        <ele>384</ele>
        <time>2016-11-30T15:03:01Z</time>
      </trkpt>
      <trkpt lat="45.88766" lon="4.66492">
        <ele>384</ele>
        <time>2016-11-30T15:03:02Z</time>
      </trkpt>
      <trkpt lat="45.88773" lon="4.665">
        <ele>384</ele>
        <time>2016-11-30T15:03:07Z</time>
      </trkpt>
      <trkpt lat="45.88775" lon="4.66501">
        <ele>389</ele>
        <time>2016-11-30T15:03:08Z</time>
      </trkpt>
      <trkpt lat="45.88781" lon="4.6651">
        <ele>390</ele>
        <time>2016-11-30T15:03:12Z</time>
      </trkpt>
      <trkpt lat="45.88782" lon="4.66512">
        <ele>390</ele>
        <time>2016-11-30T15:03:13Z</time>
      </trkpt>
      <trkpt lat="45.88788" lon="4.6652">
        <ele>390</ele>
        <time>2016-11-30T15:03:18Z</time>
      </trkpt>
      <trkpt lat="45.88789" lon="4.66521">
        <ele>390</ele>
        <time>2016-11-30T15:03:19Z</time>
      </trkpt>
      <trkpt lat="45.88795" lon="4.66528">
        <ele>391</ele>
        <time>2016-11-30T15:03:23Z</time>
      </trkpt>
      <trkpt lat="45.88797" lon="4.66528">
        <ele>391</ele>
        <time>2016-11-30T15:03:24Z</time>
      </trkpt>
      <trkpt lat="45.88803" lon="4.66534">
        <ele>391</ele>
        <time>2016-11-30T15:03:28Z</time>
      </trkpt>
      <trkpt lat="45.88805" lon="4.66536">
        <ele>391</ele>
        <time>2016-11-30T15:03:29Z</time>
      </trkpt>
      <trkpt lat="45.88813" lon="4.66542">
        <ele>391</ele>
        <time>2016-11-30T15:03:34Z</time>
      </trkpt>
      <trkpt lat="45.88815" lon="4.66543">
        <ele>391</ele>
        <time>2016-11-30T15:03:35Z</time>
      </trkpt>
      <trkpt lat="45.88821" lon="4.66548">
        <ele>392</ele>
        <time>2016-11-30T15:03:39Z</time>
      </trkpt>
      <trkpt lat="45.88823" lon="4.66549">
        <ele>392</ele>
        <time>2016-11-30T15:03:40Z</time>
      </trkpt>
      <trkpt lat="45.8883" lon="4.66555">
        <ele>393</ele>
        <time>2016-11-30T15:03:45Z</time>
      </trkpt>
      <trkpt lat="45.88831" lon="4.66557">
        <ele>393</ele>
        <time>2016-11-30T15:03:46Z</time>
      </trkpt>
      <trkpt lat="45.88837" lon="4.66562">
        <ele>392</ele>
        <time>2016-11-30T15:03:51Z</time>
      </trkpt>
      <trkpt lat="45.88839" lon="4.66565">
        <ele>392</ele>
        <time>2016-11-30T15:03:52Z</time>
      </trkpt>
      <trkpt lat="45.88846" lon="4.6657">
        <ele>393</ele>
        <time>2016-11-30T15:03:57Z</time>
      </trkpt>
      <trkpt lat="45.88848" lon="4.66572">
        <ele>393</ele>
        <time>2016-11-30T15:03:58Z</time>
      </trkpt>
      <trkpt lat="45.88856" lon="4.66575">
        <ele>392</ele>
        <time>2016-11-30T15:04:03Z</time>
      </trkpt>
      <trkpt lat="45.88857" lon="4.66576">
        <ele>392</ele>
        <time>2016-11-30T15:04:04Z</time>
      </trkpt>
      <trkpt lat="45.88865" lon="4.66581">
        <ele>392</ele>
        <time>2016-11-30T15:04:10Z</time>
      </trkpt>
      <trkpt lat="45.88867" lon="4.66582">
        <ele>392</ele>
        <time>2016-11-30T15:04:11Z</time>
      </trkpt>
      <trkpt lat="45.88874" lon="4.66591">
        <ele>399</ele>
        <time>2016-11-30T15:04:16Z</time>
      </trkpt>
      <trkpt lat="45.88875" lon="4.66593">
        <ele>399</ele>
        <time>2016-11-30T15:04:17Z</time>
      </trkpt>
      <trkpt lat="45.8888" lon="4.66602">
        <ele>400</ele>
        <time>2016-11-30T15:04:22Z</time>
      </trkpt>
      <trkpt lat="45.88881" lon="4.66603">
        <ele>400</ele>
        <time>2016-11-30T15:04:23Z</time>
      </trkpt>
      <trkpt lat="45.88886" lon="4.66613">
        <ele>400</ele>
        <time>2016-11-30T15:04:28Z</time>
      </trkpt>
      <trkpt lat="45.88888" lon="4.66614">
        <ele>400</ele>
        <time>2016-11-30T15:04:29Z</time>
      </trkpt>
      <trkpt lat="45.88892" lon="4.66623">
        <ele>401</ele>
        <time>2016-11-30T15:04:33Z</time>
      </trkpt>
      <trkpt lat="45.88893" lon="4.66624">
        <ele>401</ele>
        <time>2016-11-30T15:04:34Z</time>
      </trkpt>
      <trkpt lat="45.88897" lon="4.66635">
        <ele>402</ele>
        <time>2016-11-30T15:04:38Z</time>
      </trkpt>
      <trkpt lat="45.88898" lon="4.66637">
        <ele>402</ele>
        <time>2016-11-30T15:04:39Z</time>
      </trkpt>
      <trkpt lat="45.88903" lon="4.66644">
        <ele>402</ele>
        <time>2016-11-30T15:04:42Z</time>
      </trkpt>
      <trkpt lat="45.88905" lon="4.66646">
        <ele>403</ele>
        <time>2016-11-30T15:04:43Z</time>
      </trkpt>
      <trkpt lat="45.88911" lon="4.66651">
        <ele>403</ele>
        <time>2016-11-30T15:04:46Z</time>
      </trkpt>
      <trkpt lat="45.88912" lon="4.66653">
        <ele>404</ele>
        <time>2016-11-30T15:04:47Z</time>
      </trkpt>
      <trkpt lat="45.88919" lon="4.66659">
        <ele>404</ele>
        <time>2016-11-30T15:04:51Z</time>
      </trkpt>
      <trkpt lat="45.88921" lon="4.66661">
        <ele>404</ele>
        <time>2016-11-30T15:04:52Z</time>
      </trkpt>
      <trkpt lat="45.88928" lon="4.66666">
        <ele>404</ele>
        <time>2016-11-30T15:04:55Z</time>
      </trkpt>
      <trkpt lat="45.8893" lon="4.66667">
        <ele>403</ele>
        <time>2016-11-30T15:04:56Z</time>
      </trkpt>
      <trkpt lat="45.88938" lon="4.66672">
        <ele>408</ele>
        <time>2016-11-30T15:05:00Z</time>
      </trkpt>
      <trkpt lat="45.88939" lon="4.66673">
        <ele>408</ele>
        <time>2016-11-30T15:05:01Z</time>
      </trkpt>
      <trkpt lat="45.88947" lon="4.66679">
        <ele>408</ele>
        <time>2016-11-30T15:05:05Z</time>
      </trkpt>
      <trkpt lat="45.88951" lon="4.66682">
        <ele>408</ele>
        <time>2016-11-30T15:05:07Z</time>
      </trkpt>
      <trkpt lat="45.88958" lon="4.66684">
        <ele>408</ele>
        <time>2016-11-30T15:05:10Z</time>
      </trkpt>
      <trkpt lat="45.8896" lon="4.66685">
        <ele>408</ele>
        <time>2016-11-30T15:05:11Z</time>
      </trkpt>
      <trkpt lat="45.88964" lon="4.66689">
        <ele>408</ele>
        <time>2016-11-30T15:05:13Z</time>
      </trkpt>
      <trkpt lat="45.88966" lon="4.66689">
        <ele>408</ele>
        <time>2016-11-30T15:05:14Z</time>
      </trkpt>
      <trkpt lat="45.88969" lon="4.66693">
        <ele>409</ele>
        <time>2016-11-30T15:05:17Z</time>
      </trkpt>
      <trkpt lat="45.8897" lon="4.66695">
        <ele>409</ele>
        <time>2016-11-30T15:05:18Z</time>
      </trkpt>
      <trkpt lat="45.88977" lon="4.667">
        <ele>409</ele>
        <time>2016-11-30T15:05:22Z</time>
      </trkpt>
      <trkpt lat="45.8898" lon="4.66701">
        <ele>409</ele>
        <time>2016-11-30T15:05:23Z</time>
      </trkpt>
      <trkpt lat="45.88988" lon="4.66702">
        <ele>409</ele>
        <time>2016-11-30T15:05:26Z</time>
      </trkpt>
      <trkpt lat="45.88991" lon="4.66703">
        <ele>409</ele>
        <time>2016-11-30T15:05:27Z</time>
      </trkpt>
      <trkpt lat="45.88999" lon="4.66701">
        <ele>409</ele>
        <time>2016-11-30T15:05:31Z</time>
      </trkpt>
      <trkpt lat="45.89001" lon="4.66702">
        <ele>406</ele>
        <time>2016-11-30T15:05:32Z</time>
      </trkpt>
      <trkpt lat="45.89009" lon="4.66705">
        <ele>406</ele>
        <time>2016-11-30T15:05:35Z</time>
      </trkpt>
      <trkpt lat="45.8901" lon="4.66705">
        <ele>406</ele>
        <time>2016-11-30T15:05:36Z</time>
      </trkpt>
      <trkpt lat="45.89018" lon="4.66707">
        <ele>406</ele>
        <time>2016-11-30T15:05:41Z</time>
      </trkpt>
      <trkpt lat="45.8902" lon="4.66709">
        <ele>406</ele>
        <time>2016-11-30T15:05:42Z</time>
      </trkpt>
      <trkpt lat="45.89025" lon="4.66718">
        <ele>407</ele>
        <time>2016-11-30T15:05:46Z</time>
      </trkpt>
      <trkpt lat="45.89027" lon="4.66721">
        <ele>407</ele>
        <time>2016-11-30T15:05:47Z</time>
      </trkpt>
      <trkpt lat="45.89035" lon="4.66726">
        <ele>407</ele>
        <time>2016-11-30T15:05:50Z</time>
      </trkpt>
      <trkpt lat="45.89039" lon="4.66727">
        <ele>407</ele>
        <time>2016-11-30T15:05:51Z</time>
      </trkpt>
      <trkpt lat="45.89044" lon="4.66728">
        <ele>407</ele>
        <time>2016-11-30T15:05:52Z</time>
      </trkpt>
      <trkpt lat="45.89049" lon="4.66729">
        <ele>407</ele>
        <time>2016-11-30T15:05:53Z</time>
      </trkpt>
      <trkpt lat="45.89054" lon="4.66734">
        <ele>407</ele>
        <time>2016-11-30T15:05:55Z</time>
      </trkpt>
      <trkpt lat="45.89057" lon="4.66737">
        <ele>407</ele>
        <time>2016-11-30T15:05:56Z</time>
      </trkpt>
      <trkpt lat="45.8906" lon="4.6674">
        <ele>407</ele>
        <time>2016-11-30T15:05:57Z</time>
      </trkpt>
      <trkpt lat="45.8908" lon="4.66753">
        <ele>410</ele>
        <time>2016-11-30T15:06:05Z</time>
      </trkpt>
      <trkpt lat="45.89084" lon="4.6676">
        <ele>409</ele>
        <time>2016-11-30T15:06:07Z</time>
      </trkpt>
      <trkpt lat="45.89086" lon="4.66763">
        <ele>409</ele>
        <time>2016-11-30T15:06:08Z</time>
      </trkpt>
      <trkpt lat="45.89092" lon="4.66769">
        <ele>409</ele>
        <time>2016-11-30T15:06:11Z</time>
      </trkpt>
      <trkpt lat="45.89096" lon="4.66771">
        <ele>409</ele>
        <time>2016-11-30T15:06:12Z</time>
      </trkpt>
      <trkpt lat="45.89102" lon="4.66777">
        <ele>410</ele>
        <time>2016-11-30T15:06:15Z</time>
      </trkpt>
      <trkpt lat="45.89105" lon="4.66778">
        <ele>410</ele>
        <time>2016-11-30T15:06:16Z</time>
      </trkpt>
      <trkpt lat="45.89111" lon="4.66784">
        <ele>410</ele>
        <time>2016-11-30T15:06:19Z</time>
      </trkpt>
      <trkpt lat="45.89114" lon="4.66786">
        <ele>410</ele>
        <time>2016-11-30T15:06:20Z</time>
      </trkpt>
      <trkpt lat="45.8912" lon="4.66792">
        <ele>410</ele>
        <time>2016-11-30T15:06:23Z</time>
      </trkpt>
      <trkpt lat="45.89123" lon="4.66794">
        <ele>410</ele>
        <time>2016-11-30T15:06:24Z</time>
      </trkpt>
      <trkpt lat="45.8913" lon="4.66797">
        <ele>410</ele>
        <time>2016-11-30T15:06:27Z</time>
      </trkpt>
      <trkpt lat="45.89133" lon="4.66798">
        <ele>410</ele>
        <time>2016-11-30T15:06:28Z</time>
      </trkpt>
      <trkpt lat="45.89141" lon="4.66801">
        <ele>410</ele>
        <time>2016-11-30T15:06:30Z</time>
      </trkpt>
      <trkpt lat="45.89144" lon="4.66803">
        <ele>410</ele>
        <time>2016-11-30T15:06:31Z</time>
      </trkpt>
      <trkpt lat="45.89149" lon="4.66811">
        <ele>411</ele>
        <time>2016-11-30T15:06:33Z</time>
      </trkpt>
      <trkpt lat="45.8915" lon="4.66818">
        <ele>411</ele>
        <time>2016-11-30T15:06:34Z</time>
      </trkpt>
      <trkpt lat="45.89152" lon="4.66823">
        <ele>412</ele>
        <time>2016-11-30T15:06:35Z</time>
      </trkpt>
      <trkpt lat="45.89153" lon="4.66831">
        <ele>412</ele>
        <time>2016-11-30T15:06:36Z</time>
      </trkpt>
      <trkpt lat="45.89158" lon="4.66841">
        <ele>414</ele>
        <time>2016-11-30T15:06:38Z</time>
      </trkpt>
      <trkpt lat="45.89159" lon="4.66845">
        <ele>414</ele>
        <time>2016-11-30T15:06:39Z</time>
      </trkpt>
      <trkpt lat="45.8916" lon="4.66855">
        <ele>414</ele>
        <time>2016-11-30T15:06:41Z</time>
      </trkpt>
      <trkpt lat="45.8916" lon="4.66861">
        <ele>414</ele>
        <time>2016-11-30T15:06:42Z</time>
      </trkpt>
      <trkpt lat="45.89159" lon="4.66866">
        <ele>414</ele>
        <time>2016-11-30T15:06:43Z</time>
      </trkpt>
      <trkpt lat="45.89157" lon="4.66873">
        <ele>414</ele>
        <time>2016-11-30T15:06:44Z</time>
      </trkpt>
      <trkpt lat="45.89158" lon="4.66884">
        <ele>414</ele>
        <time>2016-11-30T15:06:46Z</time>
      </trkpt>
      <trkpt lat="45.89159" lon="4.66889">
        <ele>414</ele>
        <time>2016-11-30T15:06:47Z</time>
      </trkpt>
      <trkpt lat="45.89161" lon="4.66898">
        <ele>415</ele>
        <time>2016-11-30T15:06:49Z</time>
      </trkpt>
      <trkpt lat="45.89162" lon="4.66903">
        <ele>415</ele>
        <time>2016-11-30T15:06:50Z</time>
      </trkpt>
      <trkpt lat="45.89165" lon="4.66914">
        <ele>415</ele>
        <time>2016-11-30T15:06:53Z</time>
      </trkpt>
      <trkpt lat="45.89166" lon="4.66918">
        <ele>415</ele>
        <time>2016-11-30T15:06:54Z</time>
      </trkpt>
      <trkpt lat="45.89168" lon="4.66927">
        <ele>415</ele>
        <time>2016-11-30T15:06:56Z</time>
      </trkpt>
      <trkpt lat="45.89169" lon="4.66931">
        <ele>415</ele>
        <time>2016-11-30T15:06:57Z</time>
      </trkpt>
      <trkpt lat="45.89171" lon="4.6694">
        <ele>415</ele>
        <time>2016-11-30T15:06:59Z</time>
      </trkpt>
      <trkpt lat="45.89173" lon="4.66944">
        <ele>415</ele>
        <time>2016-11-30T15:07:00Z</time>
      </trkpt>
      <trkpt lat="45.89175" lon="4.66954">
        <ele>415</ele>
        <time>2016-11-30T15:07:02Z</time>
      </trkpt>
      <trkpt lat="45.89176" lon="4.66959">
        <ele>415</ele>
        <time>2016-11-30T15:07:03Z</time>
      </trkpt>
      <trkpt lat="45.8918" lon="4.6697">
        <ele>415</ele>
        <time>2016-11-30T15:07:05Z</time>
      </trkpt>
      <trkpt lat="45.89181" lon="4.66974">
        <ele>415</ele>
        <time>2016-11-30T15:07:06Z</time>
      </trkpt>
      <trkpt lat="45.89184" lon="4.66984">
        <ele>414</ele>
        <time>2016-11-30T15:07:08Z</time>
      </trkpt>
      <trkpt lat="45.89185" lon="4.6699">
        <ele>414</ele>
        <time>2016-11-30T15:07:09Z</time>
      </trkpt>
      <trkpt lat="45.89186" lon="4.67">
        <ele>412</ele>
        <time>2016-11-30T15:07:11Z</time>
      </trkpt>
      <trkpt lat="45.89187" lon="4.67006">
        <ele>413</ele>
        <time>2016-11-30T15:07:12Z</time>
      </trkpt>
      <trkpt lat="45.8919" lon="4.67015">
        <ele>413</ele>
        <time>2016-11-30T15:07:14Z</time>
      </trkpt>
      <trkpt lat="45.89191" lon="4.6702">
        <ele>413</ele>
        <time>2016-11-30T15:07:15Z</time>
      </trkpt>
      <trkpt lat="45.89193" lon="4.67031">
        <ele>413</ele>
        <time>2016-11-30T15:07:17Z</time>
      </trkpt>
      <trkpt lat="45.89195" lon="4.67036">
        <ele>413</ele>
        <time>2016-11-30T15:07:18Z</time>
      </trkpt>
      <trkpt lat="45.89199" lon="4.67046">
        <ele>413</ele>
        <time>2016-11-30T15:07:20Z</time>
      </trkpt>
      <trkpt lat="45.89201" lon="4.67051">
        <ele>413</ele>
        <time>2016-11-30T15:07:21Z</time>
      </trkpt>
      <trkpt lat="45.89204" lon="4.6706">
        <ele>412</ele>
        <time>2016-11-30T15:07:23Z</time>
      </trkpt>
      <trkpt lat="45.89206" lon="4.67065">
        <ele>412</ele>
        <time>2016-11-30T15:07:24Z</time>
      </trkpt>
      <trkpt lat="45.89211" lon="4.67075">
        <ele>413</ele>
        <time>2016-11-30T15:07:26Z</time>
      </trkpt>
      <trkpt lat="45.89213" lon="4.6708">
        <ele>413</ele>
        <time>2016-11-30T15:07:27Z</time>
      </trkpt>
      <trkpt lat="45.89217" lon="4.6709">
        <ele>411</ele>
        <time>2016-11-30T15:07:29Z</time>
      </trkpt>
      <trkpt lat="45.8922" lon="4.67095">
        <ele>411</ele>
        <time>2016-11-30T15:07:30Z</time>
      </trkpt>
      <trkpt lat="45.89225" lon="4.67106">
        <ele>411</ele>
        <time>2016-11-30T15:07:32Z</time>
      </trkpt>
      <trkpt lat="45.89227" lon="4.6711">
        <ele>411</ele>
        <time>2016-11-30T15:07:33Z</time>
      </trkpt>
      <trkpt lat="45.89232" lon="4.67121">
        <ele>411</ele>
        <time>2016-11-30T15:07:35Z</time>
      </trkpt>
      <trkpt lat="45.89234" lon="4.67125">
        <ele>411</ele>
        <time>2016-11-30T15:07:36Z</time>
      </trkpt>
      <trkpt lat="45.8924" lon="4.67135">
        <ele>411</ele>
        <time>2016-11-30T15:07:38Z</time>
      </trkpt>
      <trkpt lat="45.89243" lon="4.67139">
        <ele>411</ele>
        <time>2016-11-30T15:07:39Z</time>
      </trkpt>
      <trkpt lat="45.89248" lon="4.67148">
        <ele>411</ele>
        <time>2016-11-30T15:07:41Z</time>
      </trkpt>
      <trkpt lat="45.89251" lon="4.67152">
        <ele>415</ele>
        <time>2016-11-30T15:07:42Z</time>
      </trkpt>
      <trkpt lat="45.89258" lon="4.67159">
        <ele>415</ele>
        <time>2016-11-30T15:07:44Z</time>
      </trkpt>
      <trkpt lat="45.89261" lon="4.67164">
        <ele>415</ele>
        <time>2016-11-30T15:07:45Z</time>
      </trkpt>
      <trkpt lat="45.89266" lon="4.67171">
        <ele>412</ele>
        <time>2016-11-30T15:07:47Z</time>
      </trkpt>
      <trkpt lat="45.8927" lon="4.67173">
        <ele>412</ele>
        <time>2016-11-30T15:07:48Z</time>
      </trkpt>
      <trkpt lat="45.89277" lon="4.6718">
        <ele>412</ele>
        <time>2016-11-30T15:07:50Z</time>
      </trkpt>
      <trkpt lat="45.89282" lon="4.67183">
        <ele>412</ele>
        <time>2016-11-30T15:07:51Z</time>
      </trkpt>
      <trkpt lat="45.89285" lon="4.67187">
        <ele>412</ele>
        <time>2016-11-30T15:07:52Z</time>
      </trkpt>
      <trkpt lat="45.8929" lon="4.67189">
        <ele>412</ele>
        <time>2016-11-30T15:07:53Z</time>
      </trkpt>
      <trkpt lat="45.89294" lon="4.67192">
        <ele>412</ele>
        <time>2016-11-30T15:07:54Z</time>
      </trkpt>
      <trkpt lat="45.89299" lon="4.67195">
        <ele>412</ele>
        <time>2016-11-30T15:07:55Z</time>
      </trkpt>
      <trkpt lat="45.89303" lon="4.67197">
        <ele>412</ele>
        <time>2016-11-30T15:07:56Z</time>
      </trkpt>
      <trkpt lat="45.89307" lon="4.672">
        <ele>412</ele>
        <time>2016-11-30T15:07:57Z</time>
      </trkpt>
      <trkpt lat="45.89313" lon="4.67202">
        <ele>412</ele>
        <time>2016-11-30T15:07:58Z</time>
      </trkpt>
      <trkpt lat="45.89318" lon="4.67205">
        <ele>412</ele>
        <time>2016-11-30T15:07:59Z</time>
      </trkpt>
      <trkpt lat="45.89322" lon="4.67208">
        <ele>412</ele>
        <time>2016-11-30T15:08:00Z</time>
      </trkpt>
      <trkpt lat="45.89325" lon="4.67212">
        <ele>411</ele>
        <time>2016-11-30T15:08:01Z</time>
      </trkpt>
      <trkpt lat="45.8933" lon="4.67214">
        <ele>411</ele>
        <time>2016-11-30T15:08:02Z</time>
      </trkpt>
      <trkpt lat="45.89335" lon="4.67216">
        <ele>415</ele>
        <time>2016-11-30T15:08:03Z</time>
      </trkpt>
      <trkpt lat="45.8934" lon="4.67218">
        <ele>415</ele>
        <time>2016-11-30T15:08:04Z</time>
      </trkpt>
      <trkpt lat="45.89345" lon="4.67221">
        <ele>415</ele>
        <time>2016-11-30T15:08:05Z</time>
      </trkpt>
      <trkpt lat="45.8935" lon="4.67224">
        <ele>415</ele>
        <time>2016-11-30T15:08:06Z</time>
      </trkpt>
      <trkpt lat="45.89354" lon="4.67229">
        <ele>415</ele>
        <time>2016-11-30T15:08:07Z</time>
      </trkpt>
      <trkpt lat="45.89358" lon="4.67234">
        <ele>415</ele>
        <time>2016-11-30T15:08:08Z</time>
      </trkpt>
      <trkpt lat="45.89361" lon="4.6724">
        <ele>415</ele>
        <time>2016-11-30T15:08:09Z</time>
      </trkpt>
      <trkpt lat="45.89365" lon="4.67245">
        <ele>415</ele>
        <time>2016-11-30T15:08:10Z</time>
      </trkpt>
      <trkpt lat="45.89369" lon="4.67251">
        <ele>409</ele>
        <time>2016-11-30T15:08:11Z</time>
      </trkpt>
      <trkpt lat="45.89373" lon="4.67257">
        <ele>409</ele>
        <time>2016-11-30T15:08:12Z</time>
      </trkpt>
      <trkpt lat="45.89376" lon="4.67263">
        <ele>409</ele>
        <time>2016-11-30T15:08:13Z</time>
      </trkpt>
      <trkpt lat="45.8938" lon="4.67269">
        <ele>409</ele>
        <time>2016-11-30T15:08:14Z</time>
      </trkpt>
      <trkpt lat="45.89384" lon="4.67276">
        <ele>409</ele>
        <time>2016-11-30T15:08:15Z</time>
      </trkpt>
      <trkpt lat="45.89387" lon="4.67282">
        <ele>409</ele>
        <time>2016-11-30T15:08:16Z</time>
      </trkpt>
      <trkpt lat="45.89392" lon="4.67289">
        <ele>408</ele>
        <time>2016-11-30T15:08:17Z</time>
      </trkpt>
      <trkpt lat="45.89398" lon="4.67295">
        <ele>408</ele>
        <time>2016-11-30T15:08:18Z</time>
      </trkpt>
      <trkpt lat="45.89402" lon="4.67302">
        <ele>408</ele>
        <time>2016-11-30T15:08:19Z</time>
      </trkpt>
      <trkpt lat="45.89407" lon="4.67308">
        <ele>408</ele>
        <time>2016-11-30T15:08:20Z</time>
      </trkpt>
      <trkpt lat="45.89412" lon="4.67314">
        <ele>408</ele>
        <time>2016-11-30T15:08:21Z</time>
      </trkpt>
      <trkpt lat="45.89417" lon="4.6732">
        <ele>411</ele>
        <time>2016-11-30T15:08:22Z</time>
      </trkpt>
      <trkpt lat="45.89422" lon="4.67326">
        <ele>410</ele>
        <time>2016-11-30T15:08:23Z</time>
      </trkpt>
      <trkpt lat="45.89427" lon="4.67332">
        <ele>410</ele>
        <time>2016-11-30T15:08:24Z</time>
      </trkpt>
      <trkpt lat="45.89431" lon="4.67337">
        <ele>407</ele>
        <time>2016-11-30T15:08:25Z</time>
      </trkpt>
      <trkpt lat="45.89436" lon="4.67343">
        <ele>407</ele>
        <time>2016-11-30T15:08:26Z</time>
      </trkpt>
      <trkpt lat="45.89441" lon="4.67349">
        <ele>407</ele>
        <time>2016-11-30T15:08:27Z</time>
      </trkpt>
      <trkpt lat="45.89446" lon="4.67354">
        <ele>408</ele>
        <time>2016-11-30T15:08:28Z</time>
      </trkpt>
      <trkpt lat="45.89452" lon="4.67358">
        <ele>408</ele>
        <time>2016-11-30T15:08:29Z</time>
      </trkpt>
      <trkpt lat="45.89457" lon="4.67363">
        <ele>408</ele>
        <time>2016-11-30T15:08:30Z</time>
      </trkpt>
      <trkpt lat="45.89462" lon="4.67368">
        <ele>408</ele>
        <time>2016-11-30T15:08:31Z</time>
      </trkpt>
      <trkpt lat="45.89467" lon="4.67372">
        <ele>408</ele>
        <time>2016-11-30T15:08:32Z</time>
      </trkpt>
      <trkpt lat="45.89473" lon="4.67377">
        <ele>407</ele>
        <time>2016-11-30T15:08:33Z</time>
      </trkpt>
      <trkpt lat="45.89478" lon="4.67381">
        <ele>407</ele>
        <time>2016-11-30T15:08:34Z</time>
      </trkpt>
      <trkpt lat="45.89484" lon="4.67385">
        <ele>407</ele>
        <time>2016-11-30T15:08:35Z</time>
      </trkpt>
      <trkpt lat="45.8949" lon="4.6739">
        <ele>407</ele>
        <time>2016-11-30T15:08:36Z</time>
      </trkpt>
      <trkpt lat="45.89495" lon="4.67394">
        <ele>406</ele>
        <time>2016-11-30T15:08:37Z</time>
      </trkpt>
      <trkpt lat="45.89501" lon="4.67399">
        <ele>409</ele>
        <time>2016-11-30T15:08:38Z</time>
      </trkpt>
      <trkpt lat="45.89506" lon="4.67404">
        <ele>408</ele>
        <time>2016-11-30T15:08:39Z</time>
      </trkpt>
      <trkpt lat="45.89511" lon="4.67408">
        <ele>408</ele>
        <time>2016-11-30T15:08:40Z</time>
      </trkpt>
      <trkpt lat="45.89517" lon="4.67411">
        <ele>408</ele>
        <time>2016-11-30T15:08:41Z</time>
      </trkpt>
      <trkpt lat="45.89523" lon="4.67414">
        <ele>409</ele>
        <time>2016-11-30T15:08:42Z</time>
      </trkpt>
      <trkpt lat="45.89529" lon="4.67418">
        <ele>402</ele>
        <time>2016-11-30T15:08:43Z</time>
      </trkpt>
      <trkpt lat="45.89534" lon="4.67422">
        <ele>402</ele>
        <time>2016-11-30T15:08:44Z</time>
      </trkpt>
      <trkpt lat="45.8954" lon="4.67425">
        <ele>402</ele>
        <time>2016-11-30T15:08:45Z</time>
      </trkpt>
      <trkpt lat="45.89546" lon="4.67428">
        <ele>402</ele>
        <time>2016-11-30T15:08:46Z</time>
      </trkpt>
      <trkpt lat="45.89552" lon="4.67429">
        <ele>403</ele>
        <time>2016-11-30T15:08:47Z</time>
      </trkpt>
      <trkpt lat="45.89559" lon="4.6743">
        <ele>403</ele>
        <time>2016-11-30T15:08:48Z</time>
      </trkpt>
      <trkpt lat="45.89565" lon="4.67431">
        <ele>404</ele>
        <time>2016-11-30T15:08:49Z</time>
      </trkpt>
      <trkpt lat="45.8957" lon="4.67434">
        <ele>404</ele>
        <time>2016-11-30T15:08:50Z</time>
      </trkpt>
      <trkpt lat="45.89576" lon="4.67435">
        <ele>404</ele>
        <time>2016-11-30T15:08:51Z</time>
      </trkpt>
      <trkpt lat="45.89581" lon="4.67438">
        <ele>404</ele>
        <time>2016-11-30T15:08:52Z</time>
      </trkpt>
      <trkpt lat="45.89586" lon="4.6744">
        <ele>405</ele>
        <time>2016-11-30T15:08:53Z</time>
      </trkpt>
      <trkpt lat="45.89592" lon="4.67442">
        <ele>405</ele>
        <time>2016-11-30T15:08:54Z</time>
      </trkpt>
      <trkpt lat="45.89598" lon="4.67445">
        <ele>404</ele>
        <time>2016-11-30T15:08:55Z</time>
      </trkpt>
      <trkpt lat="45.89604" lon="4.67448">
        <ele>404</ele>
        <time>2016-11-30T15:08:56Z</time>
      </trkpt>
      <trkpt lat="45.8961" lon="4.67451">
        <ele>404</ele>
        <time>2016-11-30T15:08:57Z</time>
      </trkpt>
      <trkpt lat="45.89616" lon="4.67455">
        <ele>403</ele>
        <time>2016-11-30T15:08:58Z</time>
      </trkpt>
      <trkpt lat="45.89622" lon="4.67457">
        <ele>403</ele>
        <time>2016-11-30T15:08:59Z</time>
      </trkpt>
      <trkpt lat="45.89629" lon="4.67459">
        <ele>403</ele>
        <time>2016-11-30T15:09:00Z</time>
      </trkpt>
      <trkpt lat="45.89635" lon="4.67461">
        <ele>403</ele>
        <time>2016-11-30T15:09:01Z</time>
      </trkpt>
      <trkpt lat="45.89642" lon="4.6746">
        <ele>403</ele>
        <time>2016-11-30T15:09:02Z</time>
      </trkpt>
      <trkpt lat="45.89649" lon="4.67461">
        <ele>403</ele>
        <time>2016-11-30T15:09:03Z</time>
      </trkpt>
      <trkpt lat="45.89655" lon="4.67464">
        <ele>403</ele>
        <time>2016-11-30T15:09:04Z</time>
      </trkpt>
      <trkpt lat="45.8966" lon="4.67466">
        <ele>403</ele>
        <time>2016-11-30T15:09:05Z</time>
      </trkpt>
      <trkpt lat="45.89668" lon="4.67469">
        <ele>403</ele>
        <time>2016-11-30T15:09:06Z</time>
      </trkpt>
      <trkpt lat="45.89674" lon="4.67473">
        <ele>403</ele>
        <time>2016-11-30T15:09:07Z</time>
      </trkpt>
      <trkpt lat="45.8968" lon="4.67477">
        <ele>402</ele>
        <time>2016-11-30T15:09:08Z</time>
      </trkpt>
      <trkpt lat="45.89686" lon="4.67481">
        <ele>402</ele>
        <time>2016-11-30T15:09:09Z</time>
      </trkpt>
      <trkpt lat="45.89694" lon="4.67484">
        <ele>402</ele>
        <time>2016-11-30T15:09:10Z</time>
      </trkpt>
      <trkpt lat="45.89701" lon="4.67486">
        <ele>402</ele>
        <time>2016-11-30T15:09:11Z</time>
      </trkpt>
      <trkpt lat="45.89708" lon="4.6749">
        <ele>402</ele>
        <time>2016-11-30T15:09:12Z</time>
      </trkpt>
      <trkpt lat="45.89714" lon="4.67492">
        <ele>402</ele>
        <time>2016-11-30T15:09:13Z</time>
      </trkpt>
      <trkpt lat="45.89721" lon="4.67493">
        <ele>402</ele>
        <time>2016-11-30T15:09:14Z</time>
      </trkpt>
      <trkpt lat="45.89728" lon="4.67496">
        <ele>402</ele>
        <time>2016-11-30T15:09:15Z</time>
      </trkpt>
      <trkpt lat="45.89735" lon="4.67498">
        <ele>401</ele>
        <time>2016-11-30T15:09:16Z</time>
      </trkpt>
      <trkpt lat="45.89741" lon="4.67498">
        <ele>400</ele>
        <time>2016-11-30T15:09:17Z</time>
      </trkpt>
      <trkpt lat="45.89747" lon="4.675">
        <ele>400</ele>
        <time>2016-11-30T15:09:18Z</time>
      </trkpt>
      <trkpt lat="45.89754" lon="4.67502">
        <ele>398</ele>
        <time>2016-11-30T15:09:19Z</time>
      </trkpt>
      <trkpt lat="45.89761" lon="4.67502">
        <ele>397</ele>
        <time>2016-11-30T15:09:20Z</time>
      </trkpt>
      <trkpt lat="45.89768" lon="4.67503">
        <ele>395</ele>
        <time>2016-11-30T15:09:21Z</time>
      </trkpt>
      <trkpt lat="45.89775" lon="4.67501">
        <ele>395</ele>
        <time>2016-11-30T15:09:22Z</time>
      </trkpt>
      <trkpt lat="45.89782" lon="4.67499">
        <ele>399</ele>
        <time>2016-11-30T15:09:23Z</time>
      </trkpt>
      <trkpt lat="45.89787" lon="4.67498">
        <ele>399</ele>
        <time>2016-11-30T15:09:24Z</time>
      </trkpt>
      <trkpt lat="45.89793" lon="4.67497">
        <ele>399</ele>
        <time>2016-11-30T15:09:25Z</time>
      </trkpt>
      <trkpt lat="45.89801" lon="4.67494">
        <ele>398</ele>
        <time>2016-11-30T15:09:27Z</time>
      </trkpt>
      <trkpt lat="45.89804" lon="4.67492">
        <ele>398</ele>
        <time>2016-11-30T15:09:28Z</time>
      </trkpt>
      <trkpt lat="45.89811" lon="4.67475">
        <ele>398</ele>
        <time>2016-11-30T15:09:29Z</time>
      </trkpt>
      <trkpt lat="45.89816" lon="4.67462">
        <ele>398</ele>
        <time>2016-11-30T15:09:30Z</time>
      </trkpt>
      <trkpt lat="45.89821" lon="4.67446">
        <ele>399</ele>
        <time>2016-11-30T15:09:31Z</time>
      </trkpt>
      <trkpt lat="45.89824" lon="4.67437">
        <ele>398</ele>
        <time>2016-11-30T15:09:32Z</time>
      </trkpt>
      <trkpt lat="45.89827" lon="4.67428">
        <ele>398</ele>
        <time>2016-11-30T15:09:33Z</time>
      </trkpt>
      <trkpt lat="45.8983" lon="4.67419">
        <ele>397</ele>
        <time>2016-11-30T15:09:34Z</time>
      </trkpt>
      <trkpt lat="45.89834" lon="4.6741">
        <ele>397</ele>
        <time>2016-11-30T15:09:35Z</time>
      </trkpt>
      <trkpt lat="45.89837" lon="4.67402">
        <ele>397</ele>
        <time>2016-11-30T15:09:36Z</time>
      </trkpt>
      <trkpt lat="45.89841" lon="4.67394">
        <ele>397</ele>
        <time>2016-11-30T15:09:37Z</time>
      </trkpt>
      <trkpt lat="45.89849" lon="4.67388">
        <ele>397</ele>
        <time>2016-11-30T15:09:38Z</time>
      </trkpt>
      <trkpt lat="45.89855" lon="4.67383">
        <ele>397</ele>
        <time>2016-11-30T15:09:39Z</time>
      </trkpt>
      <trkpt lat="45.8986" lon="4.67376">
        <ele>397</ele>
        <time>2016-11-30T15:09:40Z</time>
      </trkpt>
      <trkpt lat="45.89867" lon="4.67373">
        <ele>397</ele>
        <time>2016-11-30T15:09:41Z</time>
      </trkpt>
      <trkpt lat="45.89873" lon="4.67368">
        <ele>397</ele>
        <time>2016-11-30T15:09:42Z</time>
      </trkpt>
      <trkpt lat="45.89881" lon="4.67363">
        <ele>397</ele>
        <time>2016-11-30T15:09:43Z</time>
      </trkpt>
      <trkpt lat="45.89888" lon="4.6736">
        <ele>397</ele>
        <time>2016-11-30T15:09:44Z</time>
      </trkpt>
      <trkpt lat="45.89896" lon="4.67357">
        <ele>398</ele>
        <time>2016-11-30T15:09:45Z</time>
      </trkpt>
      <trkpt lat="45.89903" lon="4.67359">
        <ele>397</ele>
        <time>2016-11-30T15:09:46Z</time>
      </trkpt>
      <trkpt lat="45.8991" lon="4.67363">
        <ele>397</ele>
        <time>2016-11-30T15:09:47Z</time>
      </trkpt>
      <trkpt lat="45.89917" lon="4.67365">
        <ele>395</ele>
        <time>2016-11-30T15:09:48Z</time>
      </trkpt>
      <trkpt lat="45.89925" lon="4.67368">
        <ele>394</ele>
        <time>2016-11-30T15:09:49Z</time>
      </trkpt>
      <trkpt lat="45.89934" lon="4.67368">
        <ele>394</ele>
        <time>2016-11-30T15:09:50Z</time>
      </trkpt>
      <trkpt lat="45.89942" lon="4.67371">
        <ele>394</ele>
        <time>2016-11-30T15:09:51Z</time>
      </trkpt>
      <trkpt lat="45.8995" lon="4.67371">
        <ele>394</ele>
        <time>2016-11-30T15:09:52Z</time>
      </trkpt>
      <trkpt lat="45.89959" lon="4.67373">
        <ele>394</ele>
        <time>2016-11-30T15:09:53Z</time>
      </trkpt>
      <trkpt lat="45.89969" lon="4.67374">
        <ele>394</ele>
        <time>2016-11-30T15:09:54Z</time>
      </trkpt>
      <trkpt lat="45.89977" lon="4.67375">
        <ele>394</ele>
        <time>2016-11-30T15:09:55Z</time>
      </trkpt>
      <trkpt lat="45.89985" lon="4.67379">
        <ele>393</ele>
        <time>2016-11-30T15:09:56Z</time>
      </trkpt>
      <trkpt lat="45.89994" lon="4.67385">
        <ele>392</ele>
        <time>2016-11-30T15:09:57Z</time>
      </trkpt>
      <trkpt lat="45.90001" lon="4.67392">
        <ele>394</ele>
        <time>2016-11-30T15:09:58Z</time>
      </trkpt>
      <trkpt lat="45.90008" lon="4.674">
        <ele>392</ele>
        <time>2016-11-30T15:09:59Z</time>
      </trkpt>
      <trkpt lat="45.90016" lon="4.67405">
        <ele>392</ele>
        <time>2016-11-30T15:10:00Z</time>
      </trkpt>
      <trkpt lat="45.90024" lon="4.67411">
        <ele>393</ele>
        <time>2016-11-30T15:10:01Z</time>
      </trkpt>
      <trkpt lat="45.90032" lon="4.67417">
        <ele>394</ele>
        <time>2016-11-30T15:10:02Z</time>
      </trkpt>
      <trkpt lat="45.9004" lon="4.67423">
        <ele>384</ele>
        <time>2016-11-30T15:10:03Z</time>
      </trkpt>
      <trkpt lat="45.90048" lon="4.67429">
        <ele>385</ele>
        <time>2016-11-30T15:10:04Z</time>
      </trkpt>
      <trkpt lat="45.90056" lon="4.67436">
        <ele>385</ele>
        <time>2016-11-30T15:10:05Z</time>
      </trkpt>
      <trkpt lat="45.90063" lon="4.67443">
        <ele>385</ele>
        <time>2016-11-30T15:10:06Z</time>
      </trkpt>
      <trkpt lat="45.90072" lon="4.67449">
        <ele>385</ele>
        <time>2016-11-30T15:10:07Z</time>
      </trkpt>
      <trkpt lat="45.9008" lon="4.67455">
        <ele>384</ele>
        <time>2016-11-30T15:10:08Z</time>
      </trkpt>
      <trkpt lat="45.90088" lon="4.67461">
        <ele>388</ele>
        <time>2016-11-30T15:10:09Z</time>
      </trkpt>
      <trkpt lat="45.90093" lon="4.67468">
        <ele>387</ele>
        <time>2016-11-30T15:10:10Z</time>
      </trkpt>
      <trkpt lat="45.901" lon="4.67476">
        <ele>386</ele>
        <time>2016-11-30T15:10:11Z</time>
      </trkpt>
      <trkpt lat="45.90107" lon="4.67483">
        <ele>386</ele>
        <time>2016-11-30T15:10:12Z</time>
      </trkpt>
      <trkpt lat="45.90115" lon="4.6749">
        <ele>386</ele>
        <time>2016-11-30T15:10:13Z</time>
      </trkpt>
      <trkpt lat="45.90121" lon="4.67498">
        <ele>387</ele>
        <time>2016-11-30T15:10:14Z</time>
      </trkpt>
      <trkpt lat="45.90126" lon="4.67509">
        <ele>378</ele>
        <time>2016-11-30T15:10:15Z</time>
      </trkpt>
      <trkpt lat="45.90132" lon="4.67519">
        <ele>379</ele>
        <time>2016-11-30T15:10:16Z</time>
      </trkpt>
      <trkpt lat="45.90137" lon="4.6753">
        <ele>378</ele>
        <time>2016-11-30T15:10:17Z</time>
      </trkpt>
      <trkpt lat="45.90142" lon="4.67541">
        <ele>378</ele>
        <time>2016-11-30T15:10:18Z</time>
      </trkpt>
      <trkpt lat="45.90148" lon="4.6755">
        <ele>377</ele>
        <time>2016-11-30T15:10:19Z</time>
      </trkpt>
      <trkpt lat="45.90154" lon="4.67559">
        <ele>377</ele>
        <time>2016-11-30T15:10:20Z</time>
      </trkpt>
      <trkpt lat="45.90161" lon="4.67568">
        <ele>377</ele>
        <time>2016-11-30T15:10:21Z</time>
      </trkpt>
      <trkpt lat="45.90168" lon="4.67576">
        <ele>378</ele>
        <time>2016-11-30T15:10:22Z</time>
      </trkpt>
      <trkpt lat="45.90174" lon="4.67586">
        <ele>376</ele>
        <time>2016-11-30T15:10:23Z</time>
      </trkpt>
      <trkpt lat="45.90181" lon="4.67595">
        <ele>376</ele>
        <time>2016-11-30T15:10:24Z</time>
      </trkpt>
      <trkpt lat="45.90188" lon="4.67603">
        <ele>376</ele>
        <time>2016-11-30T15:10:25Z</time>
      </trkpt>
      <trkpt lat="45.90194" lon="4.67611">
        <ele>376</ele>
        <time>2016-11-30T15:10:26Z</time>
      </trkpt>
      <trkpt lat="45.902" lon="4.67619">
        <ele>376</ele>
        <time>2016-11-30T15:10:27Z</time>
      </trkpt>
      <trkpt lat="45.90206" lon="4.67627">
        <ele>376</ele>
        <time>2016-11-30T15:10:28Z</time>
      </trkpt>
      <trkpt lat="45.90212" lon="4.67635">
        <ele>376</ele>
        <time>2016-11-30T15:10:29Z</time>
      </trkpt>
      <trkpt lat="45.90218" lon="4.67644">
        <ele>375</ele>
        <time>2016-11-30T15:10:30Z</time>
      </trkpt>
      <trkpt lat="45.90224" lon="4.67653">
        <ele>375</ele>
        <time>2016-11-30T15:10:31Z</time>
      </trkpt>
      <trkpt lat="45.90229" lon="4.67661">
        <ele>375</ele>
        <time>2016-11-30T15:10:32Z</time>
      </trkpt>
      <trkpt lat="45.90235" lon="4.67669">
        <ele>373</ele>
        <time>2016-11-30T15:10:33Z</time>
      </trkpt>
      <trkpt lat="45.9024" lon="4.67677">
        <ele>373</ele>
        <time>2016-11-30T15:10:34Z</time>
      </trkpt>
      <trkpt lat="45.90246" lon="4.67684">
        <ele>373</ele>
        <time>2016-11-30T15:10:35Z</time>
      </trkpt>
      <trkpt lat="45.90251" lon="4.67691">
        <ele>374</ele>
        <time>2016-11-30T15:10:36Z</time>
      </trkpt>
      <trkpt lat="45.90258" lon="4.67695">
        <ele>374</ele>
        <time>2016-11-30T15:10:37Z</time>
      </trkpt>
      <trkpt lat="45.90263" lon="4.67701">
        <ele>374</ele>
        <time>2016-11-30T15:10:38Z</time>
      </trkpt>
      <trkpt lat="45.90268" lon="4.67706">
        <ele>374</ele>
        <time>2016-11-30T15:10:39Z</time>
      </trkpt>
      <trkpt lat="45.90274" lon="4.6771">
        <ele>373</ele>
        <time>2016-11-30T15:10:40Z</time>
      </trkpt>
      <trkpt lat="45.90279" lon="4.67714">
        <ele>373</ele>
        <time>2016-11-30T15:10:41Z</time>
      </trkpt>
      <trkpt lat="45.90283" lon="4.67721">
        <ele>373</ele>
        <time>2016-11-30T15:10:42Z</time>
      </trkpt>
      <trkpt lat="45.90289" lon="4.67725">
        <ele>373</ele>
        <time>2016-11-30T15:10:43Z</time>
      </trkpt>
      <trkpt lat="45.90296" lon="4.67726">
        <ele>373</ele>
        <time>2016-11-30T15:10:44Z</time>
      </trkpt>
      <trkpt lat="45.90302" lon="4.67729">
        <ele>373</ele>
        <time>2016-11-30T15:10:45Z</time>
      </trkpt>
      <trkpt lat="45.90308" lon="4.67731">
        <ele>373</ele>
        <time>2016-11-30T15:10:46Z</time>
      </trkpt>
      <trkpt lat="45.90315" lon="4.67734">
        <ele>373</ele>
        <time>2016-11-30T15:10:47Z</time>
      </trkpt>
      <trkpt lat="45.90322" lon="4.67738">
        <ele>372</ele>
        <time>2016-11-30T15:10:48Z</time>
      </trkpt>
      <trkpt lat="45.90328" lon="4.67741">
        <ele>372</ele>
        <time>2016-11-30T15:10:49Z</time>
      </trkpt>
      <trkpt lat="45.90335" lon="4.67745">
        <ele>371</ele>
        <time>2016-11-30T15:10:50Z</time>
      </trkpt>
      <trkpt lat="45.90342" lon="4.67746">
        <ele>371</ele>
        <time>2016-11-30T15:10:51Z</time>
      </trkpt>
      <trkpt lat="45.90349" lon="4.67747">
        <ele>371</ele>
        <time>2016-11-30T15:10:52Z</time>
      </trkpt>
      <trkpt lat="45.90356" lon="4.6775">
        <ele>371</ele>
        <time>2016-11-30T15:10:53Z</time>
      </trkpt>
      <trkpt lat="45.90363" lon="4.67752">
        <ele>368</ele>
        <time>2016-11-30T15:10:54Z</time>
      </trkpt>
      <trkpt lat="45.9037" lon="4.67755">
        <ele>368</ele>
        <time>2016-11-30T15:10:55Z</time>
      </trkpt>
      <trkpt lat="45.90378" lon="4.67756">
        <ele>367</ele>
        <time>2016-11-30T15:10:56Z</time>
      </trkpt>
      <trkpt lat="45.90386" lon="4.67758">
        <ele>367</ele>
        <time>2016-11-30T15:10:57Z</time>
      </trkpt>
      <trkpt lat="45.90393" lon="4.67761">
        <ele>366</ele>
        <time>2016-11-30T15:10:58Z</time>
      </trkpt>
      <trkpt lat="45.904" lon="4.67764">
        <ele>366</ele>
        <time>2016-11-30T15:10:59Z</time>
      </trkpt>
      <trkpt lat="45.90408" lon="4.67767">
        <ele>366</ele>
        <time>2016-11-30T15:11:00Z</time>
      </trkpt>
      <trkpt lat="45.90417" lon="4.67769">
        <ele>366</ele>
        <time>2016-11-30T15:11:01Z</time>
      </trkpt>
      <trkpt lat="45.90425" lon="4.67771">
        <ele>364</ele>
        <time>2016-11-30T15:11:02Z</time>
      </trkpt>
      <trkpt lat="45.90433" lon="4.67772">
        <ele>364</ele>
        <time>2016-11-30T15:11:03Z</time>
      </trkpt>
      <trkpt lat="45.90442" lon="4.67774">
        <ele>364</ele>
        <time>2016-11-30T15:11:04Z</time>
      </trkpt>
      <trkpt lat="45.9045" lon="4.67777">
        <ele>363</ele>
        <time>2016-11-30T15:11:05Z</time>
      </trkpt>
      <trkpt lat="45.90458" lon="4.6778">
        <ele>363</ele>
        <time>2016-11-30T15:11:06Z</time>
      </trkpt>
      <trkpt lat="45.90466" lon="4.67783">
        <ele>363</ele>
        <time>2016-11-30T15:11:07Z</time>
      </trkpt>
      <trkpt lat="45.90473" lon="4.67785">
        <ele>363</ele>
        <time>2016-11-30T15:11:08Z</time>
      </trkpt>
      <trkpt lat="45.90482" lon="4.67788">
        <ele>363</ele>
        <time>2016-11-30T15:11:09Z</time>
      </trkpt>
      <trkpt lat="45.9049" lon="4.6779">
        <ele>363</ele>
        <time>2016-11-30T15:11:10Z</time>
      </trkpt>
      <trkpt lat="45.90498" lon="4.67792">
        <ele>363</ele>
        <time>2016-11-30T15:11:11Z</time>
      </trkpt>
      <trkpt lat="45.90505" lon="4.67794">
        <ele>364</ele>
        <time>2016-11-30T15:11:12Z</time>
      </trkpt>
      <trkpt lat="45.90513" lon="4.67797">
        <ele>365</ele>
        <time>2016-11-30T15:11:13Z</time>
      </trkpt>
      <trkpt lat="45.90523" lon="4.67795">
        <ele>365</ele>
        <time>2016-11-30T15:11:14Z</time>
      </trkpt>
      <trkpt lat="45.9053" lon="4.67798">
        <ele>365</ele>
        <time>2016-11-30T15:11:15Z</time>
      </trkpt>
      <trkpt lat="45.90536" lon="4.678">
        <ele>365</ele>
        <time>2016-11-30T15:11:16Z</time>
      </trkpt>
      <trkpt lat="45.90543" lon="4.67802">
        <ele>365</ele>
        <time>2016-11-30T15:11:17Z</time>
      </trkpt>
      <trkpt lat="45.90549" lon="4.67804">
        <ele>365</ele>
        <time>2016-11-30T15:11:18Z</time>
      </trkpt>
      <trkpt lat="45.90555" lon="4.67805">
        <ele>365</ele>
        <time>2016-11-30T15:11:19Z</time>
      </trkpt>
      <trkpt lat="45.90561" lon="4.67806">
        <ele>365</ele>
        <time>2016-11-30T15:11:20Z</time>
      </trkpt>
      <trkpt lat="45.90566" lon="4.67807">
        <ele>366</ele>
        <time>2016-11-30T15:11:21Z</time>
      </trkpt>
      <trkpt lat="45.90571" lon="4.67807">
        <ele>366</ele>
        <time>2016-11-30T15:11:22Z</time>
      </trkpt>
      <trkpt lat="45.90576" lon="4.67808">
        <ele>366</ele>
        <time>2016-11-30T15:11:23Z</time>
      </trkpt>
      <trkpt lat="45.90582" lon="4.67808">
        <ele>366</ele>
        <time>2016-11-30T15:11:24Z</time>
      </trkpt>
      <trkpt lat="45.90586" lon="4.67808">
        <ele>367</ele>
        <time>2016-11-30T15:11:25Z</time>
      </trkpt>
      <trkpt lat="45.90592" lon="4.67807">
        <ele>367</ele>
        <time>2016-11-30T15:11:26Z</time>
      </trkpt>
      <trkpt lat="45.90597" lon="4.67807">
        <ele>367</ele>
        <time>2016-11-30T15:11:27Z</time>
      </trkpt>
      <trkpt lat="45.90601" lon="4.67808">
        <ele>367</ele>
        <time>2016-11-30T15:11:28Z</time>
      </trkpt>
      <trkpt lat="45.90606" lon="4.67809">
        <ele>367</ele>
        <time>2016-11-30T15:11:29Z</time>
      </trkpt>
      <trkpt lat="45.90611" lon="4.67809">
        <ele>367</ele>
        <time>2016-11-30T15:11:30Z</time>
      </trkpt>
      <trkpt lat="45.90616" lon="4.67809">
        <ele>367</ele>
        <time>2016-11-30T15:11:31Z</time>
      </trkpt>
      <trkpt lat="45.9062" lon="4.67809">
        <ele>367</ele>
        <time>2016-11-30T15:11:32Z</time>
      </trkpt>
      <trkpt lat="45.90625" lon="4.67809">
        <ele>367</ele>
        <time>2016-11-30T15:11:33Z</time>
      </trkpt>
      <trkpt lat="45.90631" lon="4.67808">
        <ele>367</ele>
        <time>2016-11-30T15:11:34Z</time>
      </trkpt>
      <trkpt lat="45.90636" lon="4.67807">
        <ele>368</ele>
        <time>2016-11-30T15:11:35Z</time>
      </trkpt>
      <trkpt lat="45.9064" lon="4.67808">
        <ele>368</ele>
        <time>2016-11-30T15:11:36Z</time>
      </trkpt>
      <trkpt lat="45.90645" lon="4.67808">
        <ele>368</ele>
        <time>2016-11-30T15:11:37Z</time>
      </trkpt>
      <trkpt lat="45.9065" lon="4.67807">
        <ele>368</ele>
        <time>2016-11-30T15:11:38Z</time>
      </trkpt>
      <trkpt lat="45.90658" lon="4.67808">
        <ele>368</ele>
        <time>2016-11-30T15:11:40Z</time>
      </trkpt>
      <trkpt lat="45.90663" lon="4.67808">
        <ele>368</ele>
        <time>2016-11-30T15:11:41Z</time>
      </trkpt>
      <trkpt lat="45.90671" lon="4.67809">
        <ele>368</ele>
        <time>2016-11-30T15:11:43Z</time>
      </trkpt>
      <trkpt lat="45.90675" lon="4.67809">
        <ele>368</ele>
        <time>2016-11-30T15:11:44Z</time>
      </trkpt>
      <trkpt lat="45.90683" lon="4.67809">
        <ele>368</ele>
        <time>2016-11-30T15:11:46Z</time>
      </trkpt>
      <trkpt lat="45.90686" lon="4.67809">
        <ele>368</ele>
        <time>2016-11-30T15:11:47Z</time>
      </trkpt>
      <trkpt lat="45.90693" lon="4.67811">
        <ele>368</ele>
        <time>2016-11-30T15:11:49Z</time>
      </trkpt>
      <trkpt lat="45.90698" lon="4.67811">
        <ele>368</ele>
        <time>2016-11-30T15:11:50Z</time>
      </trkpt>
      <trkpt lat="45.90703" lon="4.6781">
        <ele>368</ele>
        <time>2016-11-30T15:11:51Z</time>
      </trkpt>
      <trkpt lat="45.90707" lon="4.67811">
        <ele>368</ele>
        <time>2016-11-30T15:11:52Z</time>
      </trkpt>
      <trkpt lat="45.90711" lon="4.67812">
        <ele>368</ele>
        <time>2016-11-30T15:11:53Z</time>
      </trkpt>
      <trkpt lat="45.90716" lon="4.67813">
        <ele>369</ele>
        <time>2016-11-30T15:11:54Z</time>
      </trkpt>
      <trkpt lat="45.90724" lon="4.67815">
        <ele>369</ele>
        <time>2016-11-30T15:11:56Z</time>
      </trkpt>
      <trkpt lat="45.90729" lon="4.67816">
        <ele>369</ele>
        <time>2016-11-30T15:11:57Z</time>
      </trkpt>
      <trkpt lat="45.90737" lon="4.67819">
        <ele>369</ele>
        <time>2016-11-30T15:11:59Z</time>
      </trkpt>
      <trkpt lat="45.90741" lon="4.6782">
        <ele>369</ele>
        <time>2016-11-30T15:12:00Z</time>
      </trkpt>
      <trkpt lat="45.90749" lon="4.67821">
        <ele>370</ele>
        <time>2016-11-30T15:12:02Z</time>
      </trkpt>
      <trkpt lat="45.90752" lon="4.67823">
        <ele>370</ele>
        <time>2016-11-30T15:12:03Z</time>
      </trkpt>
      <trkpt lat="45.90758" lon="4.67825">
        <ele>370</ele>
        <time>2016-11-30T15:12:05Z</time>
      </trkpt>
      <trkpt lat="45.90761" lon="4.67827">
        <ele>370</ele>
        <time>2016-11-30T15:12:06Z</time>
      </trkpt>
      <trkpt lat="45.90768" lon="4.6783">
        <ele>369</ele>
        <time>2016-11-30T15:12:08Z</time>
      </trkpt>
      <trkpt lat="45.90772" lon="4.67831">
        <ele>369</ele>
        <time>2016-11-30T15:12:09Z</time>
      </trkpt>
      <trkpt lat="45.90779" lon="4.67834">
        <ele>371</ele>
        <time>2016-11-30T15:12:11Z</time>
      </trkpt>
      <trkpt lat="45.90782" lon="4.67835">
        <ele>371</ele>
        <time>2016-11-30T15:12:12Z</time>
      </trkpt>
      <trkpt lat="45.9079" lon="4.67836">
        <ele>371</ele>
        <time>2016-11-30T15:12:14Z</time>
      </trkpt>
      <trkpt lat="45.90793" lon="4.67838">
        <ele>371</ele>
        <time>2016-11-30T15:12:15Z</time>
      </trkpt>
      <trkpt lat="45.908" lon="4.6784">
        <ele>371</ele>
        <time>2016-11-30T15:12:17Z</time>
      </trkpt>
      <trkpt lat="45.90803" lon="4.67842">
        <ele>371</ele>
        <time>2016-11-30T15:12:18Z</time>
      </trkpt>
      <trkpt lat="45.90811" lon="4.67845">
        <ele>371</ele>
        <time>2016-11-30T15:12:20Z</time>
      </trkpt>
      <trkpt lat="45.90815" lon="4.67846">
        <ele>371</ele>
        <time>2016-11-30T15:12:21Z</time>
      </trkpt>
      <trkpt lat="45.90822" lon="4.67848">
        <ele>370</ele>
        <time>2016-11-30T15:12:23Z</time>
      </trkpt>
      <trkpt lat="45.90826" lon="4.67849">
        <ele>370</ele>
        <time>2016-11-30T15:12:24Z</time>
      </trkpt>
      <trkpt lat="45.90833" lon="4.67854">
        <ele>370</ele>
        <time>2016-11-30T15:12:26Z</time>
      </trkpt>
      <trkpt lat="45.90838" lon="4.67855">
        <ele>370</ele>
        <time>2016-11-30T15:12:27Z</time>
      </trkpt>
      <trkpt lat="45.90846" lon="4.67856">
        <ele>370</ele>
        <time>2016-11-30T15:12:29Z</time>
      </trkpt>
      <trkpt lat="45.9085" lon="4.67857">
        <ele>370</ele>
        <time>2016-11-30T15:12:30Z</time>
      </trkpt>
      <trkpt lat="45.90856" lon="4.67861">
        <ele>370</ele>
        <time>2016-11-30T15:12:32Z</time>
      </trkpt>
      <trkpt lat="45.9086" lon="4.67863">
        <ele>370</ele>
        <time>2016-11-30T15:12:33Z</time>
      </trkpt>
      <trkpt lat="45.90867" lon="4.67867">
        <ele>370</ele>
        <time>2016-11-30T15:12:35Z</time>
      </trkpt>
      <trkpt lat="45.90871" lon="4.67868">
        <ele>370</ele>
        <time>2016-11-30T15:12:36Z</time>
      </trkpt>
      <trkpt lat="45.90878" lon="4.67873">
        <ele>370</ele>
        <time>2016-11-30T15:12:38Z</time>
      </trkpt>
      <trkpt lat="45.90882" lon="4.67875">
        <ele>370</ele>
        <time>2016-11-30T15:12:39Z</time>
      </trkpt>
      <trkpt lat="45.9089" lon="4.67879">
        <ele>370</ele>
        <time>2016-11-30T15:12:41Z</time>
      </trkpt>
      <trkpt lat="45.90894" lon="4.67881">
        <ele>370</ele>
        <time>2016-11-30T15:12:42Z</time>
      </trkpt>
      <trkpt lat="45.90902" lon="4.67884">
        <ele>370</ele>
        <time>2016-11-30T15:12:44Z</time>
      </trkpt>
      <trkpt lat="45.90905" lon="4.67886">
        <ele>370</ele>
        <time>2016-11-30T15:12:45Z</time>
      </trkpt>
      <trkpt lat="45.90913" lon="4.67889">
        <ele>370</ele>
        <time>2016-11-30T15:12:47Z</time>
      </trkpt>
      <trkpt lat="45.90917" lon="4.67891">
        <ele>370</ele>
        <time>2016-11-30T15:12:48Z</time>
      </trkpt>
      <trkpt lat="45.90924" lon="4.67894">
        <ele>370</ele>
        <time>2016-11-30T15:12:50Z</time>
      </trkpt>
      <trkpt lat="45.90928" lon="4.67896">
        <ele>370</ele>
        <time>2016-11-30T15:12:51Z</time>
      </trkpt>
      <trkpt lat="45.90936" lon="4.67899">
        <ele>370</ele>
        <time>2016-11-30T15:12:53Z</time>
      </trkpt>
      <trkpt lat="45.9094" lon="4.67901">
        <ele>370</ele>
        <time>2016-11-30T15:12:54Z</time>
      </trkpt>
      <trkpt lat="45.90948" lon="4.67903">
        <ele>370</ele>
        <time>2016-11-30T15:12:56Z</time>
      </trkpt>
      <trkpt lat="45.90952" lon="4.67905">
        <ele>370</ele>
        <time>2016-11-30T15:12:57Z</time>
      </trkpt>
      <trkpt lat="45.90959" lon="4.67909">
        <ele>370</ele>
        <time>2016-11-30T15:12:59Z</time>
      </trkpt>
      <trkpt lat="45.90963" lon="4.67911">
        <ele>370</ele>
        <time>2016-11-30T15:13:00Z</time>
      </trkpt>
      <trkpt lat="45.90971" lon="4.67914">
        <ele>370</ele>
        <time>2016-11-30T15:13:02Z</time>
      </trkpt>
      <trkpt lat="45.90974" lon="4.67916">
        <ele>370</ele>
        <time>2016-11-30T15:13:03Z</time>
      </trkpt>
      <trkpt lat="45.90982" lon="4.67919">
        <ele>372</ele>
        <time>2016-11-30T15:13:05Z</time>
      </trkpt>
      <trkpt lat="45.90986" lon="4.67924">
        <ele>372</ele>
        <time>2016-11-30T15:13:06Z</time>
      </trkpt>
      <trkpt lat="45.90991" lon="4.67926">
        <ele>372</ele>
        <time>2016-11-30T15:13:07Z</time>
      </trkpt>
      <trkpt lat="45.90996" lon="4.67928">
        <ele>372</ele>
        <time>2016-11-30T15:13:08Z</time>
      </trkpt>
      <trkpt lat="45.91004" lon="4.67931">
        <ele>373</ele>
        <time>2016-11-30T15:13:10Z</time>
      </trkpt>
      <trkpt lat="45.91008" lon="4.67932">
        <ele>373</ele>
        <time>2016-11-30T15:13:11Z</time>
      </trkpt>
      <trkpt lat="45.91016" lon="4.67935">
        <ele>374</ele>
        <time>2016-11-30T15:13:13Z</time>
      </trkpt>
      <trkpt lat="45.91021" lon="4.67935">
        <ele>374</ele>
        <time>2016-11-30T15:13:14Z</time>
      </trkpt>
      <trkpt lat="45.91028" lon="4.67938">
        <ele>374</ele>
        <time>2016-11-30T15:13:16Z</time>
      </trkpt>
      <trkpt lat="45.91032" lon="4.67939">
        <ele>374</ele>
        <time>2016-11-30T15:13:17Z</time>
      </trkpt>
      <trkpt lat="45.9104" lon="4.67941">
        <ele>374</ele>
        <time>2016-11-30T15:13:19Z</time>
      </trkpt>
      <trkpt lat="45.91044" lon="4.67942">
        <ele>374</ele>
        <time>2016-11-30T15:13:20Z</time>
      </trkpt>
      <trkpt lat="45.91052" lon="4.67945">
        <ele>375</ele>
        <time>2016-11-30T15:13:22Z</time>
      </trkpt>
      <trkpt lat="45.91056" lon="4.67946">
        <ele>375</ele>
        <time>2016-11-30T15:13:23Z</time>
      </trkpt>
      <trkpt lat="45.91063" lon="4.6795">
        <ele>375</ele>
        <time>2016-11-30T15:13:25Z</time>
      </trkpt>
      <trkpt lat="45.91066" lon="4.67952">
        <ele>375</ele>
        <time>2016-11-30T15:13:26Z</time>
      </trkpt>
      <trkpt lat="45.91072" lon="4.67955">
        <ele>375</ele>
        <time>2016-11-30T15:13:28Z</time>
      </trkpt>
      <trkpt lat="45.91075" lon="4.67956">
        <ele>375</ele>
        <time>2016-11-30T15:13:29Z</time>
      </trkpt>
      <trkpt lat="45.91081" lon="4.67961">
        <ele>375</ele>
        <time>2016-11-30T15:13:31Z</time>
      </trkpt>
      <trkpt lat="45.91084" lon="4.6796">
        <ele>376</ele>
        <time>2016-11-30T15:13:32Z</time>
      </trkpt>
      <trkpt lat="45.91091" lon="4.67958">
        <ele>376</ele>
        <time>2016-11-30T15:13:34Z</time>
      </trkpt>
      <trkpt lat="45.91095" lon="4.67957">
        <ele>376</ele>
        <time>2016-11-30T15:13:35Z</time>
      </trkpt>
      <trkpt lat="45.91103" lon="4.67958">
        <ele>377</ele>
        <time>2016-11-30T15:13:38Z</time>
      </trkpt>
      <trkpt lat="45.91106" lon="4.67959">
        <ele>377</ele>
        <time>2016-11-30T15:13:39Z</time>
      </trkpt>
      <trkpt lat="45.91113" lon="4.6796">
        <ele>377</ele>
        <time>2016-11-30T15:13:41Z</time>
      </trkpt>
      <trkpt lat="45.91117" lon="4.67961">
        <ele>377</ele>
        <time>2016-11-30T15:13:42Z</time>
      </trkpt>
      <trkpt lat="45.91124" lon="4.67963">
        <ele>377</ele>
        <time>2016-11-30T15:13:44Z</time>
      </trkpt>
      <trkpt lat="45.91127" lon="4.67964">
        <ele>377</ele>
        <time>2016-11-30T15:13:45Z</time>
      </trkpt>
      <trkpt lat="45.91134" lon="4.67965">
        <ele>377</ele>
        <time>2016-11-30T15:13:47Z</time>
      </trkpt>
      <trkpt lat="45.91137" lon="4.67966">
        <ele>377</ele>
        <time>2016-11-30T15:13:48Z</time>
      </trkpt>
      <trkpt lat="45.91143" lon="4.67969">
        <ele>377</ele>
        <time>2016-11-30T15:13:50Z</time>
      </trkpt>
      <trkpt lat="45.91145" lon="4.67973">
        <ele>378</ele>
        <time>2016-11-30T15:13:51Z</time>
      </trkpt>
      <trkpt lat="45.91154" lon="4.67975">
        <ele>378</ele>
        <time>2016-11-30T15:13:53Z</time>
      </trkpt>
      <trkpt lat="45.91157" lon="4.67976">
        <ele>378</ele>
        <time>2016-11-30T15:13:54Z</time>
      </trkpt>
      <trkpt lat="45.91165" lon="4.67977">
        <ele>378</ele>
        <time>2016-11-30T15:13:56Z</time>
      </trkpt>
      <trkpt lat="45.91168" lon="4.6798">
        <ele>380</ele>
        <time>2016-11-30T15:13:57Z</time>
      </trkpt>
      <trkpt lat="45.91176" lon="4.67984">
        <ele>380</ele>
        <time>2016-11-30T15:13:59Z</time>
      </trkpt>
      <trkpt lat="45.91179" lon="4.67987">
        <ele>380</ele>
        <time>2016-11-30T15:14:00Z</time>
      </trkpt>
      <trkpt lat="45.91186" lon="4.67991">
        <ele>380</ele>
        <time>2016-11-30T15:14:02Z</time>
      </trkpt>
      <trkpt lat="45.91189" lon="4.67993">
        <ele>380</ele>
        <time>2016-11-30T15:14:03Z</time>
      </trkpt>
      <trkpt lat="45.91195" lon="4.67995">
        <ele>380</ele>
        <time>2016-11-30T15:14:05Z</time>
      </trkpt>
      <trkpt lat="45.91199" lon="4.67996">
        <ele>380</ele>
        <time>2016-11-30T15:14:06Z</time>
      </trkpt>
      <trkpt lat="45.91204" lon="4.68">
        <ele>380</ele>
        <time>2016-11-30T15:14:08Z</time>
      </trkpt>
      <trkpt lat="45.91207" lon="4.68002">
        <ele>383</ele>
        <time>2016-11-30T15:14:09Z</time>
      </trkpt>
      <trkpt lat="45.91215" lon="4.68008">
        <ele>383</ele>
        <time>2016-11-30T15:14:12Z</time>
      </trkpt>
      <trkpt lat="45.91218" lon="4.6801">
        <ele>383</ele>
        <time>2016-11-30T15:14:13Z</time>
      </trkpt>
      <trkpt lat="45.91224" lon="4.68014">
        <ele>384</ele>
        <time>2016-11-30T15:14:15Z</time>
      </trkpt>
      <trkpt lat="45.91226" lon="4.68016">
        <ele>384</ele>
        <time>2016-11-30T15:14:16Z</time>
      </trkpt>
      <trkpt lat="45.91232" lon="4.68018">
        <ele>384</ele>
        <time>2016-11-30T15:14:18Z</time>
      </trkpt>
      <trkpt lat="45.91236" lon="4.68018">
        <ele>384</ele>
        <time>2016-11-30T15:14:19Z</time>
      </trkpt>
      <trkpt lat="45.91242" lon="4.68021">
        <ele>384</ele>
        <time>2016-11-30T15:14:21Z</time>
      </trkpt>
      <trkpt lat="45.91245" lon="4.68024">
        <ele>384</ele>
        <time>2016-11-30T15:14:22Z</time>
      </trkpt>
      <trkpt lat="45.91251" lon="4.68025">
        <ele>385</ele>
        <time>2016-11-30T15:14:24Z</time>
      </trkpt>
      <trkpt lat="45.91254" lon="4.68026">
        <ele>385</ele>
        <time>2016-11-30T15:14:25Z</time>
      </trkpt>
      <trkpt lat="45.91261" lon="4.6803">
        <ele>385</ele>
        <time>2016-11-30T15:14:27Z</time>
      </trkpt>
      <trkpt lat="45.91264" lon="4.68032">
        <ele>385</ele>
        <time>2016-11-30T15:14:28Z</time>
      </trkpt>
      <trkpt lat="45.9127" lon="4.68034">
        <ele>385</ele>
        <time>2016-11-30T15:14:30Z</time>
      </trkpt>
      <trkpt lat="45.91274" lon="4.68036">
        <ele>385</ele>
        <time>2016-11-30T15:14:31Z</time>
      </trkpt>
      <trkpt lat="45.9128" lon="4.68041">
        <ele>385</ele>
        <time>2016-11-30T15:14:33Z</time>
      </trkpt>
      <trkpt lat="45.91284" lon="4.68043">
        <ele>385</ele>
        <time>2016-11-30T15:14:34Z</time>
      </trkpt>
      <trkpt lat="45.9129" lon="4.68047">
        <ele>385</ele>
        <time>2016-11-30T15:14:36Z</time>
      </trkpt>
      <trkpt lat="45.91293" lon="4.68049">
        <ele>385</ele>
        <time>2016-11-30T15:14:37Z</time>
      </trkpt>
      <trkpt lat="45.91299" lon="4.68052">
        <ele>385</ele>
        <time>2016-11-30T15:14:39Z</time>
      </trkpt>
      <trkpt lat="45.91303" lon="4.68052">
        <ele>385</ele>
        <time>2016-11-30T15:14:40Z</time>
      </trkpt>
      <trkpt lat="45.9131" lon="4.68055">
        <ele>385</ele>
        <time>2016-11-30T15:14:42Z</time>
      </trkpt>
      <trkpt lat="45.91313" lon="4.68057">
        <ele>385</ele>
        <time>2016-11-30T15:14:43Z</time>
      </trkpt>
      <trkpt lat="45.91319" lon="4.6806">
        <ele>385</ele>
        <time>2016-11-30T15:14:45Z</time>
      </trkpt>
      <trkpt lat="45.91323" lon="4.68064">
        <ele>385</ele>
        <time>2016-11-30T15:14:46Z</time>
      </trkpt>
      <trkpt lat="45.91328" lon="4.68067">
        <ele>385</ele>
        <time>2016-11-30T15:14:47Z</time>
      </trkpt>
      <trkpt lat="45.91332" lon="4.68069">
        <ele>385</ele>
        <time>2016-11-30T15:14:48Z</time>
      </trkpt>
      <trkpt lat="45.91339" lon="4.68074">
        <ele>385</ele>
        <time>2016-11-30T15:14:50Z</time>
      </trkpt>
      <trkpt lat="45.91343" lon="4.68075">
        <ele>385</ele>
        <time>2016-11-30T15:14:51Z</time>
      </trkpt>
      <trkpt lat="45.91351" lon="4.68075">
        <ele>385</ele>
        <time>2016-11-30T15:14:53Z</time>
      </trkpt>
      <trkpt lat="45.91355" lon="4.68077">
        <ele>385</ele>
        <time>2016-11-30T15:14:54Z</time>
      </trkpt>
      <trkpt lat="45.91363" lon="4.68079">
        <ele>385</ele>
        <time>2016-11-30T15:14:56Z</time>
      </trkpt>
      <trkpt lat="45.91366" lon="4.68081">
        <ele>385</ele>
        <time>2016-11-30T15:14:57Z</time>
      </trkpt>
      <trkpt lat="45.91373" lon="4.68084">
        <ele>386</ele>
        <time>2016-11-30T15:14:59Z</time>
      </trkpt>
      <trkpt lat="45.91376" lon="4.68085">
        <ele>386</ele>
        <time>2016-11-30T15:15:00Z</time>
      </trkpt>
      <trkpt lat="45.91382" lon="4.68087">
        <ele>386</ele>
        <time>2016-11-30T15:15:02Z</time>
      </trkpt>
      <trkpt lat="45.91386" lon="4.68086">
        <ele>386</ele>
        <time>2016-11-30T15:15:03Z</time>
      </trkpt>
      <trkpt lat="45.91394" lon="4.68083">
        <ele>385</ele>
        <time>2016-11-30T15:15:05Z</time>
      </trkpt>
      <trkpt lat="45.91398" lon="4.68083">
        <ele>385</ele>
        <time>2016-11-30T15:15:06Z</time>
      </trkpt>
      <trkpt lat="45.91407" lon="4.68083">
        <ele>386</ele>
        <time>2016-11-30T15:15:08Z</time>
      </trkpt>
      <trkpt lat="45.91411" lon="4.68083">
        <ele>386</ele>
        <time>2016-11-30T15:15:09Z</time>
      </trkpt>
      <trkpt lat="45.91416" lon="4.68083">
        <ele>386</ele>
        <time>2016-11-30T15:15:10Z</time>
      </trkpt>
      <trkpt lat="45.91421" lon="4.68082">
        <ele>386</ele>
        <time>2016-11-30T15:15:11Z</time>
      </trkpt>
      <trkpt lat="45.91426" lon="4.68081">
        <ele>385</ele>
        <time>2016-11-30T15:15:12Z</time>
      </trkpt>
      <trkpt lat="45.91436" lon="4.6808">
        <ele>385</ele>
        <time>2016-11-30T15:15:14Z</time>
      </trkpt>
      <trkpt lat="45.91441" lon="4.68082">
        <ele>385</ele>
        <time>2016-11-30T15:15:15Z</time>
      </trkpt>
      <trkpt lat="45.91446" lon="4.68083">
        <ele>384</ele>
        <time>2016-11-30T15:15:16Z</time>
      </trkpt>
      <trkpt lat="45.91452" lon="4.68083">
        <ele>384</ele>
        <time>2016-11-30T15:15:17Z</time>
      </trkpt>
      <trkpt lat="45.91458" lon="4.68083">
        <ele>384</ele>
        <time>2016-11-30T15:15:18Z</time>
      </trkpt>
      <trkpt lat="45.91464" lon="4.68083">
        <ele>384</ele>
        <time>2016-11-30T15:15:19Z</time>
      </trkpt>
      <trkpt lat="45.91469" lon="4.68086">
        <ele>384</ele>
        <time>2016-11-30T15:15:20Z</time>
      </trkpt>
      <trkpt lat="45.91475" lon="4.68087">
        <ele>383</ele>
        <time>2016-11-30T15:15:21Z</time>
      </trkpt>
      <trkpt lat="45.91482" lon="4.68088">
        <ele>383</ele>
        <time>2016-11-30T15:15:22Z</time>
      </trkpt>
      <trkpt lat="45.91488" lon="4.68089">
        <ele>383</ele>
        <time>2016-11-30T15:15:23Z</time>
      </trkpt>
      <trkpt lat="45.91495" lon="4.6809">
        <ele>383</ele>
        <time>2016-11-30T15:15:24Z</time>
      </trkpt>
      <trkpt lat="45.91501" lon="4.68093">
        <ele>381</ele>
        <time>2016-11-30T15:15:25Z</time>
      </trkpt>
      <trkpt lat="45.91508" lon="4.68094">
        <ele>381</ele>
        <time>2016-11-30T15:15:26Z</time>
      </trkpt>
      <trkpt lat="45.91516" lon="4.68094">
        <ele>380</ele>
        <time>2016-11-30T15:15:27Z</time>
      </trkpt>
      <trkpt lat="45.91523" lon="4.68098">
        <ele>380</ele>
        <time>2016-11-30T15:15:28Z</time>
      </trkpt>
      <trkpt lat="45.91531" lon="4.681">
        <ele>379</ele>
        <time>2016-11-30T15:15:29Z</time>
      </trkpt>
      <trkpt lat="45.91539" lon="4.68104">
        <ele>379</ele>
        <time>2016-11-30T15:15:30Z</time>
      </trkpt>
      <trkpt lat="45.91546" lon="4.68109">
        <ele>378</ele>
        <time>2016-11-30T15:15:31Z</time>
      </trkpt>
      <trkpt lat="45.91553" lon="4.68113">
        <ele>378</ele>
        <time>2016-11-30T15:15:32Z</time>
      </trkpt>
      <trkpt lat="45.91559" lon="4.68118">
        <ele>378</ele>
        <time>2016-11-30T15:15:33Z</time>
      </trkpt>
      <trkpt lat="45.91566" lon="4.68121">
        <ele>378</ele>
        <time>2016-11-30T15:15:34Z</time>
      </trkpt>
      <trkpt lat="45.91571" lon="4.68126">
        <ele>378</ele>
        <time>2016-11-30T15:15:35Z</time>
      </trkpt>
      <trkpt lat="45.91576" lon="4.6813">
        <ele>378</ele>
        <time>2016-11-30T15:15:36Z</time>
      </trkpt>
      <trkpt lat="45.91581" lon="4.68133">
        <ele>378</ele>
        <time>2016-11-30T15:15:37Z</time>
      </trkpt>
      <trkpt lat="45.91587" lon="4.68136">
        <ele>373</ele>
        <time>2016-11-30T15:15:38Z</time>
      </trkpt>
      <trkpt lat="45.91593" lon="4.6814">
        <ele>373</ele>
        <time>2016-11-30T15:15:39Z</time>
      </trkpt>
      <trkpt lat="45.91598" lon="4.68144">
        <ele>373</ele>
        <time>2016-11-30T15:15:40Z</time>
      </trkpt>
      <trkpt lat="45.91604" lon="4.68146">
        <ele>373</ele>
        <time>2016-11-30T15:15:41Z</time>
      </trkpt>
      <trkpt lat="45.9161" lon="4.6815">
        <ele>373</ele>
        <time>2016-11-30T15:15:42Z</time>
      </trkpt>
      <trkpt lat="45.91616" lon="4.68155">
        <ele>372</ele>
        <time>2016-11-30T15:15:43Z</time>
      </trkpt>
      <trkpt lat="45.91623" lon="4.68161">
        <ele>372</ele>
        <time>2016-11-30T15:15:44Z</time>
      </trkpt>
      <trkpt lat="45.91629" lon="4.68166">
        <ele>371</ele>
        <time>2016-11-30T15:15:45Z</time>
      </trkpt>
      <trkpt lat="45.91635" lon="4.6817">
        <ele>374</ele>
        <time>2016-11-30T15:15:46Z</time>
      </trkpt>
      <trkpt lat="45.91642" lon="4.68175">
        <ele>373</ele>
        <time>2016-11-30T15:15:47Z</time>
      </trkpt>
      <trkpt lat="45.91648" lon="4.6818">
        <ele>373</ele>
        <time>2016-11-30T15:15:48Z</time>
      </trkpt>
      <trkpt lat="45.91655" lon="4.68185">
        <ele>372</ele>
        <time>2016-11-30T15:15:49Z</time>
      </trkpt>
      <trkpt lat="45.91662" lon="4.6819">
        <ele>373</ele>
        <time>2016-11-30T15:15:50Z</time>
      </trkpt>
      <trkpt lat="45.9167" lon="4.68195">
        <ele>369</ele>
        <time>2016-11-30T15:15:51Z</time>
      </trkpt>
      <trkpt lat="45.91676" lon="4.682">
        <ele>370</ele>
        <time>2016-11-30T15:15:52Z</time>
      </trkpt>
      <trkpt lat="45.91683" lon="4.68204">
        <ele>370</ele>
        <time>2016-11-30T15:15:53Z</time>
      </trkpt>
      <trkpt lat="45.91689" lon="4.6821">
        <ele>370</ele>
        <time>2016-11-30T15:15:54Z</time>
      </trkpt>
      <trkpt lat="45.91695" lon="4.68216">
        <ele>370</ele>
        <time>2016-11-30T15:15:55Z</time>
      </trkpt>
      <trkpt lat="45.91701" lon="4.6822">
        <ele>370</ele>
        <time>2016-11-30T15:15:56Z</time>
      </trkpt>
      <trkpt lat="45.91707" lon="4.68224">
        <ele>370</ele>
        <time>2016-11-30T15:15:57Z</time>
      </trkpt>
      <trkpt lat="45.91712" lon="4.68228">
        <ele>370</ele>
        <time>2016-11-30T15:15:58Z</time>
      </trkpt>
      <trkpt lat="45.91718" lon="4.68232">
        <ele>370</ele>
        <time>2016-11-30T15:15:59Z</time>
      </trkpt>
      <trkpt lat="45.91724" lon="4.68236">
        <ele>369</ele>
        <time>2016-11-30T15:16:00Z</time>
      </trkpt>
      <trkpt lat="45.9173" lon="4.68238">
        <ele>369</ele>
        <time>2016-11-30T15:16:01Z</time>
      </trkpt>
      <trkpt lat="45.91735" lon="4.68241">
        <ele>370</ele>
        <time>2016-11-30T15:16:02Z</time>
      </trkpt>
      <trkpt lat="45.91741" lon="4.68243">
        <ele>370</ele>
        <time>2016-11-30T15:16:03Z</time>
      </trkpt>
      <trkpt lat="45.91746" lon="4.68246">
        <ele>370</ele>
        <time>2016-11-30T15:16:04Z</time>
      </trkpt>
      <trkpt lat="45.9175" lon="4.68249">
        <ele>370</ele>
        <time>2016-11-30T15:16:05Z</time>
      </trkpt>
      <trkpt lat="45.91755" lon="4.68251">
        <ele>371</ele>
        <time>2016-11-30T15:16:06Z</time>
      </trkpt>
      <trkpt lat="45.91764" lon="4.68255">
        <ele>371</ele>
        <time>2016-11-30T15:16:08Z</time>
      </trkpt>
      <trkpt lat="45.91768" lon="4.68257">
        <ele>371</ele>
        <time>2016-11-30T15:16:09Z</time>
      </trkpt>
      <trkpt lat="45.91777" lon="4.68261">
        <ele>372</ele>
        <time>2016-11-30T15:16:11Z</time>
      </trkpt>
      <trkpt lat="45.9178" lon="4.68263">
        <ele>372</ele>
        <time>2016-11-30T15:16:12Z</time>
      </trkpt>
      <trkpt lat="45.91788" lon="4.68267">
        <ele>372</ele>
        <time>2016-11-30T15:16:14Z</time>
      </trkpt>
      <trkpt lat="45.91792" lon="4.68269">
        <ele>372</ele>
        <time>2016-11-30T15:16:15Z</time>
      </trkpt>
      <trkpt lat="45.918" lon="4.68272">
        <ele>372</ele>
        <time>2016-11-30T15:16:17Z</time>
      </trkpt>
      <trkpt lat="45.91804" lon="4.68274">
        <ele>372</ele>
        <time>2016-11-30T15:16:18Z</time>
      </trkpt>
      <trkpt lat="45.91809" lon="4.68274">
        <ele>372</ele>
        <time>2016-11-30T15:16:19Z</time>
      </trkpt>
      <trkpt lat="45.91814" lon="4.68274">
        <ele>372</ele>
        <time>2016-11-30T15:16:20Z</time>
      </trkpt>
      <trkpt lat="45.91819" lon="4.68275">
        <ele>372</ele>
        <time>2016-11-30T15:16:21Z</time>
      </trkpt>
      <trkpt lat="45.91824" lon="4.68275">
        <ele>372</ele>
        <time>2016-11-30T15:16:22Z</time>
      </trkpt>
      <trkpt lat="45.91832" lon="4.68276">
        <ele>372</ele>
        <time>2016-11-30T15:16:24Z</time>
      </trkpt>
      <trkpt lat="45.91836" lon="4.68277">
        <ele>374</ele>
        <time>2016-11-30T15:16:25Z</time>
      </trkpt>
      <trkpt lat="45.91843" lon="4.6828">
        <ele>374</ele>
        <time>2016-11-30T15:16:27Z</time>
      </trkpt>
      <trkpt lat="45.91847" lon="4.68281">
        <ele>374</ele>
        <time>2016-11-30T15:16:28Z</time>
      </trkpt>
      <trkpt lat="45.91855" lon="4.68281">
        <ele>375</ele>
        <time>2016-11-30T15:16:30Z</time>
      </trkpt>
      <trkpt lat="45.91859" lon="4.68281">
        <ele>375</ele>
        <time>2016-11-30T15:16:31Z</time>
      </trkpt>
      <trkpt lat="45.91867" lon="4.68282">
        <ele>375</ele>
        <time>2016-11-30T15:16:33Z</time>
      </trkpt>
      <trkpt lat="45.9187" lon="4.68284">
        <ele>375</ele>
        <time>2016-11-30T15:16:34Z</time>
      </trkpt>
      <trkpt lat="45.91878" lon="4.68284">
        <ele>376</ele>
        <time>2016-11-30T15:16:36Z</time>
      </trkpt>
      <trkpt lat="45.91882" lon="4.68284">
        <ele>376</ele>
        <time>2016-11-30T15:16:37Z</time>
      </trkpt>
      <trkpt lat="45.9189" lon="4.68285">
        <ele>376</ele>
        <time>2016-11-30T15:16:39Z</time>
      </trkpt>
      <trkpt lat="45.91894" lon="4.68286">
        <ele>376</ele>
        <time>2016-11-30T15:16:40Z</time>
      </trkpt>
      <trkpt lat="45.91902" lon="4.68288">
        <ele>376</ele>
        <time>2016-11-30T15:16:42Z</time>
      </trkpt>
      <trkpt lat="45.91906" lon="4.68289">
        <ele>376</ele>
        <time>2016-11-30T15:16:43Z</time>
      </trkpt>
      <trkpt lat="45.91914" lon="4.6829">
        <ele>376</ele>
        <time>2016-11-30T15:16:45Z</time>
      </trkpt>
      <trkpt lat="45.91918" lon="4.68291">
        <ele>379</ele>
        <time>2016-11-30T15:16:46Z</time>
      </trkpt>
      <trkpt lat="45.91925" lon="4.68292">
        <ele>379</ele>
        <time>2016-11-30T15:16:48Z</time>
      </trkpt>
      <trkpt lat="45.91929" lon="4.68293">
        <ele>379</ele>
        <time>2016-11-30T15:16:49Z</time>
      </trkpt>
      <trkpt lat="45.91936" lon="4.68294">
        <ele>379</ele>
        <time>2016-11-30T15:16:51Z</time>
      </trkpt>
      <trkpt lat="45.91938" lon="4.68296">
        <ele>379</ele>
        <time>2016-11-30T15:16:52Z</time>
      </trkpt>
      <trkpt lat="45.91945" lon="4.68297">
        <ele>379</ele>
        <time>2016-11-30T15:16:54Z</time>
      </trkpt>
      <trkpt lat="45.91948" lon="4.68297">
        <ele>379</ele>
        <time>2016-11-30T15:16:55Z</time>
      </trkpt>
      <trkpt lat="45.91956" lon="4.68301">
        <ele>379</ele>
        <time>2016-11-30T15:16:58Z</time>
      </trkpt>
      <trkpt lat="45.91959" lon="4.68302">
        <ele>379</ele>
        <time>2016-11-30T15:16:59Z</time>
      </trkpt>
      <trkpt lat="45.91966" lon="4.68304">
        <ele>380</ele>
        <time>2016-11-30T15:17:01Z</time>
      </trkpt>
      <trkpt lat="45.91969" lon="4.68305">
        <ele>380</ele>
        <time>2016-11-30T15:17:02Z</time>
      </trkpt>
      <trkpt lat="45.91976" lon="4.68307">
        <ele>380</ele>
        <time>2016-11-30T15:17:04Z</time>
      </trkpt>
      <trkpt lat="45.91979" lon="4.68307">
        <ele>380</ele>
        <time>2016-11-30T15:17:05Z</time>
      </trkpt>
      <trkpt lat="45.91986" lon="4.68307">
        <ele>380</ele>
        <time>2016-11-30T15:17:07Z</time>
      </trkpt>
      <trkpt lat="45.9199" lon="4.68307">
        <ele>380</ele>
        <time>2016-11-30T15:17:08Z</time>
      </trkpt>
      <trkpt lat="45.91996" lon="4.68308">
        <ele>380</ele>
        <time>2016-11-30T15:17:10Z</time>
      </trkpt>
      <trkpt lat="45.91999" lon="4.6831">
        <ele>380</ele>
        <time>2016-11-30T15:17:11Z</time>
      </trkpt>
      <trkpt lat="45.92005" lon="4.6831">
        <ele>380</ele>
        <time>2016-11-30T15:17:13Z</time>
      </trkpt>
      <trkpt lat="45.92008" lon="4.68311">
        <ele>380</ele>
        <time>2016-11-30T15:17:14Z</time>
      </trkpt>
      <trkpt lat="45.92014" lon="4.68312">
        <ele>380</ele>
        <time>2016-11-30T15:17:16Z</time>
      </trkpt>
      <trkpt lat="45.92017" lon="4.68313">
        <ele>380</ele>
        <time>2016-11-30T15:17:17Z</time>
      </trkpt>
      <trkpt lat="45.92024" lon="4.68313">
        <ele>380</ele>
        <time>2016-11-30T15:17:19Z</time>
      </trkpt>
      <trkpt lat="45.92027" lon="4.68314">
        <ele>380</ele>
        <time>2016-11-30T15:17:20Z</time>
      </trkpt>
      <trkpt lat="45.92034" lon="4.68317">
        <ele>380</ele>
        <time>2016-11-30T15:17:22Z</time>
      </trkpt>
      <trkpt lat="45.92038" lon="4.68317">
        <ele>379</ele>
        <time>2016-11-30T15:17:23Z</time>
      </trkpt>
      <trkpt lat="45.92046" lon="4.68319">
        <ele>379</ele>
        <time>2016-11-30T15:17:25Z</time>
      </trkpt>
      <trkpt lat="45.9205" lon="4.6832">
        <ele>379</ele>
        <time>2016-11-30T15:17:26Z</time>
      </trkpt>
      <trkpt lat="45.92057" lon="4.68321">
        <ele>380</ele>
        <time>2016-11-30T15:17:28Z</time>
      </trkpt>
      <trkpt lat="45.9206" lon="4.68323">
        <ele>380</ele>
        <time>2016-11-30T15:17:29Z</time>
      </trkpt>
      <trkpt lat="45.92064" lon="4.68325">
        <ele>380</ele>
        <time>2016-11-30T15:17:30Z</time>
      </trkpt>
      <trkpt lat="45.92069" lon="4.68327">
        <ele>380</ele>
        <time>2016-11-30T15:17:31Z</time>
      </trkpt>
      <trkpt lat="45.92077" lon="4.68331">
        <ele>381</ele>
        <time>2016-11-30T15:17:33Z</time>
      </trkpt>
      <trkpt lat="45.92081" lon="4.68333">
        <ele>382</ele>
        <time>2016-11-30T15:17:34Z</time>
      </trkpt>
      <trkpt lat="45.92089" lon="4.68338">
        <ele>382</ele>
        <time>2016-11-30T15:17:36Z</time>
      </trkpt>
      <trkpt lat="45.92093" lon="4.68339">
        <ele>383</ele>
        <time>2016-11-30T15:17:37Z</time>
      </trkpt>
      <trkpt lat="45.92101" lon="4.68343">
        <ele>383</ele>
        <time>2016-11-30T15:17:39Z</time>
      </trkpt>
      <trkpt lat="45.92105" lon="4.68345">
        <ele>383</ele>
        <time>2016-11-30T15:17:40Z</time>
      </trkpt>
      <trkpt lat="45.92113" lon="4.68348">
        <ele>383</ele>
        <time>2016-11-30T15:17:42Z</time>
      </trkpt>
      <trkpt lat="45.92117" lon="4.68349">
        <ele>383</ele>
        <time>2016-11-30T15:17:43Z</time>
      </trkpt>
      <trkpt lat="45.92125" lon="4.68353">
        <ele>383</ele>
        <time>2016-11-30T15:17:45Z</time>
      </trkpt>
      <trkpt lat="45.92129" lon="4.68356">
        <ele>383</ele>
        <time>2016-11-30T15:17:46Z</time>
      </trkpt>
      <trkpt lat="45.92134" lon="4.68358">
        <ele>383</ele>
        <time>2016-11-30T15:17:47Z</time>
      </trkpt>
      <trkpt lat="45.92138" lon="4.68361">
        <ele>383</ele>
        <time>2016-11-30T15:17:48Z</time>
      </trkpt>
      <trkpt lat="45.92142" lon="4.68364">
        <ele>383</ele>
        <time>2016-11-30T15:17:49Z</time>
      </trkpt>
      <trkpt lat="45.92146" lon="4.68367">
        <ele>383</ele>
        <time>2016-11-30T15:17:50Z</time>
      </trkpt>
      <trkpt lat="45.9215" lon="4.6837">
        <ele>383</ele>
        <time>2016-11-30T15:17:51Z</time>
      </trkpt>
      <trkpt lat="45.92155" lon="4.68372">
        <ele>383</ele>
        <time>2016-11-30T15:17:52Z</time>
      </trkpt>
      <trkpt lat="45.92161" lon="4.68377">
        <ele>384</ele>
        <time>2016-11-30T15:17:54Z</time>
      </trkpt>
      <trkpt lat="45.92166" lon="4.68382">
        <ele>384</ele>
        <time>2016-11-30T15:17:55Z</time>
      </trkpt>
      <trkpt lat="45.9217" lon="4.68386">
        <ele>383</ele>
        <time>2016-11-30T15:17:56Z</time>
      </trkpt>
      <trkpt lat="45.92174" lon="4.68391">
        <ele>383</ele>
        <time>2016-11-30T15:17:57Z</time>
      </trkpt>
      <trkpt lat="45.92175" lon="4.68397">
        <ele>383</ele>
        <time>2016-11-30T15:17:58Z</time>
      </trkpt>
      <trkpt lat="45.92177" lon="4.68404">
        <ele>384</ele>
        <time>2016-11-30T15:17:59Z</time>
      </trkpt>
      <trkpt lat="45.9218" lon="4.68409">
        <ele>384</ele>
        <time>2016-11-30T15:18:00Z</time>
      </trkpt>
      <trkpt lat="45.92184" lon="4.68414">
        <ele>384</ele>
        <time>2016-11-30T15:18:01Z</time>
      </trkpt>
      <trkpt lat="45.92187" lon="4.68419">
        <ele>386</ele>
        <time>2016-11-30T15:18:02Z</time>
      </trkpt>
      <trkpt lat="45.92191" lon="4.68424">
        <ele>386</ele>
        <time>2016-11-30T15:18:03Z</time>
      </trkpt>
      <trkpt lat="45.92197" lon="4.68429">
        <ele>386</ele>
        <time>2016-11-30T15:18:05Z</time>
      </trkpt>
      <trkpt lat="45.922" lon="4.68433">
        <ele>386</ele>
        <time>2016-11-30T15:18:06Z</time>
      </trkpt>
      <trkpt lat="45.92207" lon="4.68441">
        <ele>386</ele>
        <time>2016-11-30T15:18:08Z</time>
      </trkpt>
      <trkpt lat="45.92211" lon="4.68445">
        <ele>386</ele>
        <time>2016-11-30T15:18:09Z</time>
      </trkpt>
      <trkpt lat="45.92215" lon="4.68447">
        <ele>386</ele>
        <time>2016-11-30T15:18:10Z</time>
      </trkpt>
      <trkpt lat="45.92219" lon="4.6845">
        <ele>386</ele>
        <time>2016-11-30T15:18:11Z</time>
      </trkpt>
      <trkpt lat="45.92223" lon="4.68453">
        <ele>386</ele>
        <time>2016-11-30T15:18:12Z</time>
      </trkpt>
      <trkpt lat="45.92228" lon="4.68456">
        <ele>386</ele>
        <time>2016-11-30T15:18:13Z</time>
      </trkpt>
      <trkpt lat="45.92234" lon="4.68464">
        <ele>386</ele>
        <time>2016-11-30T15:18:15Z</time>
      </trkpt>
      <trkpt lat="45.92238" lon="4.68467">
        <ele>386</ele>
        <time>2016-11-30T15:18:16Z</time>
      </trkpt>
      <trkpt lat="45.92241" lon="4.68472">
        <ele>386</ele>
        <time>2016-11-30T15:18:17Z</time>
      </trkpt>
      <trkpt lat="45.92245" lon="4.68476">
        <ele>386</ele>
        <time>2016-11-30T15:18:18Z</time>
      </trkpt>
      <trkpt lat="45.92249" lon="4.6848">
        <ele>387</ele>
        <time>2016-11-30T15:18:19Z</time>
      </trkpt>
      <trkpt lat="45.92253" lon="4.68484">
        <ele>385</ele>
        <time>2016-11-30T15:18:20Z</time>
      </trkpt>
      <trkpt lat="45.92261" lon="4.68491">
        <ele>385</ele>
        <time>2016-11-30T15:18:22Z</time>
      </trkpt>
      <trkpt lat="45.92265" lon="4.68494">
        <ele>385</ele>
        <time>2016-11-30T15:18:23Z</time>
      </trkpt>
      <trkpt lat="45.92269" lon="4.68497">
        <ele>384</ele>
        <time>2016-11-30T15:18:24Z</time>
      </trkpt>
      <trkpt lat="45.92273" lon="4.685">
        <ele>387</ele>
        <time>2016-11-30T15:18:25Z</time>
      </trkpt>
      <trkpt lat="45.9228" lon="4.68509">
        <ele>388</ele>
        <time>2016-11-30T15:18:27Z</time>
      </trkpt>
      <trkpt lat="45.92283" lon="4.68512">
        <ele>388</ele>
        <time>2016-11-30T15:18:28Z</time>
      </trkpt>
      <trkpt lat="45.9229" lon="4.68518">
        <ele>388</ele>
        <time>2016-11-30T15:18:30Z</time>
      </trkpt>
      <trkpt lat="45.92294" lon="4.68521">
        <ele>387</ele>
        <time>2016-11-30T15:18:31Z</time>
      </trkpt>
      <trkpt lat="45.92298" lon="4.68524">
        <ele>387</ele>
        <time>2016-11-30T15:18:32Z</time>
      </trkpt>
      <trkpt lat="45.92302" lon="4.68527">
        <ele>387</ele>
        <time>2016-11-30T15:18:33Z</time>
      </trkpt>
      <trkpt lat="45.92306" lon="4.6853">
        <ele>387</ele>
        <time>2016-11-30T15:18:34Z</time>
      </trkpt>
      <trkpt lat="45.92309" lon="4.68535">
        <ele>388</ele>
        <time>2016-11-30T15:18:35Z</time>
      </trkpt>
      <trkpt lat="45.92316" lon="4.68539">
        <ele>388</ele>
        <time>2016-11-30T15:18:37Z</time>
      </trkpt>
      <trkpt lat="45.9232" lon="4.68541">
        <ele>388</ele>
        <time>2016-11-30T15:18:38Z</time>
      </trkpt>
      <trkpt lat="45.92324" lon="4.68543">
        <ele>388</ele>
        <time>2016-11-30T15:18:39Z</time>
      </trkpt>
      <trkpt lat="45.92329" lon="4.68546">
        <ele>388</ele>
        <time>2016-11-30T15:18:40Z</time>
      </trkpt>
      <trkpt lat="45.92332" lon="4.6855">
        <ele>388</ele>
        <time>2016-11-30T15:18:41Z</time>
      </trkpt>
      <trkpt lat="45.92336" lon="4.68553">
        <ele>385</ele>
        <time>2016-11-30T15:18:42Z</time>
      </trkpt>
      <trkpt lat="45.92344" lon="4.6856">
        <ele>386</ele>
        <time>2016-11-30T15:18:44Z</time>
      </trkpt>
      <trkpt lat="45.92348" lon="4.68563">
        <ele>386</ele>
        <time>2016-11-30T15:18:45Z</time>
      </trkpt>
      <trkpt lat="45.92352" lon="4.68565">
        <ele>386</ele>
        <time>2016-11-30T15:18:46Z</time>
      </trkpt>
      <trkpt lat="45.92357" lon="4.68567">
        <ele>385</ele>
        <time>2016-11-30T15:18:47Z</time>
      </trkpt>
      <trkpt lat="45.92361" lon="4.6857">
        <ele>385</ele>
        <time>2016-11-30T15:18:48Z</time>
      </trkpt>
      <trkpt lat="45.92365" lon="4.68573">
        <ele>385</ele>
        <time>2016-11-30T15:18:49Z</time>
      </trkpt>
      <trkpt lat="45.92369" lon="4.68577">
        <ele>385</ele>
        <time>2016-11-30T15:18:50Z</time>
      </trkpt>
      <trkpt lat="45.92373" lon="4.68579">
        <ele>384</ele>
        <time>2016-11-30T15:18:51Z</time>
      </trkpt>
      <trkpt lat="45.92377" lon="4.68582">
        <ele>384</ele>
        <time>2016-11-30T15:18:52Z</time>
      </trkpt>
      <trkpt lat="45.92382" lon="4.68585">
        <ele>387</ele>
        <time>2016-11-30T15:18:53Z</time>
      </trkpt>
      <trkpt lat="45.92387" lon="4.68588">
        <ele>387</ele>
        <time>2016-11-30T15:18:54Z</time>
      </trkpt>
      <trkpt lat="45.92392" lon="4.68592">
        <ele>386</ele>
        <time>2016-11-30T15:18:55Z</time>
      </trkpt>
      <trkpt lat="45.92397" lon="4.68595">
        <ele>386</ele>
        <time>2016-11-30T15:18:56Z</time>
      </trkpt>
      <trkpt lat="45.92403" lon="4.68597">
        <ele>385</ele>
        <time>2016-11-30T15:18:57Z</time>
      </trkpt>
      <trkpt lat="45.92408" lon="4.686">
        <ele>385</ele>
        <time>2016-11-30T15:18:58Z</time>
      </trkpt>
      <trkpt lat="45.92414" lon="4.68603">
        <ele>385</ele>
        <time>2016-11-30T15:18:59Z</time>
      </trkpt>
      <trkpt lat="45.92419" lon="4.68605">
        <ele>381</ele>
        <time>2016-11-30T15:19:00Z</time>
      </trkpt>
      <trkpt lat="45.92425" lon="4.68608">
        <ele>381</ele>
        <time>2016-11-30T15:19:01Z</time>
      </trkpt>
      <trkpt lat="45.92431" lon="4.68611">
        <ele>381</ele>
        <time>2016-11-30T15:19:02Z</time>
      </trkpt>
      <trkpt lat="45.92438" lon="4.68614">
        <ele>381</ele>
        <time>2016-11-30T15:19:03Z</time>
      </trkpt>
      <trkpt lat="45.92445" lon="4.68618">
        <ele>380</ele>
        <time>2016-11-30T15:19:04Z</time>
      </trkpt>
      <trkpt lat="45.92451" lon="4.68621">
        <ele>380</ele>
        <time>2016-11-30T15:19:05Z</time>
      </trkpt>
      <trkpt lat="45.92458" lon="4.68625">
        <ele>380</ele>
        <time>2016-11-30T15:19:06Z</time>
      </trkpt>
      <trkpt lat="45.92465" lon="4.68628">
        <ele>380</ele>
        <time>2016-11-30T15:19:07Z</time>
      </trkpt>
      <trkpt lat="45.92472" lon="4.68631">
        <ele>380</ele>
        <time>2016-11-30T15:19:08Z</time>
      </trkpt>
      <trkpt lat="45.92478" lon="4.68634">
        <ele>379</ele>
        <time>2016-11-30T15:19:09Z</time>
      </trkpt>
      <trkpt lat="45.92485" lon="4.68637">
        <ele>379</ele>
        <time>2016-11-30T15:19:10Z</time>
      </trkpt>
      <trkpt lat="45.92492" lon="4.6864">
        <ele>379</ele>
        <time>2016-11-30T15:19:11Z</time>
      </trkpt>
      <trkpt lat="45.925" lon="4.68641">
        <ele>379</ele>
        <time>2016-11-30T15:19:12Z</time>
      </trkpt>
      <trkpt lat="45.92507" lon="4.68644">
        <ele>376</ele>
        <time>2016-11-30T15:19:13Z</time>
      </trkpt>
      <trkpt lat="45.92514" lon="4.68647">
        <ele>375</ele>
        <time>2016-11-30T15:19:14Z</time>
      </trkpt>
      <trkpt lat="45.92516" lon="4.68655">
        <ele>376</ele>
        <time>2016-11-30T15:19:15Z</time>
      </trkpt>
      <trkpt lat="45.92519" lon="4.68663">
        <ele>376</ele>
        <time>2016-11-30T15:19:16Z</time>
      </trkpt>
      <trkpt lat="45.92524" lon="4.68666">
        <ele>376</ele>
        <time>2016-11-30T15:19:17Z</time>
      </trkpt>
      <trkpt lat="45.9253" lon="4.68668">
        <ele>374</ele>
        <time>2016-11-30T15:19:18Z</time>
      </trkpt>
      <trkpt lat="45.92538" lon="4.68666">
        <ele>375</ele>
        <time>2016-11-30T15:19:19Z</time>
      </trkpt>
      <trkpt lat="45.92544" lon="4.68664">
        <ele>374</ele>
        <time>2016-11-30T15:19:20Z</time>
      </trkpt>
      <trkpt lat="45.92549" lon="4.68666">
        <ele>374</ele>
        <time>2016-11-30T15:19:21Z</time>
      </trkpt>
      <trkpt lat="45.92553" lon="4.68664">
        <ele>374</ele>
        <time>2016-11-30T15:19:22Z</time>
      </trkpt>
      <trkpt lat="45.92559" lon="4.68663">
        <ele>374</ele>
        <time>2016-11-30T15:19:23Z</time>
      </trkpt>
      <trkpt lat="45.92565" lon="4.68661">
        <ele>374</ele>
        <time>2016-11-30T15:19:24Z</time>
      </trkpt>
      <trkpt lat="45.9257" lon="4.68659">
        <ele>374</ele>
        <time>2016-11-30T15:19:25Z</time>
      </trkpt>
      <trkpt lat="45.92576" lon="4.68657">
        <ele>373</ele>
        <time>2016-11-30T15:19:26Z</time>
      </trkpt>
      <trkpt lat="45.92581" lon="4.68658">
        <ele>373</ele>
        <time>2016-11-30T15:19:27Z</time>
      </trkpt>
      <trkpt lat="45.92586" lon="4.68658">
        <ele>372</ele>
        <time>2016-11-30T15:19:28Z</time>
      </trkpt>
      <trkpt lat="45.92592" lon="4.68653">
        <ele>371</ele>
        <time>2016-11-30T15:19:29Z</time>
      </trkpt>
      <trkpt lat="45.92599" lon="4.68648">
        <ele>370</ele>
        <time>2016-11-30T15:19:30Z</time>
      </trkpt>
      <trkpt lat="45.92602" lon="4.68649">
        <ele>370</ele>
        <time>2016-11-30T15:19:31Z</time>
      </trkpt>
      <trkpt lat="45.9261" lon="4.68647">
        <ele>369</ele>
        <time>2016-11-30T15:19:33Z</time>
      </trkpt>
      <trkpt lat="45.92616" lon="4.68646">
        <ele>369</ele>
        <time>2016-11-30T15:19:34Z</time>
      </trkpt>
      <trkpt lat="45.92622" lon="4.68652">
        <ele>369</ele>
        <time>2016-11-30T15:19:36Z</time>
      </trkpt>
      <trkpt lat="45.92627" lon="4.68653">
        <ele>368</ele>
        <time>2016-11-30T15:19:37Z</time>
      </trkpt>
      <trkpt lat="45.92633" lon="4.68664">
        <ele>368</ele>
        <time>2016-11-30T15:19:40Z</time>
      </trkpt>
      <trkpt lat="45.92634" lon="4.68667">
        <ele>365</ele>
        <time>2016-11-30T15:19:41Z</time>
      </trkpt>
      <trkpt lat="45.92632" lon="4.68672">
        <ele>365</ele>
        <time>2016-11-30T15:19:42Z</time>
      </trkpt>
      <trkpt lat="45.92622" lon="4.68673">
        <ele>366</ele>
        <time>2016-11-30T15:19:43Z</time>
      </trkpt>
      <trkpt lat="45.92612" lon="4.68678">
        <ele>367</ele>
        <time>2016-11-30T15:19:44Z</time>
      </trkpt>
      <trkpt lat="45.92602" lon="4.68683">
        <ele>368</ele>
        <time>2016-11-30T15:19:45Z</time>
      </trkpt>
      <trkpt lat="45.92596" lon="4.68698">
        <ele>367</ele>
        <time>2016-11-30T15:19:46Z</time>
      </trkpt>
      <trkpt lat="45.92593" lon="4.68708">
        <ele>366</ele>
        <time>2016-11-30T15:19:47Z</time>
      </trkpt>
      <trkpt lat="45.92591" lon="4.68716">
        <ele>365</ele>
        <time>2016-11-30T15:19:48Z</time>
      </trkpt>
      <trkpt lat="45.92589" lon="4.68727">
        <ele>365</ele>
        <time>2016-11-30T15:19:49Z</time>
      </trkpt>
      <trkpt lat="45.92588" lon="4.68737">
        <ele>364</ele>
        <time>2016-11-30T15:19:50Z</time>
      </trkpt>
      <trkpt lat="45.92585" lon="4.68746">
        <ele>364</ele>
        <time>2016-11-30T15:19:51Z</time>
      </trkpt>
      <trkpt lat="45.92583" lon="4.68754">
        <ele>364</ele>
        <time>2016-11-30T15:19:52Z</time>
      </trkpt>
      <trkpt lat="45.92579" lon="4.68767">
        <ele>364</ele>
        <time>2016-11-30T15:19:53Z</time>
      </trkpt>
      <trkpt lat="45.92576" lon="4.6878">
        <ele>363</ele>
        <time>2016-11-30T15:19:54Z</time>
      </trkpt>
      <trkpt lat="45.92572" lon="4.68792">
        <ele>363</ele>
        <time>2016-11-30T15:19:55Z</time>
      </trkpt>
      <trkpt lat="45.92569" lon="4.68805">
        <ele>362</ele>
        <time>2016-11-30T15:19:56Z</time>
      </trkpt>
      <trkpt lat="45.92566" lon="4.68818">
        <ele>361</ele>
        <time>2016-11-30T15:19:57Z</time>
      </trkpt>
      <trkpt lat="45.92562" lon="4.6883">
        <ele>360</ele>
        <time>2016-11-30T15:19:58Z</time>
      </trkpt>
      <trkpt lat="45.92559" lon="4.68842">
        <ele>356</ele>
        <time>2016-11-30T15:19:59Z</time>
      </trkpt>
      <trkpt lat="45.92556" lon="4.68855">
        <ele>356</ele>
        <time>2016-11-30T15:20:00Z</time>
      </trkpt>
      <trkpt lat="45.92552" lon="4.68866">
        <ele>356</ele>
        <time>2016-11-30T15:20:01Z</time>
      </trkpt>
      <trkpt lat="45.92549" lon="4.68879">
        <ele>355</ele>
        <time>2016-11-30T15:20:02Z</time>
      </trkpt>
      <trkpt lat="45.92546" lon="4.68891">
        <ele>355</ele>
        <time>2016-11-30T15:20:03Z</time>
      </trkpt>
      <trkpt lat="45.92543" lon="4.68902">
        <ele>354</ele>
        <time>2016-11-30T15:20:04Z</time>
      </trkpt>
      <trkpt lat="45.9254" lon="4.68914">
        <ele>354</ele>
        <time>2016-11-30T15:20:05Z</time>
      </trkpt>
      <trkpt lat="45.92537" lon="4.68924">
        <ele>351</ele>
        <time>2016-11-30T15:20:06Z</time>
      </trkpt>
      <trkpt lat="45.92535" lon="4.68935">
        <ele>351</ele>
        <time>2016-11-30T15:20:07Z</time>
      </trkpt>
      <trkpt lat="45.92534" lon="4.68947">
        <ele>351</ele>
        <time>2016-11-30T15:20:08Z</time>
      </trkpt>
      <trkpt lat="45.92534" lon="4.68958">
        <ele>350</ele>
        <time>2016-11-30T15:20:09Z</time>
      </trkpt>
      <trkpt lat="45.92535" lon="4.6897">
        <ele>350</ele>
        <time>2016-11-30T15:20:10Z</time>
      </trkpt>
      <trkpt lat="45.92534" lon="4.6898">
        <ele>350</ele>
        <time>2016-11-30T15:20:11Z</time>
      </trkpt>
      <trkpt lat="45.92534" lon="4.68991">
        <ele>350</ele>
        <time>2016-11-30T15:20:12Z</time>
      </trkpt>
      <trkpt lat="45.92535" lon="4.69003">
        <ele>348</ele>
        <time>2016-11-30T15:20:13Z</time>
      </trkpt>
      <trkpt lat="45.92538" lon="4.69014">
        <ele>347</ele>
        <time>2016-11-30T15:20:14Z</time>
      </trkpt>
      <trkpt lat="45.92539" lon="4.69025">
        <ele>347</ele>
        <time>2016-11-30T15:20:15Z</time>
      </trkpt>
      <trkpt lat="45.92544" lon="4.6904">
        <ele>346</ele>
        <time>2016-11-30T15:20:16Z</time>
      </trkpt>
      <trkpt lat="45.92547" lon="4.69053">
        <ele>346</ele>
        <time>2016-11-30T15:20:17Z</time>
      </trkpt>
      <trkpt lat="45.92553" lon="4.69063">
        <ele>346</ele>
        <time>2016-11-30T15:20:18Z</time>
      </trkpt>
      <trkpt lat="45.92557" lon="4.69079">
        <ele>345</ele>
        <time>2016-11-30T15:20:19Z</time>
      </trkpt>
      <trkpt lat="45.92563" lon="4.69094">
        <ele>343</ele>
        <time>2016-11-30T15:20:20Z</time>
      </trkpt>
      <trkpt lat="45.92588" lon="4.69097">
        <ele>341</ele>
        <time>2016-11-30T15:20:21Z</time>
      </trkpt>
      <trkpt lat="45.92595" lon="4.69109">
        <ele>339</ele>
        <time>2016-11-30T15:20:22Z</time>
      </trkpt>
      <trkpt lat="45.92603" lon="4.6912">
        <ele>339</ele>
        <time>2016-11-30T15:20:23Z</time>
      </trkpt>
      <trkpt lat="45.92611" lon="4.69132">
        <ele>338</ele>
        <time>2016-11-30T15:20:24Z</time>
      </trkpt>
      <trkpt lat="45.92619" lon="4.69141">
        <ele>338</ele>
        <time>2016-11-30T15:20:25Z</time>
      </trkpt>
      <trkpt lat="45.92624" lon="4.69149">
        <ele>338</ele>
        <time>2016-11-30T15:20:26Z</time>
      </trkpt>
      <trkpt lat="45.92631" lon="4.69158">
        <ele>337</ele>
        <time>2016-11-30T15:20:27Z</time>
      </trkpt>
      <trkpt lat="45.92635" lon="4.69169">
        <ele>336</ele>
        <time>2016-11-30T15:20:28Z</time>
      </trkpt>
      <trkpt lat="45.92642" lon="4.69175">
        <ele>335</ele>
        <time>2016-11-30T15:20:29Z</time>
      </trkpt>
      <trkpt lat="45.92647" lon="4.69182">
        <ele>335</ele>
        <time>2016-11-30T15:20:30Z</time>
      </trkpt>
      <trkpt lat="45.9265" lon="4.69188">
        <ele>335</ele>
        <time>2016-11-30T15:20:31Z</time>
      </trkpt>
      <trkpt lat="45.92657" lon="4.69195">
        <ele>335</ele>
        <time>2016-11-30T15:20:33Z</time>
      </trkpt>
      <trkpt lat="45.92659" lon="4.69193">
        <ele>335</ele>
        <time>2016-11-30T15:20:34Z</time>
      </trkpt>
      <trkpt lat="45.92662" lon="4.69182">
        <ele>335</ele>
        <time>2016-11-30T15:20:36Z</time>
      </trkpt>
      <trkpt lat="45.9266" lon="4.69173">
        <ele>334</ele>
        <time>2016-11-30T15:20:37Z</time>
      </trkpt>
      <trkpt lat="45.92661" lon="4.69164">
        <ele>335</ele>
        <time>2016-11-30T15:20:38Z</time>
      </trkpt>
      <trkpt lat="45.92661" lon="4.69157">
        <ele>335</ele>
        <time>2016-11-30T15:20:39Z</time>
      </trkpt>
      <trkpt lat="45.92661" lon="4.69149">
        <ele>336</ele>
        <time>2016-11-30T15:20:40Z</time>
      </trkpt>
      <trkpt lat="45.92661" lon="4.69141">
        <ele>336</ele>
        <time>2016-11-30T15:20:41Z</time>
      </trkpt>
      <trkpt lat="45.92661" lon="4.69132">
        <ele>336</ele>
        <time>2016-11-30T15:20:42Z</time>
      </trkpt>
      <trkpt lat="45.92662" lon="4.6912">
        <ele>336</ele>
        <time>2016-11-30T15:20:43Z</time>
      </trkpt>
      <trkpt lat="45.92662" lon="4.6911">
        <ele>335</ele>
        <time>2016-11-30T15:20:44Z</time>
      </trkpt>
      <trkpt lat="45.92662" lon="4.69099">
        <ele>335</ele>
        <time>2016-11-30T15:20:45Z</time>
      </trkpt>
      <trkpt lat="45.92662" lon="4.69089">
        <ele>333</ele>
        <time>2016-11-30T15:20:46Z</time>
      </trkpt>
      <trkpt lat="45.92661" lon="4.69079">
        <ele>333</ele>
        <time>2016-11-30T15:20:47Z</time>
      </trkpt>
      <trkpt lat="45.92662" lon="4.6907">
        <ele>334</ele>
        <time>2016-11-30T15:20:48Z</time>
      </trkpt>
      <trkpt lat="45.92662" lon="4.69061">
        <ele>335</ele>
        <time>2016-11-30T15:20:49Z</time>
      </trkpt>
      <trkpt lat="45.9266" lon="4.69054">
        <ele>336</ele>
        <time>2016-11-30T15:20:50Z</time>
      </trkpt>
      <trkpt lat="45.9266" lon="4.69045">
        <ele>336</ele>
        <time>2016-11-30T15:20:51Z</time>
      </trkpt>
      <trkpt lat="45.92663" lon="4.69038">
        <ele>336</ele>
        <time>2016-11-30T15:20:52Z</time>
      </trkpt>
      <trkpt lat="45.92672" lon="4.6903">
        <ele>331</ele>
        <time>2016-11-30T15:20:53Z</time>
      </trkpt>
      <trkpt lat="45.92684" lon="4.6902">
        <ele>331</ele>
        <time>2016-11-30T15:20:54Z</time>
      </trkpt>
      <trkpt lat="45.92687" lon="4.69012">
        <ele>331</ele>
        <time>2016-11-30T15:20:55Z</time>
      </trkpt>
      <trkpt lat="45.92698" lon="4.69004">
        <ele>330</ele>
        <time>2016-11-30T15:20:56Z</time>
      </trkpt>
      <trkpt lat="45.92713" lon="4.68997">
        <ele>333</ele>
        <time>2016-11-30T15:20:57Z</time>
      </trkpt>
      <trkpt lat="45.92725" lon="4.68993">
        <ele>332</ele>
        <time>2016-11-30T15:20:58Z</time>
      </trkpt>
      <trkpt lat="45.92737" lon="4.68989">
        <ele>331</ele>
        <time>2016-11-30T15:20:59Z</time>
      </trkpt>
      <trkpt lat="45.92746" lon="4.68989">
        <ele>331</ele>
        <time>2016-11-30T15:21:00Z</time>
      </trkpt>
      <trkpt lat="45.92754" lon="4.68989">
        <ele>330</ele>
        <time>2016-11-30T15:21:01Z</time>
      </trkpt>
      <trkpt lat="45.92762" lon="4.6899">
        <ele>330</ele>
        <time>2016-11-30T15:21:02Z</time>
      </trkpt>
      <trkpt lat="45.92771" lon="4.6899">
        <ele>330</ele>
        <time>2016-11-30T15:21:03Z</time>
      </trkpt>
      <trkpt lat="45.92779" lon="4.68989">
        <ele>330</ele>
        <time>2016-11-30T15:21:04Z</time>
      </trkpt>
      <trkpt lat="45.92787" lon="4.6899">
        <ele>330</ele>
        <time>2016-11-30T15:21:05Z</time>
      </trkpt>
      <trkpt lat="45.92798" lon="4.68987">
        <ele>330</ele>
        <time>2016-11-30T15:21:06Z</time>
      </trkpt>
      <trkpt lat="45.92804" lon="4.68991">
        <ele>330</ele>
        <time>2016-11-30T15:21:07Z</time>
      </trkpt>
      <trkpt lat="45.92811" lon="4.68996">
        <ele>330</ele>
        <time>2016-11-30T15:21:08Z</time>
      </trkpt>
      <trkpt lat="45.92815" lon="4.6901">
        <ele>326</ele>
        <time>2016-11-30T15:21:09Z</time>
      </trkpt>
      <trkpt lat="45.92816" lon="4.69027">
        <ele>326</ele>
        <time>2016-11-30T15:21:10Z</time>
      </trkpt>
      <trkpt lat="45.92819" lon="4.6904">
        <ele>325</ele>
        <time>2016-11-30T15:21:11Z</time>
      </trkpt>
      <trkpt lat="45.92823" lon="4.69048">
        <ele>325</ele>
        <time>2016-11-30T15:21:12Z</time>
      </trkpt>
      <trkpt lat="45.92827" lon="4.69057">
        <ele>325</ele>
        <time>2016-11-30T15:21:13Z</time>
      </trkpt>
      <trkpt lat="45.92827" lon="4.69066">
        <ele>324</ele>
        <time>2016-11-30T15:21:14Z</time>
      </trkpt>
      <trkpt lat="45.92828" lon="4.69074">
        <ele>324</ele>
        <time>2016-11-30T15:21:15Z</time>
      </trkpt>
      <trkpt lat="45.92821" lon="4.69095">
        <ele>322</ele>
        <time>2016-11-30T15:21:16Z</time>
      </trkpt>
      <trkpt lat="45.92818" lon="4.6911">
        <ele>322</ele>
        <time>2016-11-30T15:21:17Z</time>
      </trkpt>
      <trkpt lat="45.92816" lon="4.69125">
        <ele>322</ele>
        <time>2016-11-30T15:21:18Z</time>
      </trkpt>
      <trkpt lat="45.92814" lon="4.6914">
        <ele>321</ele>
        <time>2016-11-30T15:21:19Z</time>
      </trkpt>
      <trkpt lat="45.92813" lon="4.69157">
        <ele>321</ele>
        <time>2016-11-30T15:21:20Z</time>
      </trkpt>
      <trkpt lat="45.92812" lon="4.69172">
        <ele>320</ele>
        <time>2016-11-30T15:21:21Z</time>
      </trkpt>
      <trkpt lat="45.9281" lon="4.69186">
        <ele>319</ele>
        <time>2016-11-30T15:21:22Z</time>
      </trkpt>
      <trkpt lat="45.9281" lon="4.692">
        <ele>319</ele>
        <time>2016-11-30T15:21:23Z</time>
      </trkpt>
      <trkpt lat="45.92812" lon="4.69216">
        <ele>319</ele>
        <time>2016-11-30T15:21:24Z</time>
      </trkpt>
      <trkpt lat="45.92815" lon="4.69234">
        <ele>318</ele>
        <time>2016-11-30T15:21:25Z</time>
      </trkpt>
      <trkpt lat="45.92819" lon="4.69249">
        <ele>318</ele>
        <time>2016-11-30T15:21:26Z</time>
      </trkpt>
      <trkpt lat="45.92824" lon="4.69264">
        <ele>314</ele>
        <time>2016-11-30T15:21:27Z</time>
      </trkpt>
      <trkpt lat="45.92828" lon="4.69278">
        <ele>313</ele>
        <time>2016-11-30T15:21:28Z</time>
      </trkpt>
      <trkpt lat="45.92833" lon="4.69293">
        <ele>311</ele>
        <time>2016-11-30T15:21:29Z</time>
      </trkpt>
      <trkpt lat="45.92837" lon="4.69307">
        <ele>312</ele>
        <time>2016-11-30T15:21:30Z</time>
      </trkpt>
      <trkpt lat="45.92841" lon="4.69321">
        <ele>309</ele>
        <time>2016-11-30T15:21:31Z</time>
      </trkpt>
      <trkpt lat="45.92846" lon="4.69335">
        <ele>305</ele>
        <time>2016-11-30T15:21:32Z</time>
      </trkpt>
      <trkpt lat="45.9285" lon="4.69349">
        <ele>306</ele>
        <time>2016-11-30T15:21:33Z</time>
      </trkpt>
      <trkpt lat="45.92856" lon="4.69362">
        <ele>306</ele>
        <time>2016-11-30T15:21:34Z</time>
      </trkpt>
      <trkpt lat="45.92862" lon="4.69374">
        <ele>306</ele>
        <time>2016-11-30T15:21:35Z</time>
      </trkpt>
      <trkpt lat="45.9287" lon="4.69383">
        <ele>306</ele>
        <time>2016-11-30T15:21:36Z</time>
      </trkpt>
      <trkpt lat="45.92875" lon="4.69395">
        <ele>305</ele>
        <time>2016-11-30T15:21:37Z</time>
      </trkpt>
      <trkpt lat="45.9288" lon="4.69407">
        <ele>305</ele>
        <time>2016-11-30T15:21:38Z</time>
      </trkpt>
      <trkpt lat="45.92885" lon="4.6942">
        <ele>299</ele>
        <time>2016-11-30T15:21:39Z</time>
      </trkpt>
      <trkpt lat="45.9289" lon="4.69432">
        <ele>299</ele>
        <time>2016-11-30T15:21:40Z</time>
      </trkpt>
      <trkpt lat="45.92895" lon="4.69445">
        <ele>299</ele>
        <time>2016-11-30T15:21:41Z</time>
      </trkpt>
      <trkpt lat="45.92901" lon="4.69457">
        <ele>298</ele>
        <time>2016-11-30T15:21:42Z</time>
      </trkpt>
      <trkpt lat="45.92906" lon="4.6947">
        <ele>297</ele>
        <time>2016-11-30T15:21:43Z</time>
      </trkpt>
      <trkpt lat="45.92912" lon="4.69482">
        <ele>297</ele>
        <time>2016-11-30T15:21:44Z</time>
      </trkpt>
      <trkpt lat="45.92919" lon="4.69493">
        <ele>299</ele>
        <time>2016-11-30T15:21:45Z</time>
      </trkpt>
      <trkpt lat="45.92927" lon="4.69505">
        <ele>297</ele>
        <time>2016-11-30T15:21:46Z</time>
      </trkpt>
      <trkpt lat="45.92934" lon="4.69516">
        <ele>297</ele>
        <time>2016-11-30T15:21:47Z</time>
      </trkpt>
      <trkpt lat="45.92941" lon="4.69527">
        <ele>297</ele>
        <time>2016-11-30T15:21:48Z</time>
      </trkpt>
      <trkpt lat="45.92948" lon="4.69538">
        <ele>297</ele>
        <time>2016-11-30T15:21:49Z</time>
      </trkpt>
      <trkpt lat="45.92955" lon="4.69549">
        <ele>297</ele>
        <time>2016-11-30T15:21:50Z</time>
      </trkpt>
      <trkpt lat="45.92967" lon="4.69571">
        <ele>297</ele>
        <time>2016-11-30T15:21:52Z</time>
      </trkpt>
      <trkpt lat="45.92974" lon="4.6958">
        <ele>297</ele>
        <time>2016-11-30T15:21:53Z</time>
      </trkpt>
      <trkpt lat="45.9298" lon="4.69589">
        <ele>292</ele>
        <time>2016-11-30T15:21:54Z</time>
      </trkpt>
      <trkpt lat="45.92989" lon="4.69598">
        <ele>293</ele>
        <time>2016-11-30T15:21:55Z</time>
      </trkpt>
      <trkpt lat="45.92998" lon="4.69606">
        <ele>292</ele>
        <time>2016-11-30T15:21:56Z</time>
      </trkpt>
      <trkpt lat="45.93008" lon="4.69616">
        <ele>294</ele>
        <time>2016-11-30T15:21:57Z</time>
      </trkpt>
      <trkpt lat="45.93017" lon="4.69625">
        <ele>294</ele>
        <time>2016-11-30T15:21:58Z</time>
      </trkpt>
      <trkpt lat="45.93027" lon="4.69634">
        <ele>293</ele>
        <time>2016-11-30T15:21:59Z</time>
      </trkpt>
      <trkpt lat="45.93036" lon="4.69641">
        <ele>293</ele>
        <time>2016-11-30T15:22:00Z</time>
      </trkpt>
      <trkpt lat="45.93046" lon="4.69647">
        <ele>293</ele>
        <time>2016-11-30T15:22:01Z</time>
      </trkpt>
      <trkpt lat="45.93055" lon="4.69653">
        <ele>292</ele>
        <time>2016-11-30T15:22:02Z</time>
      </trkpt>
      <trkpt lat="45.93064" lon="4.69658">
        <ele>292</ele>
        <time>2016-11-30T15:22:03Z</time>
      </trkpt>
      <trkpt lat="45.93074" lon="4.69663">
        <ele>291</ele>
        <time>2016-11-30T15:22:04Z</time>
      </trkpt>
      <trkpt lat="45.93083" lon="4.69668">
        <ele>290</ele>
        <time>2016-11-30T15:22:05Z</time>
      </trkpt>
      <trkpt lat="45.93094" lon="4.69673">
        <ele>287</ele>
        <time>2016-11-30T15:22:06Z</time>
      </trkpt>
      <trkpt lat="45.93103" lon="4.69677">
        <ele>286</ele>
        <time>2016-11-30T15:22:07Z</time>
      </trkpt>
      <trkpt lat="45.93115" lon="4.69682">
        <ele>285</ele>
        <time>2016-11-30T15:22:08Z</time>
      </trkpt>
      <trkpt lat="45.93125" lon="4.69687">
        <ele>285</ele>
        <time>2016-11-30T15:22:09Z</time>
      </trkpt>
      <trkpt lat="45.93134" lon="4.69692">
        <ele>284</ele>
        <time>2016-11-30T15:22:10Z</time>
      </trkpt>
      <trkpt lat="45.93145" lon="4.69694">
        <ele>284</ele>
        <time>2016-11-30T15:22:11Z</time>
      </trkpt>
      <trkpt lat="45.93155" lon="4.69698">
        <ele>284</ele>
        <time>2016-11-30T15:22:12Z</time>
      </trkpt>
      <trkpt lat="45.93163" lon="4.69701">
        <ele>284</ele>
        <time>2016-11-30T15:22:13Z</time>
      </trkpt>
      <trkpt lat="45.93174" lon="4.69703">
        <ele>282</ele>
        <time>2016-11-30T15:22:14Z</time>
      </trkpt>
      <trkpt lat="45.93184" lon="4.69704">
        <ele>281</ele>
        <time>2016-11-30T15:22:15Z</time>
      </trkpt>
      <trkpt lat="45.93194" lon="4.69706">
        <ele>281</ele>
        <time>2016-11-30T15:22:16Z</time>
      </trkpt>
      <trkpt lat="45.93204" lon="4.69708">
        <ele>280</ele>
        <time>2016-11-30T15:22:17Z</time>
      </trkpt>
      <trkpt lat="45.93213" lon="4.69712">
        <ele>280</ele>
        <time>2016-11-30T15:22:18Z</time>
      </trkpt>
      <trkpt lat="45.93222" lon="4.69713">
        <ele>279</ele>
        <time>2016-11-30T15:22:19Z</time>
      </trkpt>
      <trkpt lat="45.93231" lon="4.69715">
        <ele>279</ele>
        <time>2016-11-30T15:22:20Z</time>
      </trkpt>
      <trkpt lat="45.93241" lon="4.69713">
        <ele>279</ele>
        <time>2016-11-30T15:22:21Z</time>
      </trkpt>
      <trkpt lat="45.9325" lon="4.69711">
        <ele>279</ele>
        <time>2016-11-30T15:22:22Z</time>
      </trkpt>
      <trkpt lat="45.93257" lon="4.69712">
        <ele>276</ele>
        <time>2016-11-30T15:22:23Z</time>
      </trkpt>
      <trkpt lat="45.93265" lon="4.69713">
        <ele>276</ele>
        <time>2016-11-30T15:22:24Z</time>
      </trkpt>
      <trkpt lat="45.93272" lon="4.69715">
        <ele>275</ele>
        <time>2016-11-30T15:22:25Z</time>
      </trkpt>
      <trkpt lat="45.9328" lon="4.69716">
        <ele>275</ele>
        <time>2016-11-30T15:22:26Z</time>
      </trkpt>
      <trkpt lat="45.93286" lon="4.69719">
        <ele>275</ele>
        <time>2016-11-30T15:22:27Z</time>
      </trkpt>
      <trkpt lat="45.93294" lon="4.69719">
        <ele>274</ele>
        <time>2016-11-30T15:22:28Z</time>
      </trkpt>
      <trkpt lat="45.933" lon="4.69719">
        <ele>274</ele>
        <time>2016-11-30T15:22:29Z</time>
      </trkpt>
      <trkpt lat="45.93303" lon="4.69724">
        <ele>274</ele>
        <time>2016-11-30T15:22:30Z</time>
      </trkpt>
      <trkpt lat="45.93307" lon="4.69728">
        <ele>273</ele>
        <time>2016-11-30T15:22:31Z</time>
      </trkpt>
      <trkpt lat="45.93303" lon="4.69744">
        <ele>272</ele>
        <time>2016-11-30T15:22:32Z</time>
      </trkpt>
      <trkpt lat="45.93304" lon="4.69752">
        <ele>267</ele>
        <time>2016-11-30T15:22:33Z</time>
      </trkpt>
      <trkpt lat="45.93303" lon="4.6976">
        <ele>267</ele>
        <time>2016-11-30T15:22:34Z</time>
      </trkpt>
      <trkpt lat="45.93302" lon="4.69768">
        <ele>266</ele>
        <time>2016-11-30T15:22:35Z</time>
      </trkpt>
      <trkpt lat="45.93301" lon="4.69774">
        <ele>266</ele>
        <time>2016-11-30T15:22:36Z</time>
      </trkpt>
      <trkpt lat="45.93298" lon="4.69785">
        <ele>266</ele>
        <time>2016-11-30T15:22:38Z</time>
      </trkpt>
      <trkpt lat="45.93293" lon="4.69787">
        <ele>266</ele>
        <time>2016-11-30T15:22:39Z</time>
      </trkpt>
      <trkpt lat="45.93287" lon="4.6979">
        <ele>265</ele>
        <time>2016-11-30T15:22:40Z</time>
      </trkpt>
      <trkpt lat="45.9328" lon="4.69797">
        <ele>265</ele>
        <time>2016-11-30T15:22:41Z</time>
      </trkpt>
      <trkpt lat="45.93275" lon="4.69804">
        <ele>264</ele>
        <time>2016-11-30T15:22:42Z</time>
      </trkpt>
      <trkpt lat="45.9327" lon="4.69808">
        <ele>264</ele>
        <time>2016-11-30T15:22:43Z</time>
      </trkpt>
      <trkpt lat="45.93265" lon="4.69812">
        <ele>263</ele>
        <time>2016-11-30T15:22:44Z</time>
      </trkpt>
      <trkpt lat="45.93255" lon="4.69818">
        <ele>261</ele>
        <time>2016-11-30T15:22:45Z</time>
      </trkpt>
      <trkpt lat="45.93243" lon="4.69823">
        <ele>260</ele>
        <time>2016-11-30T15:22:46Z</time>
      </trkpt>
      <trkpt lat="45.93231" lon="4.69828">
        <ele>261</ele>
        <time>2016-11-30T15:22:47Z</time>
      </trkpt>
      <trkpt lat="45.93217" lon="4.69836">
        <ele>257</ele>
        <time>2016-11-30T15:22:48Z</time>
      </trkpt>
      <trkpt lat="45.93204" lon="4.69844">
        <ele>257</ele>
        <time>2016-11-30T15:22:49Z</time>
      </trkpt>
      <trkpt lat="45.93192" lon="4.69851">
        <ele>256</ele>
        <time>2016-11-30T15:22:50Z</time>
      </trkpt>
      <trkpt lat="45.93181" lon="4.69857">
        <ele>256</ele>
        <time>2016-11-30T15:22:51Z</time>
      </trkpt>
      <trkpt lat="45.93169" lon="4.69863">
        <ele>256</ele>
        <time>2016-11-30T15:22:52Z</time>
      </trkpt>
      <trkpt lat="45.93156" lon="4.69868">
        <ele>254</ele>
        <time>2016-11-30T15:22:53Z</time>
      </trkpt>
      <trkpt lat="45.93144" lon="4.69875">
        <ele>254</ele>
        <time>2016-11-30T15:22:54Z</time>
      </trkpt>
      <trkpt lat="45.93132" lon="4.69882">
        <ele>254</ele>
        <time>2016-11-30T15:22:55Z</time>
      </trkpt>
      <trkpt lat="45.93118" lon="4.69888">
        <ele>253</ele>
        <time>2016-11-30T15:22:56Z</time>
      </trkpt>
      <trkpt lat="45.93106" lon="4.69893">
        <ele>253</ele>
        <time>2016-11-30T15:22:57Z</time>
      </trkpt>
      <trkpt lat="45.93095" lon="4.699">
        <ele>252</ele>
        <time>2016-11-30T15:22:58Z</time>
      </trkpt>
      <trkpt lat="45.93083" lon="4.69907">
        <ele>252</ele>
        <time>2016-11-30T15:22:59Z</time>
      </trkpt>
      <trkpt lat="45.93067" lon="4.69913">
        <ele>254</ele>
        <time>2016-11-30T15:23:00Z</time>
      </trkpt>
      <trkpt lat="45.93054" lon="4.69921">
        <ele>250</ele>
        <time>2016-11-30T15:23:01Z</time>
      </trkpt>
      <trkpt lat="45.93043" lon="4.69928">
        <ele>251</ele>
        <time>2016-11-30T15:23:02Z</time>
      </trkpt>
      <trkpt lat="45.93032" lon="4.69938">
        <ele>251</ele>
        <time>2016-11-30T15:23:03Z</time>
      </trkpt>
      <trkpt lat="45.93024" lon="4.69949">
        <ele>251</ele>
        <time>2016-11-30T15:23:04Z</time>
      </trkpt>
      <trkpt lat="45.93017" lon="4.69962">
        <ele>250</ele>
        <time>2016-11-30T15:23:05Z</time>
      </trkpt>
      <trkpt lat="45.9301" lon="4.69976">
        <ele>249</ele>
        <time>2016-11-30T15:23:06Z</time>
      </trkpt>
      <trkpt lat="45.93005" lon="4.69988">
        <ele>248</ele>
        <time>2016-11-30T15:23:07Z</time>
      </trkpt>
      <trkpt lat="45.92999" lon="4.7">
        <ele>246</ele>
        <time>2016-11-30T15:23:08Z</time>
      </trkpt>
      <trkpt lat="45.92993" lon="4.70011">
        <ele>245</ele>
        <time>2016-11-30T15:23:09Z</time>
      </trkpt>
      <trkpt lat="45.92989" lon="4.70021">
        <ele>244</ele>
        <time>2016-11-30T15:23:10Z</time>
      </trkpt>
      <trkpt lat="45.92983" lon="4.70032">
        <ele>244</ele>
        <time>2016-11-30T15:23:11Z</time>
      </trkpt>
      <trkpt lat="45.92978" lon="4.7004">
        <ele>243</ele>
        <time>2016-11-30T15:23:12Z</time>
      </trkpt>
      <trkpt lat="45.92971" lon="4.70047">
        <ele>243</ele>
        <time>2016-11-30T15:23:13Z</time>
      </trkpt>
      <trkpt lat="45.92965" lon="4.70053">
        <ele>243</ele>
        <time>2016-11-30T15:23:14Z</time>
      </trkpt>
      <trkpt lat="45.92959" lon="4.7006">
        <ele>243</ele>
        <time>2016-11-30T15:23:15Z</time>
      </trkpt>
      <trkpt lat="45.92954" lon="4.70068">
        <ele>242</ele>
        <time>2016-11-30T15:23:16Z</time>
      </trkpt>
      <trkpt lat="45.9295" lon="4.70074">
        <ele>242</ele>
        <time>2016-11-30T15:23:17Z</time>
      </trkpt>
      <trkpt lat="45.92941" lon="4.70067">
        <ele>242</ele>
        <time>2016-11-30T15:23:18Z</time>
      </trkpt>
      <trkpt lat="45.92936" lon="4.7007">
        <ele>242</ele>
        <time>2016-11-30T15:23:19Z</time>
      </trkpt>
      <trkpt lat="45.92931" lon="4.7007">
        <ele>242</ele>
        <time>2016-11-30T15:23:20Z</time>
      </trkpt>
      <trkpt lat="45.92926" lon="4.70069">
        <ele>242</ele>
        <time>2016-11-30T15:23:21Z</time>
      </trkpt>
      <trkpt lat="45.92921" lon="4.7007">
        <ele>241</ele>
        <time>2016-11-30T15:23:22Z</time>
      </trkpt>
      <trkpt lat="45.92917" lon="4.7007">
        <ele>242</ele>
        <time>2016-11-30T15:23:23Z</time>
      </trkpt>
      <trkpt lat="45.9291" lon="4.70073">
        <ele>242</ele>
        <time>2016-11-30T15:23:24Z</time>
      </trkpt>
      <trkpt lat="45.92902" lon="4.70072">
        <ele>243</ele>
        <time>2016-11-30T15:23:26Z</time>
      </trkpt>
      <trkpt lat="45.92897" lon="4.70072">
        <ele>244</ele>
        <time>2016-11-30T15:23:27Z</time>
      </trkpt>
      <trkpt lat="45.92891" lon="4.70074">
        <ele>244</ele>
        <time>2016-11-30T15:23:28Z</time>
      </trkpt>
      <trkpt lat="45.9289" lon="4.70084">
        <ele>241</ele>
        <time>2016-11-30T15:23:29Z</time>
      </trkpt>
      <trkpt lat="45.92894" lon="4.70093">
        <ele>241</ele>
        <time>2016-11-30T15:23:30Z</time>
      </trkpt>
      <trkpt lat="45.92894" lon="4.70102">
        <ele>241</ele>
        <time>2016-11-30T15:23:31Z</time>
      </trkpt>
      <trkpt lat="45.92892" lon="4.70108">
        <ele>241</ele>
        <time>2016-11-30T15:23:32Z</time>
      </trkpt>
      <trkpt lat="45.92891" lon="4.70119">
        <ele>240</ele>
        <time>2016-11-30T15:23:33Z</time>
      </trkpt>
      <trkpt lat="45.92891" lon="4.7013">
        <ele>240</ele>
        <time>2016-11-30T15:23:34Z</time>
      </trkpt>
      <trkpt lat="45.92889" lon="4.70139">
        <ele>240</ele>
        <time>2016-11-30T15:23:35Z</time>
      </trkpt>
      <trkpt lat="45.92888" lon="4.70149">
        <ele>239</ele>
        <time>2016-11-30T15:23:36Z</time>
      </trkpt>
      <trkpt lat="45.92887" lon="4.70159">
        <ele>239</ele>
        <time>2016-11-30T15:23:37Z</time>
      </trkpt>
      <trkpt lat="45.92886" lon="4.70171">
        <ele>236</ele>
        <time>2016-11-30T15:23:38Z</time>
      </trkpt>
      <trkpt lat="45.92885" lon="4.70182">
        <ele>236</ele>
        <time>2016-11-30T15:23:39Z</time>
      </trkpt>
      <trkpt lat="45.92883" lon="4.70195">
        <ele>236</ele>
        <time>2016-11-30T15:23:40Z</time>
      </trkpt>
      <trkpt lat="45.92883" lon="4.70207">
        <ele>236</ele>
        <time>2016-11-30T15:23:41Z</time>
      </trkpt>
      <trkpt lat="45.92881" lon="4.70223">
        <ele>236</ele>
        <time>2016-11-30T15:23:42Z</time>
      </trkpt>
      <trkpt lat="45.9288" lon="4.70237">
        <ele>235</ele>
        <time>2016-11-30T15:23:43Z</time>
      </trkpt>
      <trkpt lat="45.92878" lon="4.70252">
        <ele>232</ele>
        <time>2016-11-30T15:23:44Z</time>
      </trkpt>
      <trkpt lat="45.92876" lon="4.70267">
        <ele>232</ele>
        <time>2016-11-30T15:23:45Z</time>
      </trkpt>
      <trkpt lat="45.92874" lon="4.70281">
        <ele>232</ele>
        <time>2016-11-30T15:23:46Z</time>
      </trkpt>
      <trkpt lat="45.92871" lon="4.70296">
        <ele>231</ele>
        <time>2016-11-30T15:23:47Z</time>
      </trkpt>
      <trkpt lat="45.92867" lon="4.70311">
        <ele>231</ele>
        <time>2016-11-30T15:23:48Z</time>
      </trkpt>
      <trkpt lat="45.92864" lon="4.70326">
        <ele>231</ele>
        <time>2016-11-30T15:23:49Z</time>
      </trkpt>
      <trkpt lat="45.92861" lon="4.7034">
        <ele>228</ele>
        <time>2016-11-30T15:23:50Z</time>
      </trkpt>
      <trkpt lat="45.92858" lon="4.70356">
        <ele>228</ele>
        <time>2016-11-30T15:23:51Z</time>
      </trkpt>
      <trkpt lat="45.92855" lon="4.70371">
        <ele>228</ele>
        <time>2016-11-30T15:23:52Z</time>
      </trkpt>
      <trkpt lat="45.92852" lon="4.70386">
        <ele>227</ele>
        <time>2016-11-30T15:23:53Z</time>
      </trkpt>
      <trkpt lat="45.92848" lon="4.70402">
        <ele>227</ele>
        <time>2016-11-30T15:23:54Z</time>
      </trkpt>
      <trkpt lat="45.92845" lon="4.70417">
        <ele>226</ele>
        <time>2016-11-30T15:23:55Z</time>
      </trkpt>
      <trkpt lat="45.92843" lon="4.70433">
        <ele>225</ele>
        <time>2016-11-30T15:23:56Z</time>
      </trkpt>
      <trkpt lat="45.92843" lon="4.70446">
        <ele>224</ele>
        <time>2016-11-30T15:23:57Z</time>
      </trkpt>
      <trkpt lat="45.92843" lon="4.70463">
        <ele>223</ele>
        <time>2016-11-30T15:23:58Z</time>
      </trkpt>
      <trkpt lat="45.92847" lon="4.70478">
        <ele>222</ele>
        <time>2016-11-30T15:23:59Z</time>
      </trkpt>
      <trkpt lat="45.92852" lon="4.70493">
        <ele>222</ele>
        <time>2016-11-30T15:24:00Z</time>
      </trkpt>
      <trkpt lat="45.92857" lon="4.70508">
        <ele>220</ele>
        <time>2016-11-30T15:24:01Z</time>
      </trkpt>
      <trkpt lat="45.92862" lon="4.70522">
        <ele>220</ele>
        <time>2016-11-30T15:24:02Z</time>
      </trkpt>
      <trkpt lat="45.92867" lon="4.70537">
        <ele>220</ele>
        <time>2016-11-30T15:24:03Z</time>
      </trkpt>
      <trkpt lat="45.92876" lon="4.70553">
        <ele>220</ele>
        <time>2016-11-30T15:24:04Z</time>
      </trkpt>
      <trkpt lat="45.92885" lon="4.70569">
        <ele>220</ele>
        <time>2016-11-30T15:24:05Z</time>
      </trkpt>
      <trkpt lat="45.92894" lon="4.70585">
        <ele>217</ele>
        <time>2016-11-30T15:24:06Z</time>
      </trkpt>
      <trkpt lat="45.92902" lon="4.70599">
        <ele>217</ele>
        <time>2016-11-30T15:24:07Z</time>
      </trkpt>
      <trkpt lat="45.92908" lon="4.70611">
        <ele>216</ele>
        <time>2016-11-30T15:24:08Z</time>
      </trkpt>
      <trkpt lat="45.92914" lon="4.70623">
        <ele>215</ele>
        <time>2016-11-30T15:24:09Z</time>
      </trkpt>
      <trkpt lat="45.92919" lon="4.70635">
        <ele>216</ele>
        <time>2016-11-30T15:24:10Z</time>
      </trkpt>
      <trkpt lat="45.92926" lon="4.70648">
        <ele>215</ele>
        <time>2016-11-30T15:24:11Z</time>
      </trkpt>
      <trkpt lat="45.92932" lon="4.70663">
        <ele>214</ele>
        <time>2016-11-30T15:24:12Z</time>
      </trkpt>
      <trkpt lat="45.9294" lon="4.70678">
        <ele>210</ele>
        <time>2016-11-30T15:24:13Z</time>
      </trkpt>
      <trkpt lat="45.92947" lon="4.70692">
        <ele>209</ele>
        <time>2016-11-30T15:24:14Z</time>
      </trkpt>
      <trkpt lat="45.92953" lon="4.70706">
        <ele>209</ele>
        <time>2016-11-30T15:24:15Z</time>
      </trkpt>
      <trkpt lat="45.92959" lon="4.70719">
        <ele>208</ele>
        <time>2016-11-30T15:24:16Z</time>
      </trkpt>
      <trkpt lat="45.92965" lon="4.70732">
        <ele>208</ele>
        <time>2016-11-30T15:24:17Z</time>
      </trkpt>
      <trkpt lat="45.92971" lon="4.70746">
        <ele>207</ele>
        <time>2016-11-30T15:24:18Z</time>
      </trkpt>
      <trkpt lat="45.92976" lon="4.70758">
        <ele>204</ele>
        <time>2016-11-30T15:24:19Z</time>
      </trkpt>
      <trkpt lat="45.92982" lon="4.70772">
        <ele>204</ele>
        <time>2016-11-30T15:24:20Z</time>
      </trkpt>
      <trkpt lat="45.92988" lon="4.70786">
        <ele>204</ele>
        <time>2016-11-30T15:24:21Z</time>
      </trkpt>
      <trkpt lat="45.92993" lon="4.708">
        <ele>204</ele>
        <time>2016-11-30T15:24:22Z</time>
      </trkpt>
      <trkpt lat="45.93" lon="4.70814">
        <ele>203</ele>
        <time>2016-11-30T15:24:23Z</time>
      </trkpt>
      <trkpt lat="45.93005" lon="4.70828">
        <ele>203</ele>
        <time>2016-11-30T15:24:24Z</time>
      </trkpt>
      <trkpt lat="45.93011" lon="4.70841">
        <ele>202</ele>
        <time>2016-11-30T15:24:25Z</time>
      </trkpt>
      <trkpt lat="45.93016" lon="4.70855">
        <ele>202</ele>
        <time>2016-11-30T15:24:26Z</time>
      </trkpt>
      <trkpt lat="45.93023" lon="4.70868">
        <ele>202</ele>
        <time>2016-11-30T15:24:27Z</time>
      </trkpt>
      <trkpt lat="45.9303" lon="4.70882">
        <ele>201</ele>
        <time>2016-11-30T15:24:28Z</time>
      </trkpt>
      <trkpt lat="45.93035" lon="4.70895">
        <ele>201</ele>
        <time>2016-11-30T15:24:29Z</time>
      </trkpt>
      <trkpt lat="45.93039" lon="4.70909">
        <ele>201</ele>
        <time>2016-11-30T15:24:30Z</time>
      </trkpt>
      <trkpt lat="45.93045" lon="4.70923">
        <ele>199</ele>
        <time>2016-11-30T15:24:31Z</time>
      </trkpt>
      <trkpt lat="45.93051" lon="4.70937">
        <ele>199</ele>
        <time>2016-11-30T15:24:32Z</time>
      </trkpt>
      <trkpt lat="45.93054" lon="4.70951">
        <ele>199</ele>
        <time>2016-11-30T15:24:33Z</time>
      </trkpt>
      <trkpt lat="45.93055" lon="4.70965">
        <ele>199</ele>
        <time>2016-11-30T15:24:34Z</time>
      </trkpt>
      <trkpt lat="45.93055" lon="4.70979">
        <ele>199</ele>
        <time>2016-11-30T15:24:35Z</time>
      </trkpt>
      <trkpt lat="45.93056" lon="4.70987">
        <ele>198</ele>
        <time>2016-11-30T15:24:36Z</time>
      </trkpt>
      <trkpt lat="45.93056" lon="4.70993">
        <ele>198</ele>
        <time>2016-11-30T15:24:37Z</time>
      </trkpt>
      <trkpt lat="45.93059" lon="4.71002">
        <ele>197</ele>
        <time>2016-11-30T15:24:40Z</time>
      </trkpt>
      <trkpt lat="45.93059" lon="4.71008">
        <ele>197</ele>
        <time>2016-11-30T15:24:41Z</time>
      </trkpt>
      <trkpt lat="45.9306" lon="4.71013">
        <ele>197</ele>
        <time>2016-11-30T15:24:42Z</time>
      </trkpt>
      <trkpt lat="45.93063" lon="4.71021">
        <ele>197</ele>
        <time>2016-11-30T15:24:43Z</time>
      </trkpt>
      <trkpt lat="45.93067" lon="4.71027">
        <ele>197</ele>
        <time>2016-11-30T15:24:44Z</time>
      </trkpt>
      <trkpt lat="45.93071" lon="4.71037">
        <ele>196</ele>
        <time>2016-11-30T15:24:45Z</time>
      </trkpt>
      <trkpt lat="45.93074" lon="4.71047">
        <ele>196</ele>
        <time>2016-11-30T15:24:46Z</time>
      </trkpt>
      <trkpt lat="45.93079" lon="4.71054">
        <ele>196</ele>
        <time>2016-11-30T15:24:47Z</time>
      </trkpt>
      <trkpt lat="45.93084" lon="4.71062">
        <ele>195</ele>
        <time>2016-11-30T15:24:48Z</time>
      </trkpt>
      <trkpt lat="45.9309" lon="4.71069">
        <ele>195</ele>
        <time>2016-11-30T15:24:49Z</time>
      </trkpt>
      <trkpt lat="45.93096" lon="4.71076">
        <ele>195</ele>
        <time>2016-11-30T15:24:50Z</time>
      </trkpt>
      <trkpt lat="45.93101" lon="4.71084">
        <ele>193</ele>
        <time>2016-11-30T15:24:51Z</time>
      </trkpt>
      <trkpt lat="45.93107" lon="4.71093">
        <ele>193</ele>
        <time>2016-11-30T15:24:52Z</time>
      </trkpt>
      <trkpt lat="45.93113" lon="4.71099">
        <ele>193</ele>
        <time>2016-11-30T15:24:53Z</time>
      </trkpt>
      <trkpt lat="45.93119" lon="4.71107">
        <ele>192</ele>
        <time>2016-11-30T15:24:54Z</time>
      </trkpt>
      <trkpt lat="45.93124" lon="4.71115">
        <ele>192</ele>
        <time>2016-11-30T15:24:55Z</time>
      </trkpt>
      <trkpt lat="45.93129" lon="4.71123">
        <ele>192</ele>
        <time>2016-11-30T15:24:56Z</time>
      </trkpt>
      <trkpt lat="45.93134" lon="4.71131">
        <ele>192</ele>
        <time>2016-11-30T15:24:57Z</time>
      </trkpt>
      <trkpt lat="45.93138" lon="4.71139">
        <ele>192</ele>
        <time>2016-11-30T15:24:58Z</time>
      </trkpt>
      <trkpt lat="45.93143" lon="4.71148">
        <ele>191</ele>
        <time>2016-11-30T15:24:59Z</time>
      </trkpt>
      <trkpt lat="45.93147" lon="4.71157">
        <ele>191</ele>
        <time>2016-11-30T15:25:00Z</time>
      </trkpt>
      <trkpt lat="45.93151" lon="4.71166">
        <ele>191</ele>
        <time>2016-11-30T15:25:01Z</time>
      </trkpt>
      <trkpt lat="45.93155" lon="4.71175">
        <ele>190</ele>
        <time>2016-11-30T15:25:02Z</time>
      </trkpt>
      <trkpt lat="45.9316" lon="4.71184">
        <ele>190</ele>
        <time>2016-11-30T15:25:03Z</time>
      </trkpt>
      <trkpt lat="45.93165" lon="4.71193">
        <ele>190</ele>
        <time>2016-11-30T15:25:04Z</time>
      </trkpt>
      <trkpt lat="45.93171" lon="4.71202">
        <ele>190</ele>
        <time>2016-11-30T15:25:05Z</time>
      </trkpt>
      <trkpt lat="45.93178" lon="4.71211">
        <ele>190</ele>
        <time>2016-11-30T15:25:06Z</time>
      </trkpt>
      <trkpt lat="45.93184" lon="4.71219">
        <ele>190</ele>
        <time>2016-11-30T15:25:07Z</time>
      </trkpt>
      <trkpt lat="45.93189" lon="4.71228">
        <ele>190</ele>
        <time>2016-11-30T15:25:08Z</time>
      </trkpt>
      <trkpt lat="45.93195" lon="4.71236">
        <ele>190</ele>
        <time>2016-11-30T15:25:09Z</time>
      </trkpt>
      <trkpt lat="45.93201" lon="4.71244">
        <ele>190</ele>
        <time>2016-11-30T15:25:10Z</time>
      </trkpt>
      <trkpt lat="45.93206" lon="4.71249">
        <ele>190</ele>
        <time>2016-11-30T15:25:11Z</time>
      </trkpt>
      <trkpt lat="45.93211" lon="4.71256">
        <ele>189</ele>
        <time>2016-11-30T15:25:12Z</time>
      </trkpt>
      <trkpt lat="45.93216" lon="4.71266">
        <ele>188</ele>
        <time>2016-11-30T15:25:13Z</time>
      </trkpt>
      <trkpt lat="45.9322" lon="4.71275">
        <ele>188</ele>
        <time>2016-11-30T15:25:14Z</time>
      </trkpt>
      <trkpt lat="45.93224" lon="4.71284">
        <ele>188</ele>
        <time>2016-11-30T15:25:15Z</time>
      </trkpt>
      <trkpt lat="45.93228" lon="4.71293">
        <ele>188</ele>
        <time>2016-11-30T15:25:16Z</time>
      </trkpt>
      <trkpt lat="45.93232" lon="4.71302">
        <ele>188</ele>
        <time>2016-11-30T15:25:17Z</time>
      </trkpt>
      <trkpt lat="45.93236" lon="4.71311">
        <ele>187</ele>
        <time>2016-11-30T15:25:18Z</time>
      </trkpt>
      <trkpt lat="45.9324" lon="4.71319">
        <ele>187</ele>
        <time>2016-11-30T15:25:19Z</time>
      </trkpt>
      <trkpt lat="45.93243" lon="4.71329">
        <ele>187</ele>
        <time>2016-11-30T15:25:20Z</time>
      </trkpt>
      <trkpt lat="45.93246" lon="4.71339">
        <ele>186</ele>
        <time>2016-11-30T15:25:21Z</time>
      </trkpt>
      <trkpt lat="45.9325" lon="4.71349">
        <ele>186</ele>
        <time>2016-11-30T15:25:22Z</time>
      </trkpt>
      <trkpt lat="45.93254" lon="4.71359">
        <ele>186</ele>
        <time>2016-11-30T15:25:23Z</time>
      </trkpt>
      <trkpt lat="45.93258" lon="4.71369">
        <ele>186</ele>
        <time>2016-11-30T15:25:24Z</time>
      </trkpt>
      <trkpt lat="45.93263" lon="4.71377">
        <ele>186</ele>
        <time>2016-11-30T15:25:25Z</time>
      </trkpt>
      <trkpt lat="45.93268" lon="4.71386">
        <ele>186</ele>
        <time>2016-11-30T15:25:26Z</time>
      </trkpt>
      <trkpt lat="45.93273" lon="4.71395">
        <ele>186</ele>
        <time>2016-11-30T15:25:27Z</time>
      </trkpt>
      <trkpt lat="45.93276" lon="4.71402">
        <ele>186</ele>
        <time>2016-11-30T15:25:28Z</time>
      </trkpt>
      <trkpt lat="45.93278" lon="4.71411">
        <ele>186</ele>
        <time>2016-11-30T15:25:29Z</time>
      </trkpt>
      <trkpt lat="45.93281" lon="4.71421">
        <ele>185</ele>
        <time>2016-11-30T15:25:30Z</time>
      </trkpt>
      <trkpt lat="45.93285" lon="4.71429">
        <ele>185</ele>
        <time>2016-11-30T15:25:31Z</time>
      </trkpt>
      <trkpt lat="45.93288" lon="4.71437">
        <ele>185</ele>
        <time>2016-11-30T15:25:32Z</time>
      </trkpt>
      <trkpt lat="45.93291" lon="4.71447">
        <ele>185</ele>
        <time>2016-11-30T15:25:33Z</time>
      </trkpt>
      <trkpt lat="45.93294" lon="4.71456">
        <ele>185</ele>
        <time>2016-11-30T15:25:34Z</time>
      </trkpt>
      <trkpt lat="45.93298" lon="4.71464">
        <ele>185</ele>
        <time>2016-11-30T15:25:35Z</time>
      </trkpt>
      <trkpt lat="45.93301" lon="4.71474">
        <ele>185</ele>
        <time>2016-11-30T15:25:36Z</time>
      </trkpt>
      <trkpt lat="45.93304" lon="4.71482">
        <ele>185</ele>
        <time>2016-11-30T15:25:37Z</time>
      </trkpt>
      <trkpt lat="45.93308" lon="4.7149">
        <ele>185</ele>
        <time>2016-11-30T15:25:38Z</time>
      </trkpt>
      <trkpt lat="45.93312" lon="4.71498">
        <ele>185</ele>
        <time>2016-11-30T15:25:39Z</time>
      </trkpt>
      <trkpt lat="45.93314" lon="4.71508">
        <ele>184</ele>
        <time>2016-11-30T15:25:40Z</time>
      </trkpt>
      <trkpt lat="45.93317" lon="4.71516">
        <ele>184</ele>
        <time>2016-11-30T15:25:41Z</time>
      </trkpt>
      <trkpt lat="45.93319" lon="4.71523">
        <ele>184</ele>
        <time>2016-11-30T15:25:42Z</time>
      </trkpt>
      <trkpt lat="45.93324" lon="4.71528">
        <ele>184</ele>
        <time>2016-11-30T15:25:43Z</time>
      </trkpt>
      <trkpt lat="45.93327" lon="4.71536">
        <ele>184</ele>
        <time>2016-11-30T15:25:44Z</time>
      </trkpt>
      <trkpt lat="45.93328" lon="4.71544">
        <ele>184</ele>
        <time>2016-11-30T15:25:45Z</time>
      </trkpt>
      <trkpt lat="45.9333" lon="4.71554">
        <ele>184</ele>
        <time>2016-11-30T15:25:46Z</time>
      </trkpt>
      <trkpt lat="45.93333" lon="4.71563">
        <ele>185</ele>
        <time>2016-11-30T15:25:47Z</time>
      </trkpt>
      <trkpt lat="45.93337" lon="4.71573">
        <ele>184</ele>
        <time>2016-11-30T15:25:48Z</time>
      </trkpt>
      <trkpt lat="45.9334" lon="4.71581">
        <ele>185</ele>
        <time>2016-11-30T15:25:49Z</time>
      </trkpt>
      <trkpt lat="45.93344" lon="4.71589">
        <ele>185</ele>
        <time>2016-11-30T15:25:50Z</time>
      </trkpt>
      <trkpt lat="45.93346" lon="4.71597">
        <ele>185</ele>
        <time>2016-11-30T15:25:51Z</time>
      </trkpt>
      <trkpt lat="45.93349" lon="4.71605">
        <ele>185</ele>
        <time>2016-11-30T15:25:52Z</time>
      </trkpt>
      <trkpt lat="45.93352" lon="4.71612">
        <ele>185</ele>
        <time>2016-11-30T15:25:53Z</time>
      </trkpt>
      <trkpt lat="45.93355" lon="4.71619">
        <ele>185</ele>
        <time>2016-11-30T15:25:54Z</time>
      </trkpt>
      <trkpt lat="45.93359" lon="4.71627">
        <ele>185</ele>
        <time>2016-11-30T15:25:55Z</time>
      </trkpt>
      <trkpt lat="45.93361" lon="4.71635">
        <ele>185</ele>
        <time>2016-11-30T15:25:56Z</time>
      </trkpt>
      <trkpt lat="45.93363" lon="4.71641">
        <ele>185</ele>
        <time>2016-11-30T15:25:57Z</time>
      </trkpt>
      <trkpt lat="45.93366" lon="4.71648">
        <ele>185</ele>
        <time>2016-11-30T15:25:58Z</time>
      </trkpt>
      <trkpt lat="45.93369" lon="4.71654">
        <ele>185</ele>
        <time>2016-11-30T15:25:59Z</time>
      </trkpt>
      <trkpt lat="45.93372" lon="4.71661">
        <ele>185</ele>
        <time>2016-11-30T15:26:00Z</time>
      </trkpt>
      <trkpt lat="45.93376" lon="4.71668">
        <ele>185</ele>
        <time>2016-11-30T15:26:01Z</time>
      </trkpt>
      <trkpt lat="45.93379" lon="4.71675">
        <ele>185</ele>
        <time>2016-11-30T15:26:02Z</time>
      </trkpt>
      <trkpt lat="45.93383" lon="4.71682">
        <ele>185</ele>
        <time>2016-11-30T15:26:03Z</time>
      </trkpt>
      <trkpt lat="45.93385" lon="4.7169">
        <ele>184</ele>
        <time>2016-11-30T15:26:04Z</time>
      </trkpt>
      <trkpt lat="45.93388" lon="4.71698">
        <ele>184</ele>
        <time>2016-11-30T15:26:05Z</time>
      </trkpt>
      <trkpt lat="45.93392" lon="4.71705">
        <ele>184</ele>
        <time>2016-11-30T15:26:06Z</time>
      </trkpt>
      <trkpt lat="45.93395" lon="4.71712">
        <ele>184</ele>
        <time>2016-11-30T15:26:07Z</time>
      </trkpt>
      <trkpt lat="45.93399" lon="4.71719">
        <ele>184</ele>
        <time>2016-11-30T15:26:08Z</time>
      </trkpt>
      <trkpt lat="45.93402" lon="4.71726">
        <ele>184</ele>
        <time>2016-11-30T15:26:09Z</time>
      </trkpt>
      <trkpt lat="45.93405" lon="4.71734">
        <ele>184</ele>
        <time>2016-11-30T15:26:10Z</time>
      </trkpt>
      <trkpt lat="45.93408" lon="4.71742">
        <ele>184</ele>
        <time>2016-11-30T15:26:11Z</time>
      </trkpt>
      <trkpt lat="45.93411" lon="4.71751">
        <ele>183</ele>
        <time>2016-11-30T15:26:12Z</time>
      </trkpt>
      <trkpt lat="45.93412" lon="4.71759">
        <ele>183</ele>
        <time>2016-11-30T15:26:13Z</time>
      </trkpt>
      <trkpt lat="45.93415" lon="4.71768">
        <ele>184</ele>
        <time>2016-11-30T15:26:14Z</time>
      </trkpt>
      <trkpt lat="45.9342" lon="4.71776">
        <ele>182</ele>
        <time>2016-11-30T15:26:15Z</time>
      </trkpt>
      <trkpt lat="45.93423" lon="4.71785">
        <ele>182</ele>
        <time>2016-11-30T15:26:16Z</time>
      </trkpt>
      <trkpt lat="45.93427" lon="4.71793">
        <ele>182</ele>
        <time>2016-11-30T15:26:17Z</time>
      </trkpt>
      <trkpt lat="45.93432" lon="4.718">
        <ele>182</ele>
        <time>2016-11-30T15:26:18Z</time>
      </trkpt>
      <trkpt lat="45.93435" lon="4.71808">
        <ele>182</ele>
        <time>2016-11-30T15:26:19Z</time>
      </trkpt>
      <trkpt lat="45.93438" lon="4.71816">
        <ele>182</ele>
        <time>2016-11-30T15:26:20Z</time>
      </trkpt>
      <trkpt lat="45.93441" lon="4.71824">
        <ele>182</ele>
        <time>2016-11-30T15:26:21Z</time>
      </trkpt>
      <trkpt lat="45.93446" lon="4.7183">
        <ele>182</ele>
        <time>2016-11-30T15:26:22Z</time>
      </trkpt>
      <trkpt lat="45.93451" lon="4.71837">
        <ele>181</ele>
        <time>2016-11-30T15:26:23Z</time>
      </trkpt>
      <trkpt lat="45.93456" lon="4.71844">
        <ele>181</ele>
        <time>2016-11-30T15:26:24Z</time>
      </trkpt>
      <trkpt lat="45.9346" lon="4.7185">
        <ele>181</ele>
        <time>2016-11-30T15:26:25Z</time>
      </trkpt>
      <trkpt lat="45.93465" lon="4.71856">
        <ele>180</ele>
        <time>2016-11-30T15:26:26Z</time>
      </trkpt>
      <trkpt lat="45.9347" lon="4.71859">
        <ele>180</ele>
        <time>2016-11-30T15:26:27Z</time>
      </trkpt>
      <trkpt lat="45.93474" lon="4.71863">
        <ele>180</ele>
        <time>2016-11-30T15:26:28Z</time>
      </trkpt>
      <trkpt lat="45.93478" lon="4.71865">
        <ele>180</ele>
        <time>2016-11-30T15:26:29Z</time>
      </trkpt>
      <trkpt lat="45.93483" lon="4.71867">
        <ele>180</ele>
        <time>2016-11-30T15:26:30Z</time>
      </trkpt>
      <trkpt lat="45.93488" lon="4.71866">
        <ele>180</ele>
        <time>2016-11-30T15:26:31Z</time>
      </trkpt>
      <trkpt lat="45.93495" lon="4.71865">
        <ele>180</ele>
        <time>2016-11-30T15:26:32Z</time>
      </trkpt>
      <trkpt lat="45.93502" lon="4.71866">
        <ele>179</ele>
        <time>2016-11-30T15:26:33Z</time>
      </trkpt>
      <trkpt lat="45.9351" lon="4.71867">
        <ele>179</ele>
        <time>2016-11-30T15:26:34Z</time>
      </trkpt>
      <trkpt lat="45.93516" lon="4.71869">
        <ele>179</ele>
        <time>2016-11-30T15:26:35Z</time>
      </trkpt>
      <trkpt lat="45.93522" lon="4.71869">
        <ele>179</ele>
        <time>2016-11-30T15:26:36Z</time>
      </trkpt>
      <trkpt lat="45.93529" lon="4.71869">
        <ele>179</ele>
        <time>2016-11-30T15:26:37Z</time>
      </trkpt>
      <trkpt lat="45.93535" lon="4.71867">
        <ele>179</ele>
        <time>2016-11-30T15:26:38Z</time>
      </trkpt>
      <trkpt lat="45.93542" lon="4.71866">
        <ele>179</ele>
        <time>2016-11-30T15:26:39Z</time>
      </trkpt>
      <trkpt lat="45.93549" lon="4.71863">
        <ele>179</ele>
        <time>2016-11-30T15:26:40Z</time>
      </trkpt>
      <trkpt lat="45.93557" lon="4.71861">
        <ele>179</ele>
        <time>2016-11-30T15:26:41Z</time>
      </trkpt>
      <trkpt lat="45.93564" lon="4.7186">
        <ele>179</ele>
        <time>2016-11-30T15:26:42Z</time>
      </trkpt>
      <trkpt lat="45.93571" lon="4.7186">
        <ele>179</ele>
        <time>2016-11-30T15:26:43Z</time>
      </trkpt>
      <trkpt lat="45.93578" lon="4.71859">
        <ele>179</ele>
        <time>2016-11-30T15:26:44Z</time>
      </trkpt>
      <trkpt lat="45.93585" lon="4.71857">
        <ele>179</ele>
        <time>2016-11-30T15:26:45Z</time>
      </trkpt>
      <trkpt lat="45.9359" lon="4.71854">
        <ele>179</ele>
        <time>2016-11-30T15:26:46Z</time>
      </trkpt>
      <trkpt lat="45.93594" lon="4.71851">
        <ele>179</ele>
        <time>2016-11-30T15:26:47Z</time>
      </trkpt>
      <trkpt lat="45.93599" lon="4.71846">
        <ele>179</ele>
        <time>2016-11-30T15:26:48Z</time>
      </trkpt>
      <trkpt lat="45.93602" lon="4.71843">
        <ele>179</ele>
        <time>2016-11-30T15:26:49Z</time>
      </trkpt>
      <trkpt lat="45.93608" lon="4.71834">
        <ele>178</ele>
        <time>2016-11-30T15:26:50Z</time>
      </trkpt>
      <trkpt lat="45.93615" lon="4.71827">
        <ele>179</ele>
        <time>2016-11-30T15:26:52Z</time>
      </trkpt>
      <trkpt lat="45.93618" lon="4.71822">
        <ele>179</ele>
        <time>2016-11-30T15:26:53Z</time>
      </trkpt>
      <trkpt lat="45.93624" lon="4.71817">
        <ele>179</ele>
        <time>2016-11-30T15:26:55Z</time>
      </trkpt>
      <trkpt lat="45.93628" lon="4.71815">
        <ele>179</ele>
        <time>2016-11-30T15:26:56Z</time>
      </trkpt>
      <trkpt lat="45.93633" lon="4.71811">
        <ele>179</ele>
        <time>2016-11-30T15:26:57Z</time>
      </trkpt>
      <trkpt lat="45.93639" lon="4.71808">
        <ele>179</ele>
        <time>2016-11-30T15:26:58Z</time>
      </trkpt>
      <trkpt lat="45.93646" lon="4.71804">
        <ele>179</ele>
        <time>2016-11-30T15:26:59Z</time>
      </trkpt>
      <trkpt lat="45.93652" lon="4.71801">
        <ele>179</ele>
        <time>2016-11-30T15:27:00Z</time>
      </trkpt>
      <trkpt lat="45.93658" lon="4.71798">
        <ele>179</ele>
        <time>2016-11-30T15:27:01Z</time>
      </trkpt>
      <trkpt lat="45.93665" lon="4.71793">
        <ele>179</ele>
        <time>2016-11-30T15:27:02Z</time>
      </trkpt>
      <trkpt lat="45.93671" lon="4.71789">
        <ele>177</ele>
        <time>2016-11-30T15:27:03Z</time>
      </trkpt>
      <trkpt lat="45.93677" lon="4.71787">
        <ele>177</ele>
        <time>2016-11-30T15:27:04Z</time>
      </trkpt>
      <trkpt lat="45.93683" lon="4.71785">
        <ele>177</ele>
        <time>2016-11-30T15:27:05Z</time>
      </trkpt>
      <trkpt lat="45.93689" lon="4.71784">
        <ele>177</ele>
        <time>2016-11-30T15:27:06Z</time>
      </trkpt>
      <trkpt lat="45.93694" lon="4.71782">
        <ele>177</ele>
        <time>2016-11-30T15:27:07Z</time>
      </trkpt>
      <trkpt lat="45.93713" lon="4.718">
        <ele>176</ele>
        <time>2016-11-30T15:27:12Z</time>
      </trkpt>
      <trkpt lat="45.93711" lon="4.71816">
        <ele>176</ele>
        <time>2016-11-30T15:27:14Z</time>
      </trkpt>
      <trkpt lat="45.93707" lon="4.71826">
        <ele>176</ele>
        <time>2016-11-30T15:27:16Z</time>
      </trkpt>
      <trkpt lat="45.93705" lon="4.71828">
        <ele>176</ele>
        <time>2016-11-30T15:27:17Z</time>
      </trkpt>
      <trkpt lat="45.93699" lon="4.71835">
        <ele>175</ele>
        <time>2016-11-30T15:27:25Z</time>
      </trkpt>
      <trkpt lat="45.93699" lon="4.71834">
        <ele>175</ele>
        <time>2016-11-30T15:27:26Z</time>
      </trkpt>
      <trkpt lat="45.93698" lon="4.71832">
        <ele>176</ele>
        <time>2016-11-30T15:27:29Z</time>
      </trkpt>
      <trkpt lat="45.93697" lon="4.71836">
        <ele>175</ele>
        <time>2016-11-30T15:27:33Z</time>
      </trkpt>
      <trkpt lat="45.93695" lon="4.71846">
        <ele>175</ele>
        <time>2016-11-30T15:27:37Z</time>
      </trkpt>
      <trkpt lat="45.93691" lon="4.71855">
        <ele>175</ele>
        <time>2016-11-30T15:27:40Z</time>
      </trkpt>
      <trkpt lat="45.93687" lon="4.71866">
        <ele>175</ele>
        <time>2016-11-30T15:27:43Z</time>
      </trkpt>
      <trkpt lat="45.93686" lon="4.71871">
        <ele>175</ele>
        <time>2016-11-30T15:27:44Z</time>
      </trkpt>
      <trkpt lat="45.93681" lon="4.71879">
        <ele>175</ele>
        <time>2016-11-30T15:27:46Z</time>
      </trkpt>
      <trkpt lat="45.93675" lon="4.71888">
        <ele>175</ele>
        <time>2016-11-30T15:27:48Z</time>
      </trkpt>
      <trkpt lat="45.93668" lon="4.71902">
        <ele>175</ele>
        <time>2016-11-30T15:27:51Z</time>
      </trkpt>
      <trkpt lat="45.93664" lon="4.71906">
        <ele>176</ele>
        <time>2016-11-30T15:27:52Z</time>
      </trkpt>
      <trkpt lat="45.93657" lon="4.71911">
        <ele>176</ele>
        <time>2016-11-30T15:27:55Z</time>
      </trkpt>
      <trkpt lat="45.93655" lon="4.71914">
        <ele>176</ele>
        <time>2016-11-30T15:28:02Z</time>
      </trkpt>
      <trkpt lat="45.93655" lon="4.71928">
        <ele>175</ele>
        <time>2016-11-30T15:28:08Z</time>
      </trkpt>
      <trkpt lat="45.93649" lon="4.7195">
        <ele>175</ele>
        <time>2016-11-30T15:28:13Z</time>
      </trkpt>
      <trkpt lat="45.93652" lon="4.71961">
        <ele>175</ele>
        <time>2016-11-30T15:28:16Z</time>
      </trkpt>
      <trkpt lat="45.93643" lon="4.71963">
        <ele>175</ele>
        <time>2016-11-30T15:28:17Z</time>
      </trkpt>
      <trkpt lat="45.93622" lon="4.71988">
        <ele>176</ele>
        <time>2016-11-30T15:28:22Z</time>
      </trkpt>
      <trkpt lat="45.93603" lon="4.7201">
        <ele>175</ele>
        <time>2016-11-30T15:28:25Z</time>
      </trkpt>
      <trkpt lat="45.9358" lon="4.72041">
        <ele>177</ele>
        <time>2016-11-30T15:28:28Z</time>
      </trkpt>
      <trkpt lat="45.93579" lon="4.72048">
        <ele>176</ele>
        <time>2016-11-30T15:28:29Z</time>
      </trkpt>
      <trkpt lat="45.9358" lon="4.72065">
        <ele>176</ele>
        <time>2016-11-30T15:28:31Z</time>
      </trkpt>
      <trkpt lat="45.93581" lon="4.72075">
        <ele>176</ele>
        <time>2016-11-30T15:28:32Z</time>
      </trkpt>
      <trkpt lat="45.93582" lon="4.72082">
        <ele>176</ele>
        <time>2016-11-30T15:28:33Z</time>
      </trkpt>
      <trkpt lat="45.93583" lon="4.7209">
        <ele>176</ele>
        <time>2016-11-30T15:28:34Z</time>
      </trkpt>
      <trkpt lat="45.93582" lon="4.72096">
        <ele>175</ele>
        <time>2016-11-30T15:28:35Z</time>
      </trkpt>
      <trkpt lat="45.93582" lon="4.72107">
        <ele>175</ele>
        <time>2016-11-30T15:28:38Z</time>
      </trkpt>
      <trkpt lat="45.93579" lon="4.72109">
        <ele>175</ele>
        <time>2016-11-30T15:28:39Z</time>
      </trkpt>
      <trkpt lat="45.93577" lon="4.72114">
        <ele>175</ele>
        <time>2016-11-30T15:28:40Z</time>
      </trkpt>
      <trkpt lat="45.93572" lon="4.72126">
        <ele>174</ele>
        <time>2016-11-30T15:28:42Z</time>
      </trkpt>
      <trkpt lat="45.9357" lon="4.72133">
        <ele>174</ele>
        <time>2016-11-30T15:28:43Z</time>
      </trkpt>
      <trkpt lat="45.93571" lon="4.72141">
        <ele>174</ele>
        <time>2016-11-30T15:28:44Z</time>
      </trkpt>
      <trkpt lat="45.9357" lon="4.72148">
        <ele>174</ele>
        <time>2016-11-30T15:28:45Z</time>
      </trkpt>
      <trkpt lat="45.93567" lon="4.72164">
        <ele>174</ele>
        <time>2016-11-30T15:28:47Z</time>
      </trkpt>
      <trkpt lat="45.93562" lon="4.72177">
        <ele>173</ele>
        <time>2016-11-30T15:28:49Z</time>
      </trkpt>
      <trkpt lat="45.93559" lon="4.72183">
        <ele>173</ele>
        <time>2016-11-30T15:28:50Z</time>
      </trkpt>
      <trkpt lat="45.93556" lon="4.72188">
        <ele>173</ele>
        <time>2016-11-30T15:28:51Z</time>
      </trkpt>
      <trkpt lat="45.93554" lon="4.72195">
        <ele>173</ele>
        <time>2016-11-30T15:28:52Z</time>
      </trkpt>
      <trkpt lat="45.93552" lon="4.72201">
        <ele>173</ele>
        <time>2016-11-30T15:28:53Z</time>
      </trkpt>
      <trkpt lat="45.93548" lon="4.72212">
        <ele>173</ele>
        <time>2016-11-30T15:28:55Z</time>
      </trkpt>
      <trkpt lat="45.93547" lon="4.72218">
        <ele>172</ele>
        <time>2016-11-30T15:28:56Z</time>
      </trkpt>
      <trkpt lat="45.93541" lon="4.72229">
        <ele>172</ele>
        <time>2016-11-30T15:28:58Z</time>
      </trkpt>
      <trkpt lat="45.93539" lon="4.72236">
        <ele>172</ele>
        <time>2016-11-30T15:28:59Z</time>
      </trkpt>
      <trkpt lat="45.93537" lon="4.72243">
        <ele>172</ele>
        <time>2016-11-30T15:29:00Z</time>
      </trkpt>
      <trkpt lat="45.93533" lon="4.72254">
        <ele>172</ele>
        <time>2016-11-30T15:29:02Z</time>
      </trkpt>
      <trkpt lat="45.93531" lon="4.72261">
        <ele>172</ele>
        <time>2016-11-30T15:29:03Z</time>
      </trkpt>
      <trkpt lat="45.93527" lon="4.72267">
        <ele>172</ele>
        <time>2016-11-30T15:29:04Z</time>
      </trkpt>
      <trkpt lat="45.93524" lon="4.72273">
        <ele>172</ele>
        <time>2016-11-30T15:29:05Z</time>
      </trkpt>
      <trkpt lat="45.9352" lon="4.72279">
        <ele>172</ele>
        <time>2016-11-30T15:29:06Z</time>
      </trkpt>
      <trkpt lat="45.93518" lon="4.72287">
        <ele>172</ele>
        <time>2016-11-30T15:29:07Z</time>
      </trkpt>
      <trkpt lat="45.93515" lon="4.72294">
        <ele>172</ele>
        <time>2016-11-30T15:29:08Z</time>
      </trkpt>
      <trkpt lat="45.93512" lon="4.72299">
        <ele>172</ele>
        <time>2016-11-30T15:29:09Z</time>
      </trkpt>
      <trkpt lat="45.93508" lon="4.72305">
        <ele>173</ele>
        <time>2016-11-30T15:29:10Z</time>
      </trkpt>
      <trkpt lat="45.93504" lon="4.72312">
        <ele>173</ele>
        <time>2016-11-30T15:29:11Z</time>
      </trkpt>
      <trkpt lat="45.93499" lon="4.72318">
        <ele>173</ele>
        <time>2016-11-30T15:29:12Z</time>
      </trkpt>
      <trkpt lat="45.93495" lon="4.72324">
        <ele>173</ele>
        <time>2016-11-30T15:29:13Z</time>
      </trkpt>
      <trkpt lat="45.9349" lon="4.72331">
        <ele>173</ele>
        <time>2016-11-30T15:29:14Z</time>
      </trkpt>
      <trkpt lat="45.93485" lon="4.72337">
        <ele>173</ele>
        <time>2016-11-30T15:29:15Z</time>
      </trkpt>
      <trkpt lat="45.93481" lon="4.72343">
        <ele>173</ele>
        <time>2016-11-30T15:29:16Z</time>
      </trkpt>
      <trkpt lat="45.93476" lon="4.7235">
        <ele>173</ele>
        <time>2016-11-30T15:29:17Z</time>
      </trkpt>
      <trkpt lat="45.93472" lon="4.72357">
        <ele>173</ele>
        <time>2016-11-30T15:29:18Z</time>
      </trkpt>
      <trkpt lat="45.93467" lon="4.72363">
        <ele>173</ele>
        <time>2016-11-30T15:29:19Z</time>
      </trkpt>
      <trkpt lat="45.93461" lon="4.72369">
        <ele>173</ele>
        <time>2016-11-30T15:29:20Z</time>
      </trkpt>
      <trkpt lat="45.93457" lon="4.72375">
        <ele>173</ele>
        <time>2016-11-30T15:29:21Z</time>
      </trkpt>
      <trkpt lat="45.93452" lon="4.72383">
        <ele>173</ele>
        <time>2016-11-30T15:29:22Z</time>
      </trkpt>
      <trkpt lat="45.93449" lon="4.72389">
        <ele>173</ele>
        <time>2016-11-30T15:29:23Z</time>
      </trkpt>
      <trkpt lat="45.93445" lon="4.72397">
        <ele>173</ele>
        <time>2016-11-30T15:29:24Z</time>
      </trkpt>
      <trkpt lat="45.9344" lon="4.724">
        <ele>173</ele>
        <time>2016-11-30T15:29:25Z</time>
      </trkpt>
      <trkpt lat="45.93435" lon="4.72402">
        <ele>174</ele>
        <time>2016-11-30T15:29:26Z</time>
      </trkpt>
      <trkpt lat="45.93429" lon="4.72402">
        <ele>174</ele>
        <time>2016-11-30T15:29:27Z</time>
      </trkpt>
      <trkpt lat="45.93424" lon="4.72404">
        <ele>174</ele>
        <time>2016-11-30T15:29:28Z</time>
      </trkpt>
      <trkpt lat="45.93418" lon="4.72403">
        <ele>174</ele>
        <time>2016-11-30T15:29:29Z</time>
      </trkpt>
      <trkpt lat="45.93412" lon="4.72405">
        <ele>174</ele>
        <time>2016-11-30T15:29:31Z</time>
      </trkpt>
      <trkpt lat="45.93408" lon="4.72407">
        <ele>174</ele>
        <time>2016-11-30T15:29:32Z</time>
      </trkpt>
    </trkseg>
  </trk>
</gpx>